<?xml version='1.0' encoding='UTF-8'?><gpx version="1.1" creator="JPX - https://github.com/jenetics/jpx" xmlns="http://www.topografix.com/GPX/1/1"><trk><trkseg><trkpt lat="43.57919" lon="11.9923833"><ele>497.0</ele><time>2026-04-25T09:00:16.403Z</time></trkpt><trkpt lat="43.5789114" lon="11.9916738"><ele>498.3333333333333</ele><time>2026-04-25T09:00:18.42Z</time></trkpt><trkpt lat="43.5789016" lon="11.9915415"><ele>499.66666666666663</ele><time>2026-04-25T09:00:19.416Z</time></trkpt><trkpt lat="43.5789327" lon="11.9914133"><ele>501.0</ele><time>2026-04-25T09:00:20.417Z</time></trkpt><trkpt lat="43.5789439" lon="11.9913229"><ele>502.33333333333337</ele><time>2026-04-25T09:00:21.418Z</time></trkpt><trkpt lat="43.5789491" lon="11.9912201"><ele>503.6666666666667</ele><time>2026-04-25T09:00:22.412Z</time></trkpt><trkpt lat="43.5789239" lon="11.9911286"><ele>505.0</ele><time>2026-04-25T09:00:25.416Z</time></trkpt><trkpt lat="43.5788839" lon="11.9912074"><ele>505.0</ele><time>2026-04-25T09:00:43.932Z</time></trkpt><trkpt lat="43.5789028" lon="11.9912935"><ele>504.99999999999994</ele><time>2026-04-25T09:00:59.863Z</time></trkpt><trkpt lat="43.578954" lon="11.9913612"><ele>505.0</ele><time>2026-04-25T09:01:08.924Z</time></trkpt><trkpt lat="43.5789956" lon="11.9914267"><ele>505.0</ele><time>2026-04-25T09:01:16.885Z</time></trkpt><trkpt lat="43.5790216" lon="11.9915098"><ele>504.99999999999994</ele><time>2026-04-25T09:01:24.912Z</time></trkpt><trkpt lat="43.5790503" lon="11.9915969"><ele>505.0</ele><time>2026-04-25T09:01:36.913Z</time></trkpt><trkpt lat="43.5790861" lon="11.9916907"><ele>505.0</ele><time>2026-04-25T09:01:45.903Z</time></trkpt><trkpt lat="43.5791086" lon="11.9917729"><ele>503.85714285714283</ele><time>2026-04-25T09:01:51.93Z</time></trkpt><trkpt lat="43.5791268" lon="11.9918617"><ele>502.71428571428567</ele><time>2026-04-25T09:01:58.936Z</time></trkpt><trkpt lat="43.5791377" lon="11.9919591"><ele>501.57142857142856</ele><time>2026-04-25T09:02:06.928Z</time></trkpt><trkpt lat="43.5791266" lon="11.9920449"><ele>500.42857142857144</ele><time>2026-04-25T09:02:13.933Z</time></trkpt><trkpt lat="43.5791028" lon="11.9921292"><ele>499.2857142857143</ele><time>2026-04-25T09:02:20.928Z</time></trkpt><trkpt lat="43.5790932" lon="11.9922236"><ele>498.1428571428571</ele><time>2026-04-25T09:02:28.933Z</time></trkpt><trkpt lat="43.5791393" lon="11.9922919"><ele>497.0</ele><time>2026-04-25T09:02:34.953Z</time></trkpt><trkpt lat="43.5791993" lon="11.9923354"><ele>497.0</ele><time>2026-04-25T09:02:40.865Z</time></trkpt><trkpt lat="43.5792518" lon="11.9924017"><ele>497.0</ele><time>2026-04-25T09:02:48.942Z</time></trkpt><trkpt lat="43.5792874" lon="11.9924863"><ele>497.0</ele><time>2026-04-25T09:02:55.946Z</time></trkpt><trkpt lat="43.5793144" lon="11.992575"><ele>497.0</ele><time>2026-04-25T09:03:01.946Z</time></trkpt><trkpt lat="43.5793478" lon="11.9926514"><ele>497.0</ele><time>2026-04-25T09:03:06.944Z</time></trkpt><trkpt lat="43.5793918" lon="11.9927253"><ele>497.0</ele><time>2026-04-25T09:03:13.944Z</time></trkpt><trkpt lat="43.5794375" lon="11.9927994"><ele>497.0</ele><time>2026-04-25T09:03:21.944Z</time></trkpt><trkpt lat="43.5794549" lon="11.9929026"><ele>495.42857142857144</ele><time>2026-04-25T09:03:27.944Z</time></trkpt><trkpt lat="43.5794304" lon="11.9930045"><ele>493.8571428571429</ele><time>2026-04-25T09:03:33.944Z</time></trkpt><trkpt lat="43.5793792" lon="11.9930709"><ele>492.2857142857143</ele><time>2026-04-25T09:03:39.932Z</time></trkpt><trkpt lat="43.5793221" lon="11.9931283"><ele>490.7142857142857</ele><time>2026-04-25T09:03:45.935Z</time></trkpt><trkpt lat="43.579254" lon="11.9931651"><ele>489.14285714285717</ele><time>2026-04-25T09:03:52.883Z</time></trkpt><trkpt lat="43.5791981" lon="11.9932079"><ele>487.57142857142856</ele><time>2026-04-25T09:03:58.943Z</time></trkpt><trkpt lat="43.5791502" lon="11.9932698"><ele>486.0</ele><time>2026-04-25T09:04:05.954Z</time></trkpt><trkpt lat="43.5790942" lon="11.9933259"><ele>485.0</ele><time>2026-04-25T09:04:13.948Z</time></trkpt><trkpt lat="43.5790343" lon="11.99336"><ele>484.0</ele><time>2026-04-25T09:04:20.942Z</time></trkpt><trkpt lat="43.5789748" lon="11.9934181"><ele>483.0</ele><time>2026-04-25T09:04:27.94Z</time></trkpt><trkpt lat="43.5789183" lon="11.9934771"><ele>482.0</ele><time>2026-04-25T09:04:33.939Z</time></trkpt><trkpt lat="43.5788856" lon="11.9935534"><ele>481.0</ele><time>2026-04-25T09:04:40.552Z</time></trkpt><trkpt lat="43.5788663" lon="11.9936438"><ele>480.0</ele><time>2026-04-25T09:04:54.913Z</time></trkpt><trkpt lat="43.5788619" lon="11.9937375"><ele>479.0</ele><time>2026-04-25T09:05:03.881Z</time></trkpt><trkpt lat="43.5788095" lon="11.9937895"><ele>479.0</ele><time>2026-04-25T09:05:15.91Z</time></trkpt><trkpt lat="43.5787422" lon="11.9938096"><ele>479.0</ele><time>2026-04-25T09:05:36.912Z</time></trkpt><trkpt lat="43.5786965" lon="11.9938779"><ele>479.0</ele><time>2026-04-25T09:05:46.914Z</time></trkpt><trkpt lat="43.578645" lon="11.9939358"><ele>479.0</ele><time>2026-04-25T09:05:54.363Z</time></trkpt><trkpt lat="43.5785784" lon="11.993948"><ele>479.0</ele><time>2026-04-25T09:06:03.91Z</time></trkpt><trkpt lat="43.578508" lon="11.9939736"><ele>479.0</ele><time>2026-04-25T09:06:10.916Z</time></trkpt><trkpt lat="43.5784558" lon="11.9940385"><ele>479.0</ele><time>2026-04-25T09:06:16.913Z</time></trkpt><trkpt lat="43.5784016" lon="11.9940877"><ele>477.99999999999994</ele><time>2026-04-25T09:06:22.908Z</time></trkpt><trkpt lat="43.5783485" lon="11.9941466"><ele>477.0</ele><time>2026-04-25T09:06:31.907Z</time></trkpt><trkpt lat="43.5783054" lon="11.9942152"><ele>476.0</ele><time>2026-04-25T09:06:38.843Z</time></trkpt><trkpt lat="43.5782869" lon="11.9943133"><ele>475.0</ele><time>2026-04-25T09:06:45.923Z</time></trkpt><trkpt lat="43.5783079" lon="11.9944028"><ele>473.99999999999994</ele><time>2026-04-25T09:06:52.908Z</time></trkpt><trkpt lat="43.5783222" lon="11.9944953"><ele>473.0</ele><time>2026-04-25T09:07:00.907Z</time></trkpt><trkpt lat="43.5783605" lon="11.994648"><ele>472.42857142857144</ele><time>2026-04-25T09:07:28.91Z</time></trkpt><trkpt lat="43.5783773" lon="11.994735"><ele>471.85714285714283</ele><time>2026-04-25T09:07:35.909Z</time></trkpt><trkpt lat="43.5784047" lon="11.9948172"><ele>471.2857142857143</ele><time>2026-04-25T09:07:42.907Z</time></trkpt><trkpt lat="43.5784261" lon="11.9948993"><ele>470.7142857142857</ele><time>2026-04-25T09:07:48.905Z</time></trkpt><trkpt lat="43.5784451" lon="11.9949876"><ele>470.1428571428571</ele><time>2026-04-25T09:07:56.912Z</time></trkpt><trkpt lat="43.578454" lon="11.9950776"><ele>469.57142857142856</ele><time>2026-04-25T09:08:04.92Z</time></trkpt><trkpt lat="43.5784574" lon="11.9951693"><ele>469.0</ele><time>2026-04-25T09:08:11.916Z</time></trkpt><trkpt lat="43.5784715" lon="11.9952638"><ele>468.42857142857144</ele><time>2026-04-25T09:08:17.928Z</time></trkpt><trkpt lat="43.5785009" lon="11.9953443"><ele>467.8571428571429</ele><time>2026-04-25T09:08:24.934Z</time></trkpt><trkpt lat="43.5785401" lon="11.9954288"><ele>467.2857142857143</ele><time>2026-04-25T09:08:30.929Z</time></trkpt><trkpt lat="43.5785757" lon="11.9955096"><ele>466.7142857142857</ele><time>2026-04-25T09:08:36.925Z</time></trkpt><trkpt lat="43.578602" lon="11.9956029"><ele>466.14285714285717</ele><time>2026-04-25T09:08:42.942Z</time></trkpt><trkpt lat="43.5786213" lon="11.9956903"><ele>465.57142857142856</ele><time>2026-04-25T09:08:50.943Z</time></trkpt><trkpt lat="43.5786245" lon="11.9957878"><ele>465.0</ele><time>2026-04-25T09:08:56.864Z</time></trkpt><trkpt lat="43.5786368" lon="11.9958799"><ele>464.85714285714283</ele><time>2026-04-25T09:09:03.941Z</time></trkpt><trkpt lat="43.5786718" lon="11.9959566"><ele>464.7142857142858</ele><time>2026-04-25T09:09:10.941Z</time></trkpt><trkpt lat="43.5786915" lon="11.9960479"><ele>464.5714285714286</ele><time>2026-04-25T09:09:17.934Z</time></trkpt><trkpt lat="43.5787276" lon="11.9961324"><ele>464.42857142857144</ele><time>2026-04-25T09:09:25.947Z</time></trkpt><trkpt lat="43.5787275" lon="11.996227"><ele>464.28571428571433</ele><time>2026-04-25T09:09:32.938Z</time></trkpt><trkpt lat="43.5787229" lon="11.9963243"><ele>464.1428571428572</ele><time>2026-04-25T09:09:39.938Z</time></trkpt><trkpt lat="43.5787262" lon="11.9964181"><ele>464.00000000000006</ele><time>2026-04-25T09:09:46.943Z</time></trkpt><trkpt lat="43.5787241" lon="11.9965187"><ele>464.00000000000006</ele><time>2026-04-25T09:09:52.941Z</time></trkpt><trkpt lat="43.5787236" lon="11.996629"><ele>464.0</ele><time>2026-04-25T09:09:58.843Z</time></trkpt><trkpt lat="43.5787322" lon="11.9967256"><ele>464.00000000000006</ele><time>2026-04-25T09:10:03.925Z</time></trkpt><trkpt lat="43.5787517" lon="11.9968164"><ele>464.00000000000006</ele><time>2026-04-25T09:10:10.928Z</time></trkpt><trkpt lat="43.5787769" lon="11.9969055"><ele>464.0</ele><time>2026-04-25T09:10:16.892Z</time></trkpt><trkpt lat="43.5788014" lon="11.9969862"><ele>464.00000000000006</ele><time>2026-04-25T09:10:24.93Z</time></trkpt><trkpt lat="43.5788185" lon="11.9970733"><ele>464.00000000000006</ele><time>2026-04-25T09:10:30.926Z</time></trkpt><trkpt lat="43.5788492" lon="11.9971528"><ele>463.28571428571433</ele><time>2026-04-25T09:10:38.929Z</time></trkpt><trkpt lat="43.5788546" lon="11.9972428"><ele>462.57142857142856</ele><time>2026-04-25T09:10:45.928Z</time></trkpt><trkpt lat="43.5788288" lon="11.9973228"><ele>461.8571428571429</ele><time>2026-04-25T09:10:54.905Z</time></trkpt><trkpt lat="43.5788162" lon="11.9974176"><ele>461.14285714285717</ele><time>2026-04-25T09:11:08.911Z</time></trkpt><trkpt lat="43.5787841" lon="11.9975049"><ele>460.42857142857144</ele><time>2026-04-25T09:11:15.884Z</time></trkpt><trkpt lat="43.5787472" lon="11.9975814"><ele>459.7142857142857</ele><time>2026-04-25T09:11:23.915Z</time></trkpt><trkpt lat="43.5788152" lon="11.9975185"><ele>459.0</ele><time>2026-04-25T09:12:46.927Z</time></trkpt><trkpt lat="43.5788461" lon="11.9974427"><ele>459.0</ele><time>2026-04-25T09:12:56.94Z</time></trkpt><trkpt lat="43.5789326" lon="11.9974769"><ele>459.0</ele><time>2026-04-25T09:13:24.942Z</time></trkpt><trkpt lat="43.5789378" lon="11.9975673"><ele>459.0</ele><time>2026-04-25T09:13:35.94Z</time></trkpt><trkpt lat="43.57897" lon="11.9976489"><ele>459.0</ele><time>2026-04-25T09:13:50.924Z</time></trkpt><trkpt lat="43.5790065" lon="11.9977279"><ele>459.0</ele><time>2026-04-25T09:14:00.924Z</time></trkpt><trkpt lat="43.5790389" lon="11.9978098"><ele>459.0</ele><time>2026-04-25T09:14:10.94Z</time></trkpt><trkpt lat="43.579093" lon="11.9978684"><ele>459.0</ele><time>2026-04-25T09:14:21.924Z</time></trkpt><trkpt lat="43.5791547" lon="11.9979226"><ele>459.0</ele><time>2026-04-25T09:14:29.943Z</time></trkpt><trkpt lat="43.5792165" lon="11.9979636"><ele>459.0</ele><time>2026-04-25T09:14:35.938Z</time></trkpt><trkpt lat="43.5792752" lon="11.9980013"><ele>459.0</ele><time>2026-04-25T09:14:41.926Z</time></trkpt><trkpt lat="43.5793203" lon="11.9980753"><ele>459.0</ele><time>2026-04-25T09:14:50.942Z</time></trkpt><trkpt lat="43.5793805" lon="11.9981023"><ele>459.0</ele><time>2026-04-25T09:14:58.941Z</time></trkpt><trkpt lat="43.5794196" lon="11.9981759"><ele>459.0</ele><time>2026-04-25T09:15:07.96Z</time></trkpt><trkpt lat="43.5794718" lon="11.9982246"><ele>459.0</ele><time>2026-04-25T09:15:14.938Z</time></trkpt><trkpt lat="43.5795278" lon="11.9982656"><ele>459.42857142857144</ele><time>2026-04-25T09:15:20.939Z</time></trkpt><trkpt lat="43.5795714" lon="11.9983394"><ele>459.85714285714283</ele><time>2026-04-25T09:15:26.945Z</time></trkpt><trkpt lat="43.5796075" lon="11.9984221"><ele>460.2857142857143</ele><time>2026-04-25T09:15:33.937Z</time></trkpt><trkpt lat="43.5796035" lon="11.9985129"><ele>460.7142857142857</ele><time>2026-04-25T09:15:38.926Z</time></trkpt><trkpt lat="43.5795879" lon="11.9985999"><ele>461.1428571428571</ele><time>2026-04-25T09:15:43.965Z</time></trkpt><trkpt lat="43.5795549" lon="11.9986899"><ele>461.57142857142856</ele><time>2026-04-25T09:15:48.935Z</time></trkpt><trkpt lat="43.5795221" lon="11.9987723"><ele>462.0</ele><time>2026-04-25T09:15:53.941Z</time></trkpt><trkpt lat="43.5794878" lon="11.9988569"><ele>461.0</ele><time>2026-04-25T09:15:58.922Z</time></trkpt><trkpt lat="43.5794577" lon="11.9989446"><ele>460.0</ele><time>2026-04-25T09:16:03.944Z</time></trkpt><trkpt lat="43.5794134" lon="11.9990323"><ele>459.0</ele><time>2026-04-25T09:16:07.946Z</time></trkpt><trkpt lat="43.5793657" lon="11.9990916"><ele>458.0</ele><time>2026-04-25T09:16:12.944Z</time></trkpt><trkpt lat="43.5792983" lon="11.999119"><ele>457.0</ele><time>2026-04-25T09:16:18.938Z</time></trkpt><trkpt lat="43.5792323" lon="11.9991468"><ele>456.0</ele><time>2026-04-25T09:16:26.938Z</time></trkpt><trkpt lat="43.5791599" lon="11.9991686"><ele>455.0</ele><time>2026-04-25T09:16:37.961Z</time></trkpt><trkpt lat="43.5790927" lon="11.9991925"><ele>454.7142857142857</ele><time>2026-04-25T09:16:44.942Z</time></trkpt><trkpt lat="43.5790443" lon="11.9992573"><ele>454.42857142857144</ele><time>2026-04-25T09:16:54.942Z</time></trkpt><trkpt lat="43.5789971" lon="11.9993267"><ele>454.1428571428571</ele><time>2026-04-25T09:17:05.944Z</time></trkpt><trkpt lat="43.5789642" lon="11.9994072"><ele>453.85714285714283</ele><time>2026-04-25T09:17:13.959Z</time></trkpt><trkpt lat="43.5789861" lon="11.9995007"><ele>453.57142857142856</ele><time>2026-04-25T09:17:32.926Z</time></trkpt><trkpt lat="43.5789936" lon="11.9995878"><ele>453.2857142857142</ele><time>2026-04-25T09:17:43.957Z</time></trkpt><trkpt lat="43.5790372" lon="11.999652"><ele>452.99999999999994</ele><time>2026-04-25T09:18:07.943Z</time></trkpt><trkpt lat="43.5790771" lon="11.9997222"><ele>452.99999999999994</ele><time>2026-04-25T09:18:11.928Z</time></trkpt><trkpt lat="43.5791063" lon="11.9998135"><ele>453.0</ele><time>2026-04-25T09:18:17.945Z</time></trkpt><trkpt lat="43.5791393" lon="11.9998921"><ele>452.99999999999994</ele><time>2026-04-25T09:18:23.941Z</time></trkpt><trkpt lat="43.5791796" lon="11.9999641"><ele>452.99999999999994</ele><time>2026-04-25T09:18:31.883Z</time></trkpt><trkpt lat="43.5792272" lon="12.0000215"><ele>453.0</ele><time>2026-04-25T09:18:40.944Z</time></trkpt><trkpt lat="43.5792752" lon="12.0000839"><ele>452.99999999999994</ele><time>2026-04-25T09:18:46.945Z</time></trkpt><trkpt lat="43.5793146" lon="12.0001608"><ele>452.99999999999994</ele><time>2026-04-25T09:18:53.942Z</time></trkpt><trkpt lat="43.5793674" lon="12.0002272"><ele>452.99999999999994</ele><time>2026-04-25T09:19:02.938Z</time></trkpt><trkpt lat="43.5794123" lon="12.0002885"><ele>453.0</ele><time>2026-04-25T09:19:09.936Z</time></trkpt><trkpt lat="43.5794697" lon="12.0003518"><ele>452.99999999999994</ele><time>2026-04-25T09:19:15.941Z</time></trkpt><trkpt lat="43.5795169" lon="12.0004226"><ele>452.99999999999994</ele><time>2026-04-25T09:19:22.94Z</time></trkpt><trkpt lat="43.5795782" lon="12.0004799"><ele>453.0</ele><time>2026-04-25T09:19:49.967Z</time></trkpt><trkpt lat="43.5796102" lon="12.0005589"><ele>452.99999999999994</ele><time>2026-04-25T09:19:56.005Z</time></trkpt><trkpt lat="43.5796711" lon="12.0006172"><ele>452.99999999999994</ele><time>2026-04-25T09:22:04.944Z</time></trkpt><trkpt lat="43.5797327" lon="12.0006533"><ele>452.8571428571428</ele><time>2026-04-25T09:22:09.925Z</time></trkpt><trkpt lat="43.579794" lon="12.0006973"><ele>452.71428571428567</ele><time>2026-04-25T09:22:16.926Z</time></trkpt><trkpt lat="43.5798555" lon="12.0007332"><ele>452.57142857142856</ele><time>2026-04-25T09:22:23.929Z</time></trkpt><trkpt lat="43.5799164" lon="12.0007698"><ele>452.4285714285714</ele><time>2026-04-25T09:22:34.945Z</time></trkpt><trkpt lat="43.5799455" lon="12.000892"><ele>452.2857142857142</ele><time>2026-04-25T09:23:02.943Z</time></trkpt><trkpt lat="43.5799373" lon="12.0009902"><ele>452.14285714285717</ele><time>2026-04-25T09:23:07.946Z</time></trkpt><trkpt lat="43.5799402" lon="12.0010787"><ele>452.0</ele><time>2026-04-25T09:23:12.942Z</time></trkpt><trkpt lat="43.5799381" lon="12.0011676"><ele>452.0</ele><time>2026-04-25T09:23:19.959Z</time></trkpt><trkpt lat="43.5799553" lon="12.0012531"><ele>452.0</ele><time>2026-04-25T09:23:27.925Z</time></trkpt><trkpt lat="43.5800053" lon="12.0013232"><ele>452.0</ele><time>2026-04-25T09:23:37.959Z</time></trkpt><trkpt lat="43.5800218" lon="12.0014235"><ele>452.0</ele><time>2026-04-25T09:23:45.941Z</time></trkpt><trkpt lat="43.5800216" lon="12.0015161"><ele>452.0</ele><time>2026-04-25T09:23:51.887Z</time></trkpt><trkpt lat="43.5800028" lon="12.0016038"><ele>452.0</ele><time>2026-04-25T09:24:00.942Z</time></trkpt><trkpt lat="43.5799514" lon="12.0016637"><ele>452.0</ele><time>2026-04-25T09:24:06.942Z</time></trkpt><trkpt lat="43.5799175" lon="12.0017529"><ele>451.7142857142857</ele><time>2026-04-25T09:24:12.944Z</time></trkpt><trkpt lat="43.5799" lon="12.0018413"><ele>451.42857142857144</ele><time>2026-04-25T09:24:17.925Z</time></trkpt><trkpt lat="43.5798621" lon="12.001913"><ele>451.14285714285717</ele><time>2026-04-25T09:24:22.939Z</time></trkpt><trkpt lat="43.5798256" lon="12.0019942"><ele>450.8571428571429</ele><time>2026-04-25T09:24:27.941Z</time></trkpt><trkpt lat="43.5798022" lon="12.0020766"><ele>450.57142857142856</ele><time>2026-04-25T09:24:32.926Z</time></trkpt><trkpt lat="43.5797903" lon="12.0021654"><ele>450.28571428571433</ele><time>2026-04-25T09:24:37.963Z</time></trkpt><trkpt lat="43.5797727" lon="12.0022548"><ele>450.00000000000006</ele><time>2026-04-25T09:24:45.927Z</time></trkpt><trkpt lat="43.5797525" lon="12.0023416"><ele>450.00000000000006</ele><time>2026-04-25T09:24:51.935Z</time></trkpt><trkpt lat="43.5797228" lon="12.0024223"><ele>450.0</ele><time>2026-04-25T09:24:58.93Z</time></trkpt><trkpt lat="43.5796871" lon="12.0025094"><ele>450.00000000000006</ele><time>2026-04-25T09:25:04.941Z</time></trkpt><trkpt lat="43.5796521" lon="12.0025889"><ele>450.00000000000006</ele><time>2026-04-25T09:25:10.941Z</time></trkpt><trkpt lat="43.5796338" lon="12.002679"><ele>450.0</ele><time>2026-04-25T09:25:17.934Z</time></trkpt><trkpt lat="43.5795948" lon="12.0027604"><ele>450.00000000000006</ele><time>2026-04-25T09:25:26.935Z</time></trkpt><trkpt lat="43.5795574" lon="12.0028513"><ele>450.00000000000006</ele><time>2026-04-25T09:25:33.942Z</time></trkpt><trkpt lat="43.5795297" lon="12.0029384"><ele>449.28571428571433</ele><time>2026-04-25T09:25:37.961Z</time></trkpt><trkpt lat="43.5795023" lon="12.0030243"><ele>448.57142857142856</ele><time>2026-04-25T09:25:42.941Z</time></trkpt><trkpt lat="43.5794902" lon="12.0031191"><ele>447.8571428571429</ele><time>2026-04-25T09:25:50.935Z</time></trkpt><trkpt lat="43.579479" lon="12.0032088"><ele>447.14285714285717</ele><time>2026-04-25T09:25:55.947Z</time></trkpt><trkpt lat="43.5794772" lon="12.003318"><ele>446.42857142857144</ele><time>2026-04-25T09:26:03.94Z</time></trkpt><trkpt lat="43.5794652" lon="12.003407"><ele>445.7142857142857</ele><time>2026-04-25T09:26:09.939Z</time></trkpt><trkpt lat="43.5794314" lon="12.0034847"><ele>445.0</ele><time>2026-04-25T09:26:15.882Z</time></trkpt><trkpt lat="43.5793929" lon="12.0035726"><ele>444.8571428571429</ele><time>2026-04-25T09:26:22.93Z</time></trkpt><trkpt lat="43.5793552" lon="12.0036579"><ele>444.71428571428567</ele><time>2026-04-25T09:26:28.921Z</time></trkpt><trkpt lat="43.5793191" lon="12.0037308"><ele>444.57142857142856</ele><time>2026-04-25T09:26:33.943Z</time></trkpt><trkpt lat="43.5792904" lon="12.0038164"><ele>444.42857142857144</ele><time>2026-04-25T09:26:39.94Z</time></trkpt><trkpt lat="43.5792508" lon="12.0038888"><ele>444.28571428571433</ele><time>2026-04-25T09:26:49.98Z</time></trkpt><trkpt lat="43.5792067" lon="12.0039563"><ele>444.1428571428571</ele><time>2026-04-25T09:26:59.865Z</time></trkpt><trkpt lat="43.5791605" lon="12.0040332"><ele>444.0</ele><time>2026-04-25T09:27:04.929Z</time></trkpt><trkpt lat="43.5791265" lon="12.0041215"><ele>444.1428571428571</ele><time>2026-04-25T09:27:10.939Z</time></trkpt><trkpt lat="43.5791021" lon="12.004217"><ele>444.28571428571433</ele><time>2026-04-25T09:27:16.942Z</time></trkpt><trkpt lat="43.5790887" lon="12.0043033"><ele>444.42857142857144</ele><time>2026-04-25T09:27:22.939Z</time></trkpt><trkpt lat="43.5790668" lon="12.0043985"><ele>444.57142857142856</ele><time>2026-04-25T09:27:30.943Z</time></trkpt><trkpt lat="43.5790548" lon="12.0044995"><ele>444.71428571428567</ele><time>2026-04-25T09:27:37.959Z</time></trkpt><trkpt lat="43.5790488" lon="12.0045918"><ele>444.8571428571429</ele><time>2026-04-25T09:27:44.938Z</time></trkpt><trkpt lat="43.579037" lon="12.0046788"><ele>445.0</ele><time>2026-04-25T09:27:49.956Z</time></trkpt><trkpt lat="43.5790002" lon="12.0047722"><ele>445.0</ele><time>2026-04-25T09:27:56.939Z</time></trkpt><trkpt lat="43.5789578" lon="12.0048507"><ele>445.0</ele><time>2026-04-25T09:28:03.939Z</time></trkpt><trkpt lat="43.5789072" lon="12.004915"><ele>445.0</ele><time>2026-04-25T09:28:10.943Z</time></trkpt><trkpt lat="43.5788558" lon="12.0049798"><ele>445.0</ele><time>2026-04-25T09:28:16.927Z</time></trkpt><trkpt lat="43.5787973" lon="12.0050366"><ele>445.0</ele><time>2026-04-25T09:28:21.941Z</time></trkpt><trkpt lat="43.5787549" lon="12.0051046"><ele>445.0</ele><time>2026-04-25T09:28:25.944Z</time></trkpt><trkpt lat="43.5787102" lon="12.0051972"><ele>445.0</ele><time>2026-04-25T09:28:30.927Z</time></trkpt><trkpt lat="43.5786662" lon="12.0052703"><ele>445.0</ele><time>2026-04-25T09:28:35.94Z</time></trkpt><trkpt lat="43.5786261" lon="12.0053557"><ele>445.0</ele><time>2026-04-25T09:28:40.863Z</time></trkpt><trkpt lat="43.5785824" lon="12.0054224"><ele>445.0</ele><time>2026-04-25T09:28:45.927Z</time></trkpt><trkpt lat="43.5785447" lon="12.0055096"><ele>445.0</ele><time>2026-04-25T09:28:51.925Z</time></trkpt><trkpt lat="43.5785001" lon="12.0055863"><ele>445.0</ele><time>2026-04-25T09:28:58.926Z</time></trkpt><trkpt lat="43.5784467" lon="12.0056609"><ele>445.0</ele><time>2026-04-25T09:29:04.928Z</time></trkpt><trkpt lat="43.5784134" lon="12.0057409"><ele>445.0</ele><time>2026-04-25T09:29:11.934Z</time></trkpt><trkpt lat="43.5784008" lon="12.0058372"><ele>444.42857142857144</ele><time>2026-04-25T09:29:18.922Z</time></trkpt><trkpt lat="43.5784156" lon="12.005922"><ele>443.85714285714283</ele><time>2026-04-25T09:29:23.944Z</time></trkpt><trkpt lat="43.5784204" lon="12.0060148"><ele>443.2857142857143</ele><time>2026-04-25T09:29:28.933Z</time></trkpt><trkpt lat="43.5784397" lon="12.0060988"><ele>442.7142857142857</ele><time>2026-04-25T09:29:33.933Z</time></trkpt><trkpt lat="43.5784633" lon="12.0061835"><ele>442.1428571428571</ele><time>2026-04-25T09:29:38.938Z</time></trkpt><trkpt lat="43.5784689" lon="12.0062721"><ele>441.57142857142856</ele><time>2026-04-25T09:29:44.944Z</time></trkpt><trkpt lat="43.5784431" lon="12.0063654"><ele>441.0</ele><time>2026-04-25T09:29:51.945Z</time></trkpt><trkpt lat="43.5784158" lon="12.0064453"><ele>441.0</ele><time>2026-04-25T09:29:58.948Z</time></trkpt><trkpt lat="43.578374" lon="12.0065213"><ele>441.0</ele><time>2026-04-25T09:30:04.942Z</time></trkpt><trkpt lat="43.5783093" lon="12.0065641"><ele>441.0</ele><time>2026-04-25T09:30:13.957Z</time></trkpt><trkpt lat="43.5782665" lon="12.0066394"><ele>441.0</ele><time>2026-04-25T09:30:21.923Z</time></trkpt><trkpt lat="43.578255" lon="12.0067255"><ele>441.0</ele><time>2026-04-25T09:30:30.926Z</time></trkpt><trkpt lat="43.5782537" lon="12.0068224"><ele>441.0</ele><time>2026-04-25T09:30:41.944Z</time></trkpt><trkpt lat="43.5782157" lon="12.0068921"><ele>441.0</ele><time>2026-04-25T09:31:00.944Z</time></trkpt><trkpt lat="43.5781935" lon="12.0069857"><ele>440.2857142857143</ele><time>2026-04-25T09:31:07.942Z</time></trkpt><trkpt lat="43.5781561" lon="12.0070647"><ele>439.57142857142856</ele><time>2026-04-25T09:31:14.925Z</time></trkpt><trkpt lat="43.5781293" lon="12.0071508"><ele>438.8571428571429</ele><time>2026-04-25T09:31:20.928Z</time></trkpt><trkpt lat="43.578101" lon="12.0072343"><ele>438.1428571428571</ele><time>2026-04-25T09:31:26.929Z</time></trkpt><trkpt lat="43.5780935" lon="12.0073226"><ele>437.42857142857144</ele><time>2026-04-25T09:31:35.844Z</time></trkpt><trkpt lat="43.5780514" lon="12.0073971"><ele>436.7142857142857</ele><time>2026-04-25T09:31:42.93Z</time></trkpt><trkpt lat="43.5780171" lon="12.0074713"><ele>436.0</ele><time>2026-04-25T09:31:49.944Z</time></trkpt><trkpt lat="43.5779836" lon="12.0075525"><ele>435.42857142857144</ele><time>2026-04-25T09:31:57.937Z</time></trkpt><trkpt lat="43.577952" lon="12.0076314"><ele>434.8571428571429</ele><time>2026-04-25T09:32:03.907Z</time></trkpt><trkpt lat="43.5779273" lon="12.0077232"><ele>434.2857142857143</ele><time>2026-04-25T09:32:08.928Z</time></trkpt><trkpt lat="43.5779154" lon="12.0078157"><ele>433.7142857142857</ele><time>2026-04-25T09:32:14.926Z</time></trkpt><trkpt lat="43.5779104" lon="12.0079195"><ele>433.1428571428571</ele><time>2026-04-25T09:32:20.92Z</time></trkpt><trkpt lat="43.5778999" lon="12.0080153"><ele>432.57142857142856</ele><time>2026-04-25T09:32:25.985Z</time></trkpt><trkpt lat="43.5779065" lon="12.0081226"><ele>432.0</ele><time>2026-04-25T09:32:30.924Z</time></trkpt><trkpt lat="43.577895" lon="12.0082127"><ele>432.0</ele><time>2026-04-25T09:32:35.938Z</time></trkpt><trkpt lat="43.5778825" lon="12.0083134"><ele>432.0</ele><time>2026-04-25T09:32:41.936Z</time></trkpt><trkpt lat="43.5778981" lon="12.0084001"><ele>432.0</ele><time>2026-04-25T09:32:46.925Z</time></trkpt><trkpt lat="43.577952" lon="12.0084475"><ele>432.0</ele><time>2026-04-25T09:32:53.929Z</time></trkpt><trkpt lat="43.5780025" lon="12.0085032"><ele>432.0</ele><time>2026-04-25T09:33:02.937Z</time></trkpt><trkpt lat="43.5780589" lon="12.0085595"><ele>432.0</ele><time>2026-04-25T09:33:10.941Z</time></trkpt><trkpt lat="43.5780957" lon="12.0086414"><ele>432.0</ele><time>2026-04-25T09:33:18.941Z</time></trkpt><trkpt lat="43.5780938" lon="12.008736"><ele>432.1428571428571</ele><time>2026-04-25T09:33:27.926Z</time></trkpt><trkpt lat="43.5780957" lon="12.008824"><ele>432.2857142857143</ele><time>2026-04-25T09:33:38.94Z</time></trkpt><trkpt lat="43.5780913" lon="12.0089135"><ele>432.42857142857144</ele><time>2026-04-25T09:33:44.907Z</time></trkpt><trkpt lat="43.5780801" lon="12.0090005"><ele>432.57142857142856</ele><time>2026-04-25T09:33:52.942Z</time></trkpt><trkpt lat="43.5780598" lon="12.0090852"><ele>432.7142857142857</ele><time>2026-04-25T09:34:00.864Z</time></trkpt><trkpt lat="43.5780266" lon="12.0091627"><ele>432.85714285714283</ele><time>2026-04-25T09:34:06.944Z</time></trkpt><trkpt lat="43.5779997" lon="12.009254"><ele>433.0</ele><time>2026-04-25T09:34:13.957Z</time></trkpt><trkpt lat="43.5779836" lon="12.0093387"><ele>432.57142857142856</ele><time>2026-04-25T09:34:19.938Z</time></trkpt><trkpt lat="43.577988" lon="12.0094376"><ele>432.1428571428571</ele><time>2026-04-25T09:34:26.927Z</time></trkpt><trkpt lat="43.5779952" lon="12.0095376"><ele>431.71428571428567</ele><time>2026-04-25T09:34:33.914Z</time></trkpt><trkpt lat="43.5780227" lon="12.009629"><ele>431.2857142857143</ele><time>2026-04-25T09:34:39.922Z</time></trkpt><trkpt lat="43.5780476" lon="12.009712"><ele>430.8571428571429</ele><time>2026-04-25T09:34:44.907Z</time></trkpt><trkpt lat="43.5780683" lon="12.0098023"><ele>430.4285714285714</ele><time>2026-04-25T09:34:49.925Z</time></trkpt><trkpt lat="43.5780228" lon="12.0098756"><ele>430.0</ele><time>2026-04-25T09:34:56.902Z</time></trkpt><trkpt lat="43.5780239" lon="12.009964"><ele>430.00000000000006</ele><time>2026-04-25T09:35:02.9Z</time></trkpt><trkpt lat="43.5780271" lon="12.0100545"><ele>430.0</ele><time>2026-04-25T09:35:09.918Z</time></trkpt><trkpt lat="43.5780006" lon="12.0102192"><ele>430.0</ele><time>2026-04-25T09:35:39.915Z</time></trkpt><trkpt lat="43.5780313" lon="12.0103013"><ele>430.0</ele><time>2026-04-25T09:35:45.921Z</time></trkpt><trkpt lat="43.5780643" lon="12.0103874"><ele>430.00000000000006</ele><time>2026-04-25T09:35:52.913Z</time></trkpt><trkpt lat="43.578026" lon="12.0104614"><ele>430.0</ele><time>2026-04-25T09:35:59.913Z</time></trkpt><trkpt lat="43.577991" lon="12.0105338"><ele>430.0</ele><time>2026-04-25T09:36:08.909Z</time></trkpt><trkpt lat="43.5779395" lon="12.010587"><ele>430.0</ele><time>2026-04-25T09:36:15.904Z</time></trkpt><trkpt lat="43.5778825" lon="12.0106405"><ele>430.0</ele><time>2026-04-25T09:36:24.924Z</time></trkpt><trkpt lat="43.5778339" lon="12.0107066"><ele>430.0</ele><time>2026-04-25T09:36:32.863Z</time></trkpt><trkpt lat="43.5777812" lon="12.0107776"><ele>430.0</ele><time>2026-04-25T09:36:39.905Z</time></trkpt><trkpt lat="43.5777352" lon="12.0108391"><ele>430.0</ele><time>2026-04-25T09:36:45.922Z</time></trkpt><trkpt lat="43.5776714" lon="12.0108664"><ele>430.0</ele><time>2026-04-25T09:36:52.911Z</time></trkpt><trkpt lat="43.5776064" lon="12.010858"><ele>431.85714285714283</ele><time>2026-04-25T09:37:02.916Z</time></trkpt><trkpt lat="43.5775424" lon="12.0108799"><ele>433.7142857142857</ele><time>2026-04-25T09:37:12.922Z</time></trkpt><trkpt lat="43.5774792" lon="12.0108949"><ele>435.57142857142856</ele><time>2026-04-25T09:37:18.886Z</time></trkpt><trkpt lat="43.5774134" lon="12.0109118"><ele>437.42857142857144</ele><time>2026-04-25T09:37:25.985Z</time></trkpt><trkpt lat="43.5773509" lon="12.0108952"><ele>439.28571428571433</ele><time>2026-04-25T09:37:35.945Z</time></trkpt><trkpt lat="43.5772932" lon="12.0108503"><ele>441.14285714285717</ele><time>2026-04-25T09:37:43.953Z</time></trkpt><trkpt lat="43.5772409" lon="12.0107908"><ele>443.0</ele><time>2026-04-25T09:37:51.942Z</time></trkpt><trkpt lat="43.577174" lon="12.0108034"><ele>444.57142857142856</ele><time>2026-04-25T09:38:01.971Z</time></trkpt><trkpt lat="43.5770996" lon="12.0107542"><ele>446.14285714285717</ele><time>2026-04-25T09:38:36.904Z</time></trkpt><trkpt lat="43.5770347" lon="12.0107674"><ele>447.7142857142857</ele><time>2026-04-25T09:38:47.944Z</time></trkpt><trkpt lat="43.5769597" lon="12.0107044"><ele>449.28571428571433</ele><time>2026-04-25T09:39:06.864Z</time></trkpt><trkpt lat="43.5768972" lon="12.0106775"><ele>450.8571428571429</ele><time>2026-04-25T09:39:18.942Z</time></trkpt><trkpt lat="43.5768579" lon="12.0106038"><ele>452.42857142857144</ele><time>2026-04-25T09:39:27.865Z</time></trkpt><trkpt lat="43.5768457" lon="12.0105087"><ele>454.0</ele><time>2026-04-25T09:39:35.927Z</time></trkpt><trkpt lat="43.5768411" lon="12.0104087"><ele>454.0</ele><time>2026-04-25T09:39:44.931Z</time></trkpt><trkpt lat="43.5768493" lon="12.0103135"><ele>454.00000000000006</ele><time>2026-04-25T09:39:52.945Z</time></trkpt><trkpt lat="43.576873" lon="12.01023"><ele>454.0</ele><time>2026-04-25T09:40:00.945Z</time></trkpt><trkpt lat="43.5769256" lon="12.0101791"><ele>454.0</ele><time>2026-04-25T09:40:09.868Z</time></trkpt><trkpt lat="43.5769674" lon="12.0101112"><ele>454.00000000000006</ele><time>2026-04-25T09:40:16.937Z</time></trkpt><trkpt lat="43.577026" lon="12.0100754"><ele>454.0</ele><time>2026-04-25T09:40:23.935Z</time></trkpt><trkpt lat="43.5769751" lon="12.0101397"><ele>454.0</ele><time>2026-04-25T09:41:00.926Z</time></trkpt><trkpt lat="43.5769163" lon="12.0101767"><ele>456.5714285714286</ele><time>2026-04-25T09:41:11.943Z</time></trkpt><trkpt lat="43.5768565" lon="12.0102265"><ele>459.1428571428572</ele><time>2026-04-25T09:41:19.959Z</time></trkpt><trkpt lat="43.5767872" lon="12.0102474"><ele>461.7142857142857</ele><time>2026-04-25T09:41:31.941Z</time></trkpt><trkpt lat="43.5767624" lon="12.0103337"><ele>464.28571428571433</ele><time>2026-04-25T09:41:40.944Z</time></trkpt><trkpt lat="43.5767749" lon="12.0104208"><ele>466.8571428571429</ele><time>2026-04-25T09:41:47.948Z</time></trkpt><trkpt lat="43.5768153" lon="12.0105041"><ele>469.42857142857144</ele><time>2026-04-25T09:41:53.948Z</time></trkpt><trkpt lat="43.5768645" lon="12.010572"><ele>472.0</ele><time>2026-04-25T09:42:00.96Z</time></trkpt><trkpt lat="43.5769134" lon="12.0106357"><ele>472.0</ele><time>2026-04-25T09:42:10.946Z</time></trkpt><trkpt lat="43.5769494" lon="12.0107087"><ele>472.0</ele><time>2026-04-25T09:42:17.938Z</time></trkpt><trkpt lat="43.5769957" lon="12.0107702"><ele>472.0</ele><time>2026-04-25T09:42:24.945Z</time></trkpt><trkpt lat="43.5770458" lon="12.010826"><ele>472.0</ele><time>2026-04-25T09:42:32.927Z</time></trkpt><trkpt lat="43.5771072" lon="12.0108688"><ele>472.0</ele><time>2026-04-25T09:42:43.964Z</time></trkpt><trkpt lat="43.5770983" lon="12.01097"><ele>472.0</ele><time>2026-04-25T09:44:06.932Z</time></trkpt><trkpt lat="43.5770567" lon="12.0110417"><ele>472.0</ele><time>2026-04-25T09:44:12.931Z</time></trkpt><trkpt lat="43.57702" lon="12.011115"><ele>469.57142857142856</ele><time>2026-04-25T09:44:18.944Z</time></trkpt><trkpt lat="43.5769983" lon="12.0112033"><ele>467.14285714285717</ele><time>2026-04-25T09:44:29.929Z</time></trkpt><trkpt lat="43.576955" lon="12.0113183"><ele>464.7142857142857</ele><time>2026-04-25T09:44:40.945Z</time></trkpt><trkpt lat="43.5769017" lon="12.011365"><ele>462.2857142857143</ele><time>2026-04-25T09:44:49.951Z</time></trkpt><trkpt lat="43.5768396" lon="12.0113969"><ele>459.8571428571429</ele><time>2026-04-25T09:44:59.944Z</time></trkpt><trkpt lat="43.5767792" lon="12.011444"><ele>457.42857142857144</ele><time>2026-04-25T09:45:09.928Z</time></trkpt><trkpt lat="43.5767328" lon="12.011513"><ele>455.0</ele><time>2026-04-25T09:45:18.936Z</time></trkpt><trkpt lat="43.5766679" lon="12.0115234"><ele>455.0</ele><time>2026-04-25T09:45:26.902Z</time></trkpt><trkpt lat="43.5766051" lon="12.0115335"><ele>455.0</ele><time>2026-04-25T09:45:35.948Z</time></trkpt><trkpt lat="43.5765371" lon="12.0115138"><ele>455.0</ele><time>2026-04-25T09:45:43.95Z</time></trkpt><trkpt lat="43.5764662" lon="12.0115383"><ele>455.0</ele><time>2026-04-25T09:45:48.945Z</time></trkpt><trkpt lat="43.5764125" lon="12.0116055"><ele>455.0</ele><time>2026-04-25T09:45:54.902Z</time></trkpt><trkpt lat="43.5763518" lon="12.0116574"><ele>455.0</ele><time>2026-04-25T09:46:01.974Z</time></trkpt><trkpt lat="43.5763118" lon="12.0117292"><ele>455.0</ele><time>2026-04-25T09:46:07.952Z</time></trkpt><trkpt lat="43.5762562" lon="12.011789"><ele>454.1428571428571</ele><time>2026-04-25T09:46:15.93Z</time></trkpt><trkpt lat="43.5762" lon="12.0118494"><ele>453.2857142857143</ele><time>2026-04-25T09:46:21.934Z</time></trkpt><trkpt lat="43.5761392" lon="12.0118899"><ele>452.42857142857144</ele><time>2026-04-25T09:46:29.933Z</time></trkpt><trkpt lat="43.5760836" lon="12.0119473"><ele>451.57142857142856</ele><time>2026-04-25T09:46:37.961Z</time></trkpt><trkpt lat="43.5760395" lon="12.0120169"><ele>450.71428571428567</ele><time>2026-04-25T09:46:44.933Z</time></trkpt><trkpt lat="43.5760001" lon="12.012085"><ele>449.85714285714283</ele><time>2026-04-25T09:46:52.932Z</time></trkpt><trkpt lat="43.5759634" lon="12.0121588"><ele>449.0</ele><time>2026-04-25T09:47:03.946Z</time></trkpt><trkpt lat="43.575891" lon="12.0122006"><ele>452.0</ele><time>2026-04-25T09:47:59.945Z</time></trkpt><trkpt lat="43.5758227" lon="12.0122118"><ele>454.99999999999994</ele><time>2026-04-25T09:48:09.938Z</time></trkpt><trkpt lat="43.575757" lon="12.0122215"><ele>458.0</ele><time>2026-04-25T09:48:19.969Z</time></trkpt><trkpt lat="43.5756967" lon="12.012193"><ele>461.0</ele><time>2026-04-25T09:48:31.932Z</time></trkpt><trkpt lat="43.5756347" lon="12.0122145"><ele>463.99999999999994</ele><time>2026-04-25T09:48:39.935Z</time></trkpt><trkpt lat="43.5755684" lon="12.0122385"><ele>467.0</ele><time>2026-04-25T09:48:52.92Z</time></trkpt><trkpt lat="43.5755284" lon="12.0121251"><ele>470.0</ele><time>2026-04-25T09:49:53.946Z</time></trkpt><trkpt lat="43.5754713" lon="12.0120531"><ele>470.0</ele><time>2026-04-25T09:49:56.929Z</time></trkpt><trkpt lat="43.5754049" lon="12.0120468"><ele>469.99999999999994</ele><time>2026-04-25T09:50:03.928Z</time></trkpt><trkpt lat="43.5753478" lon="12.0120061"><ele>470.0</ele><time>2026-04-25T09:50:14.943Z</time></trkpt><trkpt lat="43.5752664" lon="12.0120638"><ele>470.0</ele><time>2026-04-25T09:52:22.937Z</time></trkpt><trkpt lat="43.5751975" lon="12.0120925"><ele>469.99999999999994</ele><time>2026-04-25T09:52:28.939Z</time></trkpt><trkpt lat="43.5751345" lon="12.0121093"><ele>470.0</ele><time>2026-04-25T09:52:35.94Z</time></trkpt><trkpt lat="43.5750725" lon="12.0121529"><ele>470.0</ele><time>2026-04-25T09:52:42.941Z</time></trkpt><trkpt lat="43.5750018" lon="12.0121813"><ele>469.57142857142856</ele><time>2026-04-25T09:52:48.941Z</time></trkpt><trkpt lat="43.5749378" lon="12.0122165"><ele>469.1428571428571</ele><time>2026-04-25T09:52:56.002Z</time></trkpt><trkpt lat="43.5748861" lon="12.0122724"><ele>468.71428571428567</ele><time>2026-04-25T09:53:02.941Z</time></trkpt><trkpt lat="43.5748294" lon="12.0123145"><ele>468.2857142857142</ele><time>2026-04-25T09:53:09.936Z</time></trkpt><trkpt lat="43.5747651" lon="12.0123515"><ele>467.85714285714283</ele><time>2026-04-25T09:53:16.933Z</time></trkpt><trkpt lat="43.5747036" lon="12.0123934"><ele>467.42857142857133</ele><time>2026-04-25T09:53:24.938Z</time></trkpt><trkpt lat="43.5746374" lon="12.0124612"><ele>466.99999999999994</ele><time>2026-04-25T09:53:39.937Z</time></trkpt><trkpt lat="43.5745783" lon="12.0125079"><ele>466.99999999999994</ele><time>2026-04-25T09:53:45.888Z</time></trkpt><trkpt lat="43.5745309" lon="12.0125938"><ele>467.0</ele><time>2026-04-25T09:54:50.925Z</time></trkpt><trkpt lat="43.5744872" lon="12.012657"><ele>466.99999999999994</ele><time>2026-04-25T09:54:54.941Z</time></trkpt><trkpt lat="43.5744411" lon="12.0127219"><ele>466.99999999999994</ele><time>2026-04-25T09:55:01.964Z</time></trkpt><trkpt lat="43.5744014" lon="12.0127914"><ele>467.0</ele><time>2026-04-25T09:55:10.942Z</time></trkpt><trkpt lat="43.5743907" lon="12.012884"><ele>466.99999999999994</ele><time>2026-04-25T09:55:18.94Z</time></trkpt><trkpt lat="43.5743705" lon="12.0129759"><ele>466.99999999999994</ele><time>2026-04-25T09:55:27.942Z</time></trkpt><trkpt lat="43.5743354" lon="12.0130545"><ele>466.99999999999994</ele><time>2026-04-25T09:55:33.941Z</time></trkpt><trkpt lat="43.5743011" lon="12.0131346"><ele>467.0</ele><time>2026-04-25T09:55:39.938Z</time></trkpt><trkpt lat="43.5743158" lon="12.0132248"><ele>466.99999999999994</ele><time>2026-04-25T09:55:46.942Z</time></trkpt><trkpt lat="43.5743497" lon="12.0133016"><ele>466.99999999999994</ele><time>2026-04-25T09:55:51.884Z</time></trkpt><trkpt lat="43.5743581" lon="12.0133923"><ele>467.0</ele><time>2026-04-25T09:55:59.941Z</time></trkpt><trkpt lat="43.5743017" lon="12.013436"><ele>466.99999999999994</ele><time>2026-04-25T09:56:09.914Z</time></trkpt><trkpt lat="43.5742385" lon="12.0133925"><ele>466.99999999999994</ele><time>2026-04-25T09:56:15.921Z</time></trkpt><trkpt lat="43.5741692" lon="12.0133685"><ele>466.99999999999994</ele><time>2026-04-25T09:56:22.92Z</time></trkpt><trkpt lat="43.5741087" lon="12.0133405"><ele>467.0</ele><time>2026-04-25T09:56:29.918Z</time></trkpt><trkpt lat="43.5740474" lon="12.0133064"><ele>466.99999999999994</ele><time>2026-04-25T09:56:44.927Z</time></trkpt><trkpt lat="43.573981" lon="12.0132965"><ele>466.99999999999994</ele><time>2026-04-25T09:56:50.911Z</time></trkpt><trkpt lat="43.5739163" lon="12.0132795"><ele>467.0</ele><time>2026-04-25T09:56:58.932Z</time></trkpt><trkpt lat="43.5738516" lon="12.0132537"><ele>466.99999999999994</ele><time>2026-04-25T09:57:08.94Z</time></trkpt><trkpt lat="43.573793" lon="12.0132212"><ele>466.99999999999994</ele><time>2026-04-25T09:57:14.938Z</time></trkpt><trkpt lat="43.5737245" lon="12.0131972"><ele>472.1428571428571</ele><time>2026-04-25T09:57:21.939Z</time></trkpt><trkpt lat="43.5736565" lon="12.0132091"><ele>477.2857142857143</ele><time>2026-04-25T09:57:33.844Z</time></trkpt><trkpt lat="43.5735846" lon="12.0132124"><ele>482.42857142857144</ele><time>2026-04-25T09:57:42.93Z</time></trkpt><trkpt lat="43.5735174" lon="12.0132045"><ele>487.57142857142856</ele><time>2026-04-25T09:57:48.928Z</time></trkpt><trkpt lat="43.5734495" lon="12.0131574"><ele>492.7142857142858</ele><time>2026-04-25T09:57:57.94Z</time></trkpt><trkpt lat="43.5733829" lon="12.0131305"><ele>497.8571428571429</ele><time>2026-04-25T09:58:07.97Z</time></trkpt><trkpt lat="43.5733138" lon="12.0131547"><ele>503.0</ele><time>2026-04-25T09:58:15.929Z</time></trkpt><trkpt lat="43.5732569" lon="12.0132048"><ele>503.0</ele><time>2026-04-25T09:58:23.932Z</time></trkpt><trkpt lat="43.5732142" lon="12.0132842"><ele>503.00000000000006</ele><time>2026-04-25T09:58:30.921Z</time></trkpt><trkpt lat="43.5731882" lon="12.0133732"><ele>503.0</ele><time>2026-04-25T09:58:36.928Z</time></trkpt><trkpt lat="43.5731606" lon="12.0134647"><ele>503.0</ele><time>2026-04-25T09:58:43.959Z</time></trkpt><trkpt lat="43.5731503" lon="12.0135573"><ele>503.00000000000006</ele><time>2026-04-25T09:58:50.941Z</time></trkpt><trkpt lat="43.5731085" lon="12.0136236"><ele>503.0</ele><time>2026-04-25T09:58:58.929Z</time></trkpt><trkpt lat="43.5730548" lon="12.0136811"><ele>503.0</ele><time>2026-04-25T09:59:07.957Z</time></trkpt><trkpt lat="43.5729988" lon="12.0137284"><ele>500.28571428571433</ele><time>2026-04-25T09:59:19.954Z</time></trkpt><trkpt lat="43.572983" lon="12.0138192"><ele>497.5714285714286</ele><time>2026-04-25T09:59:30.943Z</time></trkpt><trkpt lat="43.5730053" lon="12.0139136"><ele>494.8571428571429</ele><time>2026-04-25T09:59:46.938Z</time></trkpt><trkpt lat="43.5730104" lon="12.0140073"><ele>492.1428571428571</ele><time>2026-04-25T09:59:54.844Z</time></trkpt><trkpt lat="43.5730036" lon="12.0140992"><ele>489.4285714285714</ele><time>2026-04-25T10:00:04.931Z</time></trkpt><trkpt lat="43.5730471" lon="12.0141757"><ele>486.71428571428567</ele><time>2026-04-25T10:00:25.844Z</time></trkpt><trkpt lat="43.5731099" lon="12.0142035"><ele>484.0</ele><time>2026-04-25T10:00:33.93Z</time></trkpt><trkpt lat="43.5731682" lon="12.0142433"><ele>483.85714285714283</ele><time>2026-04-25T10:00:41.944Z</time></trkpt><trkpt lat="43.5732156" lon="12.014314"><ele>483.71428571428567</ele><time>2026-04-25T10:00:50.943Z</time></trkpt><trkpt lat="43.573264" lon="12.0143738"><ele>483.57142857142856</ele><time>2026-04-25T10:00:57.944Z</time></trkpt><trkpt lat="43.5732227" lon="12.0144441"><ele>483.42857142857144</ele><time>2026-04-25T10:02:03.946Z</time></trkpt><trkpt lat="43.5731789" lon="12.0145162"><ele>483.2857142857143</ele><time>2026-04-25T10:02:11.844Z</time></trkpt><trkpt lat="43.5731476" lon="12.0145948"><ele>483.1428571428571</ele><time>2026-04-25T10:02:21.946Z</time></trkpt><trkpt lat="43.5731088" lon="12.0146683"><ele>483.0</ele><time>2026-04-25T10:02:34.935Z</time></trkpt><trkpt lat="43.5730697" lon="12.0147393"><ele>483.0</ele><time>2026-04-25T10:02:44.945Z</time></trkpt><trkpt lat="43.5730405" lon="12.0148177"><ele>483.0</ele><time>2026-04-25T10:02:54.931Z</time></trkpt><trkpt lat="43.5729973" lon="12.0148892"><ele>483.0</ele><time>2026-04-25T10:03:04.942Z</time></trkpt><trkpt lat="43.5729701" lon="12.0149753"><ele>483.0</ele><time>2026-04-25T10:03:11.932Z</time></trkpt><trkpt lat="43.5729637" lon="12.0150686"><ele>483.0</ele><time>2026-04-25T10:03:21.865Z</time></trkpt><trkpt lat="43.572958" lon="12.0151681"><ele>483.0</ele><time>2026-04-25T10:03:29.946Z</time></trkpt><trkpt lat="43.5729357" lon="12.0152687"><ele>483.0</ele><time>2026-04-25T10:03:36.952Z</time></trkpt><trkpt lat="43.5728954" lon="12.0153359"><ele>489.0</ele><time>2026-04-25T10:03:42.948Z</time></trkpt><trkpt lat="43.5728452" lon="12.0154033"><ele>495.0</ele><time>2026-04-25T10:03:50.944Z</time></trkpt><trkpt lat="43.5727929" lon="12.0154684"><ele>501.0</ele><time>2026-04-25T10:03:57.943Z</time></trkpt><trkpt lat="43.5727413" lon="12.015529"><ele>507.0</ele><time>2026-04-25T10:04:04.932Z</time></trkpt><trkpt lat="43.5726818" lon="12.0155875"><ele>513.0</ele><time>2026-04-25T10:04:10.936Z</time></trkpt><trkpt lat="43.5726227" lon="12.0156302"><ele>519.0</ele><time>2026-04-25T10:04:17.932Z</time></trkpt><trkpt lat="43.5725586" lon="12.0156605"><ele>525.0</ele><time>2026-04-25T10:04:25.997Z</time></trkpt><trkpt lat="43.5724983" lon="12.0156895"><ele>525.0</ele><time>2026-04-25T10:04:33.937Z</time></trkpt><trkpt lat="43.5724377" lon="12.0157401"><ele>525.0</ele><time>2026-04-25T10:04:41.925Z</time></trkpt><trkpt lat="43.5723718" lon="12.0157715"><ele>525.0</ele><time>2026-04-25T10:04:47.931Z</time></trkpt><trkpt lat="43.5723093" lon="12.0158119"><ele>525.0</ele><time>2026-04-25T10:04:54.934Z</time></trkpt><trkpt lat="43.5722452" lon="12.0158579"><ele>525.0</ele><time>2026-04-25T10:05:01.937Z</time></trkpt><trkpt lat="43.5721897" lon="12.0159193"><ele>525.0</ele><time>2026-04-25T10:05:08.932Z</time></trkpt><trkpt lat="43.5721322" lon="12.0159866"><ele>525.0</ele><time>2026-04-25T10:05:16.936Z</time></trkpt><trkpt lat="43.5720805" lon="12.0160506"><ele>525.8571428571429</ele><time>2026-04-25T10:05:24.947Z</time></trkpt><trkpt lat="43.5720304" lon="12.01611"><ele>526.7142857142858</ele><time>2026-04-25T10:05:30.946Z</time></trkpt><trkpt lat="43.5719836" lon="12.0161702"><ele>527.5714285714286</ele><time>2026-04-25T10:05:36.929Z</time></trkpt><trkpt lat="43.5719452" lon="12.0162485"><ele>528.4285714285714</ele><time>2026-04-25T10:05:41.947Z</time></trkpt><trkpt lat="43.5719248" lon="12.0163338"><ele>529.2857142857143</ele><time>2026-04-25T10:05:46.943Z</time></trkpt><trkpt lat="43.5718917" lon="12.0164268"><ele>530.1428571428571</ele><time>2026-04-25T10:05:52.944Z</time></trkpt><trkpt lat="43.5718672" lon="12.0165124"><ele>531.0</ele><time>2026-04-25T10:05:58.93Z</time></trkpt><trkpt lat="43.5718432" lon="12.0166009"><ele>527.0</ele><time>2026-04-25T10:06:05.93Z</time></trkpt><trkpt lat="43.5718332" lon="12.0166956"><ele>523.0</ele><time>2026-04-25T10:06:13.946Z</time></trkpt><trkpt lat="43.571819" lon="12.0167859"><ele>519.0</ele><time>2026-04-25T10:06:19.931Z</time></trkpt><trkpt lat="43.5718185" lon="12.01688"><ele>515.0</ele><time>2026-04-25T10:06:25.993Z</time></trkpt><trkpt lat="43.5718163" lon="12.0169789"><ele>511.00000000000006</ele><time>2026-04-25T10:06:34.936Z</time></trkpt><trkpt lat="43.5718034" lon="12.0170679"><ele>507.0</ele><time>2026-04-25T10:06:42.945Z</time></trkpt><trkpt lat="43.5717437" lon="12.0171067"><ele>503.0</ele><time>2026-04-25T10:06:50.949Z</time></trkpt><trkpt lat="43.5716812" lon="12.0170865"><ele>503.0</ele><time>2026-04-25T10:06:59.945Z</time></trkpt><trkpt lat="43.571616" lon="12.0170859"><ele>503.0</ele><time>2026-04-25T10:07:08.928Z</time></trkpt><trkpt lat="43.5790343" lon="11.99336"><ele>499.5714285714286</ele><time>2026-04-25T09:04:20.942Z</time></trkpt><trkpt lat="43.5789748" lon="11.9934181"><ele>496.1428571428572</ele><time>2026-04-25T09:04:27.94Z</time></trkpt><trkpt lat="43.5789183" lon="11.9934771"><ele>492.7142857142857</ele><time>2026-04-25T09:04:33.939Z</time></trkpt><trkpt lat="43.5788856" lon="11.9935534"><ele>489.28571428571433</ele><time>2026-04-25T09:04:40.552Z</time></trkpt><trkpt lat="43.5788663" lon="11.9936438"><ele>485.8571428571429</ele><time>2026-04-25T09:04:54.913Z</time></trkpt><trkpt lat="43.5788619" lon="11.9937375"><ele>482.42857142857144</ele><time>2026-04-25T09:05:03.881Z</time></trkpt><trkpt lat="43.5788095" lon="11.9937895"><ele>479.0</ele><time>2026-04-25T09:05:15.91Z</time></trkpt><trkpt lat="43.5787422" lon="11.9938096"><ele>479.0</ele><time>2026-04-25T09:05:36.912Z</time></trkpt><trkpt lat="43.5786965" lon="11.9938779"><ele>479.0</ele><time>2026-04-25T09:05:46.914Z</time></trkpt><trkpt lat="43.578645" lon="11.9939358"><ele>479.0</ele><time>2026-04-25T09:05:54.363Z</time></trkpt><trkpt lat="43.5785784" lon="11.993948"><ele>479.0</ele><time>2026-04-25T09:06:03.91Z</time></trkpt><trkpt lat="43.578508" lon="11.9939736"><ele>479.0</ele><time>2026-04-25T09:06:10.916Z</time></trkpt><trkpt lat="43.5784558" lon="11.9940385"><ele>479.0</ele><time>2026-04-25T09:06:16.913Z</time></trkpt><trkpt lat="43.5784016" lon="11.9940877"><ele>479.0</ele><time>2026-04-25T09:06:22.908Z</time></trkpt><trkpt lat="43.5783485" lon="11.9941466"><ele>477.3333333333333</ele><time>2026-04-25T09:06:31.907Z</time></trkpt><trkpt lat="43.5783054" lon="11.9942152"><ele>475.66666666666663</ele><time>2026-04-25T09:06:38.843Z</time></trkpt><trkpt lat="43.5782869" lon="11.9943133"><ele>474.0</ele><time>2026-04-25T09:06:45.923Z</time></trkpt><trkpt lat="43.5783079" lon="11.9944028"><ele>472.33333333333337</ele><time>2026-04-25T09:06:52.908Z</time></trkpt><trkpt lat="43.5783222" lon="11.9944953"><ele>470.6666666666667</ele><time>2026-04-25T09:07:00.907Z</time></trkpt><trkpt lat="43.5783605" lon="11.994648"><ele>469.0</ele><time>2026-04-25T09:07:28.91Z</time></trkpt><trkpt lat="43.5783773" lon="11.994735"><ele>469.0</ele><time>2026-04-25T09:07:35.909Z</time></trkpt><trkpt lat="43.5784047" lon="11.9948172"><ele>469.0</ele><time>2026-04-25T09:07:42.907Z</time></trkpt><trkpt lat="43.5784261" lon="11.9948993"><ele>469.0</ele><time>2026-04-25T09:07:48.905Z</time></trkpt><trkpt lat="43.5784451" lon="11.9949876"><ele>469.0</ele><time>2026-04-25T09:07:56.912Z</time></trkpt><trkpt lat="43.578454" lon="11.9950776"><ele>469.0</ele><time>2026-04-25T09:08:04.92Z</time></trkpt><trkpt lat="43.5784574" lon="11.9951693"><ele>469.0</ele><time>2026-04-25T09:08:11.916Z</time></trkpt><trkpt lat="43.5784715" lon="11.9952638"><ele>469.0</ele><time>2026-04-25T09:08:17.928Z</time></trkpt><trkpt lat="43.5785009" lon="11.9953443"><ele>468.42857142857144</ele><time>2026-04-25T09:08:24.934Z</time></trkpt><trkpt lat="43.5785401" lon="11.9954288"><ele>467.8571428571429</ele><time>2026-04-25T09:08:30.929Z</time></trkpt><trkpt lat="43.5785757" lon="11.9955096"><ele>467.2857142857143</ele><time>2026-04-25T09:08:36.925Z</time></trkpt><trkpt lat="43.578602" lon="11.9956029"><ele>466.7142857142857</ele><time>2026-04-25T09:08:42.942Z</time></trkpt><trkpt lat="43.5786213" lon="11.9956903"><ele>466.14285714285717</ele><time>2026-04-25T09:08:50.943Z</time></trkpt><trkpt lat="43.5786245" lon="11.9957878"><ele>465.57142857142856</ele><time>2026-04-25T09:08:56.864Z</time></trkpt><trkpt lat="43.5786368" lon="11.9958799"><ele>465.0</ele><time>2026-04-25T09:09:03.941Z</time></trkpt><trkpt lat="43.5786718" lon="11.9959566"><ele>464.85714285714283</ele><time>2026-04-25T09:09:10.941Z</time></trkpt><trkpt lat="43.5786915" lon="11.9960479"><ele>464.7142857142858</ele><time>2026-04-25T09:09:17.934Z</time></trkpt><trkpt lat="43.5787276" lon="11.9961324"><ele>464.5714285714286</ele><time>2026-04-25T09:09:25.947Z</time></trkpt><trkpt lat="43.5787275" lon="11.996227"><ele>464.42857142857144</ele><time>2026-04-25T09:09:32.938Z</time></trkpt><trkpt lat="43.5787229" lon="11.9963243"><ele>464.28571428571433</ele><time>2026-04-25T09:09:39.938Z</time></trkpt><trkpt lat="43.5787262" lon="11.9964181"><ele>464.1428571428572</ele><time>2026-04-25T09:09:46.943Z</time></trkpt><trkpt lat="43.5787241" lon="11.9965187"><ele>464.00000000000006</ele><time>2026-04-25T09:09:52.941Z</time></trkpt><trkpt lat="43.5787236" lon="11.996629"><ele>463.28571428571433</ele><time>2026-04-25T09:09:58.843Z</time></trkpt><trkpt lat="43.5787322" lon="11.9967256"><ele>462.57142857142856</ele><time>2026-04-25T09:10:03.925Z</time></trkpt><trkpt lat="43.5787517" lon="11.9968164"><ele>461.8571428571429</ele><time>2026-04-25T09:10:10.928Z</time></trkpt><trkpt lat="43.5787769" lon="11.9969055"><ele>461.14285714285717</ele><time>2026-04-25T09:10:16.892Z</time></trkpt><trkpt lat="43.5788014" lon="11.9969862"><ele>460.42857142857144</ele><time>2026-04-25T09:10:24.93Z</time></trkpt><trkpt lat="43.5788185" lon="11.9970733"><ele>459.7142857142857</ele><time>2026-04-25T09:10:30.926Z</time></trkpt><trkpt lat="43.5788492" lon="11.9971528"><ele>459.0</ele><time>2026-04-25T09:10:38.929Z</time></trkpt><trkpt lat="43.5788546" lon="11.9972428"><ele>459.0</ele><time>2026-04-25T09:10:45.928Z</time></trkpt><trkpt lat="43.5788288" lon="11.9973228"><ele>459.0</ele><time>2026-04-25T09:10:54.905Z</time></trkpt><trkpt lat="43.5788162" lon="11.9974176"><ele>459.0</ele><time>2026-04-25T09:11:08.911Z</time></trkpt><trkpt lat="43.5787841" lon="11.9975049"><ele>459.0</ele><time>2026-04-25T09:11:15.884Z</time></trkpt><trkpt lat="43.5787472" lon="11.9975814"><ele>459.0</ele><time>2026-04-25T09:11:23.915Z</time></trkpt><trkpt lat="43.5788152" lon="11.9975185"><ele>459.0</ele><time>2026-04-25T09:12:46.927Z</time></trkpt><trkpt lat="43.5788461" lon="11.9974427"><ele>459.0</ele><time>2026-04-25T09:12:56.94Z</time></trkpt><trkpt lat="43.5789326" lon="11.9974769"><ele>459.0</ele><time>2026-04-25T09:13:24.942Z</time></trkpt><trkpt lat="43.5789378" lon="11.9975673"><ele>459.0</ele><time>2026-04-25T09:13:35.94Z</time></trkpt><trkpt lat="43.57897" lon="11.9976489"><ele>459.0</ele><time>2026-04-25T09:13:50.924Z</time></trkpt><trkpt lat="43.5790065" lon="11.9977279"><ele>459.0</ele><time>2026-04-25T09:14:00.924Z</time></trkpt><trkpt lat="43.5790389" lon="11.9978098"><ele>459.0</ele><time>2026-04-25T09:14:10.94Z</time></trkpt><trkpt lat="43.579093" lon="11.9978684"><ele>459.0</ele><time>2026-04-25T09:14:21.924Z</time></trkpt><trkpt lat="43.5791547" lon="11.9979226"><ele>459.0</ele><time>2026-04-25T09:14:29.943Z</time></trkpt><trkpt lat="43.5792165" lon="11.9979636"><ele>459.0</ele><time>2026-04-25T09:14:35.938Z</time></trkpt><trkpt lat="43.5792752" lon="11.9980013"><ele>459.0</ele><time>2026-04-25T09:14:41.926Z</time></trkpt><trkpt lat="43.5793203" lon="11.9980753"><ele>459.0</ele><time>2026-04-25T09:14:50.942Z</time></trkpt><trkpt lat="43.5793805" lon="11.9981023"><ele>459.0</ele><time>2026-04-25T09:14:58.941Z</time></trkpt><trkpt lat="43.5794196" lon="11.9981759"><ele>459.0</ele><time>2026-04-25T09:15:07.96Z</time></trkpt><trkpt lat="43.5794718" lon="11.9982246"><ele>459.0</ele><time>2026-04-25T09:15:14.938Z</time></trkpt><trkpt lat="43.5795278" lon="11.9982656"><ele>459.0</ele><time>2026-04-25T09:15:20.939Z</time></trkpt><trkpt lat="43.5795714" lon="11.9983394"><ele>459.42857142857144</ele><time>2026-04-25T09:15:26.945Z</time></trkpt><trkpt lat="43.5796075" lon="11.9984221"><ele>459.85714285714283</ele><time>2026-04-25T09:15:33.937Z</time></trkpt><trkpt lat="43.5796035" lon="11.9985129"><ele>460.2857142857143</ele><time>2026-04-25T09:15:38.926Z</time></trkpt><trkpt lat="43.5795879" lon="11.9985999"><ele>460.7142857142857</ele><time>2026-04-25T09:15:43.965Z</time></trkpt><trkpt lat="43.5795549" lon="11.9986899"><ele>461.1428571428571</ele><time>2026-04-25T09:15:48.935Z</time></trkpt><trkpt lat="43.5795221" lon="11.9987723"><ele>461.57142857142856</ele><time>2026-04-25T09:15:53.941Z</time></trkpt><trkpt lat="43.5794878" lon="11.9988569"><ele>462.0</ele><time>2026-04-25T09:15:58.922Z</time></trkpt><trkpt lat="43.5794577" lon="11.9989446"><ele>461.0</ele><time>2026-04-25T09:16:03.944Z</time></trkpt><trkpt lat="43.5794134" lon="11.9990323"><ele>460.0</ele><time>2026-04-25T09:16:07.946Z</time></trkpt><trkpt lat="43.5793657" lon="11.9990916"><ele>459.0</ele><time>2026-04-25T09:16:12.944Z</time></trkpt><trkpt lat="43.5792983" lon="11.999119"><ele>458.0</ele><time>2026-04-25T09:16:18.938Z</time></trkpt><trkpt lat="43.5792323" lon="11.9991468"><ele>457.0</ele><time>2026-04-25T09:16:26.938Z</time></trkpt><trkpt lat="43.5791599" lon="11.9991686"><ele>456.0</ele><time>2026-04-25T09:16:37.961Z</time></trkpt><trkpt lat="43.5790927" lon="11.9991925"><ele>455.0</ele><time>2026-04-25T09:16:44.942Z</time></trkpt><trkpt lat="43.5790443" lon="11.9992573"><ele>454.7142857142857</ele><time>2026-04-25T09:16:54.942Z</time></trkpt><trkpt lat="43.5789971" lon="11.9993267"><ele>454.42857142857144</ele><time>2026-04-25T09:17:05.944Z</time></trkpt><trkpt lat="43.5789642" lon="11.9994072"><ele>454.1428571428571</ele><time>2026-04-25T09:17:13.959Z</time></trkpt><trkpt lat="43.5789861" lon="11.9995007"><ele>453.85714285714283</ele><time>2026-04-25T09:17:32.926Z</time></trkpt><trkpt lat="43.5789936" lon="11.9995878"><ele>453.57142857142856</ele><time>2026-04-25T09:17:43.957Z</time></trkpt><trkpt lat="43.5790372" lon="11.999652"><ele>453.2857142857142</ele><time>2026-04-25T09:18:07.943Z</time></trkpt><trkpt lat="43.5790771" lon="11.9997222"><ele>452.99999999999994</ele><time>2026-04-25T09:18:11.928Z</time></trkpt><trkpt lat="43.5791063" lon="11.9998135"><ele>452.99999999999994</ele><time>2026-04-25T09:18:17.945Z</time></trkpt><trkpt lat="43.5791393" lon="11.9998921"><ele>453.0</ele><time>2026-04-25T09:18:23.941Z</time></trkpt><trkpt lat="43.5791796" lon="11.9999641"><ele>452.99999999999994</ele><time>2026-04-25T09:18:31.883Z</time></trkpt><trkpt lat="43.5792272" lon="12.0000215"><ele>452.99999999999994</ele><time>2026-04-25T09:18:40.944Z</time></trkpt><trkpt lat="43.5792752" lon="12.0000839"><ele>453.0</ele><time>2026-04-25T09:18:46.945Z</time></trkpt><trkpt lat="43.5793146" lon="12.0001608"><ele>452.99999999999994</ele><time>2026-04-25T09:18:53.942Z</time></trkpt><trkpt lat="43.5793674" lon="12.0002272"><ele>452.99999999999994</ele><time>2026-04-25T09:19:02.938Z</time></trkpt><trkpt lat="43.5794123" lon="12.0002885"><ele>452.99999999999994</ele><time>2026-04-25T09:19:09.936Z</time></trkpt><trkpt lat="43.5794697" lon="12.0003518"><ele>453.0</ele><time>2026-04-25T09:19:15.941Z</time></trkpt><trkpt lat="43.5795169" lon="12.0004226"><ele>452.99999999999994</ele><time>2026-04-25T09:19:22.94Z</time></trkpt><trkpt lat="43.5795782" lon="12.0004799"><ele>452.99999999999994</ele><time>2026-04-25T09:19:49.967Z</time></trkpt><trkpt lat="43.5796102" lon="12.0005589"><ele>453.0</ele><time>2026-04-25T09:19:56.005Z</time></trkpt><trkpt lat="43.5796711" lon="12.0006172"><ele>452.99999999999994</ele><time>2026-04-25T09:22:04.944Z</time></trkpt><trkpt lat="43.5797327" lon="12.0006533"><ele>452.99999999999994</ele><time>2026-04-25T09:22:09.925Z</time></trkpt><trkpt lat="43.579794" lon="12.0006973"><ele>452.8571428571428</ele><time>2026-04-25T09:22:16.926Z</time></trkpt><trkpt lat="43.5798555" lon="12.0007332"><ele>452.71428571428567</ele><time>2026-04-25T09:22:23.929Z</time></trkpt><trkpt lat="43.5799164" lon="12.0007698"><ele>452.57142857142856</ele><time>2026-04-25T09:22:34.945Z</time></trkpt><trkpt lat="43.5799455" lon="12.000892"><ele>452.4285714285714</ele><time>2026-04-25T09:23:02.943Z</time></trkpt><trkpt lat="43.5799373" lon="12.0009902"><ele>452.2857142857142</ele><time>2026-04-25T09:23:07.946Z</time></trkpt><trkpt lat="43.5799402" lon="12.0010787"><ele>452.14285714285717</ele><time>2026-04-25T09:23:12.942Z</time></trkpt><trkpt lat="43.5799381" lon="12.0011676"><ele>452.0</ele><time>2026-04-25T09:23:19.959Z</time></trkpt><trkpt lat="43.5799553" lon="12.0012531"><ele>452.0</ele><time>2026-04-25T09:23:27.925Z</time></trkpt><trkpt lat="43.5800053" lon="12.0013232"><ele>452.0</ele><time>2026-04-25T09:23:37.959Z</time></trkpt><trkpt lat="43.5800218" lon="12.0014235"><ele>452.0</ele><time>2026-04-25T09:23:45.941Z</time></trkpt><trkpt lat="43.5800216" lon="12.0015161"><ele>452.0</ele><time>2026-04-25T09:23:51.887Z</time></trkpt><trkpt lat="43.5800028" lon="12.0016038"><ele>452.0</ele><time>2026-04-25T09:24:00.942Z</time></trkpt><trkpt lat="43.5799514" lon="12.0016637"><ele>452.0</ele><time>2026-04-25T09:24:06.942Z</time></trkpt><trkpt lat="43.5799175" lon="12.0017529"><ele>452.0</ele><time>2026-04-25T09:24:12.944Z</time></trkpt><trkpt lat="43.5799" lon="12.0018413"><ele>451.7142857142857</ele><time>2026-04-25T09:24:17.925Z</time></trkpt><trkpt lat="43.5798621" lon="12.001913"><ele>451.42857142857144</ele><time>2026-04-25T09:24:22.939Z</time></trkpt><trkpt lat="43.5798256" lon="12.0019942"><ele>451.14285714285717</ele><time>2026-04-25T09:24:27.941Z</time></trkpt><trkpt lat="43.5798022" lon="12.0020766"><ele>450.8571428571429</ele><time>2026-04-25T09:24:32.926Z</time></trkpt><trkpt lat="43.5797903" lon="12.0021654"><ele>450.57142857142856</ele><time>2026-04-25T09:24:37.963Z</time></trkpt><trkpt lat="43.5797727" lon="12.0022548"><ele>450.28571428571433</ele><time>2026-04-25T09:24:45.927Z</time></trkpt><trkpt lat="43.5797525" lon="12.0023416"><ele>450.00000000000006</ele><time>2026-04-25T09:24:51.935Z</time></trkpt><trkpt lat="43.5797228" lon="12.0024223"><ele>450.4285714285715</ele><time>2026-04-25T09:24:58.93Z</time></trkpt><trkpt lat="43.5796871" lon="12.0025094"><ele>450.8571428571429</ele><time>2026-04-25T09:25:04.941Z</time></trkpt><trkpt lat="43.5796521" lon="12.0025889"><ele>451.2857142857143</ele><time>2026-04-25T09:25:10.941Z</time></trkpt><trkpt lat="43.5796338" lon="12.002679"><ele>451.7142857142857</ele><time>2026-04-25T09:25:17.934Z</time></trkpt><trkpt lat="43.5795948" lon="12.0027604"><ele>452.1428571428571</ele><time>2026-04-25T09:25:26.935Z</time></trkpt><trkpt lat="43.5795574" lon="12.0028513"><ele>452.5714285714285</ele><time>2026-04-25T09:25:33.942Z</time></trkpt><trkpt lat="43.5795297" lon="12.0029384"><ele>452.99999999999994</ele><time>2026-04-25T09:25:37.961Z</time></trkpt><trkpt lat="43.5795023" lon="12.0030243"><ele>451.8571428571428</ele><time>2026-04-25T09:25:42.941Z</time></trkpt><trkpt lat="43.5794902" lon="12.0031191"><ele>450.71428571428567</ele><time>2026-04-25T09:25:50.935Z</time></trkpt><trkpt lat="43.579479" lon="12.0032088"><ele>449.57142857142856</ele><time>2026-04-25T09:25:55.947Z</time></trkpt><trkpt lat="43.5794772" lon="12.003318"><ele>448.4285714285714</ele><time>2026-04-25T09:26:03.94Z</time></trkpt><trkpt lat="43.5794652" lon="12.003407"><ele>447.2857142857142</ele><time>2026-04-25T09:26:09.939Z</time></trkpt><trkpt lat="43.5794314" lon="12.0034847"><ele>446.14285714285717</ele><time>2026-04-25T09:26:15.882Z</time></trkpt><trkpt lat="43.5793929" lon="12.0035726"><ele>445.0</ele><time>2026-04-25T09:26:22.93Z</time></trkpt><trkpt lat="43.5793552" lon="12.0036579"><ele>445.0</ele><time>2026-04-25T09:26:28.921Z</time></trkpt><trkpt lat="43.5793191" lon="12.0037308"><ele>445.0</ele><time>2026-04-25T09:26:33.943Z</time></trkpt><trkpt lat="43.5792904" lon="12.0038164"><ele>445.0</ele><time>2026-04-25T09:26:39.94Z</time></trkpt><trkpt lat="43.5792508" lon="12.0038888"><ele>445.0</ele><time>2026-04-25T09:26:49.98Z</time></trkpt><trkpt lat="43.5792067" lon="12.0039563"><ele>445.0</ele><time>2026-04-25T09:26:59.865Z</time></trkpt><trkpt lat="43.5791605" lon="12.0040332"><ele>445.0</ele><time>2026-04-25T09:27:04.929Z</time></trkpt><trkpt lat="43.5791265" lon="12.0041215"><ele>445.0</ele><time>2026-04-25T09:27:10.939Z</time></trkpt><trkpt lat="43.5791021" lon="12.004217"><ele>445.0</ele><time>2026-04-25T09:27:16.942Z</time></trkpt><trkpt lat="43.5790887" lon="12.0043033"><ele>445.0</ele><time>2026-04-25T09:27:22.939Z</time></trkpt><trkpt lat="43.5790668" lon="12.0043985"><ele>445.0</ele><time>2026-04-25T09:27:30.943Z</time></trkpt><trkpt lat="43.5790548" lon="12.0044995"><ele>445.0</ele><time>2026-04-25T09:27:37.959Z</time></trkpt><trkpt lat="43.5790488" lon="12.0045918"><ele>445.0</ele><time>2026-04-25T09:27:44.938Z</time></trkpt><trkpt lat="43.579037" lon="12.0046788"><ele>445.0</ele><time>2026-04-25T09:27:49.956Z</time></trkpt><trkpt lat="43.5790002" lon="12.0047722"><ele>445.0</ele><time>2026-04-25T09:27:56.939Z</time></trkpt><trkpt lat="43.5789578" lon="12.0048507"><ele>445.0</ele><time>2026-04-25T09:28:03.939Z</time></trkpt><trkpt lat="43.5789072" lon="12.004915"><ele>445.0</ele><time>2026-04-25T09:28:10.943Z</time></trkpt><trkpt lat="43.5788558" lon="12.0049798"><ele>445.0</ele><time>2026-04-25T09:28:16.927Z</time></trkpt><trkpt lat="43.5787973" lon="12.0050366"><ele>445.0</ele><time>2026-04-25T09:28:21.941Z</time></trkpt><trkpt lat="43.5787549" lon="12.0051046"><ele>445.0</ele><time>2026-04-25T09:28:25.944Z</time></trkpt><trkpt lat="43.5787102" lon="12.0051972"><ele>445.0</ele><time>2026-04-25T09:28:30.927Z</time></trkpt><trkpt lat="43.5786662" lon="12.0052703"><ele>445.0</ele><time>2026-04-25T09:28:35.94Z</time></trkpt><trkpt lat="43.5786261" lon="12.0053557"><ele>445.0</ele><time>2026-04-25T09:28:40.863Z</time></trkpt><trkpt lat="43.5785824" lon="12.0054224"><ele>445.0</ele><time>2026-04-25T09:28:45.927Z</time></trkpt><trkpt lat="43.5785447" lon="12.0055096"><ele>445.0</ele><time>2026-04-25T09:28:51.925Z</time></trkpt><trkpt lat="43.5785001" lon="12.0055863"><ele>445.0</ele><time>2026-04-25T09:28:58.926Z</time></trkpt><trkpt lat="43.5784467" lon="12.0056609"><ele>445.0</ele><time>2026-04-25T09:29:04.928Z</time></trkpt><trkpt lat="43.5784134" lon="12.0057409"><ele>445.0</ele><time>2026-04-25T09:29:11.934Z</time></trkpt><trkpt lat="43.5784008" lon="12.0058372"><ele>445.0</ele><time>2026-04-25T09:29:18.922Z</time></trkpt><trkpt lat="43.5784156" lon="12.005922"><ele>444.42857142857144</ele><time>2026-04-25T09:29:23.944Z</time></trkpt><trkpt lat="43.5784204" lon="12.0060148"><ele>443.85714285714283</ele><time>2026-04-25T09:29:28.933Z</time></trkpt><trkpt lat="43.5784397" lon="12.0060988"><ele>443.2857142857143</ele><time>2026-04-25T09:29:33.933Z</time></trkpt><trkpt lat="43.5784633" lon="12.0061835"><ele>442.7142857142857</ele><time>2026-04-25T09:29:38.938Z</time></trkpt><trkpt lat="43.5784689" lon="12.0062721"><ele>442.1428571428571</ele><time>2026-04-25T09:29:44.944Z</time></trkpt><trkpt lat="43.5784431" lon="12.0063654"><ele>441.57142857142856</ele><time>2026-04-25T09:29:51.945Z</time></trkpt><trkpt lat="43.5784158" lon="12.0064453"><ele>441.0</ele><time>2026-04-25T09:29:58.948Z</time></trkpt><trkpt lat="43.578374" lon="12.0065213"><ele>441.0</ele><time>2026-04-25T09:30:04.942Z</time></trkpt><trkpt lat="43.5783093" lon="12.0065641"><ele>441.0</ele><time>2026-04-25T09:30:13.957Z</time></trkpt><trkpt lat="43.5782665" lon="12.0066394"><ele>441.0</ele><time>2026-04-25T09:30:21.923Z</time></trkpt><trkpt lat="43.578255" lon="12.0067255"><ele>441.0</ele><time>2026-04-25T09:30:30.926Z</time></trkpt><trkpt lat="43.5782537" lon="12.0068224"><ele>441.0</ele><time>2026-04-25T09:30:41.944Z</time></trkpt><trkpt lat="43.5782157" lon="12.0068921"><ele>441.0</ele><time>2026-04-25T09:31:00.944Z</time></trkpt><trkpt lat="43.5781935" lon="12.0069857"><ele>441.0</ele><time>2026-04-25T09:31:07.942Z</time></trkpt><trkpt lat="43.5781561" lon="12.0070647"><ele>440.2857142857143</ele><time>2026-04-25T09:31:14.925Z</time></trkpt><trkpt lat="43.5781293" lon="12.0071508"><ele>439.57142857142856</ele><time>2026-04-25T09:31:20.928Z</time></trkpt><trkpt lat="43.578101" lon="12.0072343"><ele>438.8571428571429</ele><time>2026-04-25T09:31:26.929Z</time></trkpt><trkpt lat="43.5780935" lon="12.0073226"><ele>438.1428571428571</ele><time>2026-04-25T09:31:35.844Z</time></trkpt><trkpt lat="43.5780514" lon="12.0073971"><ele>437.42857142857144</ele><time>2026-04-25T09:31:42.93Z</time></trkpt><trkpt lat="43.5780171" lon="12.0074713"><ele>436.7142857142857</ele><time>2026-04-25T09:31:49.944Z</time></trkpt><trkpt lat="43.5779836" lon="12.0075525"><ele>436.0</ele><time>2026-04-25T09:31:57.937Z</time></trkpt><trkpt lat="43.577952" lon="12.0076314"><ele>435.42857142857144</ele><time>2026-04-25T09:32:03.907Z</time></trkpt><trkpt lat="43.5779273" lon="12.0077232"><ele>434.8571428571429</ele><time>2026-04-25T09:32:08.928Z</time></trkpt><trkpt lat="43.5779154" lon="12.0078157"><ele>434.2857142857143</ele><time>2026-04-25T09:32:14.926Z</time></trkpt><trkpt lat="43.5779104" lon="12.0079195"><ele>433.7142857142857</ele><time>2026-04-25T09:32:20.92Z</time></trkpt><trkpt lat="43.5778999" lon="12.0080153"><ele>433.1428571428571</ele><time>2026-04-25T09:32:25.985Z</time></trkpt><trkpt lat="43.5779065" lon="12.0081226"><ele>432.57142857142856</ele><time>2026-04-25T09:32:30.924Z</time></trkpt><trkpt lat="43.577895" lon="12.0082127"><ele>432.0</ele><time>2026-04-25T09:32:35.938Z</time></trkpt><trkpt lat="43.5778825" lon="12.0083134"><ele>432.1428571428571</ele><time>2026-04-25T09:32:41.936Z</time></trkpt><trkpt lat="43.5778981" lon="12.0084001"><ele>432.2857142857143</ele><time>2026-04-25T09:32:46.925Z</time></trkpt><trkpt lat="43.577952" lon="12.0084475"><ele>432.42857142857144</ele><time>2026-04-25T09:32:53.929Z</time></trkpt><trkpt lat="43.5780025" lon="12.0085032"><ele>432.57142857142856</ele><time>2026-04-25T09:33:02.937Z</time></trkpt><trkpt lat="43.5780589" lon="12.0085595"><ele>432.7142857142857</ele><time>2026-04-25T09:33:10.941Z</time></trkpt><trkpt lat="43.5780957" lon="12.0086414"><ele>432.85714285714283</ele><time>2026-04-25T09:33:18.941Z</time></trkpt><trkpt lat="43.5780938" lon="12.008736"><ele>433.0</ele><time>2026-04-25T09:33:27.926Z</time></trkpt><trkpt lat="43.5780957" lon="12.008824"><ele>432.99999999999994</ele><time>2026-04-25T09:33:38.94Z</time></trkpt><trkpt lat="43.5780913" lon="12.0089135"><ele>433.0</ele><time>2026-04-25T09:33:44.907Z</time></trkpt><trkpt lat="43.5780801" lon="12.0090005"><ele>433.0</ele><time>2026-04-25T09:33:52.942Z</time></trkpt><trkpt lat="43.5780598" lon="12.0090852"><ele>433.0</ele><time>2026-04-25T09:34:00.864Z</time></trkpt><trkpt lat="43.5780266" lon="12.0091627"><ele>433.0</ele><time>2026-04-25T09:34:06.944Z</time></trkpt><trkpt lat="43.5779997" lon="12.009254"><ele>432.99999999999994</ele><time>2026-04-25T09:34:13.957Z</time></trkpt><trkpt lat="43.5779836" lon="12.0093387"><ele>433.0</ele><time>2026-04-25T09:34:19.938Z</time></trkpt><trkpt lat="43.577988" lon="12.0094376"><ele>432.57142857142856</ele><time>2026-04-25T09:34:26.927Z</time></trkpt><trkpt lat="43.5779952" lon="12.0095376"><ele>432.1428571428571</ele><time>2026-04-25T09:34:33.914Z</time></trkpt><trkpt lat="43.5780227" lon="12.009629"><ele>431.71428571428567</ele><time>2026-04-25T09:34:39.922Z</time></trkpt><trkpt lat="43.5780476" lon="12.009712"><ele>431.2857142857143</ele><time>2026-04-25T09:34:44.907Z</time></trkpt><trkpt lat="43.5780683" lon="12.0098023"><ele>430.8571428571429</ele><time>2026-04-25T09:34:49.925Z</time></trkpt><trkpt lat="43.5780228" lon="12.0098756"><ele>430.4285714285714</ele><time>2026-04-25T09:34:56.902Z</time></trkpt><trkpt lat="43.5780239" lon="12.009964"><ele>430.0</ele><time>2026-04-25T09:35:02.9Z</time></trkpt><trkpt lat="43.5780271" lon="12.0100545"><ele>430.00000000000006</ele><time>2026-04-25T09:35:09.918Z</time></trkpt><trkpt lat="43.5780006" lon="12.0102192"><ele>430.0</ele><time>2026-04-25T09:35:39.915Z</time></trkpt><trkpt lat="43.5780313" lon="12.0103013"><ele>430.0</ele><time>2026-04-25T09:35:45.921Z</time></trkpt><trkpt lat="43.5780643" lon="12.0103874"><ele>430.0</ele><time>2026-04-25T09:35:52.913Z</time></trkpt><trkpt lat="43.578026" lon="12.0104614"><ele>430.00000000000006</ele><time>2026-04-25T09:35:59.913Z</time></trkpt><trkpt lat="43.577991" lon="12.0105338"><ele>430.0</ele><time>2026-04-25T09:36:08.909Z</time></trkpt><trkpt lat="43.5779395" lon="12.010587"><ele>430.0</ele><time>2026-04-25T09:36:15.904Z</time></trkpt><trkpt lat="43.5778825" lon="12.0106405"><ele>430.0</ele><time>2026-04-25T09:36:24.924Z</time></trkpt><trkpt lat="43.5778339" lon="12.0107066"><ele>430.0</ele><time>2026-04-25T09:36:32.863Z</time></trkpt><trkpt lat="43.5777812" lon="12.0107776"><ele>430.0</ele><time>2026-04-25T09:36:39.905Z</time></trkpt><trkpt lat="43.5777352" lon="12.0108391"><ele>430.0</ele><time>2026-04-25T09:36:45.922Z</time></trkpt><trkpt lat="43.5776714" lon="12.0108664"><ele>430.0</ele><time>2026-04-25T09:36:52.911Z</time></trkpt><trkpt lat="43.5776064" lon="12.010858"><ele>430.0</ele><time>2026-04-25T09:37:02.916Z</time></trkpt><trkpt lat="43.5775424" lon="12.0108799"><ele>431.85714285714283</ele><time>2026-04-25T09:37:12.922Z</time></trkpt><trkpt lat="43.5774792" lon="12.0108949"><ele>433.7142857142857</ele><time>2026-04-25T09:37:18.886Z</time></trkpt><trkpt lat="43.5774134" lon="12.0109118"><ele>435.57142857142856</ele><time>2026-04-25T09:37:25.985Z</time></trkpt><trkpt lat="43.5773509" lon="12.0108952"><ele>437.42857142857144</ele><time>2026-04-25T09:37:35.945Z</time></trkpt><trkpt lat="43.5772932" lon="12.0108503"><ele>439.28571428571433</ele><time>2026-04-25T09:37:43.953Z</time></trkpt><trkpt lat="43.5772409" lon="12.0107908"><ele>441.14285714285717</ele><time>2026-04-25T09:37:51.942Z</time></trkpt><trkpt lat="43.577174" lon="12.0108034"><ele>443.0</ele><time>2026-04-25T09:38:01.971Z</time></trkpt><trkpt lat="43.5770996" lon="12.0107542"><ele>444.57142857142856</ele><time>2026-04-25T09:38:36.904Z</time></trkpt><trkpt lat="43.5770347" lon="12.0107674"><ele>446.14285714285717</ele><time>2026-04-25T09:38:47.944Z</time></trkpt><trkpt lat="43.5769597" lon="12.0107044"><ele>447.7142857142857</ele><time>2026-04-25T09:39:06.864Z</time></trkpt><trkpt lat="43.5768972" lon="12.0106775"><ele>449.28571428571433</ele><time>2026-04-25T09:39:18.942Z</time></trkpt><trkpt lat="43.5768579" lon="12.0106038"><ele>450.8571428571429</ele><time>2026-04-25T09:39:27.865Z</time></trkpt><trkpt lat="43.5768457" lon="12.0105087"><ele>452.42857142857144</ele><time>2026-04-25T09:39:35.927Z</time></trkpt><trkpt lat="43.5768411" lon="12.0104087"><ele>454.0</ele><time>2026-04-25T09:39:44.931Z</time></trkpt><trkpt lat="43.5768493" lon="12.0103135"><ele>454.0</ele><time>2026-04-25T09:39:52.945Z</time></trkpt><trkpt lat="43.576873" lon="12.01023"><ele>454.00000000000006</ele><time>2026-04-25T09:40:00.945Z</time></trkpt><trkpt lat="43.5769256" lon="12.0101791"><ele>454.0</ele><time>2026-04-25T09:40:09.868Z</time></trkpt><trkpt lat="43.5769674" lon="12.0101112"><ele>454.0</ele><time>2026-04-25T09:40:16.937Z</time></trkpt><trkpt lat="43.577026" lon="12.0100754"><ele>454.00000000000006</ele><time>2026-04-25T09:40:23.935Z</time></trkpt><trkpt lat="43.5769751" lon="12.0101397"><ele>454.0</ele><time>2026-04-25T09:41:00.926Z</time></trkpt><trkpt lat="43.5769163" lon="12.0101767"><ele>454.0</ele><time>2026-04-25T09:41:11.943Z</time></trkpt><trkpt lat="43.5768565" lon="12.0102265"><ele>456.5714285714286</ele><time>2026-04-25T09:41:19.959Z</time></trkpt><trkpt lat="43.5767872" lon="12.0102474"><ele>459.1428571428572</ele><time>2026-04-25T09:41:31.941Z</time></trkpt><trkpt lat="43.5767624" lon="12.0103337"><ele>461.7142857142857</ele><time>2026-04-25T09:41:40.944Z</time></trkpt><trkpt lat="43.5767749" lon="12.0104208"><ele>464.28571428571433</ele><time>2026-04-25T09:41:47.948Z</time></trkpt><trkpt lat="43.5768153" lon="12.0105041"><ele>466.8571428571429</ele><time>2026-04-25T09:41:53.948Z</time></trkpt><trkpt lat="43.5768645" lon="12.010572"><ele>469.42857142857144</ele><time>2026-04-25T09:42:00.96Z</time></trkpt><trkpt lat="43.5769134" lon="12.0106357"><ele>472.0</ele><time>2026-04-25T09:42:10.946Z</time></trkpt><trkpt lat="43.5769494" lon="12.0107087"><ele>472.0</ele><time>2026-04-25T09:42:17.938Z</time></trkpt><trkpt lat="43.5769957" lon="12.0107702"><ele>472.0</ele><time>2026-04-25T09:42:24.945Z</time></trkpt><trkpt lat="43.5770458" lon="12.010826"><ele>472.0</ele><time>2026-04-25T09:42:32.927Z</time></trkpt><trkpt lat="43.5771072" lon="12.0108688"><ele>472.0</ele><time>2026-04-25T09:42:43.964Z</time></trkpt><trkpt lat="43.5770983" lon="12.01097"><ele>472.0</ele><time>2026-04-25T09:44:06.932Z</time></trkpt><trkpt lat="43.5770567" lon="12.0110417"><ele>472.0</ele><time>2026-04-25T09:44:12.931Z</time></trkpt><trkpt lat="43.57702" lon="12.011115"><ele>472.0</ele><time>2026-04-25T09:44:18.944Z</time></trkpt><trkpt lat="43.5769983" lon="12.0112033"><ele>469.57142857142856</ele><time>2026-04-25T09:44:29.929Z</time></trkpt><trkpt lat="43.576955" lon="12.0113183"><ele>467.14285714285717</ele><time>2026-04-25T09:44:40.945Z</time></trkpt><trkpt lat="43.5769017" lon="12.011365"><ele>464.7142857142857</ele><time>2026-04-25T09:44:49.951Z</time></trkpt><trkpt lat="43.5768396" lon="12.0113969"><ele>462.2857142857143</ele><time>2026-04-25T09:44:59.944Z</time></trkpt><trkpt lat="43.5767792" lon="12.011444"><ele>459.8571428571429</ele><time>2026-04-25T09:45:09.928Z</time></trkpt><trkpt lat="43.5767328" lon="12.011513"><ele>457.42857142857144</ele><time>2026-04-25T09:45:18.936Z</time></trkpt><trkpt lat="43.5766679" lon="12.0115234"><ele>455.0</ele><time>2026-04-25T09:45:26.902Z</time></trkpt><trkpt lat="43.5766051" lon="12.0115335"><ele>455.0</ele><time>2026-04-25T09:45:35.948Z</time></trkpt><trkpt lat="43.5765371" lon="12.0115138"><ele>455.0</ele><time>2026-04-25T09:45:43.95Z</time></trkpt><trkpt lat="43.5764662" lon="12.0115383"><ele>455.0</ele><time>2026-04-25T09:45:48.945Z</time></trkpt><trkpt lat="43.5764125" lon="12.0116055"><ele>455.0</ele><time>2026-04-25T09:45:54.902Z</time></trkpt><trkpt lat="43.5763518" lon="12.0116574"><ele>455.0</ele><time>2026-04-25T09:46:01.974Z</time></trkpt><trkpt lat="43.5763118" lon="12.0117292"><ele>455.0</ele><time>2026-04-25T09:46:07.952Z</time></trkpt><trkpt lat="43.5762562" lon="12.011789"><ele>455.0</ele><time>2026-04-25T09:46:15.93Z</time></trkpt><trkpt lat="43.5762" lon="12.0118494"><ele>457.1428571428571</ele><time>2026-04-25T09:46:21.934Z</time></trkpt><trkpt lat="43.5761392" lon="12.0118899"><ele>459.2857142857143</ele><time>2026-04-25T09:46:29.933Z</time></trkpt><trkpt lat="43.5760836" lon="12.0119473"><ele>461.42857142857144</ele><time>2026-04-25T09:46:37.961Z</time></trkpt><trkpt lat="43.5760395" lon="12.0120169"><ele>463.57142857142856</ele><time>2026-04-25T09:46:44.933Z</time></trkpt><trkpt lat="43.5760001" lon="12.012085"><ele>465.71428571428567</ele><time>2026-04-25T09:46:52.932Z</time></trkpt><trkpt lat="43.5759634" lon="12.0121588"><ele>467.85714285714283</ele><time>2026-04-25T09:47:03.946Z</time></trkpt><trkpt lat="43.575891" lon="12.0122006"><ele>470.0</ele><time>2026-04-25T09:47:59.945Z</time></trkpt><trkpt lat="43.5758227" lon="12.0122118"><ele>470.0</ele><time>2026-04-25T09:48:09.938Z</time></trkpt><trkpt lat="43.575757" lon="12.0122215"><ele>469.99999999999994</ele><time>2026-04-25T09:48:19.969Z</time></trkpt><trkpt lat="43.5756967" lon="12.012193"><ele>470.0</ele><time>2026-04-25T09:48:31.932Z</time></trkpt><trkpt lat="43.5756347" lon="12.0122145"><ele>470.0</ele><time>2026-04-25T09:48:39.935Z</time></trkpt><trkpt lat="43.5755684" lon="12.0122385"><ele>469.99999999999994</ele><time>2026-04-25T09:48:52.92Z</time></trkpt><trkpt lat="43.5755284" lon="12.0121251"><ele>470.0</ele><time>2026-04-25T09:49:53.946Z</time></trkpt><trkpt lat="43.5754713" lon="12.0120531"><ele>470.0</ele><time>2026-04-25T09:49:56.929Z</time></trkpt><trkpt lat="43.5754049" lon="12.0120468"><ele>472.71428571428567</ele><time>2026-04-25T09:50:03.928Z</time></trkpt><trkpt lat="43.5753478" lon="12.0120061"><ele>475.4285714285714</ele><time>2026-04-25T09:50:14.943Z</time></trkpt><trkpt lat="43.5752664" lon="12.0120638"><ele>478.1428571428571</ele><time>2026-04-25T09:52:22.937Z</time></trkpt><trkpt lat="43.5751975" lon="12.0120925"><ele>480.8571428571429</ele><time>2026-04-25T09:52:28.939Z</time></trkpt><trkpt lat="43.5751345" lon="12.0121093"><ele>483.5714285714286</ele><time>2026-04-25T09:52:35.94Z</time></trkpt><trkpt lat="43.5750725" lon="12.0121529"><ele>486.28571428571433</ele><time>2026-04-25T09:52:42.941Z</time></trkpt><trkpt lat="43.5750018" lon="12.0121813"><ele>489.0</ele><time>2026-04-25T09:52:48.941Z</time></trkpt><trkpt lat="43.5749378" lon="12.0122165"><ele>489.0</ele><time>2026-04-25T09:52:56.002Z</time></trkpt><trkpt lat="43.5748861" lon="12.0122724"><ele>489.00000000000006</ele><time>2026-04-25T09:53:02.941Z</time></trkpt><trkpt lat="43.5748294" lon="12.0123145"><ele>489.0</ele><time>2026-04-25T09:53:09.936Z</time></trkpt><trkpt lat="43.5747651" lon="12.0123515"><ele>489.0</ele><time>2026-04-25T09:53:16.933Z</time></trkpt><trkpt lat="43.5747036" lon="12.0123934"><ele>489.00000000000006</ele><time>2026-04-25T09:53:24.938Z</time></trkpt><trkpt lat="43.5746374" lon="12.0124612"><ele>489.0</ele><time>2026-04-25T09:53:39.937Z</time></trkpt><trkpt lat="43.5745783" lon="12.0125079"><ele>489.0</ele><time>2026-04-25T09:53:45.888Z</time></trkpt><trkpt lat="43.5745309" lon="12.0125938"><ele>489.5714285714286</ele><time>2026-04-25T09:54:50.925Z</time></trkpt><trkpt lat="43.5744872" lon="12.012657"><ele>490.1428571428572</ele><time>2026-04-25T09:54:54.941Z</time></trkpt><trkpt lat="43.5744411" lon="12.0127219"><ele>490.7142857142857</ele><time>2026-04-25T09:55:01.964Z</time></trkpt><trkpt lat="43.5744014" lon="12.0127914"><ele>491.28571428571433</ele><time>2026-04-25T09:55:10.942Z</time></trkpt><trkpt lat="43.5743907" lon="12.012884"><ele>491.8571428571429</ele><time>2026-04-25T09:55:18.94Z</time></trkpt><trkpt lat="43.5743705" lon="12.0129759"><ele>492.42857142857144</ele><time>2026-04-25T09:55:27.942Z</time></trkpt><trkpt lat="43.5743354" lon="12.0130545"><ele>493.0</ele><time>2026-04-25T09:55:33.941Z</time></trkpt><trkpt lat="43.5743011" lon="12.0131346"><ele>493.0</ele><time>2026-04-25T09:55:39.938Z</time></trkpt><trkpt lat="43.5743158" lon="12.0132248"><ele>493.0</ele><time>2026-04-25T09:55:46.942Z</time></trkpt><trkpt lat="43.5743497" lon="12.0133016"><ele>493.0</ele><time>2026-04-25T09:55:51.884Z</time></trkpt><trkpt lat="43.5743581" lon="12.0133923"><ele>493.0</ele><time>2026-04-25T09:55:59.941Z</time></trkpt><trkpt lat="43.5743017" lon="12.013436"><ele>493.0</ele><time>2026-04-25T09:56:09.914Z</time></trkpt><trkpt lat="43.5742385" lon="12.0133925"><ele>493.0</ele><time>2026-04-25T09:56:15.921Z</time></trkpt><trkpt lat="43.5741692" lon="12.0133685"><ele>493.0</ele><time>2026-04-25T09:56:22.92Z</time></trkpt><trkpt lat="43.5741087" lon="12.0133405"><ele>493.0</ele><time>2026-04-25T09:56:29.918Z</time></trkpt><trkpt lat="43.5740474" lon="12.0133064"><ele>493.0</ele><time>2026-04-25T09:56:44.927Z</time></trkpt><trkpt lat="43.573981" lon="12.0132965"><ele>493.0</ele><time>2026-04-25T09:56:50.911Z</time></trkpt><trkpt lat="43.5739163" lon="12.0132795"><ele>493.0</ele><time>2026-04-25T09:56:58.932Z</time></trkpt><trkpt lat="43.5738516" lon="12.0132537"><ele>493.0</ele><time>2026-04-25T09:57:08.94Z</time></trkpt><trkpt lat="43.573793" lon="12.0132212"><ele>493.0</ele><time>2026-04-25T09:57:14.938Z</time></trkpt><trkpt lat="43.5737245" lon="12.0131972"><ele>493.0</ele><time>2026-04-25T09:57:21.939Z</time></trkpt><trkpt lat="43.5736565" lon="12.0132091"><ele>494.42857142857144</ele><time>2026-04-25T09:57:33.844Z</time></trkpt><trkpt lat="43.5735846" lon="12.0132124"><ele>495.8571428571429</ele><time>2026-04-25T09:57:42.93Z</time></trkpt><trkpt lat="43.5735174" lon="12.0132045"><ele>497.28571428571433</ele><time>2026-04-25T09:57:48.928Z</time></trkpt><trkpt lat="43.5734495" lon="12.0131574"><ele>498.7142857142857</ele><time>2026-04-25T09:57:57.94Z</time></trkpt><trkpt lat="43.5733829" lon="12.0131305"><ele>500.1428571428572</ele><time>2026-04-25T09:58:07.97Z</time></trkpt><trkpt lat="43.5733138" lon="12.0131547"><ele>501.5714285714286</ele><time>2026-04-25T09:58:15.929Z</time></trkpt><trkpt lat="43.5732569" lon="12.0132048"><ele>503.0</ele><time>2026-04-25T09:58:23.932Z</time></trkpt><trkpt lat="43.5732142" lon="12.0132842"><ele>500.28571428571433</ele><time>2026-04-25T09:58:30.921Z</time></trkpt><trkpt lat="43.5731882" lon="12.0133732"><ele>497.5714285714286</ele><time>2026-04-25T09:58:36.928Z</time></trkpt><trkpt lat="43.5731606" lon="12.0134647"><ele>494.8571428571429</ele><time>2026-04-25T09:58:43.959Z</time></trkpt><trkpt lat="43.5731503" lon="12.0135573"><ele>492.1428571428571</ele><time>2026-04-25T09:58:50.941Z</time></trkpt><trkpt lat="43.5731085" lon="12.0136236"><ele>489.4285714285714</ele><time>2026-04-25T09:58:58.929Z</time></trkpt><trkpt lat="43.5730548" lon="12.0136811"><ele>486.71428571428567</ele><time>2026-04-25T09:59:07.957Z</time></trkpt><trkpt lat="43.5729988" lon="12.0137284"><ele>484.0</ele><time>2026-04-25T09:59:19.954Z</time></trkpt><trkpt lat="43.572983" lon="12.0138192"><ele>484.0</ele><time>2026-04-25T09:59:30.943Z</time></trkpt><trkpt lat="43.5730053" lon="12.0139136"><ele>483.99999999999994</ele><time>2026-04-25T09:59:46.938Z</time></trkpt><trkpt lat="43.5730104" lon="12.0140073"><ele>484.0</ele><time>2026-04-25T09:59:54.844Z</time></trkpt><trkpt lat="43.5730036" lon="12.0140992"><ele>484.0</ele><time>2026-04-25T10:00:04.931Z</time></trkpt><trkpt lat="43.5730471" lon="12.0141757"><ele>483.99999999999994</ele><time>2026-04-25T10:00:25.844Z</time></trkpt><trkpt lat="43.5731099" lon="12.0142035"><ele>484.0</ele><time>2026-04-25T10:00:33.93Z</time></trkpt><trkpt lat="43.5731682" lon="12.0142433"><ele>484.0</ele><time>2026-04-25T10:00:41.944Z</time></trkpt><trkpt lat="43.5732156" lon="12.014314"><ele>483.85714285714283</ele><time>2026-04-25T10:00:50.943Z</time></trkpt><trkpt lat="43.573264" lon="12.0143738"><ele>483.71428571428567</ele><time>2026-04-25T10:00:57.944Z</time></trkpt><trkpt lat="43.5732227" lon="12.0144441"><ele>483.57142857142856</ele><time>2026-04-25T10:02:03.946Z</time></trkpt><trkpt lat="43.5731789" lon="12.0145162"><ele>483.42857142857144</ele><time>2026-04-25T10:02:11.844Z</time></trkpt><trkpt lat="43.5731476" lon="12.0145948"><ele>483.2857142857143</ele><time>2026-04-25T10:02:21.946Z</time></trkpt><trkpt lat="43.5731088" lon="12.0146683"><ele>483.1428571428571</ele><time>2026-04-25T10:02:34.935Z</time></trkpt><trkpt lat="43.5730697" lon="12.0147393"><ele>483.0</ele><time>2026-04-25T10:02:44.945Z</time></trkpt><trkpt lat="43.5730405" lon="12.0148177"><ele>483.0</ele><time>2026-04-25T10:02:54.931Z</time></trkpt><trkpt lat="43.5729973" lon="12.0148892"><ele>483.0</ele><time>2026-04-25T10:03:04.942Z</time></trkpt><trkpt lat="43.5729701" lon="12.0149753"><ele>483.0</ele><time>2026-04-25T10:03:11.932Z</time></trkpt><trkpt lat="43.5729637" lon="12.0150686"><ele>483.0</ele><time>2026-04-25T10:03:21.865Z</time></trkpt><trkpt lat="43.572958" lon="12.0151681"><ele>483.0</ele><time>2026-04-25T10:03:29.946Z</time></trkpt><trkpt lat="43.5729357" lon="12.0152687"><ele>483.0</ele><time>2026-04-25T10:03:36.952Z</time></trkpt><trkpt lat="43.5728954" lon="12.0153359"><ele>483.0</ele><time>2026-04-25T10:03:42.948Z</time></trkpt><trkpt lat="43.5728452" lon="12.0154033"><ele>489.0</ele><time>2026-04-25T10:03:50.944Z</time></trkpt><trkpt lat="43.5727929" lon="12.0154684"><ele>495.0</ele><time>2026-04-25T10:03:57.943Z</time></trkpt><trkpt lat="43.5727413" lon="12.015529"><ele>501.0</ele><time>2026-04-25T10:04:04.932Z</time></trkpt><trkpt lat="43.5726818" lon="12.0155875"><ele>507.0</ele><time>2026-04-25T10:04:10.936Z</time></trkpt><trkpt lat="43.5726227" lon="12.0156302"><ele>513.0</ele><time>2026-04-25T10:04:17.932Z</time></trkpt><trkpt lat="43.5725586" lon="12.0156605"><ele>519.0</ele><time>2026-04-25T10:04:25.997Z</time></trkpt><trkpt lat="43.5724983" lon="12.0156895"><ele>525.0</ele><time>2026-04-25T10:04:33.937Z</time></trkpt><trkpt lat="43.5724377" lon="12.0157401"><ele>525.0</ele><time>2026-04-25T10:04:41.925Z</time></trkpt><trkpt lat="43.5723718" lon="12.0157715"><ele>525.0</ele><time>2026-04-25T10:04:47.931Z</time></trkpt><trkpt lat="43.5723093" lon="12.0158119"><ele>525.0</ele><time>2026-04-25T10:04:54.934Z</time></trkpt><trkpt lat="43.5722452" lon="12.0158579"><ele>525.0</ele><time>2026-04-25T10:05:01.937Z</time></trkpt><trkpt lat="43.5721897" lon="12.0159193"><ele>525.0</ele><time>2026-04-25T10:05:08.932Z</time></trkpt><trkpt lat="43.5721322" lon="12.0159866"><ele>525.0</ele><time>2026-04-25T10:05:16.936Z</time></trkpt><trkpt lat="43.5720805" lon="12.0160506"><ele>525.0</ele><time>2026-04-25T10:05:24.947Z</time></trkpt><trkpt lat="43.5720304" lon="12.01611"><ele>525.8571428571429</ele><time>2026-04-25T10:05:30.946Z</time></trkpt><trkpt lat="43.5719836" lon="12.0161702"><ele>526.7142857142858</ele><time>2026-04-25T10:05:36.929Z</time></trkpt><trkpt lat="43.5719452" lon="12.0162485"><ele>527.5714285714286</ele><time>2026-04-25T10:05:41.947Z</time></trkpt><trkpt lat="43.5719248" lon="12.0163338"><ele>528.4285714285714</ele><time>2026-04-25T10:05:46.943Z</time></trkpt><trkpt lat="43.5718917" lon="12.0164268"><ele>529.2857142857143</ele><time>2026-04-25T10:05:52.944Z</time></trkpt><trkpt lat="43.5718672" lon="12.0165124"><ele>530.1428571428571</ele><time>2026-04-25T10:05:58.93Z</time></trkpt><trkpt lat="43.5718432" lon="12.0166009"><ele>531.0</ele><time>2026-04-25T10:06:05.93Z</time></trkpt><trkpt lat="43.5718332" lon="12.0166956"><ele>527.0</ele><time>2026-04-25T10:06:13.946Z</time></trkpt><trkpt lat="43.571819" lon="12.0167859"><ele>523.0</ele><time>2026-04-25T10:06:19.931Z</time></trkpt><trkpt lat="43.5718185" lon="12.01688"><ele>519.0</ele><time>2026-04-25T10:06:25.993Z</time></trkpt><trkpt lat="43.5718163" lon="12.0169789"><ele>515.0</ele><time>2026-04-25T10:06:34.936Z</time></trkpt><trkpt lat="43.5718034" lon="12.0170679"><ele>511.00000000000006</ele><time>2026-04-25T10:06:42.945Z</time></trkpt><trkpt lat="43.5717437" lon="12.0171067"><ele>507.0</ele><time>2026-04-25T10:06:50.949Z</time></trkpt><trkpt lat="43.5716812" lon="12.0170865"><ele>503.0</ele><time>2026-04-25T10:06:59.945Z</time></trkpt><trkpt lat="43.571616" lon="12.0170859"><ele>503.0</ele><time>2026-04-25T10:07:08.928Z</time></trkpt><trkpt lat="43.5715475" lon="12.0170911"><ele>503.00000000000006</ele><time>2026-04-25T10:07:21.948Z</time></trkpt><trkpt lat="43.5714827" lon="12.017078"><ele>503.0</ele><time>2026-04-25T10:07:29.929Z</time></trkpt><trkpt lat="43.5714259" lon="12.0170322"><ele>503.0</ele><time>2026-04-25T10:07:36.931Z</time></trkpt><trkpt lat="43.5713647" lon="12.0170039"><ele>503.00000000000006</ele><time>2026-04-25T10:07:44.863Z</time></trkpt><trkpt lat="43.5713018" lon="12.0169977"><ele>503.0</ele><time>2026-04-25T10:07:54.948Z</time></trkpt><trkpt lat="43.5712384" lon="12.0170275"><ele>503.0</ele><time>2026-04-25T10:08:00.941Z</time></trkpt><trkpt lat="43.5711746" lon="12.0170475"><ele>502.42857142857144</ele><time>2026-04-25T10:08:06.933Z</time></trkpt><trkpt lat="43.5711065" lon="12.0170257"><ele>501.8571428571429</ele><time>2026-04-25T10:08:14.945Z</time></trkpt><trkpt lat="43.5710405" lon="12.0170626"><ele>501.28571428571433</ele><time>2026-04-25T10:08:21.942Z</time></trkpt><trkpt lat="43.5709798" lon="12.0170885"><ele>500.7142857142858</ele><time>2026-04-25T10:08:26.925Z</time></trkpt><trkpt lat="43.5709188" lon="12.0171123"><ele>500.14285714285717</ele><time>2026-04-25T10:08:35.935Z</time></trkpt><trkpt lat="43.5708927" lon="12.017029"><ele>499.57142857142867</ele><time>2026-04-25T10:08:49.936Z</time></trkpt><trkpt lat="43.5708596" lon="12.0169497"><ele>499.00000000000006</ele><time>2026-04-25T10:08:56.931Z</time></trkpt><trkpt lat="43.5708211" lon="12.0168754"><ele>499.00000000000006</ele><time>2026-04-25T10:09:05.946Z</time></trkpt><trkpt lat="43.5707872" lon="12.0167955"><ele>499.0</ele><time>2026-04-25T10:09:15.943Z</time></trkpt><trkpt lat="43.5707333" lon="12.0167431"><ele>499.00000000000006</ele><time>2026-04-25T10:09:25.942Z</time></trkpt><trkpt lat="43.5706771" lon="12.0166994"><ele>499.00000000000006</ele><time>2026-04-25T10:09:34.933Z</time></trkpt><trkpt lat="43.5706267" lon="12.0166472"><ele>499.0</ele><time>2026-04-25T10:09:42.927Z</time></trkpt><trkpt lat="43.5705685" lon="12.0166047"><ele>499.00000000000006</ele><time>2026-04-25T10:09:50.866Z</time></trkpt><trkpt lat="43.5705171" lon="12.0165507"><ele>499.00000000000006</ele><time>2026-04-25T10:09:59.949Z</time></trkpt><trkpt lat="43.5704735" lon="12.0164784"><ele>499.57142857142867</ele><time>2026-04-25T10:10:09.932Z</time></trkpt><trkpt lat="43.5704088" lon="12.0164384"><ele>500.14285714285717</ele><time>2026-04-25T10:10:19.948Z</time></trkpt><trkpt lat="43.5703429" lon="12.0164025"><ele>500.7142857142858</ele><time>2026-04-25T10:10:28.944Z</time></trkpt><trkpt lat="43.5702793" lon="12.0163572"><ele>501.28571428571433</ele><time>2026-04-25T10:10:38.934Z</time></trkpt><trkpt lat="43.5702292" lon="12.0163006"><ele>501.8571428571429</ele><time>2026-04-25T10:10:48.946Z</time></trkpt><trkpt lat="43.5701784" lon="12.0162366"><ele>502.42857142857144</ele><time>2026-04-25T10:10:54.943Z</time></trkpt><trkpt lat="43.5701194" lon="12.0161995"><ele>503.0</ele><time>2026-04-25T10:11:00.933Z</time></trkpt><trkpt lat="43.5700599" lon="12.0161671"><ele>503.0</ele><time>2026-04-25T10:11:08.945Z</time></trkpt><trkpt lat="43.570023" lon="12.0160911"><ele>503.00000000000006</ele><time>2026-04-25T10:11:18.944Z</time></trkpt><trkpt lat="43.5700055" lon="12.0160061"><ele>503.0</ele><time>2026-04-25T10:11:28.929Z</time></trkpt><trkpt lat="43.5699928" lon="12.015878"><ele>503.0</ele><time>2026-04-25T10:11:46.944Z</time></trkpt><trkpt lat="43.5700027" lon="12.0157842"><ele>503.00000000000006</ele><time>2026-04-25T10:11:54.948Z</time></trkpt><trkpt lat="43.5700298" lon="12.0157"><ele>503.0</ele><time>2026-04-25T10:12:03.929Z</time></trkpt><trkpt lat="43.5700324" lon="12.0156027"><ele>503.0</ele><time>2026-04-25T10:12:12.951Z</time></trkpt><trkpt lat="43.5700461" lon="12.0155102"><ele>504.42857142857144</ele><time>2026-04-25T10:12:20.939Z</time></trkpt><trkpt lat="43.5700642" lon="12.0154201"><ele>505.8571428571429</ele><time>2026-04-25T10:12:29.943Z</time></trkpt><trkpt lat="43.5700349" lon="12.0153365"><ele>507.28571428571433</ele><time>2026-04-25T10:14:28.935Z</time></trkpt><trkpt lat="43.5700618" lon="12.0152539"><ele>508.7142857142858</ele><time>2026-04-25T10:14:35.924Z</time></trkpt><trkpt lat="43.5700775" lon="12.0151582"><ele>510.14285714285717</ele><time>2026-04-25T10:14:43.945Z</time></trkpt><trkpt lat="43.570073" lon="12.0150439"><ele>511.57142857142867</ele><time>2026-04-25T10:14:51.93Z</time></trkpt><trkpt lat="43.5700983" lon="12.0149555"><ele>513.0</ele><time>2026-04-25T10:14:57.943Z</time></trkpt><trkpt lat="43.5701314" lon="12.0148773"><ele>514.5714285714287</ele><time>2026-04-25T10:15:05.936Z</time></trkpt><trkpt lat="43.5701438" lon="12.0147913"><ele>516.1428571428571</ele><time>2026-04-25T10:15:13.944Z</time></trkpt><trkpt lat="43.570144" lon="12.0146998"><ele>517.7142857142858</ele><time>2026-04-25T10:15:26.006Z</time></trkpt><trkpt lat="43.5701638" lon="12.0146158"><ele>519.2857142857143</ele><time>2026-04-25T10:15:33.928Z</time></trkpt><trkpt lat="43.5701511" lon="12.0145233"><ele>520.8571428571429</ele><time>2026-04-25T10:15:40.932Z</time></trkpt><trkpt lat="43.5701481" lon="12.0144262"><ele>522.4285714285714</ele><time>2026-04-25T10:15:47.947Z</time></trkpt><trkpt lat="43.5701476" lon="12.014337"><ele>524.0</ele><time>2026-04-25T10:15:53.903Z</time></trkpt><trkpt lat="43.5701381" lon="12.0142382"><ele>525.8571428571429</ele><time>2026-04-25T10:16:01.978Z</time></trkpt><trkpt lat="43.5701322" lon="12.0141491"><ele>527.7142857142858</ele><time>2026-04-25T10:16:09.928Z</time></trkpt><trkpt lat="43.5701164" lon="12.0140612"><ele>529.5714285714286</ele><time>2026-04-25T10:16:17.932Z</time></trkpt><trkpt lat="43.5701069" lon="12.0139717"><ele>531.4285714285714</ele><time>2026-04-25T10:16:27.943Z</time></trkpt><trkpt lat="43.5701168" lon="12.0138787"><ele>533.2857142857142</ele><time>2026-04-25T10:16:36.862Z</time></trkpt><trkpt lat="43.5701512" lon="12.0137448"><ele>535.1428571428571</ele><time>2026-04-25T10:18:42.863Z</time></trkpt><trkpt lat="43.5701697" lon="12.0136589"><ele>537.0</ele><time>2026-04-25T10:19:02.928Z</time></trkpt><trkpt lat="43.5701849" lon="12.0135719"><ele>536.9999999999999</ele><time>2026-04-25T10:19:09.922Z</time></trkpt><trkpt lat="43.5701881" lon="12.0134846"><ele>537.0</ele><time>2026-04-25T10:19:18.946Z</time></trkpt><trkpt lat="43.5701873" lon="12.0133904"><ele>537.0</ele><time>2026-04-25T10:19:28.932Z</time></trkpt><trkpt lat="43.5701798" lon="12.0133025"><ele>537.0</ele><time>2026-04-25T10:19:39.944Z</time></trkpt><trkpt lat="43.5702163" lon="12.0132228"><ele>537.0</ele><time>2026-04-25T10:19:50.914Z</time></trkpt><trkpt lat="43.5702422" lon="12.0131428"><ele>536.9999999999999</ele><time>2026-04-25T10:20:01.97Z</time></trkpt><trkpt lat="43.5702509" lon="12.0130543"><ele>537.0</ele><time>2026-04-25T10:20:11.93Z</time></trkpt><trkpt lat="43.570243" lon="12.0129644"><ele>538.9999999999999</ele><time>2026-04-25T10:20:20.927Z</time></trkpt><trkpt lat="43.5702268" lon="12.0128721"><ele>541.0</ele><time>2026-04-25T10:22:41.935Z</time></trkpt><trkpt lat="43.5701992" lon="12.0127774"><ele>543.0</ele><time>2026-04-25T10:22:45.946Z</time></trkpt><trkpt lat="43.5701791" lon="12.0126929"><ele>545.0</ele><time>2026-04-25T10:22:52.935Z</time></trkpt><trkpt lat="43.5701327" lon="12.0126283"><ele>547.0</ele><time>2026-04-25T10:23:00.943Z</time></trkpt><trkpt lat="43.5700745" lon="12.0125756"><ele>548.9999999999999</ele><time>2026-04-25T10:23:06.945Z</time></trkpt><trkpt lat="43.570016" lon="12.0125377"><ele>551.0</ele><time>2026-04-25T10:23:12.931Z</time></trkpt><trkpt lat="43.5699564" lon="12.0124962"><ele>553.9999999999999</ele><time>2026-04-25T10:23:19.97Z</time></trkpt><trkpt lat="43.5699332" lon="12.0124119"><ele>557.0</ele><time>2026-04-25T10:23:28.941Z</time></trkpt><trkpt lat="43.5699069" lon="12.0123224"><ele>560.0</ele><time>2026-04-25T10:23:37.984Z</time></trkpt><trkpt lat="43.5698877" lon="12.0122396"><ele>563.0</ele><time>2026-04-25T10:23:44.943Z</time></trkpt><trkpt lat="43.5698447" lon="12.0121625"><ele>566.0</ele><time>2026-04-25T10:23:51.884Z</time></trkpt><trkpt lat="43.5698142" lon="12.012083"><ele>568.9999999999999</ele><time>2026-04-25T10:23:57.945Z</time></trkpt><trkpt lat="43.569762" lon="12.0120268"><ele>572.0</ele><time>2026-04-25T10:24:03.943Z</time></trkpt><trkpt lat="43.5697346" lon="12.0119483"><ele>571.9999999999999</ele><time>2026-04-25T10:24:10.949Z</time></trkpt><trkpt lat="43.5697195" lon="12.0118519"><ele>572.0</ele><time>2026-04-25T10:24:17.945Z</time></trkpt><trkpt lat="43.5696833" lon="12.0117756"><ele>572.0</ele><time>2026-04-25T10:24:24.95Z</time></trkpt><trkpt lat="43.5696495" lon="12.011691"><ele>572.0</ele><time>2026-04-25T10:24:31.993Z</time></trkpt><trkpt lat="43.5696269" lon="12.0116061"><ele>572.0</ele><time>2026-04-25T10:24:38.93Z</time></trkpt><trkpt lat="43.5695964" lon="12.0115266"><ele>571.9999999999999</ele><time>2026-04-25T10:24:45.927Z</time></trkpt><trkpt lat="43.5695525" lon="12.0114508"><ele>572.0</ele><time>2026-04-25T10:24:53.948Z</time></trkpt><trkpt lat="43.5695082" lon="12.0113714"><ele>570.7142857142857</ele><time>2026-04-25T10:25:01.952Z</time></trkpt><trkpt lat="43.569453" lon="12.0113125"><ele>569.4285714285714</ele><time>2026-04-25T10:25:08.943Z</time></trkpt><trkpt lat="43.5694028" lon="12.0112458"><ele>568.1428571428571</ele><time>2026-04-25T10:25:16.944Z</time></trkpt><trkpt lat="43.5693674" lon="12.0111622"><ele>566.8571428571429</ele><time>2026-04-25T10:25:23.944Z</time></trkpt><trkpt lat="43.5693182" lon="12.0110971"><ele>565.5714285714286</ele><time>2026-04-25T10:25:30.942Z</time></trkpt><trkpt lat="43.5692484" lon="12.011067"><ele>564.2857142857142</ele><time>2026-04-25T10:25:37.986Z</time></trkpt><trkpt lat="43.5691892" lon="12.0110277"><ele>563.0</ele><time>2026-04-25T10:25:43.982Z</time></trkpt><trkpt lat="43.5691349" lon="12.0109617"><ele>563.0</ele><time>2026-04-25T10:25:50.947Z</time></trkpt><trkpt lat="43.5691555" lon="12.0108791"><ele>563.0</ele><time>2026-04-25T10:26:33.91Z</time></trkpt><trkpt lat="43.5691706" lon="12.0107336"><ele>563.0</ele><time>2026-04-25T10:28:52.917Z</time></trkpt><trkpt lat="43.5691476" lon="12.0106518"><ele>563.0</ele><time>2026-04-25T10:29:06.918Z</time></trkpt><trkpt lat="43.5691993" lon="12.0105973"><ele>563.0</ele><time>2026-04-25T10:29:14.909Z</time></trkpt><trkpt lat="43.5692447" lon="12.0105333"><ele>563.0</ele><time>2026-04-25T10:29:20.915Z</time></trkpt><trkpt lat="43.5692609" lon="12.0104376"><ele>563.0</ele><time>2026-04-25T10:29:28.912Z</time></trkpt><trkpt lat="43.5692561" lon="12.0103478"><ele>561.8571428571429</ele><time>2026-04-25T10:29:38.942Z</time></trkpt><trkpt lat="43.5692665" lon="12.0102498"><ele>560.7142857142858</ele><time>2026-04-25T10:29:48.929Z</time></trkpt><trkpt lat="43.5692722" lon="12.010158"><ele>559.5714285714287</ele><time>2026-04-25T10:29:54.93Z</time></trkpt><trkpt lat="43.5692815" lon="12.0100653"><ele>558.4285714285714</ele><time>2026-04-25T10:30:01.926Z</time></trkpt><trkpt lat="43.5692914" lon="12.009979"><ele>557.2857142857143</ele><time>2026-04-25T10:30:10.928Z</time></trkpt><trkpt lat="43.5692884" lon="12.0098858"><ele>556.1428571428572</ele><time>2026-04-25T10:30:19.986Z</time></trkpt><trkpt lat="43.5692381" lon="12.0098259"><ele>555.0</ele><time>2026-04-25T10:30:29.954Z</time></trkpt><trkpt lat="43.5691377" lon="12.0097417"><ele>554.4285714285714</ele><time>2026-04-25T10:31:14.932Z</time></trkpt><trkpt lat="43.5692068" lon="12.009742"><ele>553.8571428571429</ele><time>2026-04-25T10:31:21.929Z</time></trkpt><trkpt lat="43.569251" lon="12.0096755"><ele>553.2857142857142</ele><time>2026-04-25T10:31:33.946Z</time></trkpt><trkpt lat="43.5692587" lon="12.0095776"><ele>552.7142857142858</ele><time>2026-04-25T10:31:41.933Z</time></trkpt><trkpt lat="43.5692682" lon="12.0094809"><ele>552.1428571428571</ele><time>2026-04-25T10:31:48.933Z</time></trkpt><trkpt lat="43.5692871" lon="12.009368"><ele>551.5714285714286</ele><time>2026-04-25T10:32:11.933Z</time></trkpt><trkpt lat="43.5693036" lon="12.0092806"><ele>551.0</ele><time>2026-04-25T10:32:21.944Z</time></trkpt><trkpt lat="43.5692913" lon="12.0091915"><ele>549.7142857142857</ele><time>2026-04-25T10:32:29.954Z</time></trkpt><trkpt lat="43.5692895" lon="12.0091012"><ele>548.4285714285714</ele><time>2026-04-25T10:32:36.945Z</time></trkpt><trkpt lat="43.5693004" lon="12.0090118"><ele>547.1428571428571</ele><time>2026-04-25T10:32:44.942Z</time></trkpt><trkpt lat="43.5693253" lon="12.0089242"><ele>545.8571428571429</ele><time>2026-04-25T10:32:54.866Z</time></trkpt><trkpt lat="43.5693424" lon="12.0088397"><ele>544.5714285714286</ele><time>2026-04-25T10:33:00.932Z</time></trkpt><trkpt lat="43.5693838" lon="12.0087547"><ele>543.2857142857142</ele><time>2026-04-25T10:33:07.975Z</time></trkpt><trkpt lat="43.5694185" lon="12.0086763"><ele>542.0</ele><time>2026-04-25T10:33:14.948Z</time></trkpt><trkpt lat="43.5694553" lon="12.0085948"><ele>542.0</ele><time>2026-04-25T10:33:21.944Z</time></trkpt><trkpt lat="43.5694948" lon="12.0085241"><ele>542.0</ele><time>2026-04-25T10:33:27.942Z</time></trkpt><trkpt lat="43.56953" lon="12.0084484"><ele>542.0</ele><time>2026-04-25T10:33:33.946Z</time></trkpt><trkpt lat="43.5695494" lon="12.0083615"><ele>542.0</ele><time>2026-04-25T10:33:40.948Z</time></trkpt><trkpt lat="43.5695815" lon="12.0082825"><ele>542.0</ele><time>2026-04-25T10:33:49.984Z</time></trkpt><trkpt lat="43.5696005" lon="12.0081991"><ele>542.0</ele><time>2026-04-25T10:33:57.949Z</time></trkpt><trkpt lat="43.5696073" lon="12.0081099"><ele>542.0</ele><time>2026-04-25T10:34:05.94Z</time></trkpt><trkpt lat="43.5696366" lon="12.0080294"><ele>541.5714285714286</ele><time>2026-04-25T10:34:14.93Z</time></trkpt><trkpt lat="43.5696715" lon="12.0079534"><ele>541.1428571428571</ele><time>2026-04-25T10:34:20.928Z</time></trkpt><trkpt lat="43.569702" lon="12.0078699"><ele>540.7142857142858</ele><time>2026-04-25T10:34:26.945Z</time></trkpt><trkpt lat="43.5697269" lon="12.0077847"><ele>540.2857142857142</ele><time>2026-04-25T10:34:32.948Z</time></trkpt><trkpt lat="43.5697676" lon="12.0077084"><ele>539.8571428571429</ele><time>2026-04-25T10:34:40.947Z</time></trkpt><trkpt lat="43.5698221" lon="12.0076585"><ele>539.4285714285714</ele><time>2026-04-25T10:34:50.929Z</time></trkpt><trkpt lat="43.5698833" lon="12.0076841"><ele>539.0</ele><time>2026-04-25T10:35:05.95Z</time></trkpt><trkpt lat="43.5699003" lon="12.0077688"><ele>539.0</ele><time>2026-04-25T10:36:18.945Z</time></trkpt><trkpt lat="43.5699473" lon="12.0078427"><ele>539.0</ele><time>2026-04-25T10:36:26.941Z</time></trkpt><trkpt lat="43.570004" lon="12.0078966"><ele>539.0</ele><time>2026-04-25T10:36:34.935Z</time></trkpt><trkpt lat="43.5700518" lon="12.0079693"><ele>539.0</ele><time>2026-04-25T10:36:40.93Z</time></trkpt><trkpt lat="43.5701022" lon="12.0080248"><ele>539.0</ele><time>2026-04-25T10:36:46.946Z</time></trkpt><trkpt lat="43.5701547" lon="12.0080869"><ele>539.0</ele><time>2026-04-25T10:36:53.948Z</time></trkpt><trkpt lat="43.5702158" lon="12.0081326"><ele>539.0</ele><time>2026-04-25T10:37:01.995Z</time></trkpt><trkpt lat="43.5702776" lon="12.0081651"><ele>539.0</ele><time>2026-04-25T10:37:10.936Z</time></trkpt><trkpt lat="43.5703465" lon="12.0081373"><ele>539.0</ele><time>2026-04-25T10:37:19.986Z</time></trkpt><trkpt lat="43.5704126" lon="12.0081301"><ele>539.0</ele><time>2026-04-25T10:37:26.945Z</time></trkpt><trkpt lat="43.5704767" lon="12.008131"><ele>539.0</ele><time>2026-04-25T10:37:31.933Z</time></trkpt><trkpt lat="43.5705525" lon="12.0081419"><ele>539.0</ele><time>2026-04-25T10:37:37.988Z</time></trkpt><trkpt lat="43.5706205" lon="12.0081591"><ele>539.0</ele><time>2026-04-25T10:37:42.945Z</time></trkpt><trkpt lat="43.5706923" lon="12.0081786"><ele>539.0</ele><time>2026-04-25T10:37:48.942Z</time></trkpt><trkpt lat="43.5707572" lon="12.0081859"><ele>539.8571428571429</ele><time>2026-04-25T10:37:53.937Z</time></trkpt><trkpt lat="43.5708255" lon="12.0082101"><ele>540.7142857142858</ele><time>2026-04-25T10:38:00.937Z</time></trkpt><trkpt lat="43.5708909" lon="12.0082383"><ele>541.5714285714286</ele><time>2026-04-25T10:38:08.931Z</time></trkpt><trkpt lat="43.5709596" lon="12.0082457"><ele>542.4285714285714</ele><time>2026-04-25T10:38:21.946Z</time></trkpt><trkpt lat="43.5710218" lon="12.0082153"><ele>543.2857142857143</ele><time>2026-04-25T10:38:27.948Z</time></trkpt><trkpt lat="43.5710797" lon="12.0081528"><ele>544.1428571428571</ele><time>2026-04-25T10:38:34.949Z</time></trkpt><trkpt lat="43.5711283" lon="12.0080865"><ele>545.0</ele><time>2026-04-25T10:38:41.946Z</time></trkpt><trkpt lat="43.5711761" lon="12.0080274"><ele>547.7142857142858</ele><time>2026-04-25T10:38:48.944Z</time></trkpt><trkpt lat="43.5712362" lon="12.0079977"><ele>550.4285714285714</ele><time>2026-04-25T10:38:55.885Z</time></trkpt><trkpt lat="43.5712841" lon="12.0079227"><ele>553.1428571428571</ele><time>2026-04-25T10:39:03.938Z</time></trkpt><trkpt lat="43.5713378" lon="12.0078691"><ele>555.8571428571429</ele><time>2026-04-25T10:39:10.946Z</time></trkpt><trkpt lat="43.5714087" lon="12.0078573"><ele>558.5714285714286</ele><time>2026-04-25T10:39:17.945Z</time></trkpt><trkpt lat="43.5714736" lon="12.0078814"><ele>561.2857142857143</ele><time>2026-04-25T10:39:24.945Z</time></trkpt><trkpt lat="43.571533" lon="12.0078286"><ele>564.0</ele><time>2026-04-25T10:39:33.934Z</time></trkpt><trkpt lat="43.5715999" lon="12.0077977"><ele>564.0</ele><time>2026-04-25T10:39:39.948Z</time></trkpt><trkpt lat="43.5716744" lon="12.0077843"><ele>564.0</ele><time>2026-04-25T10:39:46.95Z</time></trkpt><trkpt lat="43.571746" lon="12.0077674"><ele>564.0</ele><time>2026-04-25T10:39:53.944Z</time></trkpt><trkpt lat="43.5718157" lon="12.00773"><ele>564.0</ele><time>2026-04-25T10:39:59.95Z</time></trkpt><trkpt lat="43.5718759" lon="12.0076928"><ele>564.0</ele><time>2026-04-25T10:40:05.928Z</time></trkpt><trkpt lat="43.571937" lon="12.0076468"><ele>564.0</ele><time>2026-04-25T10:40:12.94Z</time></trkpt><trkpt lat="43.572002" lon="12.007646"><ele>564.0</ele><time>2026-04-25T10:40:21.946Z</time></trkpt><trkpt lat="43.5720658" lon="12.007649"><ele>565.0</ele><time>2026-04-25T10:40:28.944Z</time></trkpt><trkpt lat="43.5721308" lon="12.0076498"><ele>566.0</ele><time>2026-04-25T10:40:37.986Z</time></trkpt><trkpt lat="43.5721894" lon="12.0076876"><ele>567.0</ele><time>2026-04-25T10:40:46.932Z</time></trkpt><trkpt lat="43.5722502" lon="12.0077137"><ele>568.0</ele><time>2026-04-25T10:40:53.916Z</time></trkpt><trkpt lat="43.5722902" lon="12.0077811"><ele>569.0</ele><time>2026-04-25T10:41:02.942Z</time></trkpt><trkpt lat="43.5723383" lon="12.0078421"><ele>570.0</ele><time>2026-04-25T10:41:08.929Z</time></trkpt><trkpt lat="43.5724136" lon="12.0078706"><ele>571.0</ele><time>2026-04-25T10:41:14.92Z</time></trkpt><trkpt lat="43.5724755" lon="12.0078945"><ele>571.0</ele><time>2026-04-25T10:41:20.925Z</time></trkpt><trkpt lat="43.5725382" lon="12.0079283"><ele>571.0</ele><time>2026-04-25T10:41:30.948Z</time></trkpt><trkpt lat="43.572602" lon="12.0079642"><ele>571.0</ele><time>2026-04-25T10:41:39.948Z</time></trkpt><trkpt lat="43.5726654" lon="12.0079723"><ele>571.0</ele><time>2026-04-25T10:41:44.936Z</time></trkpt><trkpt lat="43.5727341" lon="12.0079824"><ele>571.0</ele><time>2026-04-25T10:41:50.926Z</time></trkpt><trkpt lat="43.5727992" lon="12.0079998"><ele>571.0</ele><time>2026-04-25T10:41:56.928Z</time></trkpt><trkpt lat="43.5728627" lon="12.0079622"><ele>571.0</ele><time>2026-04-25T10:42:04.935Z</time></trkpt><trkpt lat="43.57292" lon="12.0078998"><ele>573.2857142857143</ele><time>2026-04-25T10:42:10.932Z</time></trkpt><trkpt lat="43.5729644" lon="12.0078225"><ele>575.5714285714286</ele><time>2026-04-25T10:42:16.947Z</time></trkpt><trkpt lat="43.5730178" lon="12.00776"><ele>577.8571428571429</ele><time>2026-04-25T10:42:23.866Z</time></trkpt><trkpt lat="43.5730736" lon="12.0076986"><ele>580.1428571428571</ele><time>2026-04-25T10:42:30.945Z</time></trkpt><trkpt lat="43.5731148" lon="12.0076185"><ele>582.4285714285714</ele><time>2026-04-25T10:42:37.975Z</time></trkpt><trkpt lat="43.5731481" lon="12.0075331"><ele>584.7142857142858</ele><time>2026-04-25T10:42:46.942Z</time></trkpt><trkpt lat="43.5731803" lon="12.0074493"><ele>587.0</ele><time>2026-04-25T10:42:53.918Z</time></trkpt><trkpt lat="43.5732047" lon="12.0073621"><ele>587.2857142857143</ele><time>2026-04-25T10:43:01.864Z</time></trkpt><trkpt lat="43.5732305" lon="12.0072675"><ele>587.5714285714287</ele><time>2026-04-25T10:43:09.945Z</time></trkpt><trkpt lat="43.5732733" lon="12.0072019"><ele>587.8571428571429</ele><time>2026-04-25T10:43:15.929Z</time></trkpt><trkpt lat="43.5733008" lon="12.0071172"><ele>588.1428571428571</ele><time>2026-04-25T10:43:22.936Z</time></trkpt><trkpt lat="43.5733305" lon="12.0070294"><ele>588.4285714285713</ele><time>2026-04-25T10:43:30.933Z</time></trkpt><trkpt lat="43.5733509" lon="12.0069419"><ele>588.7142857142857</ele><time>2026-04-25T10:43:38.948Z</time></trkpt><trkpt lat="43.5733561" lon="12.0068553"><ele>589.0</ele><time>2026-04-25T10:43:47.939Z</time></trkpt><trkpt lat="43.57335" lon="12.0067656"><ele>589.0</ele><time>2026-04-25T10:43:56.011Z</time></trkpt><trkpt lat="43.5733482" lon="12.0066745"><ele>589.0</ele><time>2026-04-25T10:44:01.976Z</time></trkpt><trkpt lat="43.57336" lon="12.0065814"><ele>589.0</ele><time>2026-04-25T10:44:08.942Z</time></trkpt><trkpt lat="43.5733759" lon="12.00649"><ele>589.0</ele><time>2026-04-25T10:44:15.945Z</time></trkpt><trkpt lat="43.5733468" lon="12.0064031"><ele>589.0</ele><time>2026-04-25T10:44:24.945Z</time></trkpt><trkpt lat="43.5733208" lon="12.0063061"><ele>589.0</ele><time>2026-04-25T10:44:33.935Z</time></trkpt><trkpt lat="43.5733105" lon="12.0062105"><ele>589.0</ele><time>2026-04-25T10:44:40.933Z</time></trkpt><trkpt lat="43.5732917" lon="12.0061151"><ele>590.1666666666667</ele><time>2026-04-25T10:44:47.929Z</time></trkpt><trkpt lat="43.5732851" lon="12.006018"><ele>591.3333333333334</ele><time>2026-04-25T10:44:54.933Z</time></trkpt><trkpt lat="43.5732906" lon="12.0059263"><ele>592.5</ele><time>2026-04-25T10:45:02.93Z</time></trkpt><trkpt lat="43.5732739" lon="12.0058419"><ele>593.6666666666666</ele><time>2026-04-25T10:45:10.93Z</time></trkpt><trkpt lat="43.5732978" lon="12.0056895"><ele>594.8333333333333</ele><time>2026-04-25T10:48:34.907Z</time></trkpt><trkpt lat="43.5732496" lon="12.0056159"><ele>596.0</ele><time>2026-04-25T10:48:44.911Z</time></trkpt><trkpt lat="43.5732028" lon="12.005503"><ele>600.0</ele><time>2026-04-25T10:49:19.953Z</time></trkpt></trkseg><trkseg><trkpt lat="43.5736153" lon="12.0052587"><ele>600.0</ele><time>2026-04-25T12:14:22.095Z</time></trkpt><trkpt lat="43.5736346" lon="12.0051624"><ele>600.0</ele><time>2026-04-25T12:14:25.094Z</time></trkpt><trkpt lat="43.5736081" lon="12.0050769"><ele>600.0</ele><time>2026-04-25T12:14:34.905Z</time></trkpt><trkpt lat="43.5736935" lon="12.0051318"><ele>600.0</ele><time>2026-04-25T12:14:39.942Z</time></trkpt><trkpt lat="43.5737716" lon="12.0051143"><ele>600.0</ele><time>2026-04-25T12:14:43.945Z</time></trkpt><trkpt lat="43.5738212" lon="12.0050335"><ele>600.0</ele><time>2026-04-25T12:14:48.927Z</time></trkpt><trkpt lat="43.5738695" lon="12.0049715"><ele>600.8571428571428</ele><time>2026-04-25T12:14:53.916Z</time></trkpt><trkpt lat="43.5739482" lon="12.0049864"><ele>601.7142857142857</ele><time>2026-04-25T12:18:36.938Z</time></trkpt><trkpt lat="43.5740095" lon="12.0050123"><ele>602.5714285714286</ele><time>2026-04-25T12:18:46.945Z</time></trkpt><trkpt lat="43.574072" lon="12.004982"><ele>603.4285714285713</ele><time>2026-04-25T12:18:59.946Z</time></trkpt><trkpt lat="43.574124" lon="12.0049325"><ele>604.2857142857142</ele><time>2026-04-25T12:19:08.927Z</time></trkpt><trkpt lat="43.5741904" lon="12.0049154"><ele>605.1428571428571</ele><time>2026-04-25T12:19:17.946Z</time></trkpt><trkpt lat="43.5742538" lon="12.0048917"><ele>606.0</ele><time>2026-04-25T12:19:28.945Z</time></trkpt><trkpt lat="43.574315" lon="12.0048633"><ele>607.4285714285714</ele><time>2026-04-25T12:19:40.927Z</time></trkpt><trkpt lat="43.5743895" lon="12.0048206"><ele>608.8571428571429</ele><time>2026-04-25T12:19:58.927Z</time></trkpt><trkpt lat="43.5744292" lon="12.0047506"><ele>610.2857142857142</ele><time>2026-04-25T12:20:10.944Z</time></trkpt><trkpt lat="43.5744902" lon="12.0047114"><ele>611.7142857142858</ele><time>2026-04-25T12:20:19.96Z</time></trkpt><trkpt lat="43.5745523" lon="12.0046928"><ele>613.1428571428571</ele><time>2026-04-25T12:20:30.946Z</time></trkpt><trkpt lat="43.5746146" lon="12.0046689"><ele>614.5714285714286</ele><time>2026-04-25T12:20:42.934Z</time></trkpt><trkpt lat="43.574673" lon="12.0046331"><ele>616.0</ele><time>2026-04-25T12:20:51.94Z</time></trkpt><trkpt lat="43.5747333" lon="12.0046033"><ele>617.1428571428571</ele><time>2026-04-25T12:21:00.908Z</time></trkpt><trkpt lat="43.5747941" lon="12.0045715"><ele>618.2857142857142</ele><time>2026-04-25T12:21:07.964Z</time></trkpt><trkpt lat="43.574854" lon="12.0045437"><ele>619.4285714285714</ele><time>2026-04-25T12:21:13.979Z</time></trkpt><trkpt lat="43.5749232" lon="12.0045179"><ele>620.5714285714286</ele><time>2026-04-25T12:21:22.926Z</time></trkpt><trkpt lat="43.5749926" lon="12.0045035"><ele>621.7142857142857</ele><time>2026-04-25T12:21:31.925Z</time></trkpt><trkpt lat="43.575054" lon="12.0044599"><ele>622.8571428571429</ele><time>2026-04-25T12:21:40.944Z</time></trkpt><trkpt lat="43.5751107" lon="12.004404"><ele>624.0</ele><time>2026-04-25T12:21:46.928Z</time></trkpt><trkpt lat="43.5751623" lon="12.0043346"><ele>624.0</ele><time>2026-04-25T12:21:53.909Z</time></trkpt><trkpt lat="43.5752271" lon="12.0042989"><ele>624.0</ele><time>2026-04-25T12:22:01.945Z</time></trkpt><trkpt lat="43.575286" lon="12.0042481"><ele>624.0</ele><time>2026-04-25T12:22:09.945Z</time></trkpt><trkpt lat="43.5753419" lon="12.0042043"><ele>624.0</ele><time>2026-04-25T12:22:15.939Z</time></trkpt><trkpt lat="43.5754057" lon="12.004164"><ele>624.0</ele><time>2026-04-25T12:22:27.946Z</time></trkpt><trkpt lat="43.5754439" lon="12.004089"><ele>624.0</ele><time>2026-04-25T12:22:33.949Z</time></trkpt><trkpt lat="43.5754795" lon="12.0040172"><ele>624.0</ele><time>2026-04-25T12:22:39.939Z</time></trkpt><trkpt lat="43.5755452" lon="12.0040152"><ele>622.7142857142858</ele><time>2026-04-25T12:22:46.941Z</time></trkpt><trkpt lat="43.5756072" lon="12.0040486"><ele>621.4285714285713</ele><time>2026-04-25T12:22:52.944Z</time></trkpt><trkpt lat="43.5756643" lon="12.0040876"><ele>620.1428571428571</ele><time>2026-04-25T12:22:59.946Z</time></trkpt><trkpt lat="43.5757316" lon="12.0041215"><ele>618.8571428571429</ele><time>2026-04-25T12:23:08.934Z</time></trkpt><trkpt lat="43.5757827" lon="12.0041732"><ele>617.5714285714287</ele><time>2026-04-25T12:23:19.962Z</time></trkpt><trkpt lat="43.5757689" lon="12.0042581"><ele>616.2857142857142</ele><time>2026-04-25T12:23:32.929Z</time></trkpt><trkpt lat="43.57583" lon="12.0042974"><ele>615.0</ele><time>2026-04-25T12:23:40.93Z</time></trkpt><trkpt lat="43.5759006" lon="12.004311"><ele>613.8571428571428</ele><time>2026-04-25T12:23:48.941Z</time></trkpt><trkpt lat="43.5759678" lon="12.0043282"><ele>612.7142857142858</ele><time>2026-04-25T12:23:59.946Z</time></trkpt><trkpt lat="43.5760292" lon="12.0043751"><ele>611.5714285714286</ele><time>2026-04-25T12:24:06.807Z</time></trkpt><trkpt lat="43.5760948" lon="12.0043865"><ele>610.4285714285713</ele><time>2026-04-25T12:24:18.948Z</time></trkpt><trkpt lat="43.5761604" lon="12.0043858"><ele>609.2857142857142</ele><time>2026-04-25T12:26:25.939Z</time></trkpt><trkpt lat="43.5761981" lon="12.0043085"><ele>608.1428571428571</ele><time>2026-04-25T12:26:34.919Z</time></trkpt><trkpt lat="43.5762141" lon="12.004221"><ele>607.0</ele><time>2026-04-25T12:26:42.931Z</time></trkpt><trkpt lat="43.5762045" lon="12.0041272"><ele>608.3333333333334</ele><time>2026-04-25T12:26:48.942Z</time></trkpt><trkpt lat="43.5761774" lon="12.004043"><ele>609.6666666666667</ele><time>2026-04-25T12:26:55.933Z</time></trkpt><trkpt lat="43.5761501" lon="12.0039493"><ele>611.0</ele><time>2026-04-25T12:27:05.929Z</time></trkpt><trkpt lat="43.5761846" lon="12.003806"><ele>612.3333333333334</ele><time>2026-04-25T12:27:32.926Z</time></trkpt><trkpt lat="43.5762136" lon="12.0037081"><ele>613.6666666666666</ele><time>2026-04-25T12:27:38.909Z</time></trkpt><trkpt lat="43.5761975" lon="12.0036164"><ele>615.0</ele><time>2026-04-25T12:27:43.977Z</time></trkpt><trkpt lat="43.5762035" lon="12.003518"><ele>608.0</ele><time>2026-04-25T12:27:50.931Z</time></trkpt><trkpt lat="43.5762343" lon="12.0034373"><ele>601.0</ele><time>2026-04-25T12:27:56.928Z</time></trkpt><trkpt lat="43.5762494" lon="12.0033469"><ele>594.0</ele><time>2026-04-25T12:28:03.931Z</time></trkpt><trkpt lat="43.5762913" lon="12.0032406"><ele>587.0</ele><time>2026-04-25T12:28:20.928Z</time></trkpt><trkpt lat="43.5763354" lon="12.0031782"><ele>580.0</ele><time>2026-04-25T12:28:24.929Z</time></trkpt><trkpt lat="43.5763747" lon="12.0030988"><ele>573.0</ele><time>2026-04-25T12:28:31.939Z</time></trkpt><trkpt lat="43.5764096" lon="12.0030251"><ele>566.0</ele><time>2026-04-25T12:28:37.969Z</time></trkpt><trkpt lat="43.5764224" lon="12.0029364"><ele>565.8571428571429</ele><time>2026-04-25T12:28:45.939Z</time></trkpt><trkpt lat="43.5763922" lon="12.0028561"><ele>565.7142857142858</ele><time>2026-04-25T12:28:53.933Z</time></trkpt><trkpt lat="43.5763568" lon="12.0027765"><ele>565.5714285714286</ele><time>2026-04-25T12:29:00.943Z</time></trkpt><trkpt lat="43.5763394" lon="12.0026889"><ele>565.4285714285714</ele><time>2026-04-25T12:29:07.967Z</time></trkpt><trkpt lat="43.5763106" lon="12.0026003"><ele>565.2857142857142</ele><time>2026-04-25T12:29:15.934Z</time></trkpt><trkpt lat="43.5763118" lon="12.0025025"><ele>565.1428571428571</ele><time>2026-04-25T12:29:22.943Z</time></trkpt><trkpt lat="43.5763362" lon="12.0024071"><ele>565.0</ele><time>2026-04-25T12:29:30.928Z</time></trkpt><trkpt lat="43.5763682" lon="12.0023259"><ele>564.2857142857142</ele><time>2026-04-25T12:29:38.926Z</time></trkpt><trkpt lat="43.5764064" lon="12.0022562"><ele>563.5714285714286</ele><time>2026-04-25T12:29:48.868Z</time></trkpt><trkpt lat="43.5764471" lon="12.0021853"><ele>562.8571428571429</ele><time>2026-04-25T12:29:59.93Z</time></trkpt><trkpt lat="43.5764998" lon="12.0021333"><ele>562.1428571428571</ele><time>2026-04-25T12:30:19.979Z</time></trkpt><trkpt lat="43.576543" lon="12.0020556"><ele>561.4285714285714</ele><time>2026-04-25T12:30:28.911Z</time></trkpt><trkpt lat="43.5765883" lon="12.0019914"><ele>560.7142857142857</ele><time>2026-04-25T12:30:36.931Z</time></trkpt><trkpt lat="43.5766284" lon="12.001914"><ele>560.0</ele><time>2026-04-25T12:30:46.928Z</time></trkpt><trkpt lat="43.5766535" lon="12.0018301"><ele>560.0</ele><time>2026-04-25T12:30:53.931Z</time></trkpt><trkpt lat="43.5766797" lon="12.0017503"><ele>560.0</ele><time>2026-04-25T12:31:03.923Z</time></trkpt><trkpt lat="43.5767145" lon="12.0016778"><ele>560.0</ele><time>2026-04-25T12:31:11.95Z</time></trkpt><trkpt lat="43.5767613" lon="12.0016134"><ele>560.0</ele><time>2026-04-25T12:31:18.946Z</time></trkpt><trkpt lat="43.5768106" lon="12.0015483"><ele>560.0</ele><time>2026-04-25T12:31:27.943Z</time></trkpt><trkpt lat="43.576852" lon="12.0014705"><ele>560.0</ele><time>2026-04-25T12:31:36.931Z</time></trkpt><trkpt lat="43.5768837" lon="12.0013931"><ele>560.0</ele><time>2026-04-25T12:31:46.941Z</time></trkpt><trkpt lat="43.5769072" lon="12.0013095"><ele>559.8571428571429</ele><time>2026-04-25T12:31:54.943Z</time></trkpt><trkpt lat="43.5769197" lon="12.0012215"><ele>559.7142857142858</ele><time>2026-04-25T12:32:03.943Z</time></trkpt><trkpt lat="43.5769396" lon="12.0011382"><ele>559.5714285714286</ele><time>2026-04-25T12:32:14.938Z</time></trkpt><trkpt lat="43.576967" lon="12.0010598"><ele>559.4285714285714</ele><time>2026-04-25T12:32:23.942Z</time></trkpt><trkpt lat="43.5769994" lon="12.0009744"><ele>559.2857142857143</ele><time>2026-04-25T12:32:33.931Z</time></trkpt><trkpt lat="43.5770083" lon="12.0008858"><ele>559.1428571428571</ele><time>2026-04-25T12:32:40.931Z</time></trkpt><trkpt lat="43.5770176" lon="12.000789"><ele>559.0</ele><time>2026-04-25T12:32:47.935Z</time></trkpt><trkpt lat="43.5770292" lon="12.0006933"><ele>552.7142857142858</ele><time>2026-04-25T12:32:56.932Z</time></trkpt><trkpt lat="43.5770362" lon="12.0006043"><ele>546.4285714285714</ele><time>2026-04-25T12:33:05.944Z</time></trkpt><trkpt lat="43.5770419" lon="12.0005094"><ele>540.1428571428571</ele><time>2026-04-25T12:33:12.848Z</time></trkpt><trkpt lat="43.577071" lon="12.0004151"><ele>533.8571428571429</ele><time>2026-04-25T12:33:18.943Z</time></trkpt><trkpt lat="43.5770813" lon="12.0003204"><ele>527.5714285714286</ele><time>2026-04-25T12:33:25.86Z</time></trkpt><trkpt lat="43.5770989" lon="12.0002301"><ele>521.2857142857143</ele><time>2026-04-25T12:33:35.913Z</time></trkpt><trkpt lat="43.5771159" lon="12.0001319"><ele>515.0</ele><time>2026-04-25T12:33:42.931Z</time></trkpt><trkpt lat="43.5771529" lon="12.0000598"><ele>515.0</ele><time>2026-04-25T12:33:49.965Z</time></trkpt><trkpt lat="43.577218" lon="12.0000773"><ele>515.0</ele><time>2026-04-25T12:33:59.945Z</time></trkpt><trkpt lat="43.5772127" lon="12.0001645"><ele>515.0</ele><time>2026-04-25T12:34:09.928Z</time></trkpt><trkpt lat="43.5772749" lon="12.0001874"><ele>515.0</ele><time>2026-04-25T12:34:41.912Z</time></trkpt><trkpt lat="43.5774119" lon="12.0002183"><ele>515.0</ele><time>2026-04-25T12:34:56.91Z</time></trkpt><trkpt lat="43.5774698" lon="12.0002635"><ele>515.0</ele><time>2026-04-25T12:35:03.929Z</time></trkpt><trkpt lat="43.5774831" lon="12.0003577"><ele>515.0</ele><time>2026-04-25T12:35:13.991Z</time></trkpt><trkpt lat="43.5775108" lon="12.000437"><ele>515.0</ele><time>2026-04-25T12:35:20.94Z</time></trkpt><trkpt lat="43.5775755" lon="12.0004441"><ele>515.0</ele><time>2026-04-25T12:35:28.932Z</time></trkpt><trkpt lat="43.5775669" lon="12.0003546"><ele>515.0</ele><time>2026-04-25T12:35:37.969Z</time></trkpt><trkpt lat="43.5776005" lon="12.0002762"><ele>515.0</ele><time>2026-04-25T12:35:47.929Z</time></trkpt><trkpt lat="43.577629" lon="12.0001736"><ele>515.0</ele><time>2026-04-25T12:36:00.947Z</time></trkpt><trkpt lat="43.5776495" lon="12.0000842"><ele>515.0</ele><time>2026-04-25T12:36:09.941Z</time></trkpt><trkpt lat="43.5777306" lon="12.0000458"><ele>515.0</ele><time>2026-04-25T12:36:33.916Z</time></trkpt><trkpt lat="43.5778" lon="12.0000588"><ele>515.0</ele><time>2026-04-25T12:36:45.941Z</time></trkpt><trkpt lat="43.5778569" lon="11.999996"><ele>515.0</ele><time>2026-04-25T12:36:54.936Z</time></trkpt><trkpt lat="43.5779224" lon="11.9999788"><ele>515.0</ele><time>2026-04-25T12:37:03.931Z</time></trkpt><trkpt lat="43.5779907" lon="12.000001"><ele>515.0</ele><time>2026-04-25T12:37:11.941Z</time></trkpt><trkpt lat="43.5780551" lon="11.999967"><ele>515.0</ele><time>2026-04-25T12:37:24.93Z</time></trkpt><trkpt lat="43.5780866" lon="11.9998852"><ele>515.0</ele><time>2026-04-25T12:37:36.941Z</time></trkpt><trkpt lat="43.5781261" lon="11.9998086"><ele>515.0</ele><time>2026-04-25T12:37:43.975Z</time></trkpt><trkpt lat="43.5781063" lon="11.9997222"><ele>515.0</ele><time>2026-04-25T12:37:57.941Z</time></trkpt><trkpt lat="43.5780351" lon="11.9995894"><ele>515.0</ele><time>2026-04-25T12:39:08.915Z</time></trkpt><trkpt lat="43.5779846" lon="11.9996413"><ele>515.0</ele><time>2026-04-25T12:41:30.908Z</time></trkpt><trkpt lat="43.5779231" lon="11.9996054"><ele>515.0</ele><time>2026-04-25T12:41:40.912Z</time></trkpt><trkpt lat="43.5778584" lon="11.9995901"><ele>515.0</ele><time>2026-04-25T12:41:49.979Z</time></trkpt><trkpt lat="43.5777962" lon="11.9995509"><ele>515.0</ele><time>2026-04-25T12:42:01.892Z</time></trkpt><trkpt lat="43.5777546" lon="11.9994762"><ele>515.0</ele><time>2026-04-25T12:42:07.961Z</time></trkpt><trkpt lat="43.5777115" lon="11.9993954"><ele>515.0</ele><time>2026-04-25T12:42:14.932Z</time></trkpt><trkpt lat="43.577665" lon="11.999317"><ele>515.0</ele><time>2026-04-25T12:42:21.923Z</time></trkpt><trkpt lat="43.5776048" lon="11.9992841"><ele>515.0</ele><time>2026-04-25T12:42:29.925Z</time></trkpt><trkpt lat="43.5775457" lon="11.9992415"><ele>515.0</ele><time>2026-04-25T12:42:38.938Z</time></trkpt><trkpt lat="43.5774879" lon="11.9991983"><ele>515.0</ele><time>2026-04-25T12:42:45.944Z</time></trkpt><trkpt lat="43.5774455" lon="11.9991312"><ele>515.0</ele><time>2026-04-25T12:42:54.937Z</time></trkpt><trkpt lat="43.5774614" lon="11.9990407"><ele>513.4285714285714</ele><time>2026-04-25T12:43:05.929Z</time></trkpt><trkpt lat="43.5774646" lon="11.9989419"><ele>511.85714285714283</ele><time>2026-04-25T12:43:12.849Z</time></trkpt><trkpt lat="43.577428" lon="11.9988637"><ele>510.2857142857143</ele><time>2026-04-25T12:43:17.941Z</time></trkpt><trkpt lat="43.5773831" lon="11.9987991"><ele>508.7142857142857</ele><time>2026-04-25T12:43:24.944Z</time></trkpt><trkpt lat="43.5773287" lon="11.9987341"><ele>507.1428571428571</ele><time>2026-04-25T12:43:32.929Z</time></trkpt><trkpt lat="43.5772823" lon="11.9986689"><ele>505.57142857142856</ele><time>2026-04-25T12:43:39.935Z</time></trkpt><trkpt lat="43.5772496" lon="11.9985853"><ele>504.0</ele><time>2026-04-25T12:43:47.925Z</time></trkpt><trkpt lat="43.5772337" lon="11.9984894"><ele>504.0</ele><time>2026-04-25T12:43:55.927Z</time></trkpt><trkpt lat="43.57722" lon="11.9984045"><ele>504.0</ele><time>2026-04-25T12:44:03.932Z</time></trkpt><trkpt lat="43.5772024" lon="11.9983131"><ele>504.0</ele><time>2026-04-25T12:44:11.946Z</time></trkpt><trkpt lat="43.5771648" lon="11.9982419"><ele>504.0</ele><time>2026-04-25T12:44:20.943Z</time></trkpt><trkpt lat="43.5771085" lon="11.9981876"><ele>504.0</ele><time>2026-04-25T12:44:27.941Z</time></trkpt><trkpt lat="43.5770629" lon="11.9981272"><ele>504.0</ele><time>2026-04-25T12:44:34.94Z</time></trkpt><trkpt lat="43.5770255" lon="11.998057"><ele>504.0</ele><time>2026-04-25T12:44:44.924Z</time></trkpt><trkpt lat="43.5769995" lon="11.9979698"><ele>508.1428571428571</ele><time>2026-04-25T12:44:58.931Z</time></trkpt><trkpt lat="43.5769972" lon="11.9978707"><ele>512.2857142857142</ele><time>2026-04-25T12:45:06.924Z</time></trkpt><trkpt lat="43.5769718" lon="11.9977886"><ele>516.4285714285714</ele><time>2026-04-25T12:45:14.929Z</time></trkpt><trkpt lat="43.576926" lon="11.9977128"><ele>520.5714285714286</ele><time>2026-04-25T12:45:25.947Z</time></trkpt><trkpt lat="43.5769104" lon="11.9976286"><ele>524.7142857142857</ele><time>2026-04-25T12:45:31.945Z</time></trkpt><trkpt lat="43.5768725" lon="11.9975562"><ele>528.8571428571429</ele><time>2026-04-25T12:45:36.93Z</time></trkpt><trkpt lat="43.5768402" lon="11.9974693"><ele>533.0</ele><time>2026-04-25T12:45:42.934Z</time></trkpt><trkpt lat="43.5768368" lon="11.9973677"><ele>533.6666666666666</ele><time>2026-04-25T12:45:51.89Z</time></trkpt><trkpt lat="43.5768172" lon="11.9972742"><ele>534.3333333333333</ele><time>2026-04-25T12:45:59.85Z</time></trkpt><trkpt lat="43.576854" lon="11.9971436"><ele>535.0</ele><time>2026-04-25T12:46:16.941Z</time></trkpt><trkpt lat="43.5768576" lon="11.9970549"><ele>535.6666666666666</ele><time>2026-04-25T12:46:25.928Z</time></trkpt><trkpt lat="43.5769111" lon="11.9969997"><ele>536.3333333333334</ele><time>2026-04-25T12:46:59.925Z</time></trkpt><trkpt lat="43.5769099" lon="11.9968697"><ele>537.0</ele><time>2026-04-25T12:47:12.92Z</time></trkpt><trkpt lat="43.576902" lon="11.9967798"><ele>536.9999999999999</ele><time>2026-04-25T12:47:24.925Z</time></trkpt><trkpt lat="43.5768893" lon="11.9966875"><ele>537.0</ele><time>2026-04-25T12:47:37.965Z</time></trkpt><trkpt lat="43.5768757" lon="11.9965989"><ele>537.0</ele><time>2026-04-25T12:47:44.924Z</time></trkpt><trkpt lat="43.5768734" lon="11.9965072"><ele>537.0</ele><time>2026-04-25T12:47:51.923Z</time></trkpt><trkpt lat="43.57683" lon="11.9964363"><ele>537.0</ele><time>2026-04-25T12:47:59.905Z</time></trkpt><trkpt lat="43.5767855" lon="11.9963748"><ele>536.9999999999999</ele><time>2026-04-25T12:48:09.912Z</time></trkpt><trkpt lat="43.5767535" lon="11.9962956"><ele>537.0</ele><time>2026-04-25T12:48:17.832Z</time></trkpt><trkpt lat="43.5767487" lon="11.9961982"><ele>538.5714285714286</ele><time>2026-04-25T12:48:25.946Z</time></trkpt><trkpt lat="43.5767217" lon="11.996117"><ele>540.1428571428571</ele><time>2026-04-25T12:48:31.928Z</time></trkpt><trkpt lat="43.5766735" lon="11.9960504"><ele>541.7142857142858</ele><time>2026-04-25T12:48:42.94Z</time></trkpt><trkpt lat="43.5766373" lon="11.9959746"><ele>543.2857142857142</ele><time>2026-04-25T12:48:50.927Z</time></trkpt><trkpt lat="43.5766092" lon="11.9958932"><ele>544.8571428571429</ele><time>2026-04-25T12:48:57.941Z</time></trkpt><trkpt lat="43.5766138" lon="11.9958047"><ele>546.4285714285714</ele><time>2026-04-25T12:49:04.908Z</time></trkpt><trkpt lat="43.5766442" lon="11.995718"><ele>548.0</ele><time>2026-04-25T12:49:12.942Z</time></trkpt><trkpt lat="43.5766285" lon="11.9956333"><ele>548.5714285714287</ele><time>2026-04-25T12:49:22.928Z</time></trkpt><trkpt lat="43.5766193" lon="11.9955422"><ele>549.1428571428571</ele><time>2026-04-25T12:49:32.937Z</time></trkpt><trkpt lat="43.5765951" lon="11.9954578"><ele>549.7142857142858</ele><time>2026-04-25T12:49:40.943Z</time></trkpt><trkpt lat="43.576576" lon="11.9953619"><ele>550.2857142857143</ele><time>2026-04-25T12:49:50.928Z</time></trkpt><trkpt lat="43.5765385" lon="11.9952852"><ele>550.8571428571429</ele><time>2026-04-25T12:49:58.93Z</time></trkpt><trkpt lat="43.5765528" lon="11.9951911"><ele>551.4285714285714</ele><time>2026-04-25T12:50:08.936Z</time></trkpt><trkpt lat="43.5765362" lon="11.9950968"><ele>552.0</ele><time>2026-04-25T12:50:16.937Z</time></trkpt><trkpt lat="43.5764533" lon="11.994945"><ele>550.2857142857143</ele><time>2026-04-25T12:51:34.927Z</time></trkpt><trkpt lat="43.57639" lon="11.9949267"><ele>548.5714285714287</ele><time>2026-04-25T12:51:42.941Z</time></trkpt><trkpt lat="43.5763517" lon="11.99485"><ele>546.8571428571429</ele><time>2026-04-25T12:51:54.927Z</time></trkpt><trkpt lat="43.57633" lon="11.9947633"><ele>545.1428571428571</ele><time>2026-04-25T12:52:03.92Z</time></trkpt><trkpt lat="43.5762683" lon="11.9946367"><ele>543.4285714285713</ele><time>2026-04-25T12:52:19.966Z</time></trkpt><trkpt lat="43.5762117" lon="11.99459"><ele>541.7142857142857</ele><time>2026-04-25T12:52:26.937Z</time></trkpt><trkpt lat="43.5761583" lon="11.9945317"><ele>540.0</ele><time>2026-04-25T12:52:33.939Z</time></trkpt><trkpt lat="43.5761133" lon="11.9944667"><ele>544.5714285714286</ele><time>2026-04-25T12:52:41.933Z</time></trkpt><trkpt lat="43.57606" lon="11.9944117"><ele>549.1428571428571</ele><time>2026-04-25T12:52:49.974Z</time></trkpt><trkpt lat="43.5759967" lon="11.9943683"><ele>553.7142857142857</ele><time>2026-04-25T12:52:56.937Z</time></trkpt><trkpt lat="43.575943" lon="11.9943153"><ele>558.2857142857142</ele><time>2026-04-25T12:53:04.941Z</time></trkpt><trkpt lat="43.5758869" lon="11.994268"><ele>562.8571428571429</ele><time>2026-04-25T12:53:13.959Z</time></trkpt><trkpt lat="43.5758503" lon="11.9941868"><ele>567.4285714285713</ele><time>2026-04-25T12:53:22.929Z</time></trkpt><trkpt lat="43.5758145" lon="11.9941091"><ele>572.0</ele><time>2026-04-25T12:53:31.907Z</time></trkpt><trkpt lat="43.5757693" lon="11.9940354"><ele>571.9999999999999</ele><time>2026-04-25T12:53:39.938Z</time></trkpt><trkpt lat="43.5757362" lon="11.9939576"><ele>572.0</ele><time>2026-04-25T12:53:48.937Z</time></trkpt><trkpt lat="43.5756938" lon="11.9938778"><ele>572.0</ele><time>2026-04-25T12:53:57.928Z</time></trkpt><trkpt lat="43.5756509" lon="11.9938053"><ele>572.0</ele><time>2026-04-25T12:54:05.935Z</time></trkpt><trkpt lat="43.5756251" lon="11.9937132"><ele>572.0</ele><time>2026-04-25T12:54:14.927Z</time></trkpt><trkpt lat="43.575573" lon="11.9936377"><ele>571.9999999999999</ele><time>2026-04-25T12:54:22.94Z</time></trkpt><trkpt lat="43.5755225" lon="11.9935846"><ele>572.0</ele><time>2026-04-25T12:54:29.924Z</time></trkpt><trkpt lat="43.5754923" lon="11.993502"><ele>571.9999999999999</ele><time>2026-04-25T12:54:38.69Z</time></trkpt><trkpt lat="43.5754921" lon="11.9934081"><ele>572.0</ele><time>2026-04-25T12:54:45.936Z</time></trkpt><trkpt lat="43.5754757" lon="11.9933207"><ele>572.0</ele><time>2026-04-25T12:54:53.867Z</time></trkpt><trkpt lat="43.575471" lon="11.9932324"><ele>572.0</ele><time>2026-04-25T12:54:59.939Z</time></trkpt><trkpt lat="43.5754714" lon="11.9931433"><ele>572.0</ele><time>2026-04-25T12:55:06.939Z</time></trkpt><trkpt lat="43.5754516" lon="11.99306"><ele>571.9999999999999</ele><time>2026-04-25T12:55:14.935Z</time></trkpt><trkpt lat="43.5753996" lon="11.9929911"><ele>572.0</ele><time>2026-04-25T12:55:21.938Z</time></trkpt><trkpt lat="43.5753558" lon="11.9929113"><ele>576.4285714285713</ele><time>2026-04-25T12:55:27.93Z</time></trkpt><trkpt lat="43.575302" lon="11.9928568"><ele>580.8571428571429</ele><time>2026-04-25T12:55:33.909Z</time></trkpt><trkpt lat="43.5752466" lon="11.992798"><ele>585.2857142857142</ele><time>2026-04-25T12:55:41.924Z</time></trkpt><trkpt lat="43.575201" lon="11.9927342"><ele>589.7142857142857</ele><time>2026-04-25T12:55:48.928Z</time></trkpt><trkpt lat="43.5751378" lon="11.9926876"><ele>594.1428571428571</ele><time>2026-04-25T12:55:56.926Z</time></trkpt><trkpt lat="43.5750833" lon="11.9926382"><ele>598.5714285714286</ele><time>2026-04-25T12:56:04.93Z</time></trkpt><trkpt lat="43.5750322" lon="11.9925862"><ele>603.0</ele><time>2026-04-25T12:56:12.948Z</time></trkpt><trkpt lat="43.5749788" lon="11.9925382"><ele>599.8571428571429</ele><time>2026-04-25T12:56:20.944Z</time></trkpt><trkpt lat="43.5749184" lon="11.9924991"><ele>596.7142857142857</ele><time>2026-04-25T12:56:26.927Z</time></trkpt><trkpt lat="43.5748567" lon="11.9924596"><ele>593.5714285714286</ele><time>2026-04-25T12:56:32.926Z</time></trkpt><trkpt lat="43.5747872" lon="11.9924238"><ele>590.4285714285714</ele><time>2026-04-25T12:56:40.929Z</time></trkpt><trkpt lat="43.5747262" lon="11.9923959"><ele>587.2857142857142</ele><time>2026-04-25T12:56:46.924Z</time></trkpt><trkpt lat="43.5746637" lon="11.9923724"><ele>584.1428571428571</ele><time>2026-04-25T12:56:55.831Z</time></trkpt><trkpt lat="43.574605" lon="11.9923233"><ele>581.0</ele><time>2026-04-25T12:57:03.936Z</time></trkpt><trkpt lat="43.5745375" lon="11.9922826"><ele>584.0</ele><time>2026-04-25T12:57:11.936Z</time></trkpt><trkpt lat="43.5744761" lon="11.9922539"><ele>587.0</ele><time>2026-04-25T12:57:18.939Z</time></trkpt><trkpt lat="43.574417" lon="11.9922204"><ele>590.0</ele><time>2026-04-25T12:57:25.982Z</time></trkpt><trkpt lat="43.5743383" lon="11.9922018"><ele>593.0</ele><time>2026-04-25T12:57:32.925Z</time></trkpt><trkpt lat="43.5742767" lon="11.9921766"><ele>596.0</ele><time>2026-04-25T12:57:38.928Z</time></trkpt><trkpt lat="43.5742143" lon="11.9921583"><ele>599.0</ele><time>2026-04-25T12:57:45.925Z</time></trkpt><trkpt lat="43.5741443" lon="11.9921483"><ele>602.0</ele><time>2026-04-25T12:57:54.94Z</time></trkpt><trkpt lat="43.5740777" lon="11.9921242"><ele>602.0</ele><time>2026-04-25T12:58:01.942Z</time></trkpt><trkpt lat="43.5740224" lon="11.9920813"><ele>602.0</ele><time>2026-04-25T12:58:09.872Z</time></trkpt><trkpt lat="43.5739675" lon="11.9920352"><ele>602.0</ele><time>2026-04-25T12:58:17.94Z</time></trkpt><trkpt lat="43.5739038" lon="11.9919899"><ele>602.0</ele><time>2026-04-25T12:58:23.939Z</time></trkpt><trkpt lat="43.5738391" lon="11.991957"><ele>602.0</ele><time>2026-04-25T12:58:30.941Z</time></trkpt><trkpt lat="43.5737725" lon="11.991966"><ele>602.0</ele><time>2026-04-25T12:58:40.94Z</time></trkpt><trkpt lat="43.5737099" lon="11.9919814"><ele>602.0</ele><time>2026-04-25T12:58:48.929Z</time></trkpt><trkpt lat="43.5736436" lon="11.9920056"><ele>604.4285714285714</ele><time>2026-04-25T12:58:58.925Z</time></trkpt><trkpt lat="43.5735809" lon="11.9919899"><ele>606.8571428571429</ele><time>2026-04-25T12:59:17.926Z</time></trkpt><trkpt lat="43.5735225" lon="11.9919448"><ele>609.2857142857142</ele><time>2026-04-25T12:59:26.931Z</time></trkpt><trkpt lat="43.5734686" lon="11.9918855"><ele>611.7142857142858</ele><time>2026-04-25T12:59:33.928Z</time></trkpt><trkpt lat="43.5734307" lon="11.9918125"><ele>614.1428571428571</ele><time>2026-04-25T12:59:40.922Z</time></trkpt><trkpt lat="43.5733851" lon="11.9917498"><ele>616.5714285714286</ele><time>2026-04-25T12:59:46.93Z</time></trkpt><trkpt lat="43.5733208" lon="11.9917118"><ele>619.0</ele><time>2026-04-25T12:59:53.928Z</time></trkpt><trkpt lat="43.5732531" lon="11.9917013"><ele>611.25</ele><time>2026-04-25T13:00:02.927Z</time></trkpt><trkpt lat="43.5731978" lon="11.9916412"><ele>603.5</ele><time>2026-04-25T13:00:11.938Z</time></trkpt><trkpt lat="43.5731463" lon="11.9915826"><ele>595.75</ele><time>2026-04-25T13:00:18.932Z</time></trkpt><trkpt lat="43.5733023" lon="11.9915427"><ele>588.0</ele><time>2026-04-25T13:01:04.909Z</time></trkpt><trkpt lat="43.573164" lon="11.9912865"><ele>588.0</ele><time>2026-04-25T13:01:06.911Z</time></trkpt><trkpt lat="43.5731171" lon="11.9912194"><ele>588.0</ele><time>2026-04-25T13:01:07.944Z</time></trkpt><trkpt lat="43.5730512" lon="11.9912104"><ele>588.0</ele><time>2026-04-25T13:01:12.917Z</time></trkpt><trkpt lat="43.5729871" lon="11.9913221"><ele>588.0</ele><time>2026-04-25T13:01:31.945Z</time></trkpt><trkpt lat="43.5729182" lon="11.9913045"><ele>588.0</ele><time>2026-04-25T13:02:02.902Z</time></trkpt><trkpt lat="43.5728597" lon="11.991265"><ele>588.0</ele><time>2026-04-25T13:02:11.909Z</time></trkpt><trkpt lat="43.5727877" lon="11.9912248"><ele>588.4285714285714</ele><time>2026-04-25T13:02:29.849Z</time></trkpt><trkpt lat="43.5727338" lon="11.9911724"><ele>588.8571428571429</ele><time>2026-04-25T13:02:37.945Z</time></trkpt><trkpt lat="43.5726911" lon="11.9911052"><ele>589.2857142857142</ele><time>2026-04-25T13:02:43.978Z</time></trkpt><trkpt lat="43.5726416" lon="11.9910481"><ele>589.7142857142858</ele><time>2026-04-25T13:02:50.931Z</time></trkpt><trkpt lat="43.5725811" lon="11.990993"><ele>590.1428571428571</ele><time>2026-04-25T13:02:56.922Z</time></trkpt><trkpt lat="43.5725005" lon="11.9908943"><ele>590.5714285714286</ele><time>2026-04-25T13:03:34.942Z</time></trkpt><trkpt lat="43.5724424" lon="11.9908606"><ele>591.0</ele><time>2026-04-25T13:03:40.888Z</time></trkpt><trkpt lat="43.5723915" lon="11.9908088"><ele>591.0</ele><time>2026-04-25T13:03:46.85Z</time></trkpt><trkpt lat="43.5723336" lon="11.9907592"><ele>591.0</ele><time>2026-04-25T13:03:51.943Z</time></trkpt><trkpt lat="43.5722717" lon="11.990735"><ele>591.0</ele><time>2026-04-25T13:03:57.908Z</time></trkpt><trkpt lat="43.5722074" lon="11.9907315"><ele>591.0</ele><time>2026-04-25T13:04:04.942Z</time></trkpt><trkpt lat="43.5721782" lon="11.9906534"><ele>591.0</ele><time>2026-04-25T13:04:13.97Z</time></trkpt><trkpt lat="43.5721756" lon="11.990564"><ele>591.0</ele><time>2026-04-25T13:04:22.69Z</time></trkpt><trkpt lat="43.5721212" lon="11.9905087"><ele>591.0</ele><time>2026-04-25T13:04:32.931Z</time></trkpt><trkpt lat="43.5720658" lon="11.9904467"><ele>591.0</ele><time>2026-04-25T13:04:38.931Z</time></trkpt><trkpt lat="43.5720646" lon="11.9903544"><ele>591.0</ele><time>2026-04-25T13:04:47.912Z</time></trkpt><trkpt lat="43.5720215" lon="11.9902735"><ele>591.0</ele><time>2026-04-25T13:04:56.942Z</time></trkpt><trkpt lat="43.5719673" lon="11.9902289"><ele>591.0</ele><time>2026-04-25T13:05:02.926Z</time></trkpt><trkpt lat="43.5719124" lon="11.9901849"><ele>591.0</ele><time>2026-04-25T13:05:08.932Z</time></trkpt><trkpt lat="43.5718614" lon="11.990127"><ele>591.0</ele><time>2026-04-25T13:05:14.932Z</time></trkpt><trkpt lat="43.5718077" lon="11.9900681"><ele>591.0</ele><time>2026-04-25T13:05:20.94Z</time></trkpt><trkpt lat="43.5717561" lon="11.9900143"><ele>592.0</ele><time>2026-04-25T13:05:26.932Z</time></trkpt><trkpt lat="43.5716896" lon="11.9899839"><ele>593.0</ele><time>2026-04-25T13:05:33.935Z</time></trkpt><trkpt lat="43.5716265" lon="11.9899397"><ele>594.0</ele><time>2026-04-25T13:05:41.946Z</time></trkpt><trkpt lat="43.5715623" lon="11.9899087"><ele>595.0</ele><time>2026-04-25T13:05:48.94Z</time></trkpt><trkpt lat="43.5715041" lon="11.9898691"><ele>596.0</ele><time>2026-04-25T13:05:54.929Z</time></trkpt><trkpt lat="43.5714434" lon="11.9898191"><ele>597.0</ele><time>2026-04-25T13:06:00.854Z</time></trkpt><trkpt lat="43.5713848" lon="11.9897733"><ele>598.0</ele><time>2026-04-25T13:06:06.938Z</time></trkpt><trkpt lat="43.5713413" lon="11.9897073"><ele>598.0</ele><time>2026-04-25T13:06:14.932Z</time></trkpt><trkpt lat="43.5712777" lon="11.9896908"><ele>598.0</ele><time>2026-04-25T13:06:30.923Z</time></trkpt><trkpt lat="43.5712272" lon="11.9896386"><ele>598.0</ele><time>2026-04-25T13:06:37.964Z</time></trkpt><trkpt lat="43.571169" lon="11.9895895"><ele>598.0</ele><time>2026-04-25T13:06:45.914Z</time></trkpt><trkpt lat="43.5711044" lon="11.9895647"><ele>598.0</ele><time>2026-04-25T13:06:51.929Z</time></trkpt><trkpt lat="43.5710385" lon="11.9895465"><ele>598.0</ele><time>2026-04-25T13:06:57.939Z</time></trkpt><trkpt lat="43.5709719" lon="11.9895201"><ele>598.0</ele><time>2026-04-25T13:07:06.93Z</time></trkpt><trkpt lat="43.5709124" lon="11.9894791"><ele>599.1428571428571</ele><time>2026-04-25T13:07:16.931Z</time></trkpt><trkpt lat="43.5708491" lon="11.9894268"><ele>600.2857142857143</ele><time>2026-04-25T13:07:23.929Z</time></trkpt><trkpt lat="43.5708044" lon="11.989365"><ele>601.4285714285714</ele><time>2026-04-25T13:07:29.923Z</time></trkpt><trkpt lat="43.570754" lon="11.9893014"><ele>602.5714285714286</ele><time>2026-04-25T13:07:37.965Z</time></trkpt><trkpt lat="43.5707148" lon="11.9892309"><ele>603.7142857142857</ele><time>2026-04-25T13:07:45.93Z</time></trkpt><trkpt lat="43.5706829" lon="11.9891466"><ele>604.8571428571429</ele><time>2026-04-25T13:07:55.978Z</time></trkpt><trkpt lat="43.5706416" lon="11.9890799"><ele>606.0</ele><time>2026-04-25T13:08:09.941Z</time></trkpt><trkpt lat="43.5705905" lon="11.9890228"><ele>606.0</ele><time>2026-04-25T13:08:19.965Z</time></trkpt><trkpt lat="43.5705319" lon="11.9889841"><ele>606.0</ele><time>2026-04-25T13:08:27.927Z</time></trkpt><trkpt lat="43.5704722" lon="11.9889488"><ele>606.0</ele><time>2026-04-25T13:08:34.869Z</time></trkpt><trkpt lat="43.5704132" lon="11.9889163"><ele>606.0</ele><time>2026-04-25T13:08:41.929Z</time></trkpt><trkpt lat="43.5703514" lon="11.9888817"><ele>606.0</ele><time>2026-04-25T13:08:48.929Z</time></trkpt><trkpt lat="43.5702866" lon="11.9888517"><ele>606.0</ele><time>2026-04-25T13:08:55.93Z</time></trkpt><trkpt lat="43.5702291" lon="11.9888154"><ele>606.0</ele><time>2026-04-25T13:09:02.944Z</time></trkpt><trkpt lat="43.5701677" lon="11.9887767"><ele>611.4285714285714</ele><time>2026-04-25T13:09:09.944Z</time></trkpt><trkpt lat="43.570114" lon="11.988727"><ele>616.8571428571429</ele><time>2026-04-25T13:09:17.932Z</time></trkpt><trkpt lat="43.5700668" lon="11.9886664"><ele>622.2857142857142</ele><time>2026-04-25T13:09:26.933Z</time></trkpt><trkpt lat="43.5699995" lon="11.9886318"><ele>627.7142857142858</ele><time>2026-04-25T13:09:35.942Z</time></trkpt><trkpt lat="43.569948" lon="11.9885812"><ele>633.1428571428571</ele><time>2026-04-25T13:10:22.94Z</time></trkpt><trkpt lat="43.5698822" lon="11.9885754"><ele>638.5714285714286</ele><time>2026-04-25T13:11:07.948Z</time></trkpt><trkpt lat="43.5698203" lon="11.9885265"><ele>644.0</ele><time>2026-04-25T13:11:15.931Z</time></trkpt><trkpt lat="43.5697608" lon="11.9884812"><ele>644.0</ele><time>2026-04-25T13:11:22.871Z</time></trkpt><trkpt lat="43.5697059" lon="11.9884325"><ele>644.0</ele><time>2026-04-25T13:11:30.868Z</time></trkpt><trkpt lat="43.5696482" lon="11.988382"><ele>644.0</ele><time>2026-04-25T13:11:40.912Z</time></trkpt><trkpt lat="43.5695811" lon="11.9883792"><ele>644.0</ele><time>2026-04-25T13:11:52.926Z</time></trkpt><trkpt lat="43.5695184" lon="11.9883417"><ele>644.0</ele><time>2026-04-25T13:12:02.942Z</time></trkpt><trkpt lat="43.5694583" lon="11.9883139"><ele>644.0</ele><time>2026-04-25T13:12:10.943Z</time></trkpt><trkpt lat="43.56941" lon="11.9882531"><ele>644.0</ele><time>2026-04-25T13:12:22.942Z</time></trkpt><trkpt lat="43.569339" lon="11.9882421"><ele>643.8571428571429</ele><time>2026-04-25T13:12:35.932Z</time></trkpt><trkpt lat="43.5692648" lon="11.988211"><ele>643.7142857142858</ele><time>2026-04-25T13:12:41.93Z</time></trkpt><trkpt lat="43.5692044" lon="11.9881749"><ele>643.5714285714286</ele><time>2026-04-25T13:12:47.948Z</time></trkpt><trkpt lat="43.5691386" lon="11.9881508"><ele>643.4285714285714</ele><time>2026-04-25T13:12:54.941Z</time></trkpt><trkpt lat="43.5690713" lon="11.9881178"><ele>643.2857142857143</ele><time>2026-04-25T13:13:00.951Z</time></trkpt><trkpt lat="43.5690115" lon="11.988068"><ele>643.1428571428571</ele><time>2026-04-25T13:13:06.943Z</time></trkpt><trkpt lat="43.5689601" lon="11.9880059"><ele>643.0</ele><time>2026-04-25T13:13:14.946Z</time></trkpt><trkpt lat="43.5689015" lon="11.9879115"><ele>643.0</ele><time>2026-04-25T13:14:01.956Z</time></trkpt><trkpt lat="43.5688787" lon="11.9878235"><ele>643.0</ele><time>2026-04-25T13:14:06.944Z</time></trkpt><trkpt lat="43.5688949" lon="11.9877392"><ele>643.0</ele><time>2026-04-25T13:14:12.945Z</time></trkpt><trkpt lat="43.5689167" lon="11.987655"><ele>643.0</ele><time>2026-04-25T13:14:17.943Z</time></trkpt><trkpt lat="43.5689271" lon="11.9875663"><ele>643.0</ele><time>2026-04-25T13:14:23.83Z</time></trkpt><trkpt lat="43.5689647" lon="11.9874941"><ele>643.0</ele><time>2026-04-25T13:14:32.89Z</time></trkpt><trkpt lat="43.5689969" lon="11.9874149"><ele>643.0</ele><time>2026-04-25T13:14:51.926Z</time></trkpt><trkpt lat="43.5690183" lon="11.9873234"><ele>641.5</ele><time>2026-04-25T13:14:59.929Z</time></trkpt><trkpt lat="43.5690479" lon="11.9872433"><ele>640.0</ele><time>2026-04-25T13:15:05.848Z</time></trkpt><trkpt lat="43.5690852" lon="11.987169"><ele>638.5</ele><time>2026-04-25T13:15:12.925Z</time></trkpt><trkpt lat="43.5691304" lon="11.9870971"><ele>637.0</ele><time>2026-04-25T13:15:20.935Z</time></trkpt><trkpt lat="43.5691999" lon="11.9869801"><ele>635.5</ele><time>2026-04-25T13:15:36.911Z</time></trkpt><trkpt lat="43.5692326" lon="11.9868687"><ele>634.0</ele><time>2026-04-25T13:15:47.941Z</time></trkpt><trkpt lat="43.5692876" lon="11.986813"><ele>634.0</ele><time>2026-04-25T13:15:51.929Z</time></trkpt><trkpt lat="43.5693421" lon="11.9867622"><ele>634.0</ele><time>2026-04-25T13:15:57.887Z</time></trkpt><trkpt lat="43.5693997" lon="11.9867052"><ele>634.0</ele><time>2026-04-25T13:16:03.921Z</time></trkpt><trkpt lat="43.5694606" lon="11.9866778"><ele>634.0</ele><time>2026-04-25T13:16:07.966Z</time></trkpt><trkpt lat="43.5695343" lon="11.9866342"><ele>634.0</ele><time>2026-04-25T13:16:12.939Z</time></trkpt><trkpt lat="43.5695904" lon="11.986568"><ele>634.0</ele><time>2026-04-25T13:16:17.929Z</time></trkpt><trkpt lat="43.5696366" lon="11.9865044"><ele>634.0</ele><time>2026-04-25T13:16:21.941Z</time></trkpt><trkpt lat="43.5696867" lon="11.9864314"><ele>632.4285714285714</ele><time>2026-04-25T13:16:27.937Z</time></trkpt><trkpt lat="43.5697332" lon="11.9863569"><ele>630.8571428571429</ele><time>2026-04-25T13:16:33.94Z</time></trkpt><trkpt lat="43.5697941" lon="11.986298"><ele>629.2857142857142</ele><time>2026-04-25T13:16:39.928Z</time></trkpt><trkpt lat="43.5698517" lon="11.9862593"><ele>627.7142857142858</ele><time>2026-04-25T13:16:45.922Z</time></trkpt><trkpt lat="43.5699142" lon="11.9862282"><ele>626.1428571428571</ele><time>2026-04-25T13:16:52.933Z</time></trkpt><trkpt lat="43.5699663" lon="11.9861467"><ele>624.5714285714286</ele><time>2026-04-25T13:17:02.937Z</time></trkpt><trkpt lat="43.5699985" lon="11.9860637"><ele>623.0</ele><time>2026-04-25T13:17:08.926Z</time></trkpt><trkpt lat="43.5700448" lon="11.9860043"><ele>623.0</ele><time>2026-04-25T13:17:14.925Z</time></trkpt><trkpt lat="43.5700765" lon="11.9859242"><ele>623.0</ele><time>2026-04-25T13:17:20.91Z</time></trkpt><trkpt lat="43.5701284" lon="11.9858525"><ele>623.0</ele><time>2026-04-25T13:17:30.928Z</time></trkpt><trkpt lat="43.5701897" lon="11.9858094"><ele>623.0</ele><time>2026-04-25T13:17:40.942Z</time></trkpt><trkpt lat="43.5702591" lon="11.9858006"><ele>623.0</ele><time>2026-04-25T13:17:46.945Z</time></trkpt><trkpt lat="43.5703363" lon="11.9858003"><ele>623.0</ele><time>2026-04-25T13:17:52.945Z</time></trkpt><trkpt lat="43.5704085" lon="11.9857989"><ele>623.0</ele><time>2026-04-25T13:17:58.933Z</time></trkpt><trkpt lat="43.570484" lon="11.9857959"><ele>622.2857142857143</ele><time>2026-04-25T13:18:05.927Z</time></trkpt><trkpt lat="43.570555" lon="11.9857984"><ele>621.5714285714286</ele><time>2026-04-25T13:18:11.914Z</time></trkpt><trkpt lat="43.5706238" lon="11.9857846"><ele>620.8571428571429</ele><time>2026-04-25T13:18:18.925Z</time></trkpt><trkpt lat="43.5706919" lon="11.9857514"><ele>620.1428571428571</ele><time>2026-04-25T13:18:25.97Z</time></trkpt><trkpt lat="43.5707286" lon="11.985673"><ele>619.4285714285714</ele><time>2026-04-25T13:18:33.927Z</time></trkpt><trkpt lat="43.5707448" lon="11.9855805"><ele>618.7142857142858</ele><time>2026-04-25T13:18:40.925Z</time></trkpt><trkpt lat="43.5707677" lon="11.9854919"><ele>618.0</ele><time>2026-04-25T13:18:50.909Z</time></trkpt><trkpt lat="43.5707951" lon="11.985404"><ele>618.0000000000001</ele><time>2026-04-25T13:18:56.926Z</time></trkpt><trkpt lat="43.570818" lon="11.9853183"><ele>618.0</ele><time>2026-04-25T13:19:02.927Z</time></trkpt><trkpt lat="43.5708437" lon="11.9852375"><ele>618.0</ele><time>2026-04-25T13:19:10.926Z</time></trkpt><trkpt lat="43.5709018" lon="11.985204"><ele>618.0</ele><time>2026-04-25T13:19:17.927Z</time></trkpt><trkpt lat="43.5709681" lon="11.9851932"><ele>618.0</ele><time>2026-04-25T13:19:23.918Z</time></trkpt><trkpt lat="43.5710315" lon="11.9851889"><ele>618.0000000000001</ele><time>2026-04-25T13:19:30.93Z</time></trkpt><trkpt lat="43.5710987" lon="11.9851973"><ele>618.0</ele><time>2026-04-25T13:19:37.957Z</time></trkpt><trkpt lat="43.5711641" lon="11.9851823"><ele>616.4285714285714</ele><time>2026-04-25T13:19:44.925Z</time></trkpt><trkpt lat="43.5712244" lon="11.9851294"><ele>614.8571428571429</ele><time>2026-04-25T13:19:51.926Z</time></trkpt><trkpt lat="43.5712843" lon="11.98508"><ele>613.2857142857142</ele><time>2026-04-25T13:19:57.938Z</time></trkpt><trkpt lat="43.571334" lon="11.985024"><ele>611.7142857142858</ele><time>2026-04-25T13:20:02.934Z</time></trkpt><trkpt lat="43.5713822" lon="11.9849573"><ele>610.1428571428571</ele><time>2026-04-25T13:20:08.924Z</time></trkpt><trkpt lat="43.5714145" lon="11.9848816"><ele>608.5714285714286</ele><time>2026-04-25T13:20:14.928Z</time></trkpt><trkpt lat="43.5714166" lon="11.9847855"><ele>607.0</ele><time>2026-04-25T13:20:24.943Z</time></trkpt><trkpt lat="43.571441" lon="11.9846951"><ele>606.9999999999999</ele><time>2026-04-25T13:20:31.987Z</time></trkpt><trkpt lat="43.5714695" lon="11.9846174"><ele>607.0</ele><time>2026-04-25T13:20:36.926Z</time></trkpt><trkpt lat="43.5714802" lon="11.984525"><ele>607.0</ele><time>2026-04-25T13:20:41.925Z</time></trkpt><trkpt lat="43.5714961" lon="11.9844365"><ele>607.0</ele><time>2026-04-25T13:20:47.941Z</time></trkpt><trkpt lat="43.5715162" lon="11.9843458"><ele>607.0</ele><time>2026-04-25T13:20:53.944Z</time></trkpt><trkpt lat="43.5715407" lon="11.9842575"><ele>606.9999999999999</ele><time>2026-04-25T13:20:59.909Z</time></trkpt><trkpt lat="43.5715546" lon="11.9841655"><ele>607.0</ele><time>2026-04-25T13:21:05.928Z</time></trkpt><trkpt lat="43.5715769" lon="11.9840811"><ele>607.7142857142857</ele><time>2026-04-25T13:21:12.923Z</time></trkpt><trkpt lat="43.5715949" lon="11.9839968"><ele>608.4285714285714</ele><time>2026-04-25T13:21:19.89Z</time></trkpt><trkpt lat="43.5716242" lon="11.9839172"><ele>609.1428571428571</ele><time>2026-04-25T13:21:29.939Z</time></trkpt><trkpt lat="43.571665" lon="11.9838413"><ele>609.8571428571429</ele><time>2026-04-25T13:21:36.941Z</time></trkpt><trkpt lat="43.5717185" lon="11.9837787"><ele>610.5714285714286</ele><time>2026-04-25T13:21:42.942Z</time></trkpt><trkpt lat="43.5717811" lon="11.9837354"><ele>611.2857142857142</ele><time>2026-04-25T13:21:48.926Z</time></trkpt><trkpt lat="43.5718409" lon="11.9836803"><ele>612.0</ele><time>2026-04-25T13:21:55.946Z</time></trkpt><trkpt lat="43.5718936" lon="11.9836198"><ele>612.0</ele><time>2026-04-25T13:22:01.927Z</time></trkpt><trkpt lat="43.571952" lon="11.9835633"><ele>612.0</ele><time>2026-04-25T13:22:07.971Z</time></trkpt><trkpt lat="43.5720013" lon="11.9835083"><ele>612.0</ele><time>2026-04-25T13:22:15.927Z</time></trkpt><trkpt lat="43.5720597" lon="11.9834243"><ele>612.0</ele><time>2026-04-25T13:22:36.937Z</time></trkpt><trkpt lat="43.5721325" lon="11.9834295"><ele>612.0</ele><time>2026-04-25T13:22:42.943Z</time></trkpt><trkpt lat="43.5721984" lon="11.983405"><ele>612.0</ele><time>2026-04-25T13:22:48.941Z</time></trkpt><trkpt lat="43.5722601" lon="11.9833712"><ele>612.0</ele><time>2026-04-25T13:22:54.925Z</time></trkpt><trkpt lat="43.5723224" lon="11.9833874"><ele>590.0</ele><time>2026-04-25T13:23:11.938Z</time></trkpt><trkpt lat="43.5723849" lon="11.9833732"><ele>590.0</ele><time>2026-04-25T13:23:19.966Z</time></trkpt><trkpt lat="43.5724334" lon="11.9833161"><ele>595.0</ele><time>2026-04-25T13:23:29.93Z</time></trkpt><trkpt lat="43.5724949" lon="11.9832949"><ele>595.0</ele><time>2026-04-25T13:23:40.939Z</time></trkpt><trkpt lat="43.5725567" lon="11.9832715"><ele>595.0</ele><time>2026-04-25T13:24:22.93Z</time></trkpt></trkseg><trkseg><trkpt lat="43.5771881" lon="11.9869367"><ele>494.0</ele><time>2026-04-25T13:48:53.337Z</time></trkpt><trkpt lat="43.57724" lon="11.986986"><ele>494.0</ele><time>2026-04-25T13:49:10.915Z</time></trkpt><trkpt lat="43.577305" lon="11.987023"><ele>494.0</ele><time>2026-04-25T13:49:17.925Z</time></trkpt><trkpt lat="43.577376" lon="11.9870455"><ele>494.0</ele><time>2026-04-25T13:49:23.913Z</time></trkpt><trkpt lat="43.5774425" lon="11.98707"><ele>494.0</ele><time>2026-04-25T13:49:27.909Z</time></trkpt><trkpt lat="43.5775048" lon="11.9871092"><ele>494.0</ele><time>2026-04-25T13:49:35.844Z</time></trkpt><trkpt lat="43.5775356" lon="11.9871903"><ele>494.0</ele><time>2026-04-25T13:49:45.938Z</time></trkpt><trkpt lat="43.5775815" lon="11.987255"><ele>494.0</ele><time>2026-04-25T13:49:55.93Z</time></trkpt><trkpt lat="43.5776324" lon="11.987312"><ele>494.0</ele><time>2026-04-25T13:50:03.929Z</time></trkpt><trkpt lat="43.5776541" lon="11.9873948"><ele>494.0</ele><time>2026-04-25T13:50:15.915Z</time></trkpt><trkpt lat="43.577719" lon="11.9874078"><ele>494.0</ele><time>2026-04-25T13:50:36.881Z</time></trkpt><trkpt lat="43.5777849" lon="11.9873881"><ele>494.0</ele><time>2026-04-25T13:50:51.926Z</time></trkpt><trkpt lat="43.5778388" lon="11.9874387"><ele>494.0</ele><time>2026-04-25T13:50:59.931Z</time></trkpt><trkpt lat="43.5778893" lon="11.9874916"><ele>494.0</ele><time>2026-04-25T13:51:07.924Z</time></trkpt><trkpt lat="43.5779323" lon="11.9875609"><ele>496.28571428571433</ele><time>2026-04-25T13:51:13.926Z</time></trkpt><trkpt lat="43.5779738" lon="11.987633"><ele>498.57142857142856</ele><time>2026-04-25T13:51:20.927Z</time></trkpt><trkpt lat="43.5780265" lon="11.9876835"><ele>500.8571428571429</ele><time>2026-04-25T13:51:33.884Z</time></trkpt><trkpt lat="43.5780952" lon="11.9876927"><ele>503.14285714285717</ele><time>2026-04-25T13:51:43.873Z</time></trkpt><trkpt lat="43.5781597" lon="11.9876912"><ele>505.42857142857144</ele><time>2026-04-25T13:51:49.926Z</time></trkpt><trkpt lat="43.5782265" lon="11.9876938"><ele>507.7142857142857</ele><time>2026-04-25T13:51:55.921Z</time></trkpt><trkpt lat="43.5782929" lon="11.9877066"><ele>510.0</ele><time>2026-04-25T13:52:02.943Z</time></trkpt><trkpt lat="43.57836" lon="11.9877331"><ele>510.0</ele><time>2026-04-25T13:52:11.923Z</time></trkpt><trkpt lat="43.5784315" lon="11.9877346"><ele>510.00000000000006</ele><time>2026-04-25T13:52:19.925Z</time></trkpt><trkpt lat="43.5784948" lon="11.9877266"><ele>510.0</ele><time>2026-04-25T13:52:25.927Z</time></trkpt><trkpt lat="43.5785622" lon="11.9877167"><ele>510.0</ele><time>2026-04-25T13:52:31.943Z</time></trkpt><trkpt lat="43.5786324" lon="11.9876942"><ele>510.00000000000006</ele><time>2026-04-25T13:52:38.864Z</time></trkpt><trkpt lat="43.5787009" lon="11.9876768"><ele>510.0</ele><time>2026-04-25T13:52:45.935Z</time></trkpt><trkpt lat="43.5787652" lon="11.9877098"><ele>510.0</ele><time>2026-04-25T13:52:54.925Z</time></trkpt><trkpt lat="43.5788269" lon="11.9877321"><ele>510.8571428571429</ele><time>2026-04-25T13:53:02.925Z</time></trkpt><trkpt lat="43.5788919" lon="11.9877319"><ele>511.7142857142858</ele><time>2026-04-25T13:53:08.925Z</time></trkpt><trkpt lat="43.5789569" lon="11.9877576"><ele>512.5714285714286</ele><time>2026-04-25T13:53:14.937Z</time></trkpt><trkpt lat="43.5790087" lon="11.9878121"><ele>513.4285714285714</ele><time>2026-04-25T13:53:22.928Z</time></trkpt><trkpt lat="43.579076" lon="11.9878469"><ele>514.2857142857142</ele><time>2026-04-25T13:53:31.861Z</time></trkpt><trkpt lat="43.5791403" lon="11.9878545"><ele>515.1428571428571</ele><time>2026-04-25T13:53:40.942Z</time></trkpt><trkpt lat="43.5792053" lon="11.9878375"><ele>516.0</ele><time>2026-04-25T13:53:48.937Z</time></trkpt><trkpt lat="43.579272" lon="11.9878363"><ele>515.9999999999999</ele><time>2026-04-25T13:53:56.938Z</time></trkpt><trkpt lat="43.5793356" lon="11.9878251"><ele>516.0</ele><time>2026-04-25T13:54:02.939Z</time></trkpt><trkpt lat="43.5794012" lon="11.9877957"><ele>516.0</ele><time>2026-04-25T13:54:08.881Z</time></trkpt><trkpt lat="43.5794612" lon="11.9877593"><ele>516.0</ele><time>2026-04-25T13:54:15.902Z</time></trkpt><trkpt lat="43.5795034" lon="11.987834"><ele>516.0</ele><time>2026-04-25T13:54:25.933Z</time></trkpt><trkpt lat="43.5795214" lon="11.9879349"><ele>515.9999999999999</ele><time>2026-04-25T13:54:31.946Z</time></trkpt><trkpt lat="43.5795478" lon="11.9880319"><ele>516.0</ele><time>2026-04-25T13:54:37.927Z</time></trkpt><trkpt lat="43.5795763" lon="11.9881128"><ele>517.1428571428571</ele><time>2026-04-25T13:54:42.939Z</time></trkpt><trkpt lat="43.5796005" lon="11.9881971"><ele>518.2857142857142</ele><time>2026-04-25T13:54:48.867Z</time></trkpt><trkpt lat="43.5796226" lon="11.9882817"><ele>519.4285714285714</ele><time>2026-04-25T13:54:55.93Z</time></trkpt><trkpt lat="43.5796317" lon="11.988373"><ele>520.5714285714286</ele><time>2026-04-25T13:55:01.863Z</time></trkpt><trkpt lat="43.5796414" lon="11.9884653"><ele>521.7142857142858</ele><time>2026-04-25T13:55:08.939Z</time></trkpt><trkpt lat="43.5796549" lon="11.9885647"><ele>522.8571428571429</ele><time>2026-04-25T13:55:16.943Z</time></trkpt><trkpt lat="43.579665" lon="11.9886519"><ele>524.0</ele><time>2026-04-25T13:55:22.939Z</time></trkpt><trkpt lat="43.5796835" lon="11.9887374"><ele>524.0</ele><time>2026-04-25T13:55:28.927Z</time></trkpt><trkpt lat="43.5797088" lon="11.9888212"><ele>524.0</ele><time>2026-04-25T13:55:36.935Z</time></trkpt><trkpt lat="43.5797404" lon="11.9889036"><ele>524.0</ele><time>2026-04-25T13:55:44.863Z</time></trkpt><trkpt lat="43.5797298" lon="11.9889951"><ele>524.0</ele><time>2026-04-25T13:55:51.929Z</time></trkpt><trkpt lat="43.5796746" lon="11.9890487"><ele>524.0</ele><time>2026-04-25T13:55:59.939Z</time></trkpt><trkpt lat="43.5796069" lon="11.9890494"><ele>524.0</ele><time>2026-04-25T13:56:06.932Z</time></trkpt><trkpt lat="43.579544" lon="11.9890858"><ele>524.0</ele><time>2026-04-25T13:56:13.943Z</time></trkpt><trkpt lat="43.5794867" lon="11.9891223"><ele>523.1428571428571</ele><time>2026-04-25T13:56:21.935Z</time></trkpt><trkpt lat="43.5794287" lon="11.9891682"><ele>522.2857142857143</ele><time>2026-04-25T13:56:29.935Z</time></trkpt><trkpt lat="43.5793687" lon="11.9892084"><ele>521.4285714285714</ele><time>2026-04-25T13:56:36.939Z</time></trkpt><trkpt lat="43.5793195" lon="11.9892657"><ele>520.5714285714286</ele><time>2026-04-25T13:56:44.942Z</time></trkpt><trkpt lat="43.5792986" lon="11.9893484"><ele>519.7142857142858</ele><time>2026-04-25T13:56:52.934Z</time></trkpt><trkpt lat="43.5792796" lon="11.9894431"><ele>518.8571428571429</ele><time>2026-04-25T13:57:01.928Z</time></trkpt><trkpt lat="43.5792622" lon="11.9895357"><ele>518.0</ele><time>2026-04-25T13:57:08.924Z</time></trkpt><trkpt lat="43.5792441" lon="11.989622"><ele>517.6666666666666</ele><time>2026-04-25T13:57:18.884Z</time></trkpt><trkpt lat="43.5791823" lon="11.9896443"><ele>517.3333333333333</ele><time>2026-04-25T14:11:46.924Z</time></trkpt><trkpt lat="43.5792483" lon="11.989595"><ele>517.0</ele><time>2026-04-25T14:16:06.934Z</time></trkpt><trkpt lat="43.5792917" lon="11.9895083"><ele>516.6666666666666</ele><time>2026-04-25T14:16:11.948Z</time></trkpt><trkpt lat="43.579295" lon="11.9893917"><ele>516.3333333333334</ele><time>2026-04-25T14:16:15.939Z</time></trkpt><trkpt lat="43.5793017" lon="11.989295"><ele>516.0</ele><time>2026-04-25T14:16:19.959Z</time></trkpt><trkpt lat="43.579355" lon="11.98921"><ele>516.3333333333334</ele><time>2026-04-25T14:16:23.943Z</time></trkpt><trkpt lat="43.5794167" lon="11.98913"><ele>516.6666666666666</ele><time>2026-04-25T14:16:26.931Z</time></trkpt><trkpt lat="43.5794933" lon="11.9890733"><ele>517.0</ele><time>2026-04-25T14:16:29.941Z</time></trkpt><trkpt lat="43.5795783" lon="11.9890267"><ele>517.3333333333333</ele><time>2026-04-25T14:16:32.942Z</time></trkpt><trkpt lat="43.57967" lon="11.9889933"><ele>517.6666666666666</ele><time>2026-04-25T14:16:35.942Z</time></trkpt><trkpt lat="43.579755" lon="11.988965"><ele>518.0</ele><time>2026-04-25T14:16:38.938Z</time></trkpt><trkpt lat="43.5798467" lon="11.9889417"><ele>519.0</ele><time>2026-04-25T14:16:41.97Z</time></trkpt><trkpt lat="43.5799183" lon="11.9889217"><ele>520.0</ele><time>2026-04-25T14:16:43.974Z</time></trkpt><trkpt lat="43.57999" lon="11.988905"><ele>521.0</ele><time>2026-04-25T14:16:45.922Z</time></trkpt><trkpt lat="43.580065" lon="11.9888883"><ele>522.0</ele><time>2026-04-25T14:16:47.921Z</time></trkpt><trkpt lat="43.5801383" lon="11.9888733"><ele>523.0</ele><time>2026-04-25T14:16:49.973Z</time></trkpt><trkpt lat="43.5802167" lon="11.9888583"><ele>524.0</ele><time>2026-04-25T14:16:51.912Z</time></trkpt><trkpt lat="43.5802917" lon="11.9888483"><ele>524.6666666666666</ele><time>2026-04-25T14:16:53.926Z</time></trkpt><trkpt lat="43.580365" lon="11.9888383"><ele>525.3333333333333</ele><time>2026-04-25T14:16:55.999Z</time></trkpt><trkpt lat="43.5804317" lon="11.988825"><ele>526.0</ele><time>2026-04-25T14:16:57.939Z</time></trkpt><trkpt lat="43.5805183" lon="11.98878"><ele>526.6666666666666</ele><time>2026-04-25T14:17:00.939Z</time></trkpt><trkpt lat="43.5805617" lon="11.9887117"><ele>527.3333333333334</ele><time>2026-04-25T14:17:02.942Z</time></trkpt><trkpt lat="43.580605" lon="11.9886067"><ele>528.0</ele><time>2026-04-25T14:17:05.931Z</time></trkpt><trkpt lat="43.5806383" lon="11.9885017"><ele>528.0</ele><time>2026-04-25T14:17:08.943Z</time></trkpt><trkpt lat="43.58067" lon="11.9883733"><ele>528.0</ele><time>2026-04-25T14:17:11.942Z</time></trkpt><trkpt lat="43.5806867" lon="11.9882733"><ele>528.0</ele><time>2026-04-25T14:17:13.978Z</time></trkpt><trkpt lat="43.5807" lon="11.988175"><ele>528.0</ele><time>2026-04-25T14:17:15.939Z</time></trkpt><trkpt lat="43.5807183" lon="11.9880783"><ele>528.0</ele><time>2026-04-25T14:17:17.926Z</time></trkpt><trkpt lat="43.58074" lon="11.9879833"><ele>528.0</ele><time>2026-04-25T14:17:19.982Z</time></trkpt><trkpt lat="43.5807733" lon="11.9879033"><ele>529.6666666666666</ele><time>2026-04-25T14:17:21.94Z</time></trkpt><trkpt lat="43.58082" lon="11.9878433"><ele>531.3333333333334</ele><time>2026-04-25T14:17:23.936Z</time></trkpt><trkpt lat="43.5808983" lon="11.9877717"><ele>533.0</ele><time>2026-04-25T14:17:26.94Z</time></trkpt><trkpt lat="43.580985" lon="11.9877467"><ele>534.6666666666667</ele><time>2026-04-25T14:17:29.941Z</time></trkpt><trkpt lat="43.5810683" lon="11.987755"><ele>536.3333333333334</ele><time>2026-04-25T14:17:32.939Z</time></trkpt><trkpt lat="43.5811533" lon="11.9877583"><ele>538.0</ele><time>2026-04-25T14:17:35.943Z</time></trkpt><trkpt lat="43.581245" lon="11.9877417"><ele>538.5714285714286</ele><time>2026-04-25T14:17:38.943Z</time></trkpt><trkpt lat="43.58131" lon="11.987725"><ele>539.1428571428572</ele><time>2026-04-25T14:17:40.942Z</time></trkpt><trkpt lat="43.5813767" lon="11.98771"><ele>539.7142857142858</ele><time>2026-04-25T14:17:42.936Z</time></trkpt><trkpt lat="43.5814467" lon="11.9876933"><ele>540.2857142857143</ele><time>2026-04-25T14:17:44.944Z</time></trkpt><trkpt lat="43.5815167" lon="11.9876817"><ele>540.8571428571429</ele><time>2026-04-25T14:17:46.941Z</time></trkpt><trkpt lat="43.5815883" lon="11.9876667"><ele>541.4285714285714</ele><time>2026-04-25T14:17:48.929Z</time></trkpt><trkpt lat="43.581655" lon="11.9876567"><ele>542.0</ele><time>2026-04-25T14:17:50.94Z</time></trkpt><trkpt lat="43.581735" lon="11.987685"><ele>542.0</ele><time>2026-04-25T14:17:53.938Z</time></trkpt><trkpt lat="43.5817917" lon="11.9877417"><ele>542.0</ele><time>2026-04-25T14:17:55.987Z</time></trkpt><trkpt lat="43.58186" lon="11.9878233"><ele>542.0</ele><time>2026-04-25T14:17:57.946Z</time></trkpt><trkpt lat="43.58194" lon="11.9879033"><ele>542.0</ele><time>2026-04-25T14:17:59.932Z</time></trkpt><trkpt lat="43.5820333" lon="11.9879767"><ele>542.0</ele><time>2026-04-25T14:18:01.954Z</time></trkpt><trkpt lat="43.5821467" lon="11.9880483"><ele>542.7142857142857</ele><time>2026-04-25T14:18:03.949Z</time></trkpt><trkpt lat="43.5822067" lon="11.9880883"><ele>543.4285714285714</ele><time>2026-04-25T14:18:04.948Z</time></trkpt><trkpt lat="43.5822733" lon="11.9881267"><ele>544.1428571428571</ele><time>2026-04-25T14:18:05.948Z</time></trkpt><trkpt lat="43.5823417" lon="11.9881667"><ele>544.8571428571429</ele><time>2026-04-25T14:18:06.943Z</time></trkpt><trkpt lat="43.5824133" lon="11.9882067"><ele>545.5714285714286</ele><time>2026-04-25T14:18:07.992Z</time></trkpt><trkpt lat="43.582485" lon="11.9882433"><ele>546.2857142857142</ele><time>2026-04-25T14:18:08.945Z</time></trkpt><trkpt lat="43.5825567" lon="11.98828"><ele>547.0</ele><time>2026-04-25T14:18:09.949Z</time></trkpt><trkpt lat="43.582625" lon="11.9883167"><ele>545.8571428571429</ele><time>2026-04-25T14:18:10.949Z</time></trkpt><trkpt lat="43.5826933" lon="11.988355"><ele>544.7142857142857</ele><time>2026-04-25T14:18:11.946Z</time></trkpt><trkpt lat="43.5827617" lon="11.9883933"><ele>543.5714285714286</ele><time>2026-04-25T14:18:12.94Z</time></trkpt><trkpt lat="43.5828317" lon="11.9884317"><ele>542.4285714285714</ele><time>2026-04-25T14:18:13.992Z</time></trkpt><trkpt lat="43.5829017" lon="11.98847"><ele>541.2857142857142</ele><time>2026-04-25T14:18:14.947Z</time></trkpt><trkpt lat="43.5829683" lon="11.9885067"><ele>540.1428571428571</ele><time>2026-04-25T14:18:15.947Z</time></trkpt><trkpt lat="43.583035" lon="11.9885467"><ele>539.0</ele><time>2026-04-25T14:18:16.947Z</time></trkpt><trkpt lat="43.5830983" lon="11.9885833"><ele>539.0</ele><time>2026-04-25T14:18:17.948Z</time></trkpt><trkpt lat="43.5831633" lon="11.98862"><ele>539.0</ele><time>2026-04-25T14:18:18.941Z</time></trkpt><trkpt lat="43.58323" lon="11.98866"><ele>539.0</ele><time>2026-04-25T14:18:19.991Z</time></trkpt><trkpt lat="43.5832933" lon="11.9886967"><ele>539.0</ele><time>2026-04-25T14:18:20.934Z</time></trkpt><trkpt lat="43.5833583" lon="11.9887333"><ele>539.0</ele><time>2026-04-25T14:18:21.94Z</time></trkpt><trkpt lat="43.5834267" lon="11.988775"><ele>539.0</ele><time>2026-04-25T14:18:22.947Z</time></trkpt><trkpt lat="43.5834967" lon="11.9888183"><ele>539.0</ele><time>2026-04-25T14:18:23.948Z</time></trkpt><trkpt lat="43.5835683" lon="11.98886"><ele>539.0</ele><time>2026-04-25T14:18:24.945Z</time></trkpt><trkpt lat="43.58364" lon="11.9889017"><ele>539.0</ele><time>2026-04-25T14:18:26.005Z</time></trkpt><trkpt lat="43.5837083" lon="11.9889467"><ele>539.0</ele><time>2026-04-25T14:18:26.938Z</time></trkpt><trkpt lat="43.583775" lon="11.9890017"><ele>539.0</ele><time>2026-04-25T14:18:27.942Z</time></trkpt><trkpt lat="43.583835" lon="11.9890683"><ele>539.0</ele><time>2026-04-25T14:18:28.947Z</time></trkpt><trkpt lat="43.5838867" lon="11.98915"><ele>539.0</ele><time>2026-04-25T14:18:29.95Z</time></trkpt><trkpt lat="43.58393" lon="11.9892483"><ele>536.8</ele><time>2026-04-25T14:18:30.948Z</time></trkpt><trkpt lat="43.58396" lon="11.9893617"><ele>534.5999999999999</ele><time>2026-04-25T14:18:31.978Z</time></trkpt><trkpt lat="43.583975" lon="11.9894883"><ele>532.4</ele><time>2026-04-25T14:18:32.951Z</time></trkpt><trkpt lat="43.5839767" lon="11.9896217"><ele>530.1999999999999</ele><time>2026-04-25T14:18:33.948Z</time></trkpt><trkpt lat="43.5839717" lon="11.989755"><ele>528.0</ele><time>2026-04-25T14:18:34.939Z</time></trkpt><trkpt lat="43.5839617" lon="11.9898833"><ele>528.0</ele><time>2026-04-25T14:18:35.946Z</time></trkpt><trkpt lat="43.5839417" lon="11.9900067"><ele>528.0</ele><time>2026-04-25T14:18:36.946Z</time></trkpt><trkpt lat="43.5839083" lon="11.9901333"><ele>528.0</ele><time>2026-04-25T14:18:37.998Z</time></trkpt><trkpt lat="43.5838617" lon="11.9902583"><ele>528.0</ele><time>2026-04-25T14:18:38.949Z</time></trkpt><trkpt lat="43.5838" lon="11.99037"><ele>528.0</ele><time>2026-04-25T14:18:39.937Z</time></trkpt><trkpt lat="43.5837333" lon="11.99047"><ele>527.1999999999999</ele><time>2026-04-25T14:18:40.952Z</time></trkpt><trkpt lat="43.583665" lon="11.9905617"><ele>526.4</ele><time>2026-04-25T14:18:41.95Z</time></trkpt><trkpt lat="43.5836017" lon="11.9906467"><ele>525.5999999999999</ele><time>2026-04-25T14:18:42.946Z</time></trkpt><trkpt lat="43.5835483" lon="11.9907233"><ele>524.8</ele><time>2026-04-25T14:18:43.994Z</time></trkpt><trkpt lat="43.58349" lon="11.9908567"><ele>524.0</ele><time>2026-04-25T14:18:45.947Z</time></trkpt><trkpt lat="43.5835067" lon="11.9909817"><ele>523.1666666666666</ele><time>2026-04-25T14:18:47.946Z</time></trkpt><trkpt lat="43.58357" lon="11.99105"><ele>522.3333333333333</ele><time>2026-04-25T14:18:49.978Z</time></trkpt><trkpt lat="43.5836467" lon="11.991"><ele>521.5</ele><time>2026-04-25T14:18:51.929Z</time></trkpt><trkpt lat="43.5837367" lon="11.990885"><ele>520.6666666666666</ele><time>2026-04-25T14:18:53.941Z</time></trkpt><trkpt lat="43.5837833" lon="11.990815"><ele>519.8333333333334</ele><time>2026-04-25T14:18:54.932Z</time></trkpt><trkpt lat="43.5838333" lon="11.9907433"><ele>519.0</ele><time>2026-04-25T14:18:55.997Z</time></trkpt><trkpt lat="43.5838867" lon="11.9906817"><ele>519.0</ele><time>2026-04-25T14:18:56.944Z</time></trkpt><trkpt lat="43.5839833" lon="11.9906317"><ele>519.0</ele><time>2026-04-25T14:18:58.949Z</time></trkpt><trkpt lat="43.5840783" lon="11.9906967"><ele>519.0</ele><time>2026-04-25T14:19:00.95Z</time></trkpt><trkpt lat="43.584125" lon="11.9907567"><ele>519.0</ele><time>2026-04-25T14:19:01.979Z</time></trkpt><trkpt lat="43.584175" lon="11.9908333"><ele>519.0</ele><time>2026-04-25T14:19:02.935Z</time></trkpt><trkpt lat="43.58423" lon="11.9909183"><ele>519.0</ele><time>2026-04-25T14:19:03.945Z</time></trkpt><trkpt lat="43.58428" lon="11.99101"><ele>518.1666666666666</ele><time>2026-04-25T14:19:04.945Z</time></trkpt><trkpt lat="43.5843317" lon="11.991105"><ele>517.3333333333334</ele><time>2026-04-25T14:19:05.944Z</time></trkpt><trkpt lat="43.5843833" lon="11.9911967"><ele>516.5</ele><time>2026-04-25T14:19:06.945Z</time></trkpt><trkpt lat="43.5844333" lon="11.99128"><ele>515.6666666666667</ele><time>2026-04-25T14:19:07.995Z</time></trkpt><trkpt lat="43.5844817" lon="11.9913583"><ele>514.8333333333334</ele><time>2026-04-25T14:19:08.948Z</time></trkpt><trkpt lat="43.5845267" lon="11.991435"><ele>514.0</ele><time>2026-04-25T14:19:09.948Z</time></trkpt><trkpt lat="43.584565" lon="11.9915183"><ele>514.2857142857142</ele><time>2026-04-25T14:19:10.944Z</time></trkpt><trkpt lat="43.5845983" lon="11.9916067"><ele>514.5714285714286</ele><time>2026-04-25T14:19:11.947Z</time></trkpt><trkpt lat="43.584615" lon="11.9917033"><ele>514.8571428571429</ele><time>2026-04-25T14:19:12.944Z</time></trkpt><trkpt lat="43.5846167" lon="11.9918033"><ele>515.1428571428571</ele><time>2026-04-25T14:19:13.992Z</time></trkpt><trkpt lat="43.5845933" lon="11.991895"><ele>515.4285714285714</ele><time>2026-04-25T14:19:14.95Z</time></trkpt><trkpt lat="43.584555" lon="11.9919733"><ele>515.7142857142857</ele><time>2026-04-25T14:19:15.947Z</time></trkpt><trkpt lat="43.5845067" lon="11.992045"><ele>516.0</ele><time>2026-04-25T14:19:16.945Z</time></trkpt><trkpt lat="43.5844583" lon="11.992115"><ele>515.9999999999999</ele><time>2026-04-25T14:19:17.933Z</time></trkpt><trkpt lat="43.58441" lon="11.9921817"><ele>516.0</ele><time>2026-04-25T14:19:18.948Z</time></trkpt><trkpt lat="43.58436" lon="11.99225"><ele>516.0</ele><time>2026-04-25T14:19:19.998Z</time></trkpt><trkpt lat="43.5843083" lon="11.9923133"><ele>516.0</ele><time>2026-04-25T14:19:20.948Z</time></trkpt><trkpt lat="43.5842517" lon="11.9923733"><ele>516.0</ele><time>2026-04-25T14:19:21.948Z</time></trkpt><trkpt lat="43.5841917" lon="11.9924183"><ele>515.9999999999999</ele><time>2026-04-25T14:19:22.95Z</time></trkpt><trkpt lat="43.5841267" lon="11.9924567"><ele>516.0</ele><time>2026-04-25T14:19:23.925Z</time></trkpt><trkpt lat="43.5840583" lon="11.9924883"><ele>516.6666666666666</ele><time>2026-04-25T14:19:24.945Z</time></trkpt><trkpt lat="43.5839867" lon="11.99252"><ele>517.3333333333334</ele><time>2026-04-25T14:19:26.006Z</time></trkpt><trkpt lat="43.5839133" lon="11.9925567"><ele>518.0</ele><time>2026-04-25T14:19:26.942Z</time></trkpt><trkpt lat="43.583835" lon="11.9925933"><ele>518.6666666666667</ele><time>2026-04-25T14:19:27.943Z</time></trkpt><trkpt lat="43.5837567" lon="11.992635"><ele>519.3333333333334</ele><time>2026-04-25T14:19:28.943Z</time></trkpt><trkpt lat="43.5836767" lon="11.992675"><ele>520.0</ele><time>2026-04-25T14:19:29.936Z</time></trkpt><trkpt lat="43.5835933" lon="11.9927183"><ele>518.0</ele><time>2026-04-25T14:19:30.952Z</time></trkpt><trkpt lat="43.5835083" lon="11.992765"><ele>516.0</ele><time>2026-04-25T14:19:31.997Z</time></trkpt><trkpt lat="43.5834217" lon="11.9928167"><ele>514.0</ele><time>2026-04-25T14:19:32.94Z</time></trkpt><trkpt lat="43.5833317" lon="11.992865"><ele>512.0</ele><time>2026-04-25T14:19:33.944Z</time></trkpt><trkpt lat="43.5832417" lon="11.99291"><ele>510.0</ele><time>2026-04-25T14:19:34.948Z</time></trkpt><trkpt lat="43.5831467" lon="11.99296"><ele>510.0</ele><time>2026-04-25T14:19:35.947Z</time></trkpt><trkpt lat="43.5830517" lon="11.993015"><ele>510.0</ele><time>2026-04-25T14:19:36.948Z</time></trkpt><trkpt lat="43.58296" lon="11.9930733"><ele>510.0</ele><time>2026-04-25T14:19:37.992Z</time></trkpt><trkpt lat="43.5828767" lon="11.9931533"><ele>510.0</ele><time>2026-04-25T14:19:38.951Z</time></trkpt><trkpt lat="43.5828" lon="11.9932483"><ele>510.0</ele><time>2026-04-25T14:19:39.945Z</time></trkpt><trkpt lat="43.582735" lon="11.993355"><ele>509.2</ele><time>2026-04-25T14:19:40.947Z</time></trkpt><trkpt lat="43.5826783" lon="11.9934717"><ele>508.4</ele><time>2026-04-25T14:19:41.947Z</time></trkpt><trkpt lat="43.5826283" lon="11.9935967"><ele>507.6</ele><time>2026-04-25T14:19:42.948Z</time></trkpt><trkpt lat="43.58258" lon="11.9937183"><ele>506.8</ele><time>2026-04-25T14:19:43.994Z</time></trkpt><trkpt lat="43.5825383" lon="11.9938333"><ele>506.0</ele><time>2026-04-25T14:19:44.938Z</time></trkpt><trkpt lat="43.5824967" lon="11.99396"><ele>506.0</ele><time>2026-04-25T14:19:45.949Z</time></trkpt><trkpt lat="43.5824567" lon="11.9940867"><ele>506.0</ele><time>2026-04-25T14:19:47.021Z</time></trkpt><trkpt lat="43.582385" lon="11.99436"><ele>506.0</ele><time>2026-04-25T14:19:48.917Z</time></trkpt><trkpt lat="43.58235" lon="11.9944933"><ele>506.0</ele><time>2026-04-25T14:19:49.967Z</time></trkpt><trkpt lat="43.582315" lon="11.994615"><ele>506.8</ele><time>2026-04-25T14:19:50.915Z</time></trkpt><trkpt lat="43.5822833" lon="11.9947383"><ele>507.6</ele><time>2026-04-25T14:19:51.92Z</time></trkpt><trkpt lat="43.58225" lon="11.9948667"><ele>508.4</ele><time>2026-04-25T14:19:52.917Z</time></trkpt><trkpt lat="43.582215" lon="11.9950017"><ele>509.2</ele><time>2026-04-25T14:19:53.921Z</time></trkpt><trkpt lat="43.58218" lon="11.995145"><ele>510.0</ele><time>2026-04-25T14:19:54.926Z</time></trkpt><trkpt lat="43.58215" lon="11.99528"><ele>509.4</ele><time>2026-04-25T14:19:55.983Z</time></trkpt><trkpt lat="43.58212" lon="11.9954117"><ele>508.8</ele><time>2026-04-25T14:19:56.925Z</time></trkpt><trkpt lat="43.5820867" lon="11.9955367"><ele>508.20000000000005</ele><time>2026-04-25T14:19:57.921Z</time></trkpt><trkpt lat="43.5820567" lon="11.9956583"><ele>507.6</ele><time>2026-04-25T14:19:58.915Z</time></trkpt><trkpt lat="43.582025" lon="11.9957767"><ele>507.0</ele><time>2026-04-25T14:19:59.918Z</time></trkpt><trkpt lat="43.5819967" lon="11.99589"><ele>507.0</ele><time>2026-04-25T14:20:00.931Z</time></trkpt><trkpt lat="43.5819717" lon="11.995995"><ele>507.00000000000006</ele><time>2026-04-25T14:20:01.975Z</time></trkpt><trkpt lat="43.58195" lon="11.9960933"><ele>507.00000000000006</ele><time>2026-04-25T14:20:02.922Z</time></trkpt><trkpt lat="43.5819283" lon="11.9961767"><ele>507.0</ele><time>2026-04-25T14:20:03.924Z</time></trkpt><trkpt lat="43.5818633" lon="11.9963117"><ele>507.0</ele><time>2026-04-25T14:20:05.925Z</time></trkpt><trkpt lat="43.581745" lon="11.9963767"><ele>507.0</ele><time>2026-04-25T14:20:07.971Z</time></trkpt><trkpt lat="43.5816767" lon="11.9964183"><ele>507.0</ele><time>2026-04-25T14:20:08.911Z</time></trkpt><trkpt lat="43.5816183" lon="11.9964833"><ele>507.0</ele><time>2026-04-25T14:20:09.919Z</time></trkpt><trkpt lat="43.5815783" lon="11.996575"><ele>507.0</ele><time>2026-04-25T14:20:10.938Z</time></trkpt><trkpt lat="43.58156" lon="11.9966767"><ele>507.0</ele><time>2026-04-25T14:20:11.948Z</time></trkpt><trkpt lat="43.5815833" lon="11.996795"><ele>507.0</ele><time>2026-04-25T14:20:12.945Z</time></trkpt><trkpt lat="43.5816283" lon="11.99691"><ele>506.20000000000005</ele><time>2026-04-25T14:20:13.99Z</time></trkpt><trkpt lat="43.5816783" lon="11.9970233"><ele>505.40000000000003</ele><time>2026-04-25T14:20:14.941Z</time></trkpt><trkpt lat="43.581725" lon="11.9971483"><ele>504.59999999999997</ele><time>2026-04-25T14:20:15.945Z</time></trkpt><trkpt lat="43.5817533" lon="11.9972917"><ele>503.79999999999995</ele><time>2026-04-25T14:20:16.947Z</time></trkpt><trkpt lat="43.5817617" lon="11.9974433"><ele>503.0</ele><time>2026-04-25T14:20:17.949Z</time></trkpt><trkpt lat="43.58175" lon="11.9975883"><ele>502.0</ele><time>2026-04-25T14:20:18.946Z</time></trkpt><trkpt lat="43.5817067" lon="11.99773"><ele>500.99999999999994</ele><time>2026-04-25T14:20:19.986Z</time></trkpt><trkpt lat="43.58165" lon="11.997855"><ele>499.99999999999994</ele><time>2026-04-25T14:20:20.939Z</time></trkpt><trkpt lat="43.5815817" lon="11.997965"><ele>499.0</ele><time>2026-04-25T14:20:21.944Z</time></trkpt><trkpt lat="43.5815183" lon="11.9980733"><ele>498.0</ele><time>2026-04-25T14:20:22.949Z</time></trkpt><trkpt lat="43.5814683" lon="11.998175"><ele>498.0</ele><time>2026-04-25T14:20:23.927Z</time></trkpt><trkpt lat="43.5814333" lon="11.9982833"><ele>497.99999999999994</ele><time>2026-04-25T14:20:24.947Z</time></trkpt><trkpt lat="43.5814167" lon="11.9983983"><ele>497.99999999999994</ele><time>2026-04-25T14:20:25.995Z</time></trkpt><trkpt lat="43.5814133" lon="11.99853"><ele>498.0</ele><time>2026-04-25T14:20:26.949Z</time></trkpt><trkpt lat="43.58142" lon="11.998665"><ele>498.0</ele><time>2026-04-25T14:20:27.947Z</time></trkpt><trkpt lat="43.5814317" lon="11.9988017"><ele>496.79999999999995</ele><time>2026-04-25T14:20:28.943Z</time></trkpt><trkpt lat="43.58145" lon="11.998945"><ele>495.59999999999997</ele><time>2026-04-25T14:20:29.95Z</time></trkpt><trkpt lat="43.5814783" lon="11.9990883"><ele>494.40000000000003</ele><time>2026-04-25T14:20:30.944Z</time></trkpt><trkpt lat="43.58152" lon="11.99923"><ele>493.20000000000005</ele><time>2026-04-25T14:20:31.978Z</time></trkpt><trkpt lat="43.581575" lon="11.9993633"><ele>492.0</ele><time>2026-04-25T14:20:32.94Z</time></trkpt><trkpt lat="43.581645" lon="11.9994933"><ele>489.75</ele><time>2026-04-25T14:20:33.943Z</time></trkpt><trkpt lat="43.5817233" lon="11.9996167"><ele>487.5</ele><time>2026-04-25T14:20:34.947Z</time></trkpt><trkpt lat="43.5818033" lon="11.999735"><ele>485.25</ele><time>2026-04-25T14:20:35.947Z</time></trkpt><trkpt lat="43.5818833" lon="11.9998433"><ele>483.0</ele><time>2026-04-25T14:20:36.945Z</time></trkpt><trkpt lat="43.5819583" lon="11.99995"><ele>485.25</ele><time>2026-04-25T14:20:37.992Z</time></trkpt><trkpt lat="43.5820233" lon="12.00007"><ele>487.5</ele><time>2026-04-25T14:20:38.947Z</time></trkpt><trkpt lat="43.5820767" lon="12.0002"><ele>489.75</ele><time>2026-04-25T14:20:39.935Z</time></trkpt><trkpt lat="43.5821233" lon="12.0003467"><ele>492.0</ele><time>2026-04-25T14:20:40.933Z</time></trkpt><trkpt lat="43.582165" lon="12.0004983"><ele>492.0</ele><time>2026-04-25T14:20:41.933Z</time></trkpt><trkpt lat="43.5821967" lon="12.0006467"><ele>492.0</ele><time>2026-04-25T14:20:42.945Z</time></trkpt><trkpt lat="43.5822217" lon="12.000775"><ele>492.0</ele><time>2026-04-25T14:20:43.992Z</time></trkpt><trkpt lat="43.5822333" lon="12.0008817"><ele>492.0</ele><time>2026-04-25T14:20:44.945Z</time></trkpt><trkpt lat="43.5822267" lon="12.0009783"><ele>492.0</ele><time>2026-04-25T14:20:45.944Z</time></trkpt><trkpt lat="43.5822" lon="12.00106"><ele>492.0</ele><time>2026-04-25T14:20:46.947Z</time></trkpt><trkpt lat="43.5821517" lon="12.0011217"><ele>491.1666666666667</ele><time>2026-04-25T14:20:47.947Z</time></trkpt><trkpt lat="43.5820833" lon="12.0011733"><ele>490.33333333333337</ele><time>2026-04-25T14:20:48.945Z</time></trkpt><trkpt lat="43.582005" lon="12.0012233"><ele>489.5</ele><time>2026-04-25T14:20:49.993Z</time></trkpt><trkpt lat="43.5819167" lon="12.0012717"><ele>488.6666666666667</ele><time>2026-04-25T14:20:50.942Z</time></trkpt><trkpt lat="43.58183" lon="12.001325"><ele>487.83333333333337</ele><time>2026-04-25T14:20:51.936Z</time></trkpt><trkpt lat="43.58175" lon="12.0013883"><ele>487.0</ele><time>2026-04-25T14:20:52.947Z</time></trkpt><trkpt lat="43.5816733" lon="12.00145"><ele>485.33333333333337</ele><time>2026-04-25T14:20:53.945Z</time></trkpt><trkpt lat="43.581595" lon="12.0015167"><ele>483.6666666666667</ele><time>2026-04-25T14:20:54.949Z</time></trkpt><trkpt lat="43.5815217" lon="12.00158"><ele>482.0</ele><time>2026-04-25T14:20:55.973Z</time></trkpt><trkpt lat="43.5814517" lon="12.001645"><ele>480.33333333333337</ele><time>2026-04-25T14:20:56.952Z</time></trkpt><trkpt lat="43.5813783" lon="12.0017167"><ele>478.6666666666667</ele><time>2026-04-25T14:20:57.944Z</time></trkpt><trkpt lat="43.5813067" lon="12.0017867"><ele>477.0</ele><time>2026-04-25T14:20:58.947Z</time></trkpt><trkpt lat="43.581235" lon="12.001865"><ele>474.5</ele><time>2026-04-25T14:20:59.951Z</time></trkpt><trkpt lat="43.5811667" lon="12.0019433"><ele>472.0</ele><time>2026-04-25T14:21:00.947Z</time></trkpt><trkpt lat="43.5811" lon="12.002025"><ele>469.5</ele><time>2026-04-25T14:21:01.975Z</time></trkpt><trkpt lat="43.5810383" lon="12.00211"><ele>467.0</ele><time>2026-04-25T14:21:02.949Z</time></trkpt><trkpt lat="43.5809817" lon="12.0022067"><ele>464.5</ele><time>2026-04-25T14:21:03.949Z</time></trkpt><trkpt lat="43.58093" lon="12.00231"><ele>462.0</ele><time>2026-04-25T14:21:04.954Z</time></trkpt><trkpt lat="43.5808833" lon="12.002425"><ele>464.0</ele><time>2026-04-25T14:21:05.951Z</time></trkpt><trkpt lat="43.5808333" lon="12.0025467"><ele>466.00000000000006</ele><time>2026-04-25T14:21:06.95Z</time></trkpt><trkpt lat="43.5807767" lon="12.0026767"><ele>468.00000000000006</ele><time>2026-04-25T14:21:07.99Z</time></trkpt><trkpt lat="43.5807167" lon="12.0028083"><ele>470.0</ele><time>2026-04-25T14:21:08.949Z</time></trkpt><trkpt lat="43.5806567" lon="12.0029433"><ele>472.0</ele><time>2026-04-25T14:21:09.946Z</time></trkpt><trkpt lat="43.5805917" lon="12.0030883"><ele>472.0</ele><time>2026-04-25T14:21:10.942Z</time></trkpt><trkpt lat="43.5805233" lon="12.0032367"><ele>472.0</ele><time>2026-04-25T14:21:11.95Z</time></trkpt><trkpt lat="43.580455" lon="12.0033817"><ele>472.0</ele><time>2026-04-25T14:21:12.948Z</time></trkpt><trkpt lat="43.58039" lon="12.00352"><ele>472.0</ele><time>2026-04-25T14:21:13.994Z</time></trkpt><trkpt lat="43.58033" lon="12.0036533"><ele>468.75</ele><time>2026-04-25T14:21:14.941Z</time></trkpt><trkpt lat="43.580275" lon="12.0037933"><ele>465.5</ele><time>2026-04-25T14:21:15.947Z</time></trkpt><trkpt lat="43.5802283" lon="12.003935"><ele>462.25</ele><time>2026-04-25T14:21:16.946Z</time></trkpt><trkpt lat="43.58019" lon="12.004085"><ele>459.0</ele><time>2026-04-25T14:21:17.951Z</time></trkpt><trkpt lat="43.5801567" lon="12.0042433"><ele>459.0</ele><time>2026-04-25T14:21:18.944Z</time></trkpt><trkpt lat="43.580125" lon="12.0044083"><ele>459.0</ele><time>2026-04-25T14:21:19.991Z</time></trkpt><trkpt lat="43.5800917" lon="12.004575"><ele>459.0</ele><time>2026-04-25T14:21:20.942Z</time></trkpt><trkpt lat="43.5800567" lon="12.004755"><ele>459.0</ele><time>2026-04-25T14:21:21.948Z</time></trkpt><trkpt lat="43.5800217" lon="12.0049333"><ele>458.5</ele><time>2026-04-25T14:21:22.947Z</time></trkpt><trkpt lat="43.579985" lon="12.0051117"><ele>458.0</ele><time>2026-04-25T14:21:23.949Z</time></trkpt><trkpt lat="43.57995" lon="12.005295"><ele>457.5</ele><time>2026-04-25T14:21:24.947Z</time></trkpt><trkpt lat="43.5799133" lon="12.0054867"><ele>457.0</ele><time>2026-04-25T14:21:25.975Z</time></trkpt><trkpt lat="43.579875" lon="12.0056817"><ele>455.75</ele><time>2026-04-25T14:21:26.944Z</time></trkpt><trkpt lat="43.5798333" lon="12.0058733"><ele>454.5</ele><time>2026-04-25T14:21:27.946Z</time></trkpt><trkpt lat="43.57978" lon="12.0060617"><ele>453.25</ele><time>2026-04-25T14:21:28.944Z</time></trkpt><trkpt lat="43.579715" lon="12.0062383"><ele>452.0</ele><time>2026-04-25T14:21:29.95Z</time></trkpt><trkpt lat="43.5796367" lon="12.0063967"><ele>452.0</ele><time>2026-04-25T14:21:30.947Z</time></trkpt><trkpt lat="43.579555" lon="12.006535"><ele>452.0</ele><time>2026-04-25T14:21:31.977Z</time></trkpt><trkpt lat="43.5794767" lon="12.0066617"><ele>452.0</ele><time>2026-04-25T14:21:32.951Z</time></trkpt><trkpt lat="43.5794083" lon="12.0067817"><ele>452.0</ele><time>2026-04-25T14:21:33.948Z</time></trkpt><trkpt lat="43.5793567" lon="12.0069"><ele>449.8</ele><time>2026-04-25T14:21:34.951Z</time></trkpt><trkpt lat="43.5793167" lon="12.00703"><ele>447.6</ele><time>2026-04-25T14:21:35.933Z</time></trkpt><trkpt lat="43.57929" lon="12.0071717"><ele>445.40000000000003</ele><time>2026-04-25T14:21:36.947Z</time></trkpt><trkpt lat="43.5792817" lon="12.0073267"><ele>443.20000000000005</ele><time>2026-04-25T14:21:37.993Z</time></trkpt><trkpt lat="43.5792917" lon="12.0074867"><ele>441.0</ele><time>2026-04-25T14:21:38.946Z</time></trkpt><trkpt lat="43.5793083" lon="12.0076517"><ele>440.0</ele><time>2026-04-25T14:21:39.949Z</time></trkpt><trkpt lat="43.5793233" lon="12.007825"><ele>439.0</ele><time>2026-04-25T14:21:40.948Z</time></trkpt><trkpt lat="43.5793333" lon="12.0079967"><ele>438.0</ele><time>2026-04-25T14:21:41.949Z</time></trkpt><trkpt lat="43.5793383" lon="12.0081717"><ele>437.0</ele><time>2026-04-25T14:21:42.934Z</time></trkpt><trkpt lat="43.5793383" lon="12.00835"><ele>436.5</ele><time>2026-04-25T14:21:43.979Z</time></trkpt><trkpt lat="43.5793383" lon="12.0085317"><ele>436.0</ele><time>2026-04-25T14:21:44.945Z</time></trkpt><trkpt lat="43.5793367" lon="12.0087117"><ele>435.5</ele><time>2026-04-25T14:21:45.947Z</time></trkpt><trkpt lat="43.5793317" lon="12.00889"><ele>435.0</ele><time>2026-04-25T14:21:46.946Z</time></trkpt><trkpt lat="43.5793183" lon="12.0090633"><ele>435.0</ele><time>2026-04-25T14:21:47.947Z</time></trkpt><trkpt lat="43.5792967" lon="12.0092367"><ele>435.0</ele><time>2026-04-25T14:21:48.946Z</time></trkpt><trkpt lat="43.5792633" lon="12.0094017"><ele>435.0</ele><time>2026-04-25T14:21:49.993Z</time></trkpt><trkpt lat="43.5792217" lon="12.009565"><ele>435.0</ele><time>2026-04-25T14:21:50.942Z</time></trkpt><trkpt lat="43.5791767" lon="12.0097233"><ele>435.0</ele><time>2026-04-25T14:21:51.933Z</time></trkpt><trkpt lat="43.5791333" lon="12.0098783"><ele>435.0</ele><time>2026-04-25T14:21:52.946Z</time></trkpt><trkpt lat="43.5790867" lon="12.0100333"><ele>435.0</ele><time>2026-04-25T14:21:53.949Z</time></trkpt><trkpt lat="43.5790417" lon="12.0101867"><ele>435.0</ele><time>2026-04-25T14:21:54.95Z</time></trkpt><trkpt lat="43.5789967" lon="12.0103333"><ele>437.5</ele><time>2026-04-25T14:21:55.979Z</time></trkpt><trkpt lat="43.578945" lon="12.0104767"><ele>440.0</ele><time>2026-04-25T14:21:56.948Z</time></trkpt><trkpt lat="43.5788817" lon="12.01061"><ele>442.5</ele><time>2026-04-25T14:21:57.942Z</time></trkpt><trkpt lat="43.578805" lon="12.0107317"><ele>445.0</ele><time>2026-04-25T14:21:58.947Z</time></trkpt><trkpt lat="43.5787217" lon="12.0108417"><ele>442.75</ele><time>2026-04-25T14:21:59.942Z</time></trkpt><trkpt lat="43.5786333" lon="12.0109433"><ele>440.5</ele><time>2026-04-25T14:22:00.945Z</time></trkpt><trkpt lat="43.57854" lon="12.0110383"><ele>438.25</ele><time>2026-04-25T14:22:01.975Z</time></trkpt><trkpt lat="43.5784433" lon="12.0111267"><ele>436.0</ele><time>2026-04-25T14:22:02.949Z</time></trkpt><trkpt lat="43.5783417" lon="12.0112083"><ele>436.0</ele><time>2026-04-25T14:22:03.946Z</time></trkpt><trkpt lat="43.5782383" lon="12.0112933"><ele>436.0</ele><time>2026-04-25T14:22:04.949Z</time></trkpt><trkpt lat="43.5781383" lon="12.0113867"><ele>436.0</ele><time>2026-04-25T14:22:05.945Z</time></trkpt><trkpt lat="43.57804" lon="12.01149"><ele>436.0</ele><time>2026-04-25T14:22:06.945Z</time></trkpt><trkpt lat="43.5779417" lon="12.011595"><ele>436.25</ele><time>2026-04-25T14:22:07.997Z</time></trkpt><trkpt lat="43.57784" lon="12.0117"><ele>436.5</ele><time>2026-04-25T14:22:08.948Z</time></trkpt><trkpt lat="43.5777367" lon="12.0118033"><ele>436.75</ele><time>2026-04-25T14:22:09.947Z</time></trkpt><trkpt lat="43.5776333" lon="12.0119033"><ele>437.0</ele><time>2026-04-25T14:22:10.949Z</time></trkpt><trkpt lat="43.5775317" lon="12.012"><ele>437.0</ele><time>2026-04-25T14:22:11.947Z</time></trkpt><trkpt lat="43.5774367" lon="12.0120967"><ele>437.00000000000006</ele><time>2026-04-25T14:22:12.953Z</time></trkpt><trkpt lat="43.577355" lon="12.0121967"><ele>437.00000000000006</ele><time>2026-04-25T14:22:13.99Z</time></trkpt><trkpt lat="43.57729" lon="12.0123033"><ele>437.0</ele><time>2026-04-25T14:22:14.949Z</time></trkpt><trkpt lat="43.577245" lon="12.01243"><ele>437.0</ele><time>2026-04-25T14:22:15.946Z</time></trkpt><trkpt lat="43.5772233" lon="12.0125717"><ele>438.8</ele><time>2026-04-25T14:22:16.944Z</time></trkpt><trkpt lat="43.577225" lon="12.0127133"><ele>440.6</ele><time>2026-04-25T14:22:17.946Z</time></trkpt><trkpt lat="43.5772483" lon="12.0128533"><ele>442.40000000000003</ele><time>2026-04-25T14:22:18.938Z</time></trkpt><trkpt lat="43.57727" lon="12.0129983"><ele>444.20000000000005</ele><time>2026-04-25T14:22:19.993Z</time></trkpt><trkpt lat="43.577285" lon="12.0131433"><ele>446.0</ele><time>2026-04-25T14:22:20.946Z</time></trkpt><trkpt lat="43.5772933" lon="12.01329"><ele>448.0</ele><time>2026-04-25T14:22:21.947Z</time></trkpt><trkpt lat="43.577295" lon="12.0134383"><ele>450.0</ele><time>2026-04-25T14:22:22.946Z</time></trkpt><trkpt lat="43.5772867" lon="12.0135867"><ele>452.0</ele><time>2026-04-25T14:22:23.944Z</time></trkpt><trkpt lat="43.5772683" lon="12.0137267"><ele>454.0</ele><time>2026-04-25T14:22:24.945Z</time></trkpt><trkpt lat="43.577245" lon="12.01385"><ele>456.0</ele><time>2026-04-25T14:22:26Z</time></trkpt><trkpt lat="43.5772117" lon="12.01396"><ele>456.0</ele><time>2026-04-25T14:22:26.945Z</time></trkpt><trkpt lat="43.5771683" lon="12.0140633"><ele>456.0</ele><time>2026-04-25T14:22:27.944Z</time></trkpt><trkpt lat="43.57711" lon="12.0141567"><ele>456.0</ele><time>2026-04-25T14:22:28.947Z</time></trkpt><trkpt lat="43.5770417" lon="12.0142383"><ele>456.0</ele><time>2026-04-25T14:22:29.94Z</time></trkpt><trkpt lat="43.576965" lon="12.0143117"><ele>456.0</ele><time>2026-04-25T14:22:30.946Z</time></trkpt><trkpt lat="43.576885" lon="12.0143833"><ele>452.1666666666667</ele><time>2026-04-25T14:22:31.995Z</time></trkpt><trkpt lat="43.576805" lon="12.0144517"><ele>448.33333333333337</ele><time>2026-04-25T14:22:32.947Z</time></trkpt><trkpt lat="43.5767333" lon="12.014515"><ele>444.5</ele><time>2026-04-25T14:22:33.944Z</time></trkpt><trkpt lat="43.5766667" lon="12.0145917"><ele>440.6666666666667</ele><time>2026-04-25T14:22:34.944Z</time></trkpt><trkpt lat="43.576625" lon="12.01468"><ele>436.83333333333337</ele><time>2026-04-25T14:22:35.946Z</time></trkpt><trkpt lat="43.5766083" lon="12.014785"><ele>433.0</ele><time>2026-04-25T14:22:36.946Z</time></trkpt><trkpt lat="43.5766133" lon="12.0148933"><ele>435.1666666666667</ele><time>2026-04-25T14:22:37.991Z</time></trkpt><trkpt lat="43.57662" lon="12.0150083"><ele>437.33333333333337</ele><time>2026-04-25T14:22:38.941Z</time></trkpt><trkpt lat="43.576625" lon="12.0151217"><ele>439.5</ele><time>2026-04-25T14:22:39.944Z</time></trkpt><trkpt lat="43.57663" lon="12.0152367"><ele>441.66666666666663</ele><time>2026-04-25T14:22:40.946Z</time></trkpt><trkpt lat="43.5766417" lon="12.015355"><ele>443.8333333333333</ele><time>2026-04-25T14:22:41.947Z</time></trkpt><trkpt lat="43.5766533" lon="12.0154633"><ele>446.0</ele><time>2026-04-25T14:22:42.942Z</time></trkpt><trkpt lat="43.5766567" lon="12.0155583"><ele>446.0</ele><time>2026-04-25T14:22:43.993Z</time></trkpt><trkpt lat="43.5766233" lon="12.015705"><ele>446.0</ele><time>2026-04-25T14:22:45.946Z</time></trkpt><trkpt lat="43.5765417" lon="12.0157867"><ele>446.0</ele><time>2026-04-25T14:22:47.95Z</time></trkpt><trkpt lat="43.576445" lon="12.0157783"><ele>446.0</ele><time>2026-04-25T14:22:49.993Z</time></trkpt><trkpt lat="43.5763567" lon="12.0156633"><ele>446.0</ele><time>2026-04-25T14:22:51.923Z</time></trkpt><trkpt lat="43.5763133" lon="12.015575"><ele>445.99999999999994</ele><time>2026-04-25T14:22:52.947Z</time></trkpt><trkpt lat="43.576265" lon="12.0154833"><ele>446.0</ele><time>2026-04-25T14:22:53.947Z</time></trkpt><trkpt lat="43.5762133" lon="12.0153833"><ele>446.0</ele><time>2026-04-25T14:22:54.949Z</time></trkpt><trkpt lat="43.5761617" lon="12.015285"><ele>446.0</ele><time>2026-04-25T14:22:55.998Z</time></trkpt><trkpt lat="43.5761067" lon="12.015195"><ele>445.99999999999994</ele><time>2026-04-25T14:22:56.942Z</time></trkpt><trkpt lat="43.5760483" lon="12.0151233"><ele>446.0</ele><time>2026-04-25T14:22:57.94Z</time></trkpt><trkpt lat="43.57598" lon="12.0150717"><ele>442.8</ele><time>2026-04-25T14:22:58.946Z</time></trkpt><trkpt lat="43.5759033" lon="12.0150333"><ele>439.6</ele><time>2026-04-25T14:22:59.945Z</time></trkpt><trkpt lat="43.5758167" lon="12.0150117"><ele>436.4</ele><time>2026-04-25T14:23:00.942Z</time></trkpt><trkpt lat="43.57572" lon="12.0150233"><ele>433.2</ele><time>2026-04-25T14:23:01.997Z</time></trkpt><trkpt lat="43.575615" lon="12.0150717"><ele>430.0</ele><time>2026-04-25T14:23:02.942Z</time></trkpt><trkpt lat="43.5755" lon="12.015165"><ele>430.0</ele><time>2026-04-25T14:23:03.945Z</time></trkpt><trkpt lat="43.575395" lon="12.0152617"><ele>430.0</ele><time>2026-04-25T14:23:04.945Z</time></trkpt><trkpt lat="43.57529" lon="12.0153667"><ele>430.0</ele><time>2026-04-25T14:23:05.946Z</time></trkpt><trkpt lat="43.5751867" lon="12.0154717"><ele>430.0</ele><time>2026-04-25T14:23:06.944Z</time></trkpt><trkpt lat="43.5750867" lon="12.0155717"><ele>428.6666666666667</ele><time>2026-04-25T14:23:07.99Z</time></trkpt><trkpt lat="43.5749983" lon="12.01566"><ele>427.33333333333337</ele><time>2026-04-25T14:23:08.943Z</time></trkpt><trkpt lat="43.574925" lon="12.0157483"><ele>426.0</ele><time>2026-04-25T14:23:09.918Z</time></trkpt><trkpt lat="43.5748717" lon="12.0158383"><ele>424.66666666666663</ele><time>2026-04-25T14:23:10.944Z</time></trkpt><trkpt lat="43.5748433" lon="12.0159383"><ele>423.3333333333333</ele><time>2026-04-25T14:23:11.927Z</time></trkpt><trkpt lat="43.5748433" lon="12.0160433"><ele>422.0</ele><time>2026-04-25T14:23:12.946Z</time></trkpt><trkpt lat="43.5748633" lon="12.01615"><ele>421.99999999999994</ele><time>2026-04-25T14:23:13.992Z</time></trkpt><trkpt lat="43.5748933" lon="12.0162567"><ele>422.0</ele><time>2026-04-25T14:23:14.933Z</time></trkpt><trkpt lat="43.5749267" lon="12.0163717"><ele>422.0</ele><time>2026-04-25T14:23:15.945Z</time></trkpt><trkpt lat="43.5749583" lon="12.0164833"><ele>422.0</ele><time>2026-04-25T14:23:16.944Z</time></trkpt><trkpt lat="43.5749833" lon="12.01659"><ele>421.99999999999994</ele><time>2026-04-25T14:23:17.946Z</time></trkpt><trkpt lat="43.5749983" lon="12.0166883"><ele>422.0</ele><time>2026-04-25T14:23:18.942Z</time></trkpt><trkpt lat="43.5749733" lon="12.0168367"><ele>422.6</ele><time>2026-04-25T14:23:20.943Z</time></trkpt><trkpt lat="43.57487" lon="12.0169117"><ele>423.20000000000005</ele><time>2026-04-25T14:23:22.947Z</time></trkpt><trkpt lat="43.5748117" lon="12.016945"><ele>423.8</ele><time>2026-04-25T14:23:23.947Z</time></trkpt><trkpt lat="43.5746883" lon="12.0169817"><ele>424.4</ele><time>2026-04-25T14:23:25.996Z</time></trkpt><trkpt lat="43.5746167" lon="12.0169867"><ele>425.0</ele><time>2026-04-25T14:23:26.94Z</time></trkpt><trkpt lat="43.5745433" lon="12.0169817"><ele>426.16666666666663</ele><time>2026-04-25T14:23:27.943Z</time></trkpt><trkpt lat="43.5744667" lon="12.0169783"><ele>427.3333333333333</ele><time>2026-04-25T14:23:28.938Z</time></trkpt><trkpt lat="43.5743967" lon="12.01698"><ele>428.5</ele><time>2026-04-25T14:23:29.945Z</time></trkpt><trkpt lat="43.574325" lon="12.017"><ele>429.66666666666663</ele><time>2026-04-25T14:23:30.947Z</time></trkpt><trkpt lat="43.5742583" lon="12.017035"><ele>430.8333333333333</ele><time>2026-04-25T14:23:31.996Z</time></trkpt><trkpt lat="43.5741883" lon="12.01709"><ele>432.0</ele><time>2026-04-25T14:23:32.939Z</time></trkpt><trkpt lat="43.5741233" lon="12.0171533"><ele>432.0</ele><time>2026-04-25T14:23:33.94Z</time></trkpt><trkpt lat="43.57406" lon="12.01722"><ele>432.0</ele><time>2026-04-25T14:23:34.946Z</time></trkpt><trkpt lat="43.5739933" lon="12.01729"><ele>432.0</ele><time>2026-04-25T14:23:35.95Z</time></trkpt><trkpt lat="43.5739317" lon="12.0173733"><ele>432.0</ele><time>2026-04-25T14:23:36.947Z</time></trkpt><trkpt lat="43.57387" lon="12.0174567"><ele>432.0</ele><time>2026-04-25T14:23:37.986Z</time></trkpt><trkpt lat="43.57381" lon="12.017545"><ele>432.0</ele><time>2026-04-25T14:23:38.938Z</time></trkpt><trkpt lat="43.5737483" lon="12.0176267"><ele>432.20000000000005</ele><time>2026-04-25T14:23:39.945Z</time></trkpt><trkpt lat="43.5736867" lon="12.017715"><ele>432.40000000000003</ele><time>2026-04-25T14:23:40.947Z</time></trkpt><trkpt lat="43.5736233" lon="12.01781"><ele>432.59999999999997</ele><time>2026-04-25T14:23:41.947Z</time></trkpt><trkpt lat="43.5735583" lon="12.0179017"><ele>432.79999999999995</ele><time>2026-04-25T14:23:42.946Z</time></trkpt><trkpt lat="43.5734867" lon="12.0179967"><ele>433.0</ele><time>2026-04-25T14:23:43.99Z</time></trkpt><trkpt lat="43.573415" lon="12.01809"><ele>433.0</ele><time>2026-04-25T14:23:44.934Z</time></trkpt><trkpt lat="43.57333" lon="12.01819"><ele>432.99999999999994</ele><time>2026-04-25T14:23:45.933Z</time></trkpt><trkpt lat="43.5732467" lon="12.018295"><ele>432.99999999999994</ele><time>2026-04-25T14:23:46.946Z</time></trkpt><trkpt lat="43.5731767" lon="12.018415"><ele>433.0</ele><time>2026-04-25T14:23:47.947Z</time></trkpt><trkpt lat="43.57312" lon="12.0185433"><ele>433.0</ele><time>2026-04-25T14:23:48.948Z</time></trkpt><trkpt lat="43.573075" lon="12.01867"><ele>434.33333333333337</ele><time>2026-04-25T14:23:49.988Z</time></trkpt><trkpt lat="43.5730417" lon="12.0187967"><ele>435.6666666666667</ele><time>2026-04-25T14:23:50.942Z</time></trkpt><trkpt lat="43.5730083" lon="12.0189117"><ele>437.0</ele><time>2026-04-25T14:23:51.945Z</time></trkpt><trkpt lat="43.5729667" lon="12.0190133"><ele>438.33333333333337</ele><time>2026-04-25T14:23:52.948Z</time></trkpt><trkpt lat="43.572905" lon="12.01909"><ele>439.6666666666667</ele><time>2026-04-25T14:23:53.944Z</time></trkpt><trkpt lat="43.5728233" lon="12.0191317"><ele>441.0</ele><time>2026-04-25T14:23:54.934Z</time></trkpt><trkpt lat="43.5727317" lon="12.01913"><ele>441.0</ele><time>2026-04-25T14:23:55.969Z</time></trkpt><trkpt lat="43.5726333" lon="12.01911"><ele>441.0</ele><time>2026-04-25T14:23:56.947Z</time></trkpt><trkpt lat="43.5725283" lon="12.0190867"><ele>441.0</ele><time>2026-04-25T14:23:57.945Z</time></trkpt><trkpt lat="43.57242" lon="12.0190633"><ele>441.0</ele><time>2026-04-25T14:23:58.944Z</time></trkpt><trkpt lat="43.5723067" lon="12.0190417"><ele>441.0</ele><time>2026-04-25T14:23:59.945Z</time></trkpt><trkpt lat="43.5721883" lon="12.019025"><ele>441.0</ele><time>2026-04-25T14:24:00.933Z</time></trkpt><trkpt lat="43.5720633" lon="12.0190133"><ele>441.0</ele><time>2026-04-25T14:24:01.948Z</time></trkpt><trkpt lat="43.5719367" lon="12.0190067"><ele>441.0</ele><time>2026-04-25T14:24:02.947Z</time></trkpt><trkpt lat="43.57181" lon="12.0190033"><ele>441.0</ele><time>2026-04-25T14:24:03.942Z</time></trkpt><trkpt lat="43.571685" lon="12.0189917"><ele>441.75</ele><time>2026-04-25T14:24:04.941Z</time></trkpt><trkpt lat="43.57156" lon="12.0189683"><ele>442.5</ele><time>2026-04-25T14:24:05.946Z</time></trkpt><trkpt lat="43.571435" lon="12.018925"><ele>443.25</ele><time>2026-04-25T14:24:06.931Z</time></trkpt><trkpt lat="43.571315" lon="12.0188667"><ele>444.0</ele><time>2026-04-25T14:24:07.994Z</time></trkpt><trkpt lat="43.5711983" lon="12.0187967"><ele>439.5</ele><time>2026-04-25T14:24:08.944Z</time></trkpt><trkpt lat="43.5710867" lon="12.0187217"><ele>435.0</ele><time>2026-04-25T14:24:09.943Z</time></trkpt><trkpt lat="43.5709817" lon="12.0186433"><ele>430.5</ele><time>2026-04-25T14:24:10.939Z</time></trkpt><trkpt lat="43.5708817" lon="12.01857"><ele>426.0</ele><time>2026-04-25T14:24:11.943Z</time></trkpt><trkpt lat="43.57078" lon="12.018505"><ele>426.0</ele><time>2026-04-25T14:24:12.943Z</time></trkpt><trkpt lat="43.5706817" lon="12.0184667"><ele>426.0</ele><time>2026-04-25T14:24:13.99Z</time></trkpt><trkpt lat="43.5705833" lon="12.0184617"><ele>426.0</ele><time>2026-04-25T14:24:14.939Z</time></trkpt><trkpt lat="43.570505" lon="12.0184917"><ele>426.0</ele><time>2026-04-25T14:24:15.948Z</time></trkpt><trkpt lat="43.57044" lon="12.0185633"><ele>426.0</ele><time>2026-04-25T14:24:16.941Z</time></trkpt><trkpt lat="43.570385" lon="12.018665"><ele>424.0</ele><time>2026-04-25T14:24:17.945Z</time></trkpt><trkpt lat="43.5703267" lon="12.0187567"><ele>422.0</ele><time>2026-04-25T14:24:18.945Z</time></trkpt><trkpt lat="43.5702633" lon="12.0188567"><ele>420.0</ele><time>2026-04-25T14:24:19.986Z</time></trkpt><trkpt lat="43.5701983" lon="12.0189567"><ele>418.0</ele><time>2026-04-25T14:24:20.944Z</time></trkpt><trkpt lat="43.5701317" lon="12.0190617"><ele>416.0</ele><time>2026-04-25T14:24:21.947Z</time></trkpt><trkpt lat="43.5700633" lon="12.0191667"><ele>414.0</ele><time>2026-04-25T14:24:22.947Z</time></trkpt><trkpt lat="43.5699933" lon="12.0192733"><ele>412.0</ele><time>2026-04-25T14:24:23.95Z</time></trkpt><trkpt lat="43.569925" lon="12.0193783"><ele>410.0</ele><time>2026-04-25T14:24:24.95Z</time></trkpt><trkpt lat="43.569855" lon="12.0194817"><ele>408.0</ele><time>2026-04-25T14:24:26.001Z</time></trkpt><trkpt lat="43.5697867" lon="12.0195817"><ele>406.0</ele><time>2026-04-25T14:24:26.944Z</time></trkpt><trkpt lat="43.5697167" lon="12.019685"><ele>406.0</ele><time>2026-04-25T14:24:27.946Z</time></trkpt><trkpt lat="43.5696417" lon="12.0197933"><ele>406.0</ele><time>2026-04-25T14:24:28.949Z</time></trkpt><trkpt lat="43.5695683" lon="12.0199"><ele>406.0</ele><time>2026-04-25T14:24:29.951Z</time></trkpt><trkpt lat="43.56949" lon="12.0200167"><ele>406.0</ele><time>2026-04-25T14:24:30.947Z</time></trkpt><trkpt lat="43.569415" lon="12.020135"><ele>406.0</ele><time>2026-04-25T14:24:32.001Z</time></trkpt><trkpt lat="43.5693383" lon="12.0202533"><ele>408.6</ele><time>2026-04-25T14:24:32.949Z</time></trkpt><trkpt lat="43.5692683" lon="12.0203717"><ele>411.20000000000005</ele><time>2026-04-25T14:24:33.951Z</time></trkpt><trkpt lat="43.5692" lon="12.0204817"><ele>413.79999999999995</ele><time>2026-04-25T14:24:34.947Z</time></trkpt><trkpt lat="43.56913" lon="12.0205833"><ele>416.4</ele><time>2026-04-25T14:24:35.948Z</time></trkpt><trkpt lat="43.5690567" lon="12.0206767"><ele>419.0</ele><time>2026-04-25T14:24:36.946Z</time></trkpt><trkpt lat="43.5689833" lon="12.0207533"><ele>418.99999999999994</ele><time>2026-04-25T14:24:37.997Z</time></trkpt><trkpt lat="43.5689083" lon="12.020815"><ele>419.0</ele><time>2026-04-25T14:24:38.926Z</time></trkpt><trkpt lat="43.56883" lon="12.02086"><ele>419.0</ele><time>2026-04-25T14:24:39.94Z</time></trkpt><trkpt lat="43.5687517" lon="12.0208917"><ele>419.0</ele><time>2026-04-25T14:24:40.942Z</time></trkpt><trkpt lat="43.5686617" lon="12.0209167"><ele>418.99999999999994</ele><time>2026-04-25T14:24:41.949Z</time></trkpt><trkpt lat="43.56857" lon="12.0209333"><ele>419.0</ele><time>2026-04-25T14:24:42.948Z</time></trkpt><trkpt lat="43.5684717" lon="12.02094"><ele>421.79999999999995</ele><time>2026-04-25T14:24:43.99Z</time></trkpt><trkpt lat="43.5683717" lon="12.020935"><ele>424.59999999999997</ele><time>2026-04-25T14:24:44.93Z</time></trkpt><trkpt lat="43.5682667" lon="12.02092"><ele>427.4</ele><time>2026-04-25T14:24:45.944Z</time></trkpt><trkpt lat="43.56816" lon="12.0209"><ele>430.2</ele><time>2026-04-25T14:24:46.949Z</time></trkpt><trkpt lat="43.568055" lon="12.0208717"><ele>433.0</ele><time>2026-04-25T14:24:47.949Z</time></trkpt><trkpt lat="43.5679583" lon="12.0208317"><ele>431.1666666666667</ele><time>2026-04-25T14:24:48.948Z</time></trkpt><trkpt lat="43.5678633" lon="12.0207917"><ele>429.33333333333337</ele><time>2026-04-25T14:24:49.991Z</time></trkpt><trkpt lat="43.5677733" lon="12.0207533"><ele>427.5</ele><time>2026-04-25T14:24:50.944Z</time></trkpt><trkpt lat="43.5676883" lon="12.02072"><ele>425.66666666666663</ele><time>2026-04-25T14:24:51.947Z</time></trkpt><trkpt lat="43.56761" lon="12.0207017"><ele>423.8333333333333</ele><time>2026-04-25T14:24:52.949Z</time></trkpt><trkpt lat="43.56754" lon="12.0207033"><ele>422.0</ele><time>2026-04-25T14:24:53.952Z</time></trkpt><trkpt lat="43.5674783" lon="12.020725"><ele>425.6</ele><time>2026-04-25T14:24:54.949Z</time></trkpt><trkpt lat="43.5673917" lon="12.0208733"><ele>429.20000000000005</ele><time>2026-04-25T14:24:56.941Z</time></trkpt><trkpt lat="43.56736" lon="12.0209933"><ele>432.8</ele><time>2026-04-25T14:24:57.951Z</time></trkpt><trkpt lat="43.5673283" lon="12.0211283"><ele>436.4</ele><time>2026-04-25T14:24:58.95Z</time></trkpt><trkpt lat="43.5673017" lon="12.0212633"><ele>440.0</ele><time>2026-04-25T14:24:59.949Z</time></trkpt><trkpt lat="43.5672817" lon="12.0213933"><ele>440.0</ele><time>2026-04-25T14:25:00.948Z</time></trkpt><trkpt lat="43.5672767" lon="12.0215233"><ele>440.0</ele><time>2026-04-25T14:25:01.997Z</time></trkpt><trkpt lat="43.5672833" lon="12.0216533"><ele>440.0</ele><time>2026-04-25T14:25:02.926Z</time></trkpt><trkpt lat="43.56731" lon="12.0217717"><ele>440.0</ele><time>2026-04-25T14:25:03.95Z</time></trkpt><trkpt lat="43.567345" lon="12.0218867"><ele>440.0</ele><time>2026-04-25T14:25:04.95Z</time></trkpt><trkpt lat="43.56739" lon="12.0219983"><ele>441.6</ele><time>2026-04-25T14:25:05.95Z</time></trkpt><trkpt lat="43.5674417" lon="12.0221"><ele>443.2</ele><time>2026-04-25T14:25:06.953Z</time></trkpt><trkpt lat="43.5675033" lon="12.022195"><ele>444.79999999999995</ele><time>2026-04-25T14:25:07.991Z</time></trkpt><trkpt lat="43.56757" lon="12.0222817"><ele>446.4</ele><time>2026-04-25T14:25:08.948Z</time></trkpt><trkpt lat="43.5676433" lon="12.0223583"><ele>448.0</ele><time>2026-04-25T14:25:09.946Z</time></trkpt><trkpt lat="43.5677133" lon="12.0224367"><ele>448.79999999999995</ele><time>2026-04-25T14:25:10.951Z</time></trkpt><trkpt lat="43.5677933" lon="12.0225117"><ele>449.59999999999997</ele><time>2026-04-25T14:25:11.95Z</time></trkpt><trkpt lat="43.5678783" lon="12.0225883"><ele>450.40000000000003</ele><time>2026-04-25T14:25:12.948Z</time></trkpt><trkpt lat="43.5679567" lon="12.0226683"><ele>451.20000000000005</ele><time>2026-04-25T14:25:13.997Z</time></trkpt><trkpt lat="43.5680317" lon="12.0227417"><ele>452.0</ele><time>2026-04-25T14:25:14.952Z</time></trkpt><trkpt lat="43.5681017" lon="12.022805"><ele>454.16666666666663</ele><time>2026-04-25T14:25:15.948Z</time></trkpt><trkpt lat="43.5681667" lon="12.0228767"><ele>456.3333333333333</ele><time>2026-04-25T14:25:16.949Z</time></trkpt><trkpt lat="43.5682283" lon="12.0229517"><ele>458.5</ele><time>2026-04-25T14:25:17.949Z</time></trkpt><trkpt lat="43.568285" lon="12.0230367"><ele>460.66666666666663</ele><time>2026-04-25T14:25:18.949Z</time></trkpt><trkpt lat="43.5683383" lon="12.02313"><ele>462.8333333333333</ele><time>2026-04-25T14:25:20.001Z</time></trkpt><trkpt lat="43.5683817" lon="12.0232417"><ele>465.0</ele><time>2026-04-25T14:25:20.946Z</time></trkpt><trkpt lat="43.5684117" lon="12.0233617"><ele>465.71428571428567</ele><time>2026-04-25T14:25:21.948Z</time></trkpt><trkpt lat="43.56842" lon="12.0234783"><ele>466.42857142857144</ele><time>2026-04-25T14:25:22.953Z</time></trkpt><trkpt lat="43.56841" lon="12.0235917"><ele>467.1428571428571</ele><time>2026-04-25T14:25:23.95Z</time></trkpt><trkpt lat="43.5683933" lon="12.0236883"><ele>467.85714285714283</ele><time>2026-04-25T14:25:24.951Z</time></trkpt><trkpt lat="43.56836" lon="12.0237633"><ele>468.57142857142856</ele><time>2026-04-25T14:25:25.987Z</time></trkpt><trkpt lat="43.56831" lon="12.0238267"><ele>469.2857142857143</ele><time>2026-04-25T14:25:26.932Z</time></trkpt><trkpt lat="43.5682433" lon="12.0238733"><ele>470.0</ele><time>2026-04-25T14:25:27.932Z</time></trkpt><trkpt lat="43.568175" lon="12.023915"><ele>470.0</ele><time>2026-04-25T14:25:28.941Z</time></trkpt><trkpt lat="43.5680917" lon="12.023955"><ele>470.0</ele><time>2026-04-25T14:25:29.932Z</time></trkpt><trkpt lat="43.5679917" lon="12.0239983"><ele>470.0</ele><time>2026-04-25T14:25:30.933Z</time></trkpt><trkpt lat="43.56789" lon="12.0240317"><ele>470.0</ele><time>2026-04-25T14:25:31.977Z</time></trkpt><trkpt lat="43.5677883" lon="12.024055"><ele>470.0</ele><time>2026-04-25T14:25:32.926Z</time></trkpt><trkpt lat="43.56768" lon="12.0240767"><ele>468.0</ele><time>2026-04-25T14:25:33.923Z</time></trkpt><trkpt lat="43.5675733" lon="12.0240917"><ele>466.0</ele><time>2026-04-25T14:25:34.932Z</time></trkpt><trkpt lat="43.56747" lon="12.024095"><ele>464.0</ele><time>2026-04-25T14:25:35.953Z</time></trkpt><trkpt lat="43.5673767" lon="12.024085"><ele>462.0</ele><time>2026-04-25T14:25:36.949Z</time></trkpt><trkpt lat="43.5672817" lon="12.0240833"><ele>460.0</ele><time>2026-04-25T14:25:37.995Z</time></trkpt><trkpt lat="43.567195" lon="12.0241017"><ele>460.0</ele><time>2026-04-25T14:25:38.949Z</time></trkpt><trkpt lat="43.5671167" lon="12.0241367"><ele>460.0</ele><time>2026-04-25T14:25:39.949Z</time></trkpt><trkpt lat="43.5670467" lon="12.0241867"><ele>460.0</ele><time>2026-04-25T14:25:40.943Z</time></trkpt><trkpt lat="43.5669733" lon="12.02435"><ele>460.0</ele><time>2026-04-25T14:25:42.95Z</time></trkpt><trkpt lat="43.566945" lon="12.024465"><ele>460.0</ele><time>2026-04-25T14:25:43.999Z</time></trkpt><trkpt lat="43.56691" lon="12.0245917"><ele>462.4</ele><time>2026-04-25T14:25:44.947Z</time></trkpt><trkpt lat="43.566865" lon="12.0247117"><ele>464.8</ele><time>2026-04-25T14:25:45.948Z</time></trkpt><trkpt lat="43.5668" lon="12.0248167"><ele>467.20000000000005</ele><time>2026-04-25T14:25:46.947Z</time></trkpt><trkpt lat="43.566725" lon="12.0249117"><ele>469.6</ele><time>2026-04-25T14:25:47.937Z</time></trkpt><trkpt lat="43.5666483" lon="12.0250133"><ele>472.0</ele><time>2026-04-25T14:25:48.948Z</time></trkpt><trkpt lat="43.566575" lon="12.025125"><ele>470.0</ele><time>2026-04-25T14:25:49.995Z</time></trkpt><trkpt lat="43.5665017" lon="12.02524"><ele>468.00000000000006</ele><time>2026-04-25T14:25:50.948Z</time></trkpt><trkpt lat="43.566425" lon="12.0253433"><ele>466.00000000000006</ele><time>2026-04-25T14:25:51.949Z</time></trkpt><trkpt lat="43.5663467" lon="12.02542"><ele>464.0</ele><time>2026-04-25T14:25:52.948Z</time></trkpt><trkpt lat="43.5662633" lon="12.0254717"><ele>462.0</ele><time>2026-04-25T14:25:53.949Z</time></trkpt><trkpt lat="43.56618" lon="12.0254933"><ele>462.0</ele><time>2026-04-25T14:25:54.949Z</time></trkpt><trkpt lat="43.5661033" lon="12.0254983"><ele>462.0</ele><time>2026-04-25T14:25:55.965Z</time></trkpt><trkpt lat="43.5660267" lon="12.0255067"><ele>462.0</ele><time>2026-04-25T14:25:56.947Z</time></trkpt><trkpt lat="43.56596" lon="12.0255233"><ele>462.0</ele><time>2026-04-25T14:25:57.95Z</time></trkpt><trkpt lat="43.5659033" lon="12.0255633"><ele>462.0</ele><time>2026-04-25T14:25:58.951Z</time></trkpt><trkpt lat="43.5658533" lon="12.0256267"><ele>462.0</ele><time>2026-04-25T14:25:59.95Z</time></trkpt><trkpt lat="43.5658167" lon="12.025725"><ele>462.0</ele><time>2026-04-25T14:26:00.949Z</time></trkpt><trkpt lat="43.5657783" lon="12.02582"><ele>464.8333333333333</ele><time>2026-04-25T14:26:01.996Z</time></trkpt><trkpt lat="43.5657367" lon="12.025915"><ele>467.66666666666663</ele><time>2026-04-25T14:26:02.94Z</time></trkpt><trkpt lat="43.5656883" lon="12.0259917"><ele>470.5</ele><time>2026-04-25T14:26:03.948Z</time></trkpt><trkpt lat="43.5656333" lon="12.02606"><ele>473.3333333333333</ele><time>2026-04-25T14:26:04.951Z</time></trkpt><trkpt lat="43.5655683" lon="12.0261167"><ele>476.16666666666663</ele><time>2026-04-25T14:26:05.951Z</time></trkpt><trkpt lat="43.5655" lon="12.0261617"><ele>479.0</ele><time>2026-04-25T14:26:06.942Z</time></trkpt><trkpt lat="43.56543" lon="12.026205"><ele>476.16666666666663</ele><time>2026-04-25T14:26:07.997Z</time></trkpt><trkpt lat="43.56536" lon="12.0262467"><ele>473.3333333333333</ele><time>2026-04-25T14:26:08.948Z</time></trkpt><trkpt lat="43.565285" lon="12.0262833"><ele>470.5</ele><time>2026-04-25T14:26:09.949Z</time></trkpt><trkpt lat="43.56521" lon="12.0263233"><ele>467.66666666666663</ele><time>2026-04-25T14:26:10.949Z</time></trkpt><trkpt lat="43.56513" lon="12.0263617"><ele>464.8333333333333</ele><time>2026-04-25T14:26:11.938Z</time></trkpt><trkpt lat="43.5650483" lon="12.0263883"><ele>462.0</ele><time>2026-04-25T14:26:12.949Z</time></trkpt><trkpt lat="43.564955" lon="12.0264217"><ele>462.0</ele><time>2026-04-25T14:26:13.994Z</time></trkpt><trkpt lat="43.564865" lon="12.0264383"><ele>462.00000000000006</ele><time>2026-04-25T14:26:14.945Z</time></trkpt><trkpt lat="43.5647683" lon="12.0264667"><ele>462.00000000000006</ele><time>2026-04-25T14:26:15.95Z</time></trkpt><trkpt lat="43.5646733" lon="12.0264867"><ele>462.0</ele><time>2026-04-25T14:26:16.95Z</time></trkpt><trkpt lat="43.5645767" lon="12.02652"><ele>462.0</ele><time>2026-04-25T14:26:17.951Z</time></trkpt><trkpt lat="43.56448" lon="12.026555"><ele>463.40000000000003</ele><time>2026-04-25T14:26:18.948Z</time></trkpt><trkpt lat="43.5643867" lon="12.02659"><ele>464.80000000000007</ele><time>2026-04-25T14:26:19.994Z</time></trkpt><trkpt lat="43.5642917" lon="12.026625"><ele>466.2</ele><time>2026-04-25T14:26:20.951Z</time></trkpt><trkpt lat="43.564195" lon="12.026665"><ele>467.6</ele><time>2026-04-25T14:26:21.949Z</time></trkpt><trkpt lat="43.5641017" lon="12.0267083"><ele>469.0</ele><time>2026-04-25T14:26:22.946Z</time></trkpt><trkpt lat="43.5640083" lon="12.0267583"><ele>472.0</ele><time>2026-04-25T14:26:23.952Z</time></trkpt><trkpt lat="43.5639217" lon="12.0268083"><ele>475.0</ele><time>2026-04-25T14:26:24.953Z</time></trkpt><trkpt lat="43.56384" lon="12.02687"><ele>478.0</ele><time>2026-04-25T14:26:26.009Z</time></trkpt><trkpt lat="43.5637617" lon="12.02694"><ele>481.0</ele><time>2026-04-25T14:26:26.951Z</time></trkpt><trkpt lat="43.563685" lon="12.02701"><ele>484.0</ele><time>2026-04-25T14:26:27.947Z</time></trkpt><trkpt lat="43.5636067" lon="12.02708"><ele>485.0</ele><time>2026-04-25T14:26:28.953Z</time></trkpt><trkpt lat="43.5635283" lon="12.0271533"><ele>486.0</ele><time>2026-04-25T14:26:29.95Z</time></trkpt><trkpt lat="43.5634533" lon="12.027225"><ele>487.0</ele><time>2026-04-25T14:26:30.949Z</time></trkpt><trkpt lat="43.563375" lon="12.0272983"><ele>488.0</ele><time>2026-04-25T14:26:32.001Z</time></trkpt><trkpt lat="43.5632917" lon="12.0273667"><ele>489.0</ele><time>2026-04-25T14:26:32.923Z</time></trkpt><trkpt lat="43.5632067" lon="12.02742"><ele>489.0</ele><time>2026-04-25T14:26:33.947Z</time></trkpt><trkpt lat="43.5631167" lon="12.0274617"><ele>489.0</ele><time>2026-04-25T14:26:34.948Z</time></trkpt><trkpt lat="43.5630133" lon="12.0275017"><ele>489.0</ele><time>2026-04-25T14:26:35.947Z</time></trkpt><trkpt lat="43.5629133" lon="12.0275417"><ele>489.0</ele><time>2026-04-25T14:26:36.946Z</time></trkpt><trkpt lat="43.5628117" lon="12.02758"><ele>489.0</ele><time>2026-04-25T14:26:37.99Z</time></trkpt><trkpt lat="43.5627133" lon="12.0276183"><ele>488.4</ele><time>2026-04-25T14:26:38.945Z</time></trkpt><trkpt lat="43.5626267" lon="12.02765"><ele>487.79999999999995</ele><time>2026-04-25T14:26:39.949Z</time></trkpt><trkpt lat="43.5625433" lon="12.027695"><ele>487.20000000000005</ele><time>2026-04-25T14:26:40.946Z</time></trkpt><trkpt lat="43.5624583" lon="12.0277483"><ele>486.6</ele><time>2026-04-25T14:26:41.949Z</time></trkpt><trkpt lat="43.5623767" lon="12.0278083"><ele>486.0</ele><time>2026-04-25T14:26:42.948Z</time></trkpt><trkpt lat="43.562295" lon="12.0278817"><ele>486.0</ele><time>2026-04-25T14:26:43.994Z</time></trkpt><trkpt lat="43.56221" lon="12.0279617"><ele>486.0</ele><time>2026-04-25T14:26:44.951Z</time></trkpt><trkpt lat="43.562125" lon="12.0280483"><ele>486.0</ele><time>2026-04-25T14:26:45.953Z</time></trkpt><trkpt lat="43.5620433" lon="12.0281517"><ele>486.0</ele><time>2026-04-25T14:26:46.949Z</time></trkpt><trkpt lat="43.5619617" lon="12.0282717"><ele>486.0</ele><time>2026-04-25T14:26:47.948Z</time></trkpt><trkpt lat="43.5618783" lon="12.0284017"><ele>483.0</ele><time>2026-04-25T14:26:48.947Z</time></trkpt><trkpt lat="43.5617967" lon="12.02853"><ele>480.0</ele><time>2026-04-25T14:26:49.987Z</time></trkpt><trkpt lat="43.5617083" lon="12.0286467"><ele>477.0</ele><time>2026-04-25T14:26:50.947Z</time></trkpt><trkpt lat="43.56161" lon="12.0287483"><ele>474.0</ele><time>2026-04-25T14:26:51.951Z</time></trkpt><trkpt lat="43.5615017" lon="12.0288333"><ele>474.0</ele><time>2026-04-25T14:26:52.951Z</time></trkpt><trkpt lat="43.5613833" lon="12.0289117"><ele>474.0</ele><time>2026-04-25T14:26:53.949Z</time></trkpt><trkpt lat="43.5612633" lon="12.0289917"><ele>474.0</ele><time>2026-04-25T14:26:54.945Z</time></trkpt><trkpt lat="43.561145" lon="12.02907"><ele>474.0</ele><time>2026-04-25T14:26:56.012Z</time></trkpt><trkpt lat="43.5610267" lon="12.029145"><ele>474.5</ele><time>2026-04-25T14:26:56.945Z</time></trkpt><trkpt lat="43.5609167" lon="12.0292183"><ele>475.0</ele><time>2026-04-25T14:26:57.951Z</time></trkpt><trkpt lat="43.5608117" lon="12.029285"><ele>475.5</ele><time>2026-04-25T14:26:58.954Z</time></trkpt><trkpt lat="43.560705" lon="12.0293533"><ele>476.0</ele><time>2026-04-25T14:26:59.952Z</time></trkpt><trkpt lat="43.5606083" lon="12.0294367"><ele>476.0</ele><time>2026-04-25T14:27:00.948Z</time></trkpt><trkpt lat="43.5605233" lon="12.0295383"><ele>476.0</ele><time>2026-04-25T14:27:01.971Z</time></trkpt><trkpt lat="43.5604517" lon="12.0296567"><ele>476.0</ele><time>2026-04-25T14:27:02.945Z</time></trkpt><trkpt lat="43.5603883" lon="12.02978"><ele>476.0</ele><time>2026-04-25T14:27:03.92Z</time></trkpt><trkpt lat="43.5603283" lon="12.0299083"><ele>476.0</ele><time>2026-04-25T14:27:04.928Z</time></trkpt><trkpt lat="43.5602633" lon="12.030035"><ele>477.75</ele><time>2026-04-25T14:27:05.926Z</time></trkpt><trkpt lat="43.5601967" lon="12.030165"><ele>479.5</ele><time>2026-04-25T14:27:06.945Z</time></trkpt><trkpt lat="43.5601283" lon="12.0302967"><ele>481.25</ele><time>2026-04-25T14:27:07.984Z</time></trkpt><trkpt lat="43.5600633" lon="12.0304267"><ele>483.0</ele><time>2026-04-25T14:27:08.928Z</time></trkpt><trkpt lat="43.559995" lon="12.0305617"><ele>483.0</ele><time>2026-04-25T14:27:09.953Z</time></trkpt><trkpt lat="43.5599267" lon="12.0306967"><ele>483.0</ele><time>2026-04-25T14:27:10.939Z</time></trkpt><trkpt lat="43.5598583" lon="12.030835"><ele>483.0</ele><time>2026-04-25T14:27:11.951Z</time></trkpt><trkpt lat="43.55979" lon="12.030975"><ele>483.0</ele><time>2026-04-25T14:27:12.952Z</time></trkpt><trkpt lat="43.5597217" lon="12.03112"><ele>482.75</ele><time>2026-04-25T14:27:13.997Z</time></trkpt><trkpt lat="43.5596533" lon="12.0312717"><ele>482.5</ele><time>2026-04-25T14:27:14.95Z</time></trkpt><trkpt lat="43.559585" lon="12.0314267"><ele>482.25</ele><time>2026-04-25T14:27:15.945Z</time></trkpt><trkpt lat="43.559515" lon="12.03158"><ele>482.0</ele><time>2026-04-25T14:27:16.952Z</time></trkpt><trkpt lat="43.5594417" lon="12.0317383"><ele>482.5</ele><time>2026-04-25T14:27:17.939Z</time></trkpt><trkpt lat="43.55937" lon="12.031895"><ele>483.0</ele><time>2026-04-25T14:27:18.949Z</time></trkpt><trkpt lat="43.5593" lon="12.032055"><ele>483.5</ele><time>2026-04-25T14:27:19.969Z</time></trkpt><trkpt lat="43.5592283" lon="12.0322117"><ele>484.0</ele><time>2026-04-25T14:27:20.947Z</time></trkpt><trkpt lat="43.559155" lon="12.0323667"><ele>483.25</ele><time>2026-04-25T14:27:21.946Z</time></trkpt><trkpt lat="43.5590783" lon="12.0325217"><ele>482.5</ele><time>2026-04-25T14:27:22.956Z</time></trkpt><trkpt lat="43.559" lon="12.032675"><ele>481.75</ele><time>2026-04-25T14:27:23.949Z</time></trkpt><trkpt lat="43.5589183" lon="12.0328233"><ele>481.0</ele><time>2026-04-25T14:27:24.952Z</time></trkpt><trkpt lat="43.5588383" lon="12.0329717"><ele>481.0</ele><time>2026-04-25T14:27:26.011Z</time></trkpt><trkpt lat="43.5587617" lon="12.0331217"><ele>481.0</ele><time>2026-04-25T14:27:26.951Z</time></trkpt><trkpt lat="43.5586833" lon="12.0332683"><ele>481.0</ele><time>2026-04-25T14:27:27.949Z</time></trkpt><trkpt lat="43.5586067" lon="12.033415"><ele>481.0</ele><time>2026-04-25T14:27:28.949Z</time></trkpt><trkpt lat="43.5585283" lon="12.033565"><ele>481.0</ele><time>2026-04-25T14:27:29.932Z</time></trkpt><trkpt lat="43.5584483" lon="12.033715"><ele>481.0</ele><time>2026-04-25T14:27:30.95Z</time></trkpt><trkpt lat="43.55837" lon="12.0338667"><ele>481.0</ele><time>2026-04-25T14:27:31.98Z</time></trkpt><trkpt lat="43.5582917" lon="12.0340167"><ele>481.0</ele><time>2026-04-25T14:27:32.955Z</time></trkpt><trkpt lat="43.5582133" lon="12.0341633"><ele>481.5</ele><time>2026-04-25T14:27:33.947Z</time></trkpt><trkpt lat="43.5581333" lon="12.03431"><ele>482.0</ele><time>2026-04-25T14:27:34.955Z</time></trkpt><trkpt lat="43.5580517" lon="12.034455"><ele>482.5</ele><time>2026-04-25T14:27:35.95Z</time></trkpt><trkpt lat="43.5579667" lon="12.0345967"><ele>483.0</ele><time>2026-04-25T14:27:36.954Z</time></trkpt><trkpt lat="43.5578817" lon="12.0347367"><ele>483.25</ele><time>2026-04-25T14:27:37.979Z</time></trkpt><trkpt lat="43.557795" lon="12.0348767"><ele>483.5</ele><time>2026-04-25T14:27:38.947Z</time></trkpt><trkpt lat="43.5577067" lon="12.0350167"><ele>483.75</ele><time>2026-04-25T14:27:39.946Z</time></trkpt><trkpt lat="43.5576183" lon="12.0351517"><ele>484.0</ele><time>2026-04-25T14:27:40.954Z</time></trkpt><trkpt lat="43.557535" lon="12.0352867"><ele>484.0</ele><time>2026-04-25T14:27:41.953Z</time></trkpt><trkpt lat="43.5574517" lon="12.0354167"><ele>484.0</ele><time>2026-04-25T14:27:42.952Z</time></trkpt><trkpt lat="43.5573717" lon="12.035545"><ele>484.0</ele><time>2026-04-25T14:27:43.994Z</time></trkpt><trkpt lat="43.5572867" lon="12.03567"><ele>484.0</ele><time>2026-04-25T14:27:44.949Z</time></trkpt><trkpt lat="43.557195" lon="12.0357917"><ele>484.0</ele><time>2026-04-25T14:27:45.951Z</time></trkpt><trkpt lat="43.5571067" lon="12.0359117"><ele>484.0</ele><time>2026-04-25T14:27:46.95Z</time></trkpt><trkpt lat="43.5570167" lon="12.036035"><ele>484.0</ele><time>2026-04-25T14:27:47.93Z</time></trkpt><trkpt lat="43.5569283" lon="12.0361633"><ele>484.0</ele><time>2026-04-25T14:27:48.942Z</time></trkpt><trkpt lat="43.5568417" lon="12.0362983"><ele>484.75</ele><time>2026-04-25T14:27:49.975Z</time></trkpt><trkpt lat="43.55676" lon="12.036435"><ele>485.5</ele><time>2026-04-25T14:27:50.948Z</time></trkpt><trkpt lat="43.55668" lon="12.03657"><ele>486.25</ele><time>2026-04-25T14:27:51.935Z</time></trkpt><trkpt lat="43.5566017" lon="12.0367033"><ele>487.0</ele><time>2026-04-25T14:27:52.956Z</time></trkpt><trkpt lat="43.556525" lon="12.036835"><ele>487.0</ele><time>2026-04-25T14:27:53.954Z</time></trkpt><trkpt lat="43.5564467" lon="12.036965"><ele>487.0</ele><time>2026-04-25T14:27:54.937Z</time></trkpt><trkpt lat="43.5563633" lon="12.0370967"><ele>487.0</ele><time>2026-04-25T14:27:56.01Z</time></trkpt><trkpt lat="43.5562717" lon="12.0372233"><ele>487.0</ele><time>2026-04-25T14:27:56.95Z</time></trkpt><trkpt lat="43.5561667" lon="12.0373417"><ele>486.75</ele><time>2026-04-25T14:27:57.948Z</time></trkpt><trkpt lat="43.5560533" lon="12.037455"><ele>486.5</ele><time>2026-04-25T14:27:58.95Z</time></trkpt><trkpt lat="43.5559317" lon="12.0375567"><ele>486.25</ele><time>2026-04-25T14:27:59.948Z</time></trkpt><trkpt lat="43.5558083" lon="12.0376567"><ele>486.0</ele><time>2026-04-25T14:28:00.95Z</time></trkpt><trkpt lat="43.5556883" lon="12.0377533"><ele>485.5</ele><time>2026-04-25T14:28:01.982Z</time></trkpt><trkpt lat="43.5555683" lon="12.0378467"><ele>485.0</ele><time>2026-04-25T14:28:02.94Z</time></trkpt><trkpt lat="43.5554483" lon="12.0379417"><ele>484.5</ele><time>2026-04-25T14:28:03.951Z</time></trkpt><trkpt lat="43.5553283" lon="12.0380283"><ele>484.0</ele><time>2026-04-25T14:28:04.949Z</time></trkpt><trkpt lat="43.5552067" lon="12.0381117"><ele>483.25</ele><time>2026-04-25T14:28:05.951Z</time></trkpt><trkpt lat="43.5550833" lon="12.038195"><ele>482.5</ele><time>2026-04-25T14:28:06.95Z</time></trkpt><trkpt lat="43.5549567" lon="12.038275"><ele>481.75</ele><time>2026-04-25T14:28:07.993Z</time></trkpt><trkpt lat="43.55483" lon="12.03835"><ele>481.0</ele><time>2026-04-25T14:28:08.931Z</time></trkpt><trkpt lat="43.5547033" lon="12.038425"><ele>481.0</ele><time>2026-04-25T14:28:09.948Z</time></trkpt><trkpt lat="43.5545767" lon="12.0385"><ele>481.0</ele><time>2026-04-25T14:28:10.95Z</time></trkpt><trkpt lat="43.55445" lon="12.0385733"><ele>481.0</ele><time>2026-04-25T14:28:11.95Z</time></trkpt><trkpt lat="43.55433" lon="12.038635"><ele>481.0</ele><time>2026-04-25T14:28:12.949Z</time></trkpt><trkpt lat="43.554215" lon="12.038695"><ele>480.4</ele><time>2026-04-25T14:28:13.998Z</time></trkpt><trkpt lat="43.5541083" lon="12.03875"><ele>479.8</ele><time>2026-04-25T14:28:14.949Z</time></trkpt><trkpt lat="43.5540083" lon="12.038805"><ele>479.19999999999993</ele><time>2026-04-25T14:28:15.95Z</time></trkpt><trkpt lat="43.5539033" lon="12.038855"><ele>478.59999999999997</ele><time>2026-04-25T14:28:16.951Z</time></trkpt><trkpt lat="43.553795" lon="12.0389017"><ele>478.0</ele><time>2026-04-25T14:28:17.952Z</time></trkpt><trkpt lat="43.5536867" lon="12.0389333"><ele>476.79999999999995</ele><time>2026-04-25T14:28:18.95Z</time></trkpt><trkpt lat="43.5535817" lon="12.038955"><ele>475.59999999999997</ele><time>2026-04-25T14:28:19.996Z</time></trkpt><trkpt lat="43.5534833" lon="12.0389633"><ele>474.40000000000003</ele><time>2026-04-25T14:28:20.942Z</time></trkpt><trkpt lat="43.553385" lon="12.0389617"><ele>473.20000000000005</ele><time>2026-04-25T14:28:21.947Z</time></trkpt><trkpt lat="43.5532833" lon="12.0389467"><ele>472.0</ele><time>2026-04-25T14:28:22.95Z</time></trkpt><trkpt lat="43.55318" lon="12.0389083"><ele>472.0</ele><time>2026-04-25T14:28:23.951Z</time></trkpt><trkpt lat="43.553075" lon="12.0388517"><ele>472.0</ele><time>2026-04-25T14:28:24.954Z</time></trkpt><trkpt lat="43.5529717" lon="12.0387733"><ele>472.0</ele><time>2026-04-25T14:28:25.971Z</time></trkpt><trkpt lat="43.5528733" lon="12.03868"><ele>472.0</ele><time>2026-04-25T14:28:26.955Z</time></trkpt><trkpt lat="43.5527717" lon="12.0385783"><ele>470.5</ele><time>2026-04-25T14:28:27.951Z</time></trkpt><trkpt lat="43.5526633" lon="12.0384833"><ele>469.0</ele><time>2026-04-25T14:28:28.95Z</time></trkpt><trkpt lat="43.5525517" lon="12.0384117"><ele>467.5</ele><time>2026-04-25T14:28:29.941Z</time></trkpt><trkpt lat="43.5524467" lon="12.0383617"><ele>466.0</ele><time>2026-04-25T14:28:30.952Z</time></trkpt><trkpt lat="43.5523483" lon="12.0383333"><ele>466.0</ele><time>2026-04-25T14:28:31.981Z</time></trkpt><trkpt lat="43.5522517" lon="12.038315"><ele>466.0</ele><time>2026-04-25T14:28:32.951Z</time></trkpt><trkpt lat="43.552155" lon="12.0383"><ele>466.0</ele><time>2026-04-25T14:28:33.949Z</time></trkpt><trkpt lat="43.5520533" lon="12.0382917"><ele>466.0</ele><time>2026-04-25T14:28:34.949Z</time></trkpt><trkpt lat="43.5519483" lon="12.0382983"><ele>466.0</ele><time>2026-04-25T14:28:35.95Z</time></trkpt><trkpt lat="43.5518383" lon="12.0383233"><ele>466.75</ele><time>2026-04-25T14:28:36.953Z</time></trkpt><trkpt lat="43.5517283" lon="12.03836"><ele>467.5</ele><time>2026-04-25T14:28:37.995Z</time></trkpt><trkpt lat="43.5516133" lon="12.0384"><ele>468.25</ele><time>2026-04-25T14:28:38.951Z</time></trkpt><trkpt lat="43.5514983" lon="12.0384517"><ele>469.0</ele><time>2026-04-25T14:28:39.947Z</time></trkpt><trkpt lat="43.5513917" lon="12.038515"><ele>469.0</ele><time>2026-04-25T14:28:40.953Z</time></trkpt><trkpt lat="43.5512917" lon="12.0385817"><ele>469.0</ele><time>2026-04-25T14:28:41.954Z</time></trkpt><trkpt lat="43.5511933" lon="12.0386517"><ele>469.0</ele><time>2026-04-25T14:28:42.943Z</time></trkpt><trkpt lat="43.5510967" lon="12.0387233"><ele>469.0</ele><time>2026-04-25T14:28:43.999Z</time></trkpt><trkpt lat="43.5510033" lon="12.038795"><ele>469.0</ele><time>2026-04-25T14:28:44.95Z</time></trkpt><trkpt lat="43.5509133" lon="12.0388667"><ele>469.6</ele><time>2026-04-25T14:28:45.939Z</time></trkpt><trkpt lat="43.5508233" lon="12.0389333"><ele>470.2</ele><time>2026-04-25T14:28:46.955Z</time></trkpt><trkpt lat="43.5507333" lon="12.0390017"><ele>470.80000000000007</ele><time>2026-04-25T14:28:47.95Z</time></trkpt><trkpt lat="43.5506483" lon="12.039065"><ele>471.40000000000003</ele><time>2026-04-25T14:28:48.937Z</time></trkpt><trkpt lat="43.550555" lon="12.03913"><ele>472.0</ele><time>2026-04-25T14:28:49.994Z</time></trkpt><trkpt lat="43.5504583" lon="12.0391917"><ele>474.25</ele><time>2026-04-25T14:28:50.953Z</time></trkpt><trkpt lat="43.5503567" lon="12.0392667"><ele>476.5</ele><time>2026-04-25T14:28:51.93Z</time></trkpt><trkpt lat="43.5502517" lon="12.039325"><ele>478.75</ele><time>2026-04-25T14:28:52.95Z</time></trkpt><trkpt lat="43.5501417" lon="12.0393817"><ele>481.0</ele><time>2026-04-25T14:28:53.949Z</time></trkpt><trkpt lat="43.55003" lon="12.03944"><ele>481.0</ele><time>2026-04-25T14:28:54.951Z</time></trkpt><trkpt lat="43.5499217" lon="12.0395083"><ele>481.0</ele><time>2026-04-25T14:28:56.013Z</time></trkpt><trkpt lat="43.5498183" lon="12.0395867"><ele>481.0</ele><time>2026-04-25T14:28:56.948Z</time></trkpt><trkpt lat="43.54972" lon="12.039685"><ele>481.0</ele><time>2026-04-25T14:28:57.946Z</time></trkpt><trkpt lat="43.54963" lon="12.03979"><ele>481.0</ele><time>2026-04-25T14:28:58.951Z</time></trkpt><trkpt lat="43.5495517" lon="12.039905"><ele>481.0</ele><time>2026-04-25T14:28:59.951Z</time></trkpt><trkpt lat="43.5494733" lon="12.0400317"><ele>481.0</ele><time>2026-04-25T14:29:00.938Z</time></trkpt><trkpt lat="43.549395" lon="12.0401567"><ele>481.0</ele><time>2026-04-25T14:29:02Z</time></trkpt><trkpt lat="43.549315" lon="12.040285"><ele>479.25</ele><time>2026-04-25T14:29:02.945Z</time></trkpt><trkpt lat="43.5492367" lon="12.0404083"><ele>477.5</ele><time>2026-04-25T14:29:03.95Z</time></trkpt><trkpt lat="43.5491567" lon="12.04054"><ele>475.75</ele><time>2026-04-25T14:29:04.953Z</time></trkpt><trkpt lat="43.5490783" lon="12.040675"><ele>474.0</ele><time>2026-04-25T14:29:05.95Z</time></trkpt><trkpt lat="43.5490017" lon="12.04081"><ele>474.0</ele><time>2026-04-25T14:29:06.952Z</time></trkpt><trkpt lat="43.5489267" lon="12.040945"><ele>474.0</ele><time>2026-04-25T14:29:07.998Z</time></trkpt><trkpt lat="43.5488517" lon="12.0410833"><ele>474.0</ele><time>2026-04-25T14:29:08.93Z</time></trkpt><trkpt lat="43.5487733" lon="12.04122"><ele>474.0</ele><time>2026-04-25T14:29:09.942Z</time></trkpt><trkpt lat="43.548695" lon="12.0413517"><ele>474.0</ele><time>2026-04-25T14:29:10.951Z</time></trkpt><trkpt lat="43.5486133" lon="12.0414817"><ele>474.0</ele><time>2026-04-25T14:29:11.929Z</time></trkpt><trkpt lat="43.5485317" lon="12.04161"><ele>474.0</ele><time>2026-04-25T14:29:12.952Z</time></trkpt><trkpt lat="43.54845" lon="12.041735"><ele>474.0</ele><time>2026-04-25T14:29:13.991Z</time></trkpt><trkpt lat="43.54837" lon="12.041865"><ele>474.25</ele><time>2026-04-25T14:29:14.942Z</time></trkpt><trkpt lat="43.5482883" lon="12.0419933"><ele>474.5</ele><time>2026-04-25T14:29:15.938Z</time></trkpt><trkpt lat="43.5482117" lon="12.042125"><ele>474.75</ele><time>2026-04-25T14:29:16.95Z</time></trkpt><trkpt lat="43.54813" lon="12.0422533"><ele>475.0</ele><time>2026-04-25T14:29:17.949Z</time></trkpt><trkpt lat="43.5480483" lon="12.0423767"><ele>473.75</ele><time>2026-04-25T14:29:18.952Z</time></trkpt><trkpt lat="43.547965" lon="12.0424967"><ele>472.5</ele><time>2026-04-25T14:29:19.995Z</time></trkpt><trkpt lat="43.547885" lon="12.0426117"><ele>471.25</ele><time>2026-04-25T14:29:20.95Z</time></trkpt><trkpt lat="43.5478017" lon="12.0427267"><ele>470.0</ele><time>2026-04-25T14:29:21.952Z</time></trkpt><trkpt lat="43.547715" lon="12.0428417"><ele>470.0</ele><time>2026-04-25T14:29:22.95Z</time></trkpt><trkpt lat="43.5476267" lon="12.0429567"><ele>470.0</ele><time>2026-04-25T14:29:23.951Z</time></trkpt><trkpt lat="43.5475417" lon="12.0430683"><ele>470.0</ele><time>2026-04-25T14:29:24.952Z</time></trkpt><trkpt lat="43.547465" lon="12.04318"><ele>470.0</ele><time>2026-04-25T14:29:26.01Z</time></trkpt><trkpt lat="43.5473917" lon="12.04331"><ele>471.0</ele><time>2026-04-25T14:29:26.945Z</time></trkpt><trkpt lat="43.547325" lon="12.04345"><ele>472.0</ele><time>2026-04-25T14:29:27.96Z</time></trkpt><trkpt lat="43.5472583" lon="12.0436067"><ele>473.0</ele><time>2026-04-25T14:29:28.947Z</time></trkpt><trkpt lat="43.5471933" lon="12.04376"><ele>474.0</ele><time>2026-04-25T14:29:29.951Z</time></trkpt><trkpt lat="43.5471267" lon="12.0439167"><ele>474.0</ele><time>2026-04-25T14:29:30.949Z</time></trkpt><trkpt lat="43.5470633" lon="12.0440733"><ele>474.0</ele><time>2026-04-25T14:29:32.001Z</time></trkpt><trkpt lat="43.5470017" lon="12.044225"><ele>474.0</ele><time>2026-04-25T14:29:32.946Z</time></trkpt><trkpt lat="43.5469417" lon="12.0443683"><ele>474.0</ele><time>2026-04-25T14:29:33.95Z</time></trkpt><trkpt lat="43.5468917" lon="12.0445083"><ele>473.6</ele><time>2026-04-25T14:29:34.948Z</time></trkpt><trkpt lat="43.5468517" lon="12.0446517"><ele>473.2</ele><time>2026-04-25T14:29:35.951Z</time></trkpt><trkpt lat="43.5468267" lon="12.044795"><ele>472.80000000000007</ele><time>2026-04-25T14:29:36.948Z</time></trkpt><trkpt lat="43.5468067" lon="12.0449467"><ele>472.40000000000003</ele><time>2026-04-25T14:29:37.999Z</time></trkpt><trkpt lat="43.546785" lon="12.0451"><ele>472.0</ele><time>2026-04-25T14:29:38.947Z</time></trkpt><trkpt lat="43.54675" lon="12.0452533"><ele>473.5</ele><time>2026-04-25T14:29:39.951Z</time></trkpt><trkpt lat="43.5467067" lon="12.0453967"><ele>475.0</ele><time>2026-04-25T14:29:40.956Z</time></trkpt><trkpt lat="43.5466467" lon="12.0455433"><ele>476.5</ele><time>2026-04-25T14:29:41.95Z</time></trkpt><trkpt lat="43.54658" lon="12.0456767"><ele>478.0</ele><time>2026-04-25T14:29:42.952Z</time></trkpt><trkpt lat="43.546505" lon="12.0458033"><ele>479.5</ele><time>2026-04-25T14:29:43.999Z</time></trkpt><trkpt lat="43.5464233" lon="12.0459217"><ele>481.0</ele><time>2026-04-25T14:29:44.943Z</time></trkpt><trkpt lat="43.54634" lon="12.046035"><ele>482.5</ele><time>2026-04-25T14:29:45.949Z</time></trkpt><trkpt lat="43.5462567" lon="12.0461483"><ele>484.0</ele><time>2026-04-25T14:29:46.95Z</time></trkpt><trkpt lat="43.5461767" lon="12.046255"><ele>482.6</ele><time>2026-04-25T14:29:47.951Z</time></trkpt><trkpt lat="43.5460967" lon="12.04636"><ele>481.2</ele><time>2026-04-25T14:29:48.952Z</time></trkpt><trkpt lat="43.5460167" lon="12.046465"><ele>479.80000000000007</ele><time>2026-04-25T14:29:50.001Z</time></trkpt><trkpt lat="43.5459367" lon="12.0465667"><ele>478.40000000000003</ele><time>2026-04-25T14:29:50.952Z</time></trkpt><trkpt lat="43.5458567" lon="12.046665"><ele>477.0</ele><time>2026-04-25T14:29:51.941Z</time></trkpt><trkpt lat="43.5457833" lon="12.0467567"><ele>477.0</ele><time>2026-04-25T14:29:52.956Z</time></trkpt><trkpt lat="43.5457267" lon="12.0468333"><ele>477.00000000000006</ele><time>2026-04-25T14:29:53.951Z</time></trkpt><trkpt lat="43.5456567" lon="12.04692"><ele>477.00000000000006</ele><time>2026-04-25T14:29:56.01Z</time></trkpt><trkpt lat="43.5455917" lon="12.046995"><ele>477.0</ele><time>2026-04-25T14:29:57.93Z</time></trkpt><trkpt lat="43.54553" lon="12.0470867"><ele>477.0</ele><time>2026-04-25T14:29:59.95Z</time></trkpt><trkpt lat="43.5454567" lon="12.0472117"><ele>477.0</ele><time>2026-04-25T14:30:02.002Z</time></trkpt><trkpt lat="43.545415" lon="12.0472867"><ele>477.0</ele><time>2026-04-25T14:30:02.95Z</time></trkpt><trkpt lat="43.54537" lon="12.0473683"><ele>477.0</ele><time>2026-04-25T14:30:03.953Z</time></trkpt><trkpt lat="43.5453167" lon="12.04745"><ele>477.0</ele><time>2026-04-25T14:30:04.948Z</time></trkpt><trkpt lat="43.54526" lon="12.0475333"><ele>477.0</ele><time>2026-04-25T14:30:05.952Z</time></trkpt><trkpt lat="43.5451967" lon="12.0476183"><ele>477.0</ele><time>2026-04-25T14:30:06.951Z</time></trkpt><trkpt lat="43.54513" lon="12.04771"><ele>476.20000000000005</ele><time>2026-04-25T14:30:07.984Z</time></trkpt><trkpt lat="43.5450617" lon="12.047805"><ele>475.40000000000003</ele><time>2026-04-25T14:30:08.945Z</time></trkpt><trkpt lat="43.5449883" lon="12.047905"><ele>474.59999999999997</ele><time>2026-04-25T14:30:09.95Z</time></trkpt><trkpt lat="43.5449117" lon="12.04801"><ele>473.79999999999995</ele><time>2026-04-25T14:30:10.949Z</time></trkpt><trkpt lat="43.5448317" lon="12.0481167"><ele>473.0</ele><time>2026-04-25T14:30:11.946Z</time></trkpt><trkpt lat="43.54475" lon="12.0482283"><ele>472.5</ele><time>2026-04-25T14:30:12.95Z</time></trkpt><trkpt lat="43.5446667" lon="12.048345"><ele>472.0</ele><time>2026-04-25T14:30:13.999Z</time></trkpt><trkpt lat="43.54458" lon="12.048465"><ele>471.5</ele><time>2026-04-25T14:30:14.945Z</time></trkpt><trkpt lat="43.5444883" lon="12.0485833"><ele>471.0</ele><time>2026-04-25T14:30:15.932Z</time></trkpt><trkpt lat="43.5443917" lon="12.048695"><ele>470.5</ele><time>2026-04-25T14:30:16.939Z</time></trkpt><trkpt lat="43.54429" lon="12.0487933"><ele>470.0</ele><time>2026-04-25T14:30:17.951Z</time></trkpt><trkpt lat="43.5441783" lon="12.0488817"><ele>469.5</ele><time>2026-04-25T14:30:18.947Z</time></trkpt><trkpt lat="43.5440633" lon="12.0489533"><ele>469.0</ele><time>2026-04-25T14:30:19.996Z</time></trkpt><trkpt lat="43.5439433" lon="12.0490067"><ele>469.0</ele><time>2026-04-25T14:30:20.938Z</time></trkpt><trkpt lat="43.543825" lon="12.0490433"><ele>469.0</ele><time>2026-04-25T14:30:21.952Z</time></trkpt><trkpt lat="43.543705" lon="12.04908"><ele>469.0</ele><time>2026-04-25T14:30:22.951Z</time></trkpt><trkpt lat="43.5435883" lon="12.04912"><ele>469.0</ele><time>2026-04-25T14:30:23.951Z</time></trkpt><trkpt lat="43.543475" lon="12.0491667"><ele>468.0</ele><time>2026-04-25T14:30:24.952Z</time></trkpt><trkpt lat="43.54337" lon="12.0492267"><ele>467.0</ele><time>2026-04-25T14:30:26.027Z</time></trkpt><trkpt lat="43.54327" lon="12.0493017"><ele>466.0</ele><time>2026-04-25T14:30:26.944Z</time></trkpt><trkpt lat="43.54318" lon="12.04939"><ele>465.0</ele><time>2026-04-25T14:30:27.95Z</time></trkpt><trkpt lat="43.543095" lon="12.0494867"><ele>464.0</ele><time>2026-04-25T14:30:28.953Z</time></trkpt><trkpt lat="43.5430133" lon="12.04959"><ele>464.0</ele><time>2026-04-25T14:30:29.931Z</time></trkpt><trkpt lat="43.542935" lon="12.0496917"><ele>464.0</ele><time>2026-04-25T14:30:30.945Z</time></trkpt><trkpt lat="43.5428583" lon="12.0497867"><ele>464.0</ele><time>2026-04-25T14:30:31.977Z</time></trkpt><trkpt lat="43.5427817" lon="12.0498767"><ele>464.0</ele><time>2026-04-25T14:30:32.944Z</time></trkpt><trkpt lat="43.542705" lon="12.0499667"><ele>464.0</ele><time>2026-04-25T14:30:33.949Z</time></trkpt><trkpt lat="43.54263" lon="12.05006"><ele>463.2</ele><time>2026-04-25T14:30:34.949Z</time></trkpt><trkpt lat="43.5425567" lon="12.0501517"><ele>462.4</ele><time>2026-04-25T14:30:35.95Z</time></trkpt><trkpt lat="43.5424833" lon="12.05024"><ele>461.6</ele><time>2026-04-25T14:30:36.953Z</time></trkpt><trkpt lat="43.54241" lon="12.0503233"><ele>460.8</ele><time>2026-04-25T14:30:37.995Z</time></trkpt><trkpt lat="43.5423367" lon="12.05041"><ele>460.0</ele><time>2026-04-25T14:30:38.952Z</time></trkpt><trkpt lat="43.5422617" lon="12.0504917"><ele>460.0</ele><time>2026-04-25T14:30:39.951Z</time></trkpt><trkpt lat="43.5421833" lon="12.0505683"><ele>460.0</ele><time>2026-04-25T14:30:40.948Z</time></trkpt><trkpt lat="43.5420983" lon="12.0506417"><ele>460.0</ele><time>2026-04-25T14:30:41.938Z</time></trkpt><trkpt lat="43.54201" lon="12.05071"><ele>460.0</ele><time>2026-04-25T14:30:42.948Z</time></trkpt><trkpt lat="43.5419183" lon="12.050775"><ele>460.0</ele><time>2026-04-25T14:30:43.994Z</time></trkpt><trkpt lat="43.541825" lon="12.0508367"><ele>460.33333333333337</ele><time>2026-04-25T14:30:44.947Z</time></trkpt><trkpt lat="43.541735" lon="12.0508933"><ele>460.6666666666667</ele><time>2026-04-25T14:30:45.942Z</time></trkpt><trkpt lat="43.5416517" lon="12.05095"><ele>461.0</ele><time>2026-04-25T14:30:46.95Z</time></trkpt><trkpt lat="43.541575" lon="12.0510017"><ele>461.33333333333337</ele><time>2026-04-25T14:30:47.951Z</time></trkpt><trkpt lat="43.5415017" lon="12.0510533"><ele>461.6666666666667</ele><time>2026-04-25T14:30:48.951Z</time></trkpt><trkpt lat="43.54143" lon="12.0510983"><ele>462.0</ele><time>2026-04-25T14:30:49.994Z</time></trkpt><trkpt lat="43.5413583" lon="12.05114"><ele>462.0</ele><time>2026-04-25T14:30:50.946Z</time></trkpt><trkpt lat="43.5412833" lon="12.05118"><ele>462.0</ele><time>2026-04-25T14:30:51.923Z</time></trkpt><trkpt lat="43.5412067" lon="12.05122"><ele>462.0</ele><time>2026-04-25T14:30:52.939Z</time></trkpt><trkpt lat="43.5411367" lon="12.0512567"><ele>462.0</ele><time>2026-04-25T14:30:53.936Z</time></trkpt><trkpt lat="43.5410717" lon="12.0512933"><ele>462.0</ele><time>2026-04-25T14:30:54.934Z</time></trkpt><trkpt lat="43.54098" lon="12.0513367"><ele>462.0</ele><time>2026-04-25T14:30:56.933Z</time></trkpt><trkpt lat="43.5409233" lon="12.0513767"><ele>459.8333333333333</ele><time>2026-04-25T14:30:58.927Z</time></trkpt><trkpt lat="43.540825" lon="12.0514383"><ele>457.66666666666663</ele><time>2026-04-25T14:31:53.93Z</time></trkpt><trkpt lat="43.5407583" lon="12.0515017"><ele>455.5</ele><time>2026-04-25T14:31:56.943Z</time></trkpt><trkpt lat="43.5406983" lon="12.051565"><ele>453.3333333333333</ele><time>2026-04-25T14:31:58.945Z</time></trkpt><trkpt lat="43.5406267" lon="12.051625"><ele>451.16666666666663</ele><time>2026-04-25T14:32:00.948Z</time></trkpt><trkpt lat="43.5405433" lon="12.051685"><ele>449.0</ele><time>2026-04-25T14:32:02.941Z</time></trkpt><trkpt lat="43.5404667" lon="12.05175"><ele>448.66666666666663</ele><time>2026-04-25T14:32:04.948Z</time></trkpt><trkpt lat="43.54039" lon="12.0518283"><ele>448.3333333333333</ele><time>2026-04-25T14:32:06.943Z</time></trkpt><trkpt lat="43.540315" lon="12.0519083"><ele>448.0</ele><time>2026-04-25T14:32:08.949Z</time></trkpt><trkpt lat="43.540225" lon="12.0519933"><ele>447.66666666666663</ele><time>2026-04-25T14:32:10.954Z</time></trkpt><trkpt lat="43.54017" lon="12.0520367"><ele>447.3333333333333</ele><time>2026-04-25T14:32:11.948Z</time></trkpt><trkpt lat="43.5401117" lon="12.0520817"><ele>447.0</ele><time>2026-04-25T14:32:12.939Z</time></trkpt><trkpt lat="43.54006" lon="12.0521517"><ele>446.2857142857143</ele><time>2026-04-25T14:32:13.998Z</time></trkpt><trkpt lat="43.540015" lon="12.0522333"><ele>445.57142857142856</ele><time>2026-04-25T14:32:14.948Z</time></trkpt><trkpt lat="43.5399633" lon="12.0523083"><ele>444.8571428571429</ele><time>2026-04-25T14:32:15.949Z</time></trkpt><trkpt lat="43.5399233" lon="12.0523883"><ele>444.1428571428571</ele><time>2026-04-25T14:32:16.948Z</time></trkpt><trkpt lat="43.5398783" lon="12.0524733"><ele>443.42857142857144</ele><time>2026-04-25T14:32:17.951Z</time></trkpt><trkpt lat="43.539825" lon="12.0525467"><ele>442.7142857142857</ele><time>2026-04-25T14:32:18.95Z</time></trkpt><trkpt lat="43.5397683" lon="12.0526167"><ele>442.0</ele><time>2026-04-25T14:32:20Z</time></trkpt><trkpt lat="43.5397183" lon="12.0526883"><ele>442.00000000000006</ele><time>2026-04-25T14:32:20.952Z</time></trkpt><trkpt lat="43.5396733" lon="12.05275"><ele>442.0</ele><time>2026-04-25T14:32:21.946Z</time></trkpt><trkpt lat="43.53961" lon="12.0528533"><ele>442.0</ele><time>2026-04-25T14:32:23.938Z</time></trkpt><trkpt lat="43.5395667" lon="12.0529183"><ele>442.0</ele><time>2026-04-25T14:32:26.002Z</time></trkpt><trkpt lat="43.53949" lon="12.0530233"><ele>442.00000000000006</ele><time>2026-04-25T14:32:35.945Z</time></trkpt><trkpt lat="43.5394483" lon="12.0530983"><ele>442.0</ele><time>2026-04-25T14:32:37.997Z</time></trkpt><trkpt lat="43.5393817" lon="12.05318"><ele>442.6</ele><time>2026-04-25T14:32:39.937Z</time></trkpt><trkpt lat="43.539305" lon="12.05328"><ele>443.20000000000005</ele><time>2026-04-25T14:32:41.948Z</time></trkpt><trkpt lat="43.5392383" lon="12.05337"><ele>443.8</ele><time>2026-04-25T14:32:43.98Z</time></trkpt><trkpt lat="43.5391683" lon="12.0534867"><ele>444.4</ele><time>2026-04-25T14:32:45.955Z</time></trkpt><trkpt lat="43.5391" lon="12.0535983"><ele>445.0</ele><time>2026-04-25T14:32:47.951Z</time></trkpt><trkpt lat="43.5390283" lon="12.0537167"><ele>445.75</ele><time>2026-04-25T14:32:50.004Z</time></trkpt><trkpt lat="43.5389567" lon="12.053845"><ele>446.5</ele><time>2026-04-25T14:32:51.92Z</time></trkpt><trkpt lat="43.53888" lon="12.0539633"><ele>447.25</ele><time>2026-04-25T14:32:53.947Z</time></trkpt><trkpt lat="43.5387983" lon="12.0540817"><ele>448.0</ele><time>2026-04-25T14:32:55.995Z</time></trkpt><trkpt lat="43.5387117" lon="12.0542017"><ele>448.4</ele><time>2026-04-25T14:32:57.949Z</time></trkpt><trkpt lat="43.5386233" lon="12.0543233"><ele>448.79999999999995</ele><time>2026-04-25T14:32:59.944Z</time></trkpt><trkpt lat="43.5385783" lon="12.0543883"><ele>449.2</ele><time>2026-04-25T14:33:00.948Z</time></trkpt><trkpt lat="43.538535" lon="12.0544517"><ele>449.6</ele><time>2026-04-25T14:33:01.981Z</time></trkpt><trkpt lat="43.5384467" lon="12.0545717"><ele>450.0</ele><time>2026-04-25T14:33:03.949Z</time></trkpt><trkpt lat="43.5383567" lon="12.05469"><ele>450.0</ele><time>2026-04-25T14:33:05.95Z</time></trkpt><trkpt lat="43.5383117" lon="12.0547517"><ele>450.0</ele><time>2026-04-25T14:33:06.949Z</time></trkpt><trkpt lat="43.5382217" lon="12.05487"><ele>450.0</ele><time>2026-04-25T14:33:08.946Z</time></trkpt><trkpt lat="43.5381767" lon="12.0549367"><ele>450.0</ele><time>2026-04-25T14:33:09.952Z</time></trkpt><trkpt lat="43.53813" lon="12.0550033"><ele>450.0</ele><time>2026-04-25T14:33:10.95Z</time></trkpt><trkpt lat="43.53808" lon="12.0550733"><ele>450.0</ele><time>2026-04-25T14:33:11.949Z</time></trkpt><trkpt lat="43.5380267" lon="12.0551483"><ele>449.1666666666667</ele><time>2026-04-25T14:33:12.952Z</time></trkpt><trkpt lat="43.537975" lon="12.0552217"><ele>448.33333333333337</ele><time>2026-04-25T14:33:13.999Z</time></trkpt><trkpt lat="43.5379217" lon="12.0552967"><ele>447.5</ele><time>2026-04-25T14:33:14.945Z</time></trkpt><trkpt lat="43.5378683" lon="12.0553717"><ele>446.6666666666667</ele><time>2026-04-25T14:33:15.951Z</time></trkpt><trkpt lat="43.537815" lon="12.0554483"><ele>445.83333333333337</ele><time>2026-04-25T14:33:16.953Z</time></trkpt><trkpt lat="43.537755" lon="12.05553"><ele>445.0</ele><time>2026-04-25T14:33:17.95Z</time></trkpt><trkpt lat="43.5376917" lon="12.0556117"><ele>445.0</ele><time>2026-04-25T14:33:18.948Z</time></trkpt><trkpt lat="43.5376217" lon="12.0557"><ele>445.0</ele><time>2026-04-25T14:33:20.002Z</time></trkpt><trkpt lat="43.5375483" lon="12.0557883"><ele>445.0</ele><time>2026-04-25T14:33:20.947Z</time></trkpt><trkpt lat="43.5374717" lon="12.0558767"><ele>445.0</ele><time>2026-04-25T14:33:21.952Z</time></trkpt><trkpt lat="43.5373933" lon="12.0559667"><ele>445.0</ele><time>2026-04-25T14:33:22.947Z</time></trkpt><trkpt lat="43.5373167" lon="12.0560467"><ele>445.0</ele><time>2026-04-25T14:33:23.948Z</time></trkpt><trkpt lat="43.53724" lon="12.0561133"><ele>445.0</ele><time>2026-04-25T14:33:24.947Z</time></trkpt><trkpt lat="43.5371533" lon="12.0561717"><ele>445.0</ele><time>2026-04-25T14:33:25.977Z</time></trkpt><trkpt lat="43.5370667" lon="12.0562067"><ele>445.0</ele><time>2026-04-25T14:33:26.95Z</time></trkpt><trkpt lat="43.5369783" lon="12.0562217"><ele>445.0</ele><time>2026-04-25T14:33:27.95Z</time></trkpt><trkpt lat="43.536885" lon="12.0562233"><ele>444.6</ele><time>2026-04-25T14:33:28.952Z</time></trkpt><trkpt lat="43.5367883" lon="12.0562133"><ele>444.2</ele><time>2026-04-25T14:33:29.95Z</time></trkpt><trkpt lat="43.53669" lon="12.0561917"><ele>443.79999999999995</ele><time>2026-04-25T14:33:30.949Z</time></trkpt><trkpt lat="43.53659" lon="12.0561617"><ele>443.4</ele><time>2026-04-25T14:33:31.977Z</time></trkpt><trkpt lat="43.5364867" lon="12.05612"><ele>443.0</ele><time>2026-04-25T14:33:32.949Z</time></trkpt><trkpt lat="43.5363733" lon="12.05608"><ele>443.0</ele><time>2026-04-25T14:33:33.952Z</time></trkpt><trkpt lat="43.5362567" lon="12.0560367"><ele>443.0</ele><time>2026-04-25T14:33:34.948Z</time></trkpt><trkpt lat="43.5361383" lon="12.0559933"><ele>443.0</ele><time>2026-04-25T14:33:35.955Z</time></trkpt><trkpt lat="43.5360183" lon="12.0559483"><ele>443.0</ele><time>2026-04-25T14:33:36.952Z</time></trkpt><trkpt lat="43.535895" lon="12.0559083"><ele>442.25</ele><time>2026-04-25T14:33:37.997Z</time></trkpt><trkpt lat="43.5357717" lon="12.055875"><ele>441.5</ele><time>2026-04-25T14:33:38.938Z</time></trkpt><trkpt lat="43.5356467" lon="12.0558583"><ele>440.75</ele><time>2026-04-25T14:33:39.951Z</time></trkpt><trkpt lat="43.53552" lon="12.055865"><ele>440.0</ele><time>2026-04-25T14:33:40.947Z</time></trkpt><trkpt lat="43.5353933" lon="12.0558867"><ele>438.75</ele><time>2026-04-25T14:33:41.947Z</time></trkpt><trkpt lat="43.535265" lon="12.0559217"><ele>437.5</ele><time>2026-04-25T14:33:42.945Z</time></trkpt><trkpt lat="43.535135" lon="12.055965"><ele>436.25</ele><time>2026-04-25T14:33:44.001Z</time></trkpt><trkpt lat="43.5350033" lon="12.0560117"><ele>435.0</ele><time>2026-04-25T14:33:44.946Z</time></trkpt><trkpt lat="43.5348733" lon="12.0560633"><ele>435.0</ele><time>2026-04-25T14:33:45.946Z</time></trkpt><trkpt lat="43.53474" lon="12.05611"><ele>435.0</ele><time>2026-04-25T14:33:46.943Z</time></trkpt><trkpt lat="43.534605" lon="12.05616"><ele>435.0</ele><time>2026-04-25T14:33:47.947Z</time></trkpt><trkpt lat="43.5344667" lon="12.0562083"><ele>435.0</ele><time>2026-04-25T14:33:48.952Z</time></trkpt><trkpt lat="43.5343283" lon="12.0562583"><ele>432.5</ele><time>2026-04-25T14:33:49.999Z</time></trkpt><trkpt lat="43.534195" lon="12.056305"><ele>430.0</ele><time>2026-04-25T14:33:50.943Z</time></trkpt><trkpt lat="43.53407" lon="12.0563517"><ele>427.5</ele><time>2026-04-25T14:33:51.939Z</time></trkpt><trkpt lat="43.53396" lon="12.05639"><ele>425.0</ele><time>2026-04-25T14:33:52.951Z</time></trkpt><trkpt lat="43.5338617" lon="12.056425"><ele>425.0</ele><time>2026-04-25T14:33:53.951Z</time></trkpt><trkpt lat="43.53377" lon="12.0564567"><ele>425.0</ele><time>2026-04-25T14:33:54.951Z</time></trkpt><trkpt lat="43.5336833" lon="12.0564883"><ele>425.0</ele><time>2026-04-25T14:33:56.005Z</time></trkpt><trkpt lat="43.5335983" lon="12.05652"><ele>425.0</ele><time>2026-04-25T14:33:56.952Z</time></trkpt><trkpt lat="43.5335083" lon="12.056555"><ele>425.0</ele><time>2026-04-25T14:33:57.95Z</time></trkpt><trkpt lat="43.5334183" lon="12.05659"><ele>425.3333333333333</ele><time>2026-04-25T14:33:58.946Z</time></trkpt><trkpt lat="43.5333317" lon="12.05662"><ele>425.66666666666663</ele><time>2026-04-25T14:33:59.953Z</time></trkpt><trkpt lat="43.5332517" lon="12.0566483"><ele>426.0</ele><time>2026-04-25T14:34:00.944Z</time></trkpt><trkpt lat="43.5331733" lon="12.056675"><ele>426.33333333333337</ele><time>2026-04-25T14:34:01.99Z</time></trkpt><trkpt lat="43.5330967" lon="12.0567033"><ele>426.6666666666667</ele><time>2026-04-25T14:34:02.936Z</time></trkpt><trkpt lat="43.5330183" lon="12.0567317"><ele>427.0</ele><time>2026-04-25T14:34:03.953Z</time></trkpt><trkpt lat="43.5329367" lon="12.0567683"><ele>425.6</ele><time>2026-04-25T14:34:04.949Z</time></trkpt><trkpt lat="43.5328533" lon="12.0568067"><ele>424.20000000000005</ele><time>2026-04-25T14:34:05.953Z</time></trkpt><trkpt lat="43.53277" lon="12.05685"><ele>422.8</ele><time>2026-04-25T14:34:06.95Z</time></trkpt><trkpt lat="43.5326867" lon="12.0568983"><ele>421.4</ele><time>2026-04-25T14:34:08.003Z</time></trkpt><trkpt lat="43.5326033" lon="12.05695"><ele>420.0</ele><time>2026-04-25T14:34:08.952Z</time></trkpt><trkpt lat="43.5325167" lon="12.0570167"><ele>420.0</ele><time>2026-04-25T14:34:09.947Z</time></trkpt><trkpt lat="43.5324283" lon="12.057085"><ele>420.0</ele><time>2026-04-25T14:34:10.95Z</time></trkpt><trkpt lat="43.5323433" lon="12.0571567"><ele>420.0</ele><time>2026-04-25T14:34:11.951Z</time></trkpt><trkpt lat="43.5322683" lon="12.0572267"><ele>420.0</ele><time>2026-04-25T14:34:12.953Z</time></trkpt><trkpt lat="43.5321983" lon="12.0572967"><ele>420.0</ele><time>2026-04-25T14:34:13.997Z</time></trkpt><trkpt lat="43.5321367" lon="12.0573683"><ele>420.0</ele><time>2026-04-25T14:34:14.941Z</time></trkpt><trkpt lat="43.53207" lon="12.0574467"><ele>420.0</ele><time>2026-04-25T14:34:15.95Z</time></trkpt><trkpt lat="43.532005" lon="12.0575383"><ele>420.0</ele><time>2026-04-25T14:34:16.951Z</time></trkpt><trkpt lat="43.53194" lon="12.0576383"><ele>420.0</ele><time>2026-04-25T14:34:17.951Z</time></trkpt><trkpt lat="43.5318767" lon="12.05774"><ele>420.0</ele><time>2026-04-25T14:34:18.95Z</time></trkpt><trkpt lat="43.53181" lon="12.0578433"><ele>419.2</ele><time>2026-04-25T14:34:20Z</time></trkpt><trkpt lat="43.5317433" lon="12.0579517"><ele>418.4</ele><time>2026-04-25T14:34:20.95Z</time></trkpt><trkpt lat="43.531675" lon="12.058065"><ele>417.6</ele><time>2026-04-25T14:34:21.95Z</time></trkpt><trkpt lat="43.5316117" lon="12.05818"><ele>416.8</ele><time>2026-04-25T14:34:22.95Z</time></trkpt><trkpt lat="43.5315517" lon="12.058275"><ele>416.0</ele><time>2026-04-25T14:34:23.95Z</time></trkpt><trkpt lat="43.5314933" lon="12.0583667"><ele>415.99999999999994</ele><time>2026-04-25T14:34:24.95Z</time></trkpt><trkpt lat="43.5314367" lon="12.0584583"><ele>416.0</ele><time>2026-04-25T14:34:26.004Z</time></trkpt><trkpt lat="43.5313783" lon="12.05855"><ele>416.0</ele><time>2026-04-25T14:34:26.948Z</time></trkpt><trkpt lat="43.5313217" lon="12.05864"><ele>416.0</ele><time>2026-04-25T14:34:27.952Z</time></trkpt><trkpt lat="43.5312667" lon="12.05873"><ele>415.99999999999994</ele><time>2026-04-25T14:34:28.952Z</time></trkpt><trkpt lat="43.5312067" lon="12.0588183"><ele>416.0</ele><time>2026-04-25T14:34:29.952Z</time></trkpt><trkpt lat="43.5311467" lon="12.0589117"><ele>414.3333333333333</ele><time>2026-04-25T14:34:30.935Z</time></trkpt><trkpt lat="43.53109" lon="12.0590067"><ele>412.66666666666663</ele><time>2026-04-25T14:34:31.98Z</time></trkpt><trkpt lat="43.5310383" lon="12.05911"><ele>411.0</ele><time>2026-04-25T14:34:32.951Z</time></trkpt><trkpt lat="43.53099" lon="12.0592183"><ele>409.33333333333337</ele><time>2026-04-25T14:34:33.95Z</time></trkpt><trkpt lat="43.53095" lon="12.0593267"><ele>407.6666666666667</ele><time>2026-04-25T14:34:34.948Z</time></trkpt><trkpt lat="43.5309083" lon="12.0594267"><ele>406.0</ele><time>2026-04-25T14:34:35.953Z</time></trkpt><trkpt lat="43.530865" lon="12.0595433"><ele>406.0</ele><time>2026-04-25T14:34:36.951Z</time></trkpt><trkpt lat="43.5308217" lon="12.05967"><ele>406.0</ele><time>2026-04-25T14:34:38.003Z</time></trkpt><trkpt lat="43.5307767" lon="12.059795"><ele>406.0</ele><time>2026-04-25T14:34:38.943Z</time></trkpt><trkpt lat="43.5307367" lon="12.059925"><ele>406.0</ele><time>2026-04-25T14:34:39.949Z</time></trkpt><trkpt lat="43.530695" lon="12.0600433"><ele>406.0</ele><time>2026-04-25T14:34:40.95Z</time></trkpt><trkpt lat="43.530655" lon="12.06016"><ele>406.20000000000005</ele><time>2026-04-25T14:34:41.948Z</time></trkpt><trkpt lat="43.5306233" lon="12.0602667"><ele>406.40000000000003</ele><time>2026-04-25T14:34:42.947Z</time></trkpt><trkpt lat="43.5305817" lon="12.060405"><ele>406.6</ele><time>2026-04-25T14:34:44.951Z</time></trkpt><trkpt lat="43.5305417" lon="12.0605417"><ele>406.8</ele><time>2026-04-25T14:34:46.95Z</time></trkpt><trkpt lat="43.530505" lon="12.0606733"><ele>407.0</ele><time>2026-04-25T14:34:48.949Z</time></trkpt><trkpt lat="43.5304783" lon="12.0607583"><ele>406.20000000000005</ele><time>2026-04-25T14:34:49.997Z</time></trkpt><trkpt lat="43.5304467" lon="12.0608583"><ele>405.4</ele><time>2026-04-25T14:34:50.947Z</time></trkpt><trkpt lat="43.53041" lon="12.06098"><ele>404.6</ele><time>2026-04-25T14:34:51.936Z</time></trkpt><trkpt lat="43.530365" lon="12.0611267"><ele>403.79999999999995</ele><time>2026-04-25T14:34:52.95Z</time></trkpt><trkpt lat="43.5303183" lon="12.06128"><ele>403.0</ele><time>2026-04-25T14:34:53.947Z</time></trkpt><trkpt lat="43.5302667" lon="12.0614367"><ele>403.0</ele><time>2026-04-25T14:34:54.949Z</time></trkpt><trkpt lat="43.530215" lon="12.0615883"><ele>403.0</ele><time>2026-04-25T14:34:56.012Z</time></trkpt><trkpt lat="43.530145" lon="12.0617617"><ele>403.0</ele><time>2026-04-25T14:34:56.948Z</time></trkpt><trkpt lat="43.53006" lon="12.0619467"><ele>403.0</ele><time>2026-04-25T14:34:57.954Z</time></trkpt><trkpt lat="43.5299667" lon="12.0621217"><ele>403.33333333333337</ele><time>2026-04-25T14:34:58.951Z</time></trkpt><trkpt lat="43.529865" lon="12.062285"><ele>403.66666666666663</ele><time>2026-04-25T14:34:59.953Z</time></trkpt><trkpt lat="43.5297533" lon="12.0624367"><ele>404.0</ele><time>2026-04-25T14:35:00.952Z</time></trkpt><trkpt lat="43.5296333" lon="12.0625883"><ele>403.66666666666663</ele><time>2026-04-25T14:35:02.006Z</time></trkpt><trkpt lat="43.5294967" lon="12.0627383"><ele>403.33333333333337</ele><time>2026-04-25T14:35:02.947Z</time></trkpt><trkpt lat="43.5293517" lon="12.0628867"><ele>403.0</ele><time>2026-04-25T14:35:03.942Z</time></trkpt><trkpt lat="43.529205" lon="12.0630383"><ele>403.0</ele><time>2026-04-25T14:35:04.952Z</time></trkpt><trkpt lat="43.5290617" lon="12.0631867"><ele>403.0</ele><time>2026-04-25T14:35:05.949Z</time></trkpt><trkpt lat="43.5289167" lon="12.063345"><ele>403.0</ele><time>2026-04-25T14:35:06.953Z</time></trkpt><trkpt lat="43.5287733" lon="12.0634933"><ele>401.33333333333337</ele><time>2026-04-25T14:35:07.999Z</time></trkpt><trkpt lat="43.5286267" lon="12.06365"><ele>399.66666666666663</ele><time>2026-04-25T14:35:08.948Z</time></trkpt><trkpt lat="43.528485" lon="12.063805"><ele>398.0</ele><time>2026-04-25T14:35:09.944Z</time></trkpt><trkpt lat="43.5283433" lon="12.0639617"><ele>398.66666666666663</ele><time>2026-04-25T14:35:10.947Z</time></trkpt><trkpt lat="43.52819" lon="12.0641233"><ele>399.33333333333337</ele><time>2026-04-25T14:35:11.947Z</time></trkpt><trkpt lat="43.5280417" lon="12.0642867"><ele>400.0</ele><time>2026-04-25T14:35:12.952Z</time></trkpt><trkpt lat="43.527895" lon="12.064445"><ele>398.6666666666667</ele><time>2026-04-25T14:35:14.014Z</time></trkpt><trkpt lat="43.5277517" lon="12.0646017"><ele>397.33333333333337</ele><time>2026-04-25T14:35:14.947Z</time></trkpt><trkpt lat="43.5276133" lon="12.0647533"><ele>396.0</ele><time>2026-04-25T14:35:15.951Z</time></trkpt><trkpt lat="43.5274733" lon="12.0649017"><ele>395.0</ele><time>2026-04-25T14:35:16.952Z</time></trkpt><trkpt lat="43.527335" lon="12.0650517"><ele>394.0</ele><time>2026-04-25T14:35:17.948Z</time></trkpt><trkpt lat="43.5271933" lon="12.0652017"><ele>393.0</ele><time>2026-04-25T14:35:18.935Z</time></trkpt><trkpt lat="43.52706" lon="12.0653467"><ele>393.0</ele><time>2026-04-25T14:35:19.996Z</time></trkpt><trkpt lat="43.5269233" lon="12.0654983"><ele>393.0</ele><time>2026-04-25T14:35:20.944Z</time></trkpt><trkpt lat="43.5267933" lon="12.0656567"><ele>393.0</ele><time>2026-04-25T14:35:21.947Z</time></trkpt><trkpt lat="43.5266683" lon="12.0658217"><ele>394.33333333333337</ele><time>2026-04-25T14:35:22.953Z</time></trkpt><trkpt lat="43.5265467" lon="12.0660017"><ele>395.6666666666667</ele><time>2026-04-25T14:35:23.951Z</time></trkpt><trkpt lat="43.52643" lon="12.0661767"><ele>397.0</ele><time>2026-04-25T14:35:24.951Z</time></trkpt><trkpt lat="43.5263117" lon="12.0663583"><ele>396.0</ele><time>2026-04-25T14:35:26.004Z</time></trkpt><trkpt lat="43.5261917" lon="12.066535"><ele>395.0</ele><time>2026-04-25T14:35:26.942Z</time></trkpt><trkpt lat="43.5260717" lon="12.0667133"><ele>394.0</ele><time>2026-04-25T14:35:27.948Z</time></trkpt><trkpt lat="43.5259533" lon="12.0668917"><ele>394.0</ele><time>2026-04-25T14:35:28.948Z</time></trkpt><trkpt lat="43.5258367" lon="12.0670683"><ele>394.0</ele><time>2026-04-25T14:35:29.951Z</time></trkpt><trkpt lat="43.5257217" lon="12.06724"><ele>394.0</ele><time>2026-04-25T14:35:30.953Z</time></trkpt><trkpt lat="43.5256083" lon="12.0673983"><ele>393.33333333333337</ele><time>2026-04-25T14:35:31.992Z</time></trkpt><trkpt lat="43.52549" lon="12.0675433"><ele>392.66666666666663</ele><time>2026-04-25T14:35:32.944Z</time></trkpt><trkpt lat="43.5253517" lon="12.0677117"><ele>392.0</ele><time>2026-04-25T14:35:33.95Z</time></trkpt><trkpt lat="43.5252167" lon="12.0678517"><ele>392.0</ele><time>2026-04-25T14:35:34.95Z</time></trkpt><trkpt lat="43.5250783" lon="12.0679783"><ele>392.0</ele><time>2026-04-25T14:35:35.933Z</time></trkpt><trkpt lat="43.5249367" lon="12.068085"><ele>392.0</ele><time>2026-04-25T14:35:36.942Z</time></trkpt><trkpt lat="43.5247917" lon="12.068215"><ele>391.66666666666663</ele><time>2026-04-25T14:35:37.986Z</time></trkpt><trkpt lat="43.5246417" lon="12.0683217"><ele>391.33333333333337</ele><time>2026-04-25T14:35:38.933Z</time></trkpt><trkpt lat="43.524485" lon="12.0684167"><ele>391.0</ele><time>2026-04-25T14:35:39.952Z</time></trkpt><trkpt lat="43.524325" lon="12.0685183"><ele>391.0</ele><time>2026-04-25T14:35:40.951Z</time></trkpt><trkpt lat="43.5241617" lon="12.0686117"><ele>391.0</ele><time>2026-04-25T14:35:41.952Z</time></trkpt><trkpt lat="43.5240017" lon="12.0687083"><ele>391.0</ele><time>2026-04-25T14:35:42.948Z</time></trkpt><trkpt lat="43.5238333" lon="12.0688117"><ele>389.33333333333337</ele><time>2026-04-25T14:35:43.999Z</time></trkpt><trkpt lat="43.5236683" lon="12.0689133"><ele>387.66666666666663</ele><time>2026-04-25T14:35:44.944Z</time></trkpt><trkpt lat="43.523505" lon="12.06901"><ele>386.0</ele><time>2026-04-25T14:35:45.949Z</time></trkpt><trkpt lat="43.5233417" lon="12.0691017"><ele>386.3333333333333</ele><time>2026-04-25T14:35:46.942Z</time></trkpt><trkpt lat="43.5231783" lon="12.0691933"><ele>386.66666666666663</ele><time>2026-04-25T14:35:47.949Z</time></trkpt><trkpt lat="43.5230083" lon="12.0692883"><ele>387.0</ele><time>2026-04-25T14:35:48.944Z</time></trkpt><trkpt lat="43.5228417" lon="12.0693817"><ele>386.33333333333337</ele><time>2026-04-25T14:35:50Z</time></trkpt><trkpt lat="43.5226767" lon="12.0694783"><ele>385.6666666666667</ele><time>2026-04-25T14:35:50.941Z</time></trkpt><trkpt lat="43.522515" lon="12.06958"><ele>385.0</ele><time>2026-04-25T14:35:51.951Z</time></trkpt><trkpt lat="43.5223583" lon="12.0696933"><ele>385.0</ele><time>2026-04-25T14:35:52.954Z</time></trkpt><trkpt lat="43.5222133" lon="12.0698233"><ele>385.0</ele><time>2026-04-25T14:35:53.949Z</time></trkpt><trkpt lat="43.5220767" lon="12.0699817"><ele>385.0</ele><time>2026-04-25T14:35:54.95Z</time></trkpt><trkpt lat="43.52195" lon="12.070155"><ele>383.6666666666667</ele><time>2026-04-25T14:35:56.002Z</time></trkpt><trkpt lat="43.5218333" lon="12.0703467"><ele>382.33333333333337</ele><time>2026-04-25T14:35:56.948Z</time></trkpt><trkpt lat="43.5217233" lon="12.0705583"><ele>381.0</ele><time>2026-04-25T14:35:57.952Z</time></trkpt><trkpt lat="43.5216133" lon="12.0707717"><ele>379.0</ele><time>2026-04-25T14:35:58.949Z</time></trkpt><trkpt lat="43.5214967" lon="12.070995"><ele>377.0</ele><time>2026-04-25T14:35:59.938Z</time></trkpt><trkpt lat="43.5213783" lon="12.071215"><ele>375.0</ele><time>2026-04-25T14:36:00.951Z</time></trkpt><trkpt lat="43.5212583" lon="12.0714383"><ele>372.0</ele><time>2026-04-25T14:36:02.003Z</time></trkpt><trkpt lat="43.5211383" lon="12.0716633"><ele>369.0</ele><time>2026-04-25T14:36:02.947Z</time></trkpt><trkpt lat="43.5210167" lon="12.0718883"><ele>366.0</ele><time>2026-04-25T14:36:03.951Z</time></trkpt><trkpt lat="43.5208883" lon="12.0721217"><ele>366.0</ele><time>2026-04-25T14:36:04.951Z</time></trkpt><trkpt lat="43.5207633" lon="12.0723583"><ele>366.0</ele><time>2026-04-25T14:36:05.948Z</time></trkpt><trkpt lat="43.5206383" lon="12.0725967"><ele>366.0</ele><time>2026-04-25T14:36:06.93Z</time></trkpt><trkpt lat="43.5205133" lon="12.0728367"><ele>363.6666666666667</ele><time>2026-04-25T14:36:08.001Z</time></trkpt><trkpt lat="43.52039" lon="12.073065"><ele>361.33333333333337</ele><time>2026-04-25T14:36:08.945Z</time></trkpt><trkpt lat="43.5202617" lon="12.0733033"><ele>359.0</ele><time>2026-04-25T14:36:09.949Z</time></trkpt><trkpt lat="43.520135" lon="12.07354"><ele>358.6666666666667</ele><time>2026-04-25T14:36:10.95Z</time></trkpt><trkpt lat="43.5200083" lon="12.0737717"><ele>358.3333333333333</ele><time>2026-04-25T14:36:11.95Z</time></trkpt><trkpt lat="43.5198833" lon="12.074"><ele>358.0</ele><time>2026-04-25T14:36:12.943Z</time></trkpt><trkpt lat="43.5197667" lon="12.0742233"><ele>358.0</ele><time>2026-04-25T14:36:14.004Z</time></trkpt><trkpt lat="43.5196533" lon="12.0744367"><ele>358.0</ele><time>2026-04-25T14:36:14.946Z</time></trkpt><trkpt lat="43.5195383" lon="12.0746533"><ele>358.0</ele><time>2026-04-25T14:36:15.941Z</time></trkpt><trkpt lat="43.51942" lon="12.0748733"><ele>356.66666666666663</ele><time>2026-04-25T14:36:16.949Z</time></trkpt><trkpt lat="43.5193033" lon="12.0750867"><ele>355.3333333333333</ele><time>2026-04-25T14:36:17.937Z</time></trkpt><trkpt lat="43.519185" lon="12.075305"><ele>354.0</ele><time>2026-04-25T14:36:18.938Z</time></trkpt><trkpt lat="43.5190717" lon="12.0755117"><ele>354.0</ele><time>2026-04-25T14:36:19.993Z</time></trkpt><trkpt lat="43.5189583" lon="12.07572"><ele>354.0</ele><time>2026-04-25T14:36:20.93Z</time></trkpt><trkpt lat="43.5188467" lon="12.0759233"><ele>354.0</ele><time>2026-04-25T14:36:21.934Z</time></trkpt><trkpt lat="43.51874" lon="12.0761183"><ele>354.3333333333333</ele><time>2026-04-25T14:36:22.936Z</time></trkpt><trkpt lat="43.518635" lon="12.0763183"><ele>354.66666666666663</ele><time>2026-04-25T14:36:23.936Z</time></trkpt><trkpt lat="43.51853" lon="12.0765167"><ele>355.0</ele><time>2026-04-25T14:36:24.942Z</time></trkpt><trkpt lat="43.5184267" lon="12.0767133"><ele>355.0</ele><time>2026-04-25T14:36:25.964Z</time></trkpt><trkpt lat="43.518325" lon="12.0769133"><ele>355.0</ele><time>2026-04-25T14:36:26.933Z</time></trkpt><trkpt lat="43.5182217" lon="12.0770883"><ele>355.0</ele><time>2026-04-25T14:36:27.951Z</time></trkpt><trkpt lat="43.5181233" lon="12.07727"><ele>355.25</ele><time>2026-04-25T14:36:28.95Z</time></trkpt><trkpt lat="43.518025" lon="12.0774517"><ele>355.5</ele><time>2026-04-25T14:36:29.955Z</time></trkpt><trkpt lat="43.5179417" lon="12.0776217"><ele>355.75</ele><time>2026-04-25T14:36:30.949Z</time></trkpt><trkpt lat="43.51787" lon="12.0777683"><ele>356.0</ele><time>2026-04-25T14:36:31.952Z</time></trkpt><trkpt lat="43.51781" lon="12.0778817"><ele>355.6</ele><time>2026-04-25T14:36:32.951Z</time></trkpt><trkpt lat="43.5177667" lon="12.07797"><ele>355.20000000000005</ele><time>2026-04-25T14:36:33.951Z</time></trkpt><trkpt lat="43.517725" lon="12.078055"><ele>354.79999999999995</ele><time>2026-04-25T14:36:34.948Z</time></trkpt><trkpt lat="43.51768" lon="12.078155"><ele>354.4</ele><time>2026-04-25T14:36:35.941Z</time></trkpt><trkpt lat="43.5176267" lon="12.0782733"><ele>354.0</ele><time>2026-04-25T14:36:36.949Z</time></trkpt><trkpt lat="43.5175583" lon="12.0784017"><ele>354.0</ele><time>2026-04-25T14:36:38.002Z</time></trkpt><trkpt lat="43.5174817" lon="12.0785317"><ele>354.0</ele><time>2026-04-25T14:36:38.942Z</time></trkpt><trkpt lat="43.5173983" lon="12.0786767"><ele>354.0</ele><time>2026-04-25T14:36:39.951Z</time></trkpt><trkpt lat="43.517315" lon="12.078835"><ele>354.0</ele><time>2026-04-25T14:36:40.947Z</time></trkpt><trkpt lat="43.517225" lon="12.0790067"><ele>355.0</ele><time>2026-04-25T14:36:41.951Z</time></trkpt><trkpt lat="43.5171317" lon="12.0791833"><ele>356.0</ele><time>2026-04-25T14:36:42.953Z</time></trkpt><trkpt lat="43.5170317" lon="12.079365"><ele>357.0</ele><time>2026-04-25T14:36:43.999Z</time></trkpt><trkpt lat="43.5169333" lon="12.079555"><ele>357.0</ele><time>2026-04-25T14:36:44.945Z</time></trkpt><trkpt lat="43.51684" lon="12.0797383"><ele>357.0</ele><time>2026-04-25T14:36:45.949Z</time></trkpt><trkpt lat="43.516745" lon="12.0799233"><ele>357.0</ele><time>2026-04-25T14:36:46.952Z</time></trkpt><trkpt lat="43.5166467" lon="12.0801067"><ele>356.6666666666667</ele><time>2026-04-25T14:36:47.952Z</time></trkpt><trkpt lat="43.5165483" lon="12.0802883"><ele>356.33333333333337</ele><time>2026-04-25T14:36:48.944Z</time></trkpt><trkpt lat="43.51645" lon="12.08046"><ele>356.0</ele><time>2026-04-25T14:36:49.999Z</time></trkpt><trkpt lat="43.5163533" lon="12.0806233"><ele>355.5</ele><time>2026-04-25T14:36:50.944Z</time></trkpt><trkpt lat="43.5162633" lon="12.0807883"><ele>355.0</ele><time>2026-04-25T14:36:51.949Z</time></trkpt><trkpt lat="43.5161833" lon="12.080935"><ele>354.5</ele><time>2026-04-25T14:36:52.952Z</time></trkpt><trkpt lat="43.5161083" lon="12.0810783"><ele>354.0</ele><time>2026-04-25T14:36:53.95Z</time></trkpt><trkpt lat="43.51604" lon="12.08121"><ele>353.6</ele><time>2026-04-25T14:36:54.934Z</time></trkpt><trkpt lat="43.515985" lon="12.081315"><ele>353.2</ele><time>2026-04-25T14:36:56Z</time></trkpt><trkpt lat="43.5159333" lon="12.0814117"><ele>352.8</ele><time>2026-04-25T14:36:56.946Z</time></trkpt><trkpt lat="43.5158683" lon="12.08151"><ele>352.40000000000003</ele><time>2026-04-25T14:36:57.951Z</time></trkpt><trkpt lat="43.515795" lon="12.0815983"><ele>352.0</ele><time>2026-04-25T14:36:58.951Z</time></trkpt><trkpt lat="43.5157083" lon="12.0816833"><ele>352.0</ele><time>2026-04-25T14:36:59.951Z</time></trkpt><trkpt lat="43.5156067" lon="12.0817567"><ele>352.0</ele><time>2026-04-25T14:37:00.952Z</time></trkpt><trkpt lat="43.515495" lon="12.08181"><ele>352.0</ele><time>2026-04-25T14:37:02.001Z</time></trkpt><trkpt lat="43.5153717" lon="12.08184"><ele>352.0</ele><time>2026-04-25T14:37:02.947Z</time></trkpt><trkpt lat="43.5152333" lon="12.0818517"><ele>351.0</ele><time>2026-04-25T14:37:03.95Z</time></trkpt><trkpt lat="43.5150833" lon="12.0818517"><ele>350.0</ele><time>2026-04-25T14:37:04.946Z</time></trkpt><trkpt lat="43.514935" lon="12.0818517"><ele>349.0</ele><time>2026-04-25T14:37:05.932Z</time></trkpt><trkpt lat="43.5147867" lon="12.0818567"><ele>348.0</ele><time>2026-04-25T14:37:06.933Z</time></trkpt><trkpt lat="43.5146333" lon="12.08186"><ele>345.0</ele><time>2026-04-25T14:37:08.002Z</time></trkpt><trkpt lat="43.5144733" lon="12.081865"><ele>342.0</ele><time>2026-04-25T14:37:08.951Z</time></trkpt><trkpt lat="43.5143117" lon="12.081865"><ele>339.0</ele><time>2026-04-25T14:37:09.949Z</time></trkpt><trkpt lat="43.51415" lon="12.081865"><ele>339.0</ele><time>2026-04-25T14:37:10.943Z</time></trkpt><trkpt lat="43.5139883" lon="12.0818817"><ele>339.0</ele><time>2026-04-25T14:37:11.952Z</time></trkpt><trkpt lat="43.513825" lon="12.081925"><ele>339.0</ele><time>2026-04-25T14:37:12.951Z</time></trkpt><trkpt lat="43.513665" lon="12.0819983"><ele>338.0</ele><time>2026-04-25T14:37:14.003Z</time></trkpt><trkpt lat="43.5135117" lon="12.082095"><ele>337.0</ele><time>2026-04-25T14:37:14.946Z</time></trkpt><trkpt lat="43.513365" lon="12.082215"><ele>336.0</ele><time>2026-04-25T14:37:15.956Z</time></trkpt><trkpt lat="43.513225" lon="12.0823533"><ele>336.0</ele><time>2026-04-25T14:37:16.954Z</time></trkpt><trkpt lat="43.5130933" lon="12.082505"><ele>336.0</ele><time>2026-04-25T14:37:17.952Z</time></trkpt><trkpt lat="43.5129633" lon="12.0826783"><ele>336.0</ele><time>2026-04-25T14:37:18.955Z</time></trkpt><trkpt lat="43.5128317" lon="12.082845"><ele>336.0</ele><time>2026-04-25T14:37:19.999Z</time></trkpt><trkpt lat="43.5126983" lon="12.08302"><ele>336.0</ele><time>2026-04-25T14:37:20.945Z</time></trkpt><trkpt lat="43.51257" lon="12.0831917"><ele>336.0</ele><time>2026-04-25T14:37:21.949Z</time></trkpt><trkpt lat="43.51243" lon="12.0833667"><ele>333.0</ele><time>2026-04-25T14:37:22.95Z</time></trkpt><trkpt lat="43.512295" lon="12.0835533"><ele>330.0</ele><time>2026-04-25T14:37:23.942Z</time></trkpt><trkpt lat="43.5121517" lon="12.083735"><ele>327.0</ele><time>2026-04-25T14:37:24.948Z</time></trkpt><trkpt lat="43.511995" lon="12.08391"><ele>324.6666666666667</ele><time>2026-04-25T14:37:26.013Z</time></trkpt><trkpt lat="43.5118267" lon="12.08407"><ele>322.33333333333337</ele><time>2026-04-25T14:37:26.94Z</time></trkpt><trkpt lat="43.5116517" lon="12.0842017"><ele>320.0</ele><time>2026-04-25T14:37:27.948Z</time></trkpt><trkpt lat="43.511465" lon="12.084315"><ele>319.0</ele><time>2026-04-25T14:37:28.945Z</time></trkpt><trkpt lat="43.5112717" lon="12.0844017"><ele>318.0</ele><time>2026-04-25T14:37:29.948Z</time></trkpt><trkpt lat="43.5110667" lon="12.0844583"><ele>317.0</ele><time>2026-04-25T14:37:30.95Z</time></trkpt><trkpt lat="43.51086" lon="12.0844817"><ele>315.0</ele><time>2026-04-25T14:37:32Z</time></trkpt><trkpt lat="43.5106617" lon="12.08447"><ele>313.0</ele><time>2026-04-25T14:37:32.948Z</time></trkpt><trkpt lat="43.5104617" lon="12.0844367"><ele>311.0</ele><time>2026-04-25T14:37:33.952Z</time></trkpt><trkpt lat="43.5102683" lon="12.0844"><ele>311.0</ele><time>2026-04-25T14:37:34.948Z</time></trkpt><trkpt lat="43.5100733" lon="12.084365"><ele>311.0</ele><time>2026-04-25T14:37:35.95Z</time></trkpt><trkpt lat="43.50988" lon="12.08433"><ele>311.0</ele><time>2026-04-25T14:37:36.949Z</time></trkpt><trkpt lat="43.5096917" lon="12.0842933"><ele>310.6666666666667</ele><time>2026-04-25T14:37:38.002Z</time></trkpt><trkpt lat="43.5095083" lon="12.08426"><ele>310.3333333333333</ele><time>2026-04-25T14:37:38.947Z</time></trkpt><trkpt lat="43.509325" lon="12.0842133"><ele>310.0</ele><time>2026-04-25T14:37:39.956Z</time></trkpt><trkpt lat="43.5091417" lon="12.0841533"><ele>310.0</ele><time>2026-04-25T14:37:40.953Z</time></trkpt><trkpt lat="43.5089633" lon="12.0840867"><ele>310.0</ele><time>2026-04-25T14:37:41.953Z</time></trkpt><trkpt lat="43.508785" lon="12.0840183"><ele>310.0</ele><time>2026-04-25T14:37:42.944Z</time></trkpt><trkpt lat="43.50861" lon="12.08395"><ele>310.0</ele><time>2026-04-25T14:37:44.001Z</time></trkpt><trkpt lat="43.5084333" lon="12.0838783"><ele>310.0</ele><time>2026-04-25T14:37:44.947Z</time></trkpt><trkpt lat="43.50826" lon="12.0838117"><ele>310.0</ele><time>2026-04-25T14:37:45.948Z</time></trkpt><trkpt lat="43.5080883" lon="12.0837483"><ele>310.0</ele><time>2026-04-25T14:37:46.953Z</time></trkpt><trkpt lat="43.507915" lon="12.0836867"><ele>310.0</ele><time>2026-04-25T14:37:47.95Z</time></trkpt><trkpt lat="43.50775" lon="12.0836217"><ele>310.0</ele><time>2026-04-25T14:37:48.952Z</time></trkpt><trkpt lat="43.5075833" lon="12.0835617"><ele>309.3333333333333</ele><time>2026-04-25T14:37:50.003Z</time></trkpt><trkpt lat="43.50742" lon="12.0835"><ele>308.6666666666667</ele><time>2026-04-25T14:37:50.943Z</time></trkpt><trkpt lat="43.50726" lon="12.0834383"><ele>308.0</ele><time>2026-04-25T14:37:51.951Z</time></trkpt><trkpt lat="43.5071017" lon="12.0833767"><ele>308.0</ele><time>2026-04-25T14:37:52.941Z</time></trkpt><trkpt lat="43.50695" lon="12.0833167"><ele>308.0</ele><time>2026-04-25T14:37:53.938Z</time></trkpt><trkpt lat="43.506795" lon="12.0832583"><ele>308.0</ele><time>2026-04-25T14:37:54.94Z</time></trkpt><trkpt lat="43.5066417" lon="12.0831983"><ele>308.33333333333337</ele><time>2026-04-25T14:37:55.998Z</time></trkpt><trkpt lat="43.50649" lon="12.08314"><ele>308.6666666666667</ele><time>2026-04-25T14:37:56.944Z</time></trkpt><trkpt lat="43.5063417" lon="12.0830817"><ele>309.0</ele><time>2026-04-25T14:37:57.951Z</time></trkpt><trkpt lat="43.506195" lon="12.0830283"><ele>309.25</ele><time>2026-04-25T14:37:58.952Z</time></trkpt><trkpt lat="43.506055" lon="12.082975"><ele>309.5</ele><time>2026-04-25T14:37:59.951Z</time></trkpt><trkpt lat="43.5059117" lon="12.0829183"><ele>309.75</ele><time>2026-04-25T14:38:00.953Z</time></trkpt><trkpt lat="43.50577" lon="12.082865"><ele>310.0</ele><time>2026-04-25T14:38:02.004Z</time></trkpt><trkpt lat="43.50563" lon="12.0828133"><ele>310.0</ele><time>2026-04-25T14:38:02.955Z</time></trkpt><trkpt lat="43.5054917" lon="12.082765"><ele>310.0</ele><time>2026-04-25T14:38:03.949Z</time></trkpt><trkpt lat="43.5053533" lon="12.082715"><ele>310.0</ele><time>2026-04-25T14:38:04.953Z</time></trkpt><trkpt lat="43.5052167" lon="12.082665"><ele>310.0</ele><time>2026-04-25T14:38:05.946Z</time></trkpt><trkpt lat="43.505075" lon="12.082615"><ele>310.0</ele><time>2026-04-25T14:38:06.951Z</time></trkpt><trkpt lat="43.5049333" lon="12.08256"><ele>310.0</ele><time>2026-04-25T14:38:08.003Z</time></trkpt><trkpt lat="43.5047933" lon="12.0825083"><ele>310.0</ele><time>2026-04-25T14:38:08.947Z</time></trkpt><trkpt lat="43.5046517" lon="12.0824567"><ele>310.0</ele><time>2026-04-25T14:38:09.951Z</time></trkpt><trkpt lat="43.504505" lon="12.0823983"><ele>309.66666666666663</ele><time>2026-04-25T14:38:10.951Z</time></trkpt><trkpt lat="43.5043567" lon="12.08234"><ele>309.3333333333333</ele><time>2026-04-25T14:38:11.953Z</time></trkpt><trkpt lat="43.5042083" lon="12.082285"><ele>309.0</ele><time>2026-04-25T14:38:12.954Z</time></trkpt><trkpt lat="43.50406" lon="12.0822283"><ele>309.0</ele><time>2026-04-25T14:38:13.994Z</time></trkpt><trkpt lat="43.5039167" lon="12.0821717"><ele>309.0</ele><time>2026-04-25T14:38:14.948Z</time></trkpt><trkpt lat="43.503765" lon="12.0821133"><ele>309.0</ele><time>2026-04-25T14:38:15.953Z</time></trkpt><trkpt lat="43.5036167" lon="12.0820567"><ele>309.0</ele><time>2026-04-25T14:38:16.949Z</time></trkpt><trkpt lat="43.5034683" lon="12.0819983"><ele>309.0</ele><time>2026-04-25T14:38:17.943Z</time></trkpt><trkpt lat="43.50332" lon="12.0819433"><ele>309.0</ele><time>2026-04-25T14:38:18.951Z</time></trkpt><trkpt lat="43.5031717" lon="12.0818917"><ele>309.0</ele><time>2026-04-25T14:38:20.004Z</time></trkpt><trkpt lat="43.50303" lon="12.0818467"><ele>309.0</ele><time>2026-04-25T14:38:20.946Z</time></trkpt><trkpt lat="43.5028833" lon="12.0818117"><ele>309.0</ele><time>2026-04-25T14:38:21.95Z</time></trkpt><trkpt lat="43.5027367" lon="12.081795"><ele>309.0</ele><time>2026-04-25T14:38:22.954Z</time></trkpt><trkpt lat="43.50259" lon="12.0817933"><ele>309.5</ele><time>2026-04-25T14:38:23.95Z</time></trkpt><trkpt lat="43.5024417" lon="12.08181"><ele>310.0</ele><time>2026-04-25T14:38:24.954Z</time></trkpt><trkpt lat="43.5022967" lon="12.0818417"><ele>310.5</ele><time>2026-04-25T14:38:25.97Z</time></trkpt><trkpt lat="43.5021583" lon="12.081885"><ele>311.0</ele><time>2026-04-25T14:38:26.953Z</time></trkpt><trkpt lat="43.50202" lon="12.0819417"><ele>311.0</ele><time>2026-04-25T14:38:27.955Z</time></trkpt><trkpt lat="43.501885" lon="12.0820117"><ele>311.0</ele><time>2026-04-25T14:38:28.954Z</time></trkpt><trkpt lat="43.5017517" lon="12.08209"><ele>311.0</ele><time>2026-04-25T14:38:29.955Z</time></trkpt><trkpt lat="43.5016283" lon="12.0821783"><ele>311.0</ele><time>2026-04-25T14:38:30.952Z</time></trkpt><trkpt lat="43.50151" lon="12.0822767"><ele>311.0</ele><time>2026-04-25T14:38:32.001Z</time></trkpt><trkpt lat="43.5013933" lon="12.0823867"><ele>311.0</ele><time>2026-04-25T14:38:32.955Z</time></trkpt><trkpt lat="43.501285" lon="12.0825067"><ele>311.0</ele><time>2026-04-25T14:38:33.952Z</time></trkpt><trkpt lat="43.5011867" lon="12.0826317"><ele>311.0</ele><time>2026-04-25T14:38:34.952Z</time></trkpt><trkpt lat="43.5010917" lon="12.0827567"><ele>313.25</ele><time>2026-04-25T14:38:35.953Z</time></trkpt><trkpt lat="43.501" lon="12.0828733"><ele>315.5</ele><time>2026-04-25T14:38:36.95Z</time></trkpt><trkpt lat="43.50091" lon="12.0829983"><ele>317.75</ele><time>2026-04-25T14:38:38.001Z</time></trkpt><trkpt lat="43.500825" lon="12.0831283"><ele>320.0</ele><time>2026-04-25T14:38:38.947Z</time></trkpt><trkpt lat="43.50074" lon="12.083255"><ele>320.0</ele><time>2026-04-25T14:38:39.955Z</time></trkpt><trkpt lat="43.5006583" lon="12.0833817"><ele>320.0</ele><time>2026-04-25T14:38:40.954Z</time></trkpt><trkpt lat="43.5005767" lon="12.0835033"><ele>320.0</ele><time>2026-04-25T14:38:41.954Z</time></trkpt><trkpt lat="43.5005033" lon="12.0836133"><ele>320.0</ele><time>2026-04-25T14:38:42.949Z</time></trkpt><trkpt lat="43.500435" lon="12.0837117"><ele>323.0</ele><time>2026-04-25T14:38:43.996Z</time></trkpt><trkpt lat="43.5003667" lon="12.0838083"><ele>326.0</ele><time>2026-04-25T14:38:44.947Z</time></trkpt><trkpt lat="43.5002933" lon="12.083915"><ele>329.0</ele><time>2026-04-25T14:38:45.951Z</time></trkpt><trkpt lat="43.5002167" lon="12.084025"><ele>332.0</ele><time>2026-04-25T14:38:46.943Z</time></trkpt><trkpt lat="43.5001383" lon="12.0841417"><ele>335.0</ele><time>2026-04-25T14:38:47.953Z</time></trkpt><trkpt lat="43.500065" lon="12.0842533"><ele>335.0</ele><time>2026-04-25T14:38:48.953Z</time></trkpt><trkpt lat="43.49999" lon="12.0843683"><ele>335.0</ele><time>2026-04-25T14:38:49.999Z</time></trkpt><trkpt lat="43.4999117" lon="12.084475"><ele>335.0</ele><time>2026-04-25T14:38:50.948Z</time></trkpt><trkpt lat="43.499825" lon="12.0845717"><ele>335.0</ele><time>2026-04-25T14:38:51.954Z</time></trkpt><trkpt lat="43.4997367" lon="12.0846533"><ele>335.0</ele><time>2026-04-25T14:38:52.947Z</time></trkpt><trkpt lat="43.499655" lon="12.0847233"><ele>335.1666666666667</ele><time>2026-04-25T14:38:53.953Z</time></trkpt><trkpt lat="43.4995783" lon="12.0847833"><ele>335.33333333333337</ele><time>2026-04-25T14:38:54.951Z</time></trkpt><trkpt lat="43.4995117" lon="12.08483"><ele>335.5</ele><time>2026-04-25T14:38:56.014Z</time></trkpt><trkpt lat="43.4994267" lon="12.08488"><ele>335.6666666666667</ele><time>2026-04-25T14:38:57.953Z</time></trkpt><trkpt lat="43.4993567" lon="12.08492"><ele>335.8333333333333</ele><time>2026-04-25T14:39:00.943Z</time></trkpt><trkpt lat="43.499295" lon="12.08495"><ele>336.0</ele><time>2026-04-25T14:39:02.002Z</time></trkpt><trkpt lat="43.4991917" lon="12.084985"><ele>336.0</ele><time>2026-04-25T14:39:03.953Z</time></trkpt><trkpt lat="43.4990917" lon="12.08501"><ele>336.0</ele><time>2026-04-25T14:39:05.951Z</time></trkpt><trkpt lat="43.4990183" lon="12.08502"><ele>336.0</ele><time>2026-04-25T14:39:06.952Z</time></trkpt><trkpt lat="43.4989283" lon="12.0850183"><ele>336.0</ele><time>2026-04-25T14:39:08.001Z</time></trkpt><trkpt lat="43.4988283" lon="12.08501"><ele>336.0</ele><time>2026-04-25T14:39:08.946Z</time></trkpt><trkpt lat="43.49873" lon="12.0849967"><ele>337.0</ele><time>2026-04-25T14:39:09.955Z</time></trkpt><trkpt lat="43.4986433" lon="12.0849833"><ele>338.0</ele><time>2026-04-25T14:39:10.94Z</time></trkpt><trkpt lat="43.49856" lon="12.0849683"><ele>339.0</ele><time>2026-04-25T14:39:11.949Z</time></trkpt><trkpt lat="43.4984683" lon="12.084945"><ele>340.0</ele><time>2026-04-25T14:39:12.952Z</time></trkpt><trkpt lat="43.4983717" lon="12.084905"><ele>341.0</ele><time>2026-04-25T14:39:14.004Z</time></trkpt><trkpt lat="43.498265" lon="12.0848567"><ele>342.0</ele><time>2026-04-25T14:39:14.956Z</time></trkpt><trkpt lat="43.4981467" lon="12.084805"><ele>343.0</ele><time>2026-04-25T14:39:15.951Z</time></trkpt><trkpt lat="43.4980233" lon="12.0847383"><ele>344.0</ele><time>2026-04-25T14:39:16.954Z</time></trkpt><trkpt lat="43.4978933" lon="12.0846767"><ele>345.0</ele><time>2026-04-25T14:39:17.955Z</time></trkpt><trkpt lat="43.4977667" lon="12.08462"><ele>345.0</ele><time>2026-04-25T14:39:18.95Z</time></trkpt><trkpt lat="43.4976417" lon="12.08456"><ele>345.0</ele><time>2026-04-25T14:39:19.997Z</time></trkpt><trkpt lat="43.4975233" lon="12.08449"><ele>345.0</ele><time>2026-04-25T14:39:20.954Z</time></trkpt><trkpt lat="43.49741" lon="12.084405"><ele>345.0</ele><time>2026-04-25T14:39:21.951Z</time></trkpt><trkpt lat="43.49729" lon="12.08431"><ele>345.0</ele><time>2026-04-25T14:39:22.953Z</time></trkpt><trkpt lat="43.4971667" lon="12.0842033"><ele>345.0</ele><time>2026-04-25T14:39:23.956Z</time></trkpt><trkpt lat="43.497045" lon="12.084085"><ele>345.0</ele><time>2026-04-25T14:39:24.953Z</time></trkpt><trkpt lat="43.4969233" lon="12.0839717"><ele>345.0</ele><time>2026-04-25T14:39:26.012Z</time></trkpt><trkpt lat="43.4967983" lon="12.0838517"><ele>341.6666666666667</ele><time>2026-04-25T14:39:26.946Z</time></trkpt><trkpt lat="43.49667" lon="12.0837383"><ele>338.33333333333337</ele><time>2026-04-25T14:39:27.949Z</time></trkpt><trkpt lat="43.4965317" lon="12.0836333"><ele>335.0</ele><time>2026-04-25T14:39:28.955Z</time></trkpt><trkpt lat="43.496385" lon="12.083535"><ele>332.0</ele><time>2026-04-25T14:39:29.955Z</time></trkpt><trkpt lat="43.4962367" lon="12.0834517"><ele>329.0</ele><time>2026-04-25T14:39:30.952Z</time></trkpt><trkpt lat="43.4960817" lon="12.0833683"><ele>326.0</ele><time>2026-04-25T14:39:31.981Z</time></trkpt><trkpt lat="43.495925" lon="12.083295"><ele>328.6666666666667</ele><time>2026-04-25T14:39:32.944Z</time></trkpt><trkpt lat="43.4957717" lon="12.0832283"><ele>331.3333333333333</ele><time>2026-04-25T14:39:33.95Z</time></trkpt><trkpt lat="43.4956067" lon="12.0831567"><ele>334.0</ele><time>2026-04-25T14:39:34.924Z</time></trkpt><trkpt lat="43.4954433" lon="12.0830883"><ele>331.3333333333333</ele><time>2026-04-25T14:39:35.919Z</time></trkpt><trkpt lat="43.4952783" lon="12.0830217"><ele>328.6666666666667</ele><time>2026-04-25T14:39:36.936Z</time></trkpt><trkpt lat="43.49511" lon="12.0829617"><ele>326.0</ele><time>2026-04-25T14:39:37.984Z</time></trkpt><trkpt lat="43.494935" lon="12.0828983"><ele>326.0</ele><time>2026-04-25T14:39:38.931Z</time></trkpt><trkpt lat="43.494765" lon="12.0828283"><ele>326.0</ele><time>2026-04-25T14:39:39.929Z</time></trkpt><trkpt lat="43.494595" lon="12.08276"><ele>326.0</ele><time>2026-04-25T14:39:40.935Z</time></trkpt><trkpt lat="43.494435" lon="12.0826933"><ele>324.6666666666667</ele><time>2026-04-25T14:39:41.926Z</time></trkpt><trkpt lat="43.4942717" lon="12.08262"><ele>323.3333333333333</ele><time>2026-04-25T14:39:42.936Z</time></trkpt><trkpt lat="43.494115" lon="12.08255"><ele>322.0</ele><time>2026-04-25T14:39:43.954Z</time></trkpt><trkpt lat="43.4939617" lon="12.0824767"><ele>325.0</ele><time>2026-04-25T14:39:44.924Z</time></trkpt><trkpt lat="43.4938117" lon="12.0824033"><ele>328.0</ele><time>2026-04-25T14:39:45.926Z</time></trkpt><trkpt lat="43.4936633" lon="12.0823267"><ele>331.0</ele><time>2026-04-25T14:39:46.934Z</time></trkpt><trkpt lat="43.4934967" lon="12.0822433"><ele>331.0</ele><time>2026-04-25T14:39:47.951Z</time></trkpt><trkpt lat="43.4933417" lon="12.0821583"><ele>331.0</ele><time>2026-04-25T14:39:48.938Z</time></trkpt><trkpt lat="43.4931967" lon="12.082055"><ele>331.0</ele><time>2026-04-25T14:39:49.988Z</time></trkpt><trkpt lat="43.49306" lon="12.0819283"><ele>331.0</ele><time>2026-04-25T14:39:50.943Z</time></trkpt><trkpt lat="43.49293" lon="12.08178"><ele>331.0</ele><time>2026-04-25T14:39:51.95Z</time></trkpt><trkpt lat="43.492815" lon="12.0816217"><ele>331.0</ele><time>2026-04-25T14:39:52.951Z</time></trkpt><trkpt lat="43.4927033" lon="12.0814483"><ele>327.66666666666663</ele><time>2026-04-25T14:39:53.942Z</time></trkpt><trkpt lat="43.4925967" lon="12.0812667"><ele>324.3333333333333</ele><time>2026-04-25T14:39:54.954Z</time></trkpt><trkpt lat="43.4924933" lon="12.0810683"><ele>321.0</ele><time>2026-04-25T14:39:55.996Z</time></trkpt><trkpt lat="43.492385" lon="12.0808833"><ele>321.6666666666667</ele><time>2026-04-25T14:39:56.944Z</time></trkpt><trkpt lat="43.4922733" lon="12.0807"><ele>322.33333333333337</ele><time>2026-04-25T14:39:57.948Z</time></trkpt><trkpt lat="43.4921567" lon="12.0805233"><ele>323.0</ele><time>2026-04-25T14:39:58.954Z</time></trkpt><trkpt lat="43.4920383" lon="12.0803633"><ele>323.0</ele><time>2026-04-25T14:39:59.94Z</time></trkpt><trkpt lat="43.4919133" lon="12.0802183"><ele>323.0</ele><time>2026-04-25T14:40:00.935Z</time></trkpt><trkpt lat="43.4917833" lon="12.08009"><ele>323.0</ele><time>2026-04-25T14:40:01.972Z</time></trkpt><trkpt lat="43.491645" lon="12.07997"><ele>324.0</ele><time>2026-04-25T14:40:02.95Z</time></trkpt><trkpt lat="43.4914983" lon="12.0798567"><ele>325.0</ele><time>2026-04-25T14:40:03.948Z</time></trkpt><trkpt lat="43.4913433" lon="12.0797583"><ele>326.0</ele><time>2026-04-25T14:40:04.949Z</time></trkpt><trkpt lat="43.4911883" lon="12.0796717"><ele>323.33333333333337</ele><time>2026-04-25T14:40:05.951Z</time></trkpt><trkpt lat="43.491035" lon="12.0795967"><ele>320.6666666666667</ele><time>2026-04-25T14:40:06.949Z</time></trkpt><trkpt lat="43.4908733" lon="12.0795333"><ele>318.0</ele><time>2026-04-25T14:40:08Z</time></trkpt><trkpt lat="43.49071" lon="12.0794783"><ele>318.0</ele><time>2026-04-25T14:40:08.948Z</time></trkpt><trkpt lat="43.4905483" lon="12.0794317"><ele>318.0</ele><time>2026-04-25T14:40:09.951Z</time></trkpt><trkpt lat="43.490385" lon="12.07939"><ele>318.0</ele><time>2026-04-25T14:40:10.921Z</time></trkpt><trkpt lat="43.4902283" lon="12.079345"><ele>318.6666666666667</ele><time>2026-04-25T14:40:11.949Z</time></trkpt><trkpt lat="43.4900633" lon="12.0793033"><ele>319.33333333333337</ele><time>2026-04-25T14:40:12.95Z</time></trkpt><trkpt lat="43.4899017" lon="12.0792633"><ele>320.0</ele><time>2026-04-25T14:40:13.999Z</time></trkpt><trkpt lat="43.4897383" lon="12.079225"><ele>321.0</ele><time>2026-04-25T14:40:14.946Z</time></trkpt><trkpt lat="43.4895767" lon="12.0791933"><ele>322.0</ele><time>2026-04-25T14:40:15.943Z</time></trkpt><trkpt lat="43.4894217" lon="12.0791567"><ele>323.0</ele><time>2026-04-25T14:40:16.952Z</time></trkpt><trkpt lat="43.4892733" lon="12.0791283"><ele>323.0</ele><time>2026-04-25T14:40:17.938Z</time></trkpt><trkpt lat="43.4891217" lon="12.0790967"><ele>323.0</ele><time>2026-04-25T14:40:18.935Z</time></trkpt><trkpt lat="43.4889683" lon="12.0790933"><ele>323.0</ele><time>2026-04-25T14:40:20.004Z</time></trkpt><trkpt lat="43.4888183" lon="12.0791067"><ele>325.0</ele><time>2026-04-25T14:40:20.948Z</time></trkpt><trkpt lat="43.48867" lon="12.0791317"><ele>327.0</ele><time>2026-04-25T14:40:21.951Z</time></trkpt><trkpt lat="43.4885233" lon="12.0791683"><ele>329.0</ele><time>2026-04-25T14:40:22.958Z</time></trkpt><trkpt lat="43.48839" lon="12.0792167"><ele>331.0</ele><time>2026-04-25T14:40:23.956Z</time></trkpt><trkpt lat="43.48826" lon="12.079275"><ele>331.0</ele><time>2026-04-25T14:40:24.956Z</time></trkpt><trkpt lat="43.4881367" lon="12.0793433"><ele>331.0</ele><time>2026-04-25T14:40:26.012Z</time></trkpt><trkpt lat="43.4880183" lon="12.0794183"><ele>331.0</ele><time>2026-04-25T14:40:26.947Z</time></trkpt><trkpt lat="43.48791" lon="12.079495"><ele>331.0</ele><time>2026-04-25T14:40:27.952Z</time></trkpt><trkpt lat="43.487795" lon="12.0795783"><ele>332.25</ele><time>2026-04-25T14:40:28.95Z</time></trkpt><trkpt lat="43.4876767" lon="12.0796617"><ele>333.5</ele><time>2026-04-25T14:40:29.957Z</time></trkpt><trkpt lat="43.4875567" lon="12.0797367"><ele>334.75</ele><time>2026-04-25T14:40:30.953Z</time></trkpt><trkpt lat="43.4874317" lon="12.0797967"><ele>336.0</ele><time>2026-04-25T14:40:31.981Z</time></trkpt><trkpt lat="43.4872983" lon="12.0798333"><ele>336.0</ele><time>2026-04-25T14:40:32.956Z</time></trkpt><trkpt lat="43.487165" lon="12.0798483"><ele>336.0</ele><time>2026-04-25T14:40:33.95Z</time></trkpt><trkpt lat="43.487025" lon="12.07983"><ele>336.0</ele><time>2026-04-25T14:40:34.957Z</time></trkpt><trkpt lat="43.4868933" lon="12.0797833"><ele>336.0</ele><time>2026-04-25T14:40:35.954Z</time></trkpt><trkpt lat="43.486765" lon="12.0797117"><ele>332.75</ele><time>2026-04-25T14:40:36.953Z</time></trkpt><trkpt lat="43.4866467" lon="12.079615"><ele>329.5</ele><time>2026-04-25T14:40:38.005Z</time></trkpt><trkpt lat="43.4865333" lon="12.0794867"><ele>326.25</ele><time>2026-04-25T14:40:38.945Z</time></trkpt><trkpt lat="43.4864183" lon="12.079345"><ele>323.0</ele><time>2026-04-25T14:40:39.95Z</time></trkpt><trkpt lat="43.4863017" lon="12.0792"><ele>322.0</ele><time>2026-04-25T14:40:40.953Z</time></trkpt><trkpt lat="43.4861817" lon="12.0790633"><ele>321.0</ele><time>2026-04-25T14:40:41.952Z</time></trkpt><trkpt lat="43.4860683" lon="12.0789367"><ele>320.0</ele><time>2026-04-25T14:40:42.953Z</time></trkpt><trkpt lat="43.4859583" lon="12.0788267"><ele>319.0</ele><time>2026-04-25T14:40:44Z</time></trkpt><trkpt lat="43.4858567" lon="12.078735"><ele>319.0</ele><time>2026-04-25T14:40:44.945Z</time></trkpt><trkpt lat="43.48575" lon="12.0786583"><ele>319.0</ele><time>2026-04-25T14:40:45.951Z</time></trkpt><trkpt lat="43.485645" lon="12.078595"><ele>319.0</ele><time>2026-04-25T14:40:46.956Z</time></trkpt><trkpt lat="43.4855533" lon="12.07854"><ele>319.0</ele><time>2026-04-25T14:40:47.954Z</time></trkpt><trkpt lat="43.485465" lon="12.0784883"><ele>319.0</ele><time>2026-04-25T14:40:48.953Z</time></trkpt><trkpt lat="43.4853883" lon="12.0784517"><ele>317.0</ele><time>2026-04-25T14:40:50.01Z</time></trkpt><trkpt lat="43.4853267" lon="12.0784167"><ele>315.0</ele><time>2026-04-25T14:40:50.952Z</time></trkpt><trkpt lat="43.485235" lon="12.0783983"><ele>313.0</ele><time>2026-04-25T14:40:52.956Z</time></trkpt><trkpt lat="43.4851517" lon="12.0784967"><ele>311.0</ele><time>2026-04-25T14:40:55.974Z</time></trkpt><trkpt lat="43.485165" lon="12.07868"><ele>309.0</ele><time>2026-04-25T14:40:57.951Z</time></trkpt><trkpt lat="43.4851867" lon="12.07879"><ele>309.0</ele><time>2026-04-25T14:40:58.953Z</time></trkpt><trkpt lat="43.485215" lon="12.0789"><ele>309.0</ele><time>2026-04-25T14:40:59.953Z</time></trkpt><trkpt lat="43.48525" lon="12.0790067"><ele>309.0</ele><time>2026-04-25T14:41:00.953Z</time></trkpt><trkpt lat="43.4852967" lon="12.0791167"><ele>309.0</ele><time>2026-04-25T14:41:01.988Z</time></trkpt><trkpt lat="43.4853533" lon="12.0792333"><ele>309.0</ele><time>2026-04-25T14:41:02.955Z</time></trkpt><trkpt lat="43.4854167" lon="12.0793533"><ele>309.75</ele><time>2026-04-25T14:41:03.95Z</time></trkpt><trkpt lat="43.48548" lon="12.0794783"><ele>310.5</ele><time>2026-04-25T14:41:04.952Z</time></trkpt><trkpt lat="43.485575" lon="12.07962"><ele>311.25</ele><time>2026-04-25T14:41:05.953Z</time></trkpt><trkpt lat="43.4856767" lon="12.0797567"><ele>312.0</ele><time>2026-04-25T14:41:06.954Z</time></trkpt><trkpt lat="43.485775" lon="12.07989"><ele>311.25</ele><time>2026-04-25T14:41:08.006Z</time></trkpt><trkpt lat="43.4858767" lon="12.080025"><ele>310.5</ele><time>2026-04-25T14:41:08.95Z</time></trkpt><trkpt lat="43.4859783" lon="12.080165"><ele>309.75</ele><time>2026-04-25T14:41:09.951Z</time></trkpt><trkpt lat="43.4860783" lon="12.0803133"><ele>309.0</ele><time>2026-04-25T14:41:10.954Z</time></trkpt><trkpt lat="43.4861667" lon="12.0804633"><ele>309.0</ele><time>2026-04-25T14:41:11.954Z</time></trkpt><trkpt lat="43.48625" lon="12.0806217"><ele>309.0</ele><time>2026-04-25T14:41:12.952Z</time></trkpt><trkpt lat="43.4863283" lon="12.08078"><ele>309.0</ele><time>2026-04-25T14:41:14.002Z</time></trkpt><trkpt lat="43.4864033" lon="12.080945"><ele>309.0</ele><time>2026-04-25T14:41:14.949Z</time></trkpt><trkpt lat="43.48648" lon="12.0811067"><ele>308.5</ele><time>2026-04-25T14:41:15.954Z</time></trkpt><trkpt lat="43.486555" lon="12.0812767"><ele>308.0</ele><time>2026-04-25T14:41:16.955Z</time></trkpt><trkpt lat="43.4866317" lon="12.08145"><ele>307.5</ele><time>2026-04-25T14:41:17.956Z</time></trkpt><trkpt lat="43.48671" lon="12.0816217"><ele>307.0</ele><time>2026-04-25T14:41:18.955Z</time></trkpt><trkpt lat="43.486785" lon="12.0817933"><ele>306.66666666666663</ele><time>2026-04-25T14:41:19.993Z</time></trkpt><trkpt lat="43.4868633" lon="12.0819667"><ele>306.3333333333333</ele><time>2026-04-25T14:41:20.934Z</time></trkpt><trkpt lat="43.4869433" lon="12.0821533"><ele>306.0</ele><time>2026-04-25T14:41:21.938Z</time></trkpt><trkpt lat="43.4870267" lon="12.0823367"><ele>307.6666666666667</ele><time>2026-04-25T14:41:22.94Z</time></trkpt><trkpt lat="43.4871133" lon="12.0825133"><ele>309.33333333333337</ele><time>2026-04-25T14:41:23.956Z</time></trkpt><trkpt lat="43.4872083" lon="12.082685"><ele>311.0</ele><time>2026-04-25T14:41:24.955Z</time></trkpt><trkpt lat="43.487305" lon="12.0828583"><ele>311.0</ele><time>2026-04-25T14:41:26.015Z</time></trkpt><trkpt lat="43.4873917" lon="12.083025"><ele>311.0</ele><time>2026-04-25T14:41:26.954Z</time></trkpt><trkpt lat="43.48747" lon="12.0832"><ele>311.0</ele><time>2026-04-25T14:41:27.956Z</time></trkpt><trkpt lat="43.4875317" lon="12.08339"><ele>311.0</ele><time>2026-04-25T14:41:28.955Z</time></trkpt><trkpt lat="43.487585" lon="12.0835917"><ele>309.6666666666667</ele><time>2026-04-25T14:41:29.955Z</time></trkpt><trkpt lat="43.487635" lon="12.0837917"><ele>308.3333333333333</ele><time>2026-04-25T14:41:30.953Z</time></trkpt><trkpt lat="43.48768" lon="12.0840033"><ele>307.0</ele><time>2026-04-25T14:41:32.009Z</time></trkpt><trkpt lat="43.487715" lon="12.0842167"><ele>306.3333333333333</ele><time>2026-04-25T14:41:32.948Z</time></trkpt><trkpt lat="43.4877417" lon="12.0844367"><ele>305.6666666666667</ele><time>2026-04-25T14:41:33.95Z</time></trkpt><trkpt lat="43.4877633" lon="12.0846617"><ele>305.0</ele><time>2026-04-25T14:41:34.938Z</time></trkpt><trkpt lat="43.48778" lon="12.0848867"><ele>305.0</ele><time>2026-04-25T14:41:35.956Z</time></trkpt><trkpt lat="43.4877983" lon="12.0851117"><ele>305.0</ele><time>2026-04-25T14:41:36.955Z</time></trkpt><trkpt lat="43.4878167" lon="12.0853383"><ele>305.0</ele><time>2026-04-25T14:41:37.996Z</time></trkpt><trkpt lat="43.4878317" lon="12.0855683"><ele>304.6666666666667</ele><time>2026-04-25T14:41:38.953Z</time></trkpt><trkpt lat="43.48784" lon="12.0857967"><ele>304.3333333333333</ele><time>2026-04-25T14:41:39.954Z</time></trkpt><trkpt lat="43.4878433" lon="12.0860267"><ele>304.0</ele><time>2026-04-25T14:41:40.956Z</time></trkpt><trkpt lat="43.4878433" lon="12.0862517"><ele>304.0</ele><time>2026-04-25T14:41:41.953Z</time></trkpt><trkpt lat="43.4878433" lon="12.0864817"><ele>304.0</ele><time>2026-04-25T14:41:42.941Z</time></trkpt><trkpt lat="43.4878433" lon="12.0867117"><ele>304.0</ele><time>2026-04-25T14:41:43.994Z</time></trkpt><trkpt lat="43.4878417" lon="12.0869417"><ele>304.0</ele><time>2026-04-25T14:41:44.939Z</time></trkpt><trkpt lat="43.4878383" lon="12.0871733"><ele>304.0</ele><time>2026-04-25T14:41:45.943Z</time></trkpt><trkpt lat="43.48784" lon="12.0874017"><ele>304.0</ele><time>2026-04-25T14:41:46.941Z</time></trkpt><trkpt lat="43.4878383" lon="12.0876283"><ele>304.0</ele><time>2026-04-25T14:41:47.938Z</time></trkpt><trkpt lat="43.4878367" lon="12.0878517"><ele>304.0</ele><time>2026-04-25T14:41:48.939Z</time></trkpt><trkpt lat="43.48784" lon="12.0880683"><ele>304.0</ele><time>2026-04-25T14:41:49.988Z</time></trkpt><trkpt lat="43.4878483" lon="12.088285"><ele>304.3333333333333</ele><time>2026-04-25T14:41:50.938Z</time></trkpt><trkpt lat="43.4878567" lon="12.0884967"><ele>304.6666666666667</ele><time>2026-04-25T14:41:51.936Z</time></trkpt><trkpt lat="43.4878667" lon="12.0887117"><ele>305.0</ele><time>2026-04-25T14:41:52.955Z</time></trkpt><trkpt lat="43.48788" lon="12.0889167"><ele>305.0</ele><time>2026-04-25T14:41:53.958Z</time></trkpt><trkpt lat="43.4878933" lon="12.0891167"><ele>305.0</ele><time>2026-04-25T14:41:54.953Z</time></trkpt><trkpt lat="43.4879067" lon="12.0893167"><ele>305.0</ele><time>2026-04-25T14:41:56.015Z</time></trkpt><trkpt lat="43.4879167" lon="12.089515"><ele>305.0</ele><time>2026-04-25T14:41:56.946Z</time></trkpt><trkpt lat="43.4879267" lon="12.0897017"><ele>306.0</ele><time>2026-04-25T14:41:57.954Z</time></trkpt><trkpt lat="43.48794" lon="12.0898933"><ele>307.0</ele><time>2026-04-25T14:41:58.953Z</time></trkpt><trkpt lat="43.4879567" lon="12.0900833"><ele>308.0</ele><time>2026-04-25T14:41:59.953Z</time></trkpt><trkpt lat="43.4879717" lon="12.09027"><ele>309.0</ele><time>2026-04-25T14:42:00.954Z</time></trkpt><trkpt lat="43.4879883" lon="12.0904533"><ele>309.0</ele><time>2026-04-25T14:42:02.004Z</time></trkpt><trkpt lat="43.488" lon="12.0906283"><ele>309.0</ele><time>2026-04-25T14:42:02.955Z</time></trkpt><trkpt lat="43.4880133" lon="12.090805"><ele>309.0</ele><time>2026-04-25T14:42:03.951Z</time></trkpt><trkpt lat="43.488025" lon="12.0909783"><ele>309.0</ele><time>2026-04-25T14:42:04.954Z</time></trkpt><trkpt lat="43.4880367" lon="12.0911317"><ele>309.0</ele><time>2026-04-25T14:42:05.956Z</time></trkpt><trkpt lat="43.4880483" lon="12.09127"><ele>309.0</ele><time>2026-04-25T14:42:06.956Z</time></trkpt><trkpt lat="43.4880567" lon="12.09138"><ele>309.0</ele><time>2026-04-25T14:42:08.011Z</time></trkpt><trkpt lat="43.4880633" lon="12.0914667"><ele>309.0</ele><time>2026-04-25T14:42:08.949Z</time></trkpt><trkpt lat="43.4880633" lon="12.0915767"><ele>309.0</ele><time>2026-04-25T14:42:10.953Z</time></trkpt><trkpt lat="43.4880067" lon="12.0916467"><ele>309.0</ele><time>2026-04-25T14:42:13.999Z</time></trkpt><trkpt lat="43.4879433" lon="12.0916817"><ele>308.0</ele><time>2026-04-25T14:42:14.942Z</time></trkpt><trkpt lat="43.4878267" lon="12.091665"><ele>307.0</ele><time>2026-04-25T14:42:16.954Z</time></trkpt><trkpt lat="43.4877617" lon="12.091665"><ele>306.0</ele><time>2026-04-25T14:42:17.951Z</time></trkpt><trkpt lat="43.4876433" lon="12.0916783"><ele>305.0</ele><time>2026-04-25T14:42:20.012Z</time></trkpt><trkpt lat="43.48753" lon="12.091695"><ele>304.0</ele><time>2026-04-25T14:42:21.955Z</time></trkpt><trkpt lat="43.48745" lon="12.0917217"><ele>304.0</ele><time>2026-04-25T14:42:23.935Z</time></trkpt><trkpt lat="43.4873867" lon="12.091785"><ele>304.0</ele><time>2026-04-25T14:42:25.998Z</time></trkpt><trkpt lat="43.4873567" lon="12.0919167"><ele>304.0</ele><time>2026-04-25T14:42:27.949Z</time></trkpt><trkpt lat="43.4873683" lon="12.0920933"><ele>304.0</ele><time>2026-04-25T14:42:29.955Z</time></trkpt><trkpt lat="43.4873817" lon="12.0921833"><ele>304.0</ele><time>2026-04-25T14:42:30.952Z</time></trkpt><trkpt lat="43.4873933" lon="12.0922783"><ele>304.0</ele><time>2026-04-25T14:42:32.007Z</time></trkpt><trkpt lat="43.4874083" lon="12.0923717"><ele>304.1428571428571</ele><time>2026-04-25T14:42:32.949Z</time></trkpt><trkpt lat="43.487415" lon="12.0924717"><ele>304.28571428571433</ele><time>2026-04-25T14:42:33.959Z</time></trkpt><trkpt lat="43.4874233" lon="12.0925683"><ele>304.42857142857144</ele><time>2026-04-25T14:42:34.956Z</time></trkpt><trkpt lat="43.487435" lon="12.09267"><ele>304.57142857142856</ele><time>2026-04-25T14:42:35.954Z</time></trkpt><trkpt lat="43.4874433" lon="12.0927733"><ele>304.71428571428567</ele><time>2026-04-25T14:42:36.954Z</time></trkpt><trkpt lat="43.4874467" lon="12.0928717"><ele>304.8571428571429</ele><time>2026-04-25T14:42:38.005Z</time></trkpt><trkpt lat="43.487445" lon="12.0929633"><ele>305.0</ele><time>2026-04-25T14:42:38.949Z</time></trkpt><trkpt lat="43.4874033" lon="12.0931217"><ele>305.0</ele><time>2026-04-25T14:42:40.955Z</time></trkpt><trkpt lat="43.487315" lon="12.0932217"><ele>305.0</ele><time>2026-04-25T14:42:42.955Z</time></trkpt><trkpt lat="43.4872167" lon="12.0932567"><ele>305.0</ele><time>2026-04-25T14:42:44.947Z</time></trkpt><trkpt lat="43.4871217" lon="12.0932717"><ele>305.0</ele><time>2026-04-25T14:42:46.954Z</time></trkpt><trkpt lat="43.4870133" lon="12.0932667"><ele>305.0</ele><time>2026-04-25T14:42:48.953Z</time></trkpt><trkpt lat="43.4869233" lon="12.09327"><ele>304.6</ele><time>2026-04-25T14:42:50.95Z</time></trkpt><trkpt lat="43.4868704" lon="12.0933377"><ele>304.2</ele><time>2026-04-25T14:42:53.946Z</time></trkpt><trkpt lat="43.4868278" lon="12.0934524"><ele>303.8</ele><time>2026-04-25T14:42:56.005Z</time></trkpt><trkpt lat="43.4868083" lon="12.0936173"><ele>303.4</ele><time>2026-04-25T14:42:57.952Z</time></trkpt><trkpt lat="43.4868131" lon="12.0937937"><ele>303.0</ele><time>2026-04-25T14:42:59.949Z</time></trkpt><trkpt lat="43.4868233" lon="12.0938816"><ele>303.0</ele><time>2026-04-25T14:43:00.952Z</time></trkpt><trkpt lat="43.4868341" lon="12.0939734"><ele>303.0</ele><time>2026-04-25T14:43:01.982Z</time></trkpt><trkpt lat="43.4868444" lon="12.0940611"><ele>303.0</ele><time>2026-04-25T14:43:02.953Z</time></trkpt><trkpt lat="43.4868638" lon="12.0942258"><ele>303.0</ele><time>2026-04-25T14:43:04.954Z</time></trkpt><trkpt lat="43.4868776" lon="12.0943684"><ele>303.0</ele><time>2026-04-25T14:43:06.957Z</time></trkpt><trkpt lat="43.4868828" lon="12.0944599"><ele>303.0</ele><time>2026-04-25T14:43:08.93Z</time></trkpt><trkpt lat="43.4868883" lon="12.0945533"><ele>302.0</ele><time>2026-04-25T14:43:18.934Z</time></trkpt><trkpt lat="43.48702" lon="12.09459"><ele>302.0</ele><time>2026-04-25T14:43:50.935Z</time></trkpt><trkpt lat="43.4870983" lon="12.094575"><ele>305.0</ele><time>2026-04-25T14:43:53.948Z</time></trkpt><trkpt lat="43.4871867" lon="12.0945533"><ele>305.0</ele><time>2026-04-25T14:43:56.943Z</time></trkpt><trkpt lat="43.4872633" lon="12.0945367"><ele>305.0</ele><time>2026-04-25T14:43:59.945Z</time></trkpt></trkseg></trk></gpx>